<?xml version="1.0" encoding="UTF-8"?>
<gpx version="1.1" creator="https://www.www-youtrack-es.amenigma.com" xsi:schemaLocation="http://www.topografix.com/GPX/1/1 http://www.topografix.com/GPX/1/1/gpx.xsd http://www.garmin.com/xmlschemas/GpxExtensions/v3 http://www.garmin.com/xmlschemas/GpxExtensionsv3.xsd http://www.garmin.com/xmlschemas/TrackPointExtension/v1 http://www.garmin.com/xmlschemas/TrackPointExtensionv1.xsd" xmlns:gpxtpx="http://www.garmin.com/xmlschemas/TrackPointExtension/v1" xmlns:gpxx="http://www.garmin.com/xmlschemas/GpxExtensions/v3" xmlns:xsi="http://www.w3.org/2001/XMLSchema-instance">
  <metadata>
    <link href="https://www.www-youtrack-es.amenigma.com">
      <text>YouTrack.es</text>
    </link>
    <time>2026-08-31T02:48:53Z</time>
  </metadata>
  <trk>
    <src>https://www.www-youtrack-es.amenigma.com</src>
    <link href="https://www.www-youtrack-es.amenigma.com/ruta/35749-camino-santiago-carretera">
      <text>YouTrack.es</text>
    </link>
    <trkseg>
      <trkpt lat="43.009182" lon="-1.320634">
        <ele>954.235</ele>
        <time>2022-08-31T08:27:31Z</time>
      </trkpt>
      <trkpt lat="43.008743" lon="-1.319861">
        <ele>949.286</ele>
        <time>2022-08-31T08:27:51Z</time>
      </trkpt>
      <trkpt lat="43.007581" lon="-1.319411">
        <ele>942.514</ele>
        <time>2022-08-31T08:28:11Z</time>
      </trkpt>
      <trkpt lat="43.005243" lon="-1.319304">
        <ele>934.908</ele>
        <time>2022-08-31T08:28:51Z</time>
      </trkpt>
      <trkpt lat="43.003706" lon="-1.320055">
        <ele>931.389</ele>
        <time>2022-08-31T08:29:31Z</time>
      </trkpt>
      <trkpt lat="42.992422" lon="-1.331148">
        <ele>896.967</ele>
        <time>2022-08-31T08:30:11Z</time>
      </trkpt>
      <trkpt lat="42.990711" lon="-1.334860">
        <ele>895.437</ele>
        <time>2022-08-31T08:30:31Z</time>
      </trkpt>
      <trkpt lat="42.986709" lon="-1.337392">
        <ele>888.028</ele>
        <time>2022-08-31T08:30:51Z</time>
      </trkpt>
      <trkpt lat="42.982439" lon="-1.342649">
        <ele>878.637</ele>
        <time>2022-08-31T08:31:11Z</time>
      </trkpt>
      <trkpt lat="42.972643" lon="-1.353550">
        <ele>870.671</ele>
        <time>2022-08-31T08:31:31Z</time>
      </trkpt>
      <trkpt lat="42.972682" lon="-1.354258">
        <ele>875.889</ele>
        <time>2022-08-31T08:31:51Z</time>
      </trkpt>
      <trkpt lat="42.975312" lon="-1.357863">
        <ele>862.518</ele>
        <time>2022-08-31T08:32:11Z</time>
      </trkpt>
      <trkpt lat="42.978381" lon="-1.365287">
        <ele>876.762</ele>
        <time>2022-08-31T08:32:31Z</time>
      </trkpt>
      <trkpt lat="42.979441" lon="-1.370791">
        <ele>868.083</ele>
        <time>2022-08-31T08:32:51Z</time>
      </trkpt>
      <trkpt lat="42.980178" lon="-1.373312">
        <ele>873.511</ele>
        <time>2022-08-31T08:33:11Z</time>
      </trkpt>
      <trkpt lat="42.981999" lon="-1.375480">
        <ele>870.308</ele>
        <time>2022-08-31T08:33:51Z</time>
      </trkpt>
      <trkpt lat="42.981583" lon="-1.381134">
        <ele>883.192</ele>
        <time>2022-08-31T08:34:11Z</time>
      </trkpt>
      <trkpt lat="42.981984" lon="-1.382582">
        <ele>890.370</ele>
        <time>2022-08-31T08:34:31Z</time>
      </trkpt>
      <trkpt lat="42.980626" lon="-1.385329">
        <ele>903.770</ele>
        <time>2022-08-31T08:35:31Z</time>
      </trkpt>
      <trkpt lat="42.981748" lon="-1.386305">
        <ele>914.391</ele>
        <time>2022-08-31T08:36:11Z</time>
      </trkpt>
      <trkpt lat="42.980006" lon="-1.386455">
        <ele>922.290</ele>
        <time>2022-08-31T08:37:11Z</time>
      </trkpt>
      <trkpt lat="42.979747" lon="-1.387249">
        <ele>919.614</ele>
        <time>2022-08-31T08:37:51Z</time>
      </trkpt>
      <trkpt lat="42.980155" lon="-1.387689">
        <ele>916.582</ele>
        <time>2022-08-31T08:38:11Z</time>
      </trkpt>
      <trkpt lat="42.978703" lon="-1.388108">
        <ele>904.611</ele>
        <time>2022-08-31T08:39:11Z</time>
      </trkpt>
      <trkpt lat="42.977910" lon="-1.387442">
        <ele>898.459</ele>
        <time>2022-08-31T08:39:51Z</time>
      </trkpt>
      <trkpt lat="42.976379" lon="-1.387389">
        <ele>887.503</ele>
        <time>2022-08-31T08:40:31Z</time>
      </trkpt>
      <trkpt lat="42.975826" lon="-1.387056">
        <ele>884.023</ele>
        <time>2022-08-31T08:40:51Z</time>
      </trkpt>
      <trkpt lat="42.976474" lon="-1.388440">
        <ele>874.908</ele>
        <time>2022-08-31T08:41:31Z</time>
      </trkpt>
      <trkpt lat="42.977337" lon="-1.388977">
        <ele>867.781</ele>
        <time>2022-08-31T08:41:51Z</time>
      </trkpt>
      <trkpt lat="42.978028" lon="-1.392131">
        <ele>852.339</ele>
        <time>2022-08-31T08:42:11Z</time>
      </trkpt>
      <trkpt lat="42.977431" lon="-1.393676">
        <ele>840.289</ele>
        <time>2022-08-31T08:42:31Z</time>
      </trkpt>
      <trkpt lat="42.977384" lon="-1.395800">
        <ele>831.020</ele>
        <time>2022-08-31T08:42:51Z</time>
      </trkpt>
      <trkpt lat="42.976583" lon="-1.397474">
        <ele>821.699</ele>
        <time>2022-08-31T08:43:11Z</time>
      </trkpt>
      <trkpt lat="42.976576" lon="-1.398568">
        <ele>812.513</ele>
        <time>2022-08-31T08:43:51Z</time>
      </trkpt>
      <trkpt lat="42.975916" lon="-1.398364">
        <ele>806.041</ele>
        <time>2022-08-31T08:44:11Z</time>
      </trkpt>
      <trkpt lat="42.974464" lon="-1.399684">
        <ele>797.470</ele>
        <time>2022-08-31T08:44:31Z</time>
      </trkpt>
      <trkpt lat="42.972360" lon="-1.400950">
        <ele>783.366</ele>
        <time>2022-08-31T08:45:11Z</time>
      </trkpt>
      <trkpt lat="42.969448" lon="-1.400682">
        <ele>761.829</ele>
        <time>2022-08-31T08:45:51Z</time>
      </trkpt>
      <trkpt lat="42.968812" lon="-1.401207">
        <ele>761.121</ele>
        <time>2022-08-31T08:46:11Z</time>
      </trkpt>
      <trkpt lat="42.968529" lon="-1.402366">
        <ele>762.608</ele>
        <time>2022-08-31T08:46:31Z</time>
      </trkpt>
      <trkpt lat="42.968616" lon="-1.403407">
        <ele>759.512</ele>
        <time>2022-08-31T08:46:51Z</time>
      </trkpt>
      <trkpt lat="42.970633" lon="-1.405874">
        <ele>754.120</ele>
        <time>2022-08-31T08:47:31Z</time>
      </trkpt>
      <trkpt lat="42.970751" lon="-1.407130">
        <ele>754.770</ele>
        <time>2022-08-31T08:47:51Z</time>
      </trkpt>
      <trkpt lat="42.971120" lon="-1.407913">
        <ele>757.961</ele>
        <time>2022-08-31T08:48:11Z</time>
      </trkpt>
      <trkpt lat="42.970523" lon="-1.409501">
        <ele>765.660</ele>
        <time>2022-08-31T08:48:51Z</time>
      </trkpt>
      <trkpt lat="42.969589" lon="-1.410960">
        <ele>775.454</ele>
        <time>2022-08-31T08:49:11Z</time>
      </trkpt>
      <trkpt lat="42.970123" lon="-1.411818">
        <ele>779.162</ele>
        <time>2022-08-31T08:49:51Z</time>
      </trkpt>
      <trkpt lat="42.970162" lon="-1.412505">
        <ele>783.331</ele>
        <time>2022-08-31T08:50:11Z</time>
      </trkpt>
      <trkpt lat="42.968129" lon="-1.417869">
        <ele>779.668</ele>
        <time>2022-08-31T08:50:31Z</time>
      </trkpt>
      <trkpt lat="42.967941" lon="-1.419039">
        <ele>775.542</ele>
        <time>2022-08-31T08:50:51Z</time>
      </trkpt>
      <trkpt lat="42.968223" lon="-1.420369">
        <ele>774.326</ele>
        <time>2022-08-31T08:51:11Z</time>
      </trkpt>
      <trkpt lat="42.967493" lon="-1.422740">
        <ele>783.808</ele>
        <time>2022-08-31T08:51:51Z</time>
      </trkpt>
      <trkpt lat="42.967352" lon="-1.425626">
        <ele>770.022</ele>
        <time>2022-08-31T08:52:31Z</time>
      </trkpt>
      <trkpt lat="42.966080" lon="-1.428802">
        <ele>752.350</ele>
        <time>2022-08-31T08:53:11Z</time>
      </trkpt>
      <trkpt lat="42.965138" lon="-1.429660">
        <ele>744.320</ele>
        <time>2022-08-31T08:53:31Z</time>
      </trkpt>
      <trkpt lat="42.963827" lon="-1.431801">
        <ele>736.541</ele>
        <time>2022-08-31T08:53:51Z</time>
      </trkpt>
      <trkpt lat="42.963136" lon="-1.432343">
        <ele>732.510</ele>
        <time>2022-08-31T08:54:11Z</time>
      </trkpt>
      <trkpt lat="42.961145" lon="-1.432595">
        <ele>725.364</ele>
        <time>2022-08-31T08:54:31Z</time>
      </trkpt>
      <trkpt lat="42.960081" lon="-1.433394">
        <ele>722.192</ele>
        <time>2022-08-31T08:54:51Z</time>
      </trkpt>
      <trkpt lat="42.958448" lon="-1.433877">
        <ele>718.581</ele>
        <time>2022-08-31T08:55:31Z</time>
      </trkpt>
      <trkpt lat="42.954035" lon="-1.431044">
        <ele>710.577</ele>
        <time>2022-08-31T08:56:31Z</time>
      </trkpt>
      <trkpt lat="42.950941" lon="-1.431270">
        <ele>702.461</ele>
        <time>2022-08-31T08:56:51Z</time>
      </trkpt>
      <trkpt lat="42.949732" lon="-1.432364">
        <ele>696.627</ele>
        <time>2022-08-31T08:57:31Z</time>
      </trkpt>
      <trkpt lat="42.949230" lon="-1.434263">
        <ele>692.108</ele>
        <time>2022-08-31T08:57:51Z</time>
      </trkpt>
      <trkpt lat="42.946795" lon="-1.435990">
        <ele>691.553</ele>
        <time>2022-08-31T08:58:31Z</time>
      </trkpt>
      <trkpt lat="42.945798" lon="-1.437246">
        <ele>687.231</ele>
        <time>2022-08-31T08:58:51Z</time>
      </trkpt>
      <trkpt lat="42.943339" lon="-1.443447">
        <ele>675.631</ele>
        <time>2022-08-31T08:59:11Z</time>
      </trkpt>
      <trkpt lat="42.942421" lon="-1.447277">
        <ele>660.732</ele>
        <time>2022-08-31T08:59:31Z</time>
      </trkpt>
      <trkpt lat="42.942428" lon="-1.448951">
        <ele>658.031</ele>
        <time>2022-08-31T08:59:51Z</time>
      </trkpt>
      <trkpt lat="42.940732" lon="-1.449455">
        <ele>664.275</ele>
        <time>2022-08-31T09:00:51Z</time>
      </trkpt>
      <trkpt lat="42.940724" lon="-1.450399">
        <ele>664.423</ele>
        <time>2022-08-31T09:01:11Z</time>
      </trkpt>
      <trkpt lat="42.941509" lon="-1.452330">
        <ele>662.622</ele>
        <time>2022-08-31T09:01:51Z</time>
      </trkpt>
      <trkpt lat="42.939169" lon="-1.454991">
        <ele>682.971</ele>
        <time>2022-08-31T09:02:31Z</time>
      </trkpt>
      <trkpt lat="42.939593" lon="-1.455474">
        <ele>688.141</ele>
        <time>2022-08-31T09:03:11Z</time>
      </trkpt>
      <trkpt lat="42.939020" lon="-1.456010">
        <ele>689.715</ele>
        <time>2022-08-31T09:03:51Z</time>
      </trkpt>
      <trkpt lat="42.938910" lon="-1.457963">
        <ele>701.408</ele>
        <time>2022-08-31T09:04:51Z</time>
      </trkpt>
      <trkpt lat="42.938054" lon="-1.458875">
        <ele>705.893</ele>
        <time>2022-08-31T09:05:11Z</time>
      </trkpt>
      <trkpt lat="42.938242" lon="-1.459304">
        <ele>707.191</ele>
        <time>2022-08-31T09:05:31Z</time>
      </trkpt>
      <trkpt lat="42.939546" lon="-1.459948">
        <ele>717.491</ele>
        <time>2022-08-31T09:05:51Z</time>
      </trkpt>
      <trkpt lat="42.940104" lon="-1.461171">
        <ele>724.572</ele>
        <time>2022-08-31T09:06:31Z</time>
      </trkpt>
      <trkpt lat="42.942389" lon="-1.461772">
        <ele>739.491</ele>
        <time>2022-08-31T09:07:31Z</time>
      </trkpt>
      <trkpt lat="42.941227" lon="-1.463166">
        <ele>747.555</ele>
        <time>2022-08-31T09:08:11Z</time>
      </trkpt>
      <trkpt lat="42.941203" lon="-1.463917">
        <ele>750.483</ele>
        <time>2022-08-31T09:08:31Z</time>
      </trkpt>
      <trkpt lat="42.941612" lon="-1.464475">
        <ele>753.492</ele>
        <time>2022-08-31T09:09:11Z</time>
      </trkpt>
      <trkpt lat="42.944141" lon="-1.465398">
        <ele>769.315</ele>
        <time>2022-08-31T09:09:51Z</time>
      </trkpt>
      <trkpt lat="42.944038" lon="-1.466492">
        <ele>772.165</ele>
        <time>2022-08-31T09:10:11Z</time>
      </trkpt>
      <trkpt lat="42.944455" lon="-1.467104">
        <ele>777.111</ele>
        <time>2022-08-31T09:10:31Z</time>
      </trkpt>
      <trkpt lat="42.944423" lon="-1.467587">
        <ele>778.508</ele>
        <time>2022-08-31T09:10:51Z</time>
      </trkpt>
      <trkpt lat="42.943449" lon="-1.468434">
        <ele>785.477</ele>
        <time>2022-08-31T09:11:11Z</time>
      </trkpt>
      <trkpt lat="42.942087" lon="-1.468375">
        <ele>793.095</ele>
        <time>2022-08-31T09:12:11Z</time>
      </trkpt>
      <trkpt lat="42.941643" lon="-1.470671">
        <ele>801.245</ele>
        <time>2022-08-31T09:12:31Z</time>
      </trkpt>
      <trkpt lat="42.943591" lon="-1.470623">
        <ele>790.276</ele>
        <time>2022-08-31T09:13:31Z</time>
      </trkpt>
      <trkpt lat="42.944639" lon="-1.471004">
        <ele>782.285</ele>
        <time>2022-08-31T09:14:11Z</time>
      </trkpt>
      <trkpt lat="42.945405" lon="-1.469990">
        <ele>778.569</ele>
        <time>2022-08-31T09:14:31Z</time>
      </trkpt>
      <trkpt lat="42.947494" lon="-1.469695">
        <ele>765.657</ele>
        <time>2022-08-31T09:15:31Z</time>
      </trkpt>
      <trkpt lat="42.947655" lon="-1.470510">
        <ele>762.766</ele>
        <time>2022-08-31T09:15:51Z</time>
      </trkpt>
      <trkpt lat="42.946929" lon="-1.472967">
        <ele>748.264</ele>
        <time>2022-08-31T09:16:31Z</time>
      </trkpt>
      <trkpt lat="42.947070" lon="-1.473724">
        <ele>747.406</ele>
        <time>2022-08-31T09:16:51Z</time>
      </trkpt>
      <trkpt lat="42.946536" lon="-1.474759">
        <ele>740.716</ele>
        <time>2022-08-31T09:17:11Z</time>
      </trkpt>
      <trkpt lat="42.946508" lon="-1.475907">
        <ele>735.008</ele>
        <time>2022-08-31T09:17:51Z</time>
      </trkpt>
      <trkpt lat="42.945821" lon="-1.476690">
        <ele>727.412</ele>
        <time>2022-08-31T09:18:11Z</time>
      </trkpt>
      <trkpt lat="42.945857" lon="-1.477666">
        <ele>722.340</ele>
        <time>2022-08-31T09:18:31Z</time>
      </trkpt>
      <trkpt lat="42.946552" lon="-1.478069">
        <ele>720.530</ele>
        <time>2022-08-31T09:19:11Z</time>
      </trkpt>
      <trkpt lat="42.946398" lon="-1.478396">
        <ele>713.321</ele>
        <time>2022-08-31T09:19:51Z</time>
      </trkpt>
      <trkpt lat="42.945652" lon="-1.477870">
        <ele>710.080</ele>
        <time>2022-08-31T09:20:11Z</time>
      </trkpt>
      <trkpt lat="42.945452" lon="-1.476980">
        <ele>708.174</ele>
        <time>2022-08-31T09:20:31Z</time>
      </trkpt>
      <trkpt lat="42.945326" lon="-1.477361">
        <ele>705.792</ele>
        <time>2022-08-31T09:20:51Z</time>
      </trkpt>
      <trkpt lat="42.945688" lon="-1.478198">
        <ele>702.021</ele>
        <time>2022-08-31T09:21:31Z</time>
      </trkpt>
      <trkpt lat="42.947349" lon="-1.479158">
        <ele>689.847</ele>
        <time>2022-08-31T09:22:31Z</time>
      </trkpt>
      <trkpt lat="42.948495" lon="-1.478782">
        <ele>681.329</ele>
        <time>2022-08-31T09:23:11Z</time>
      </trkpt>
      <trkpt lat="42.949528" lon="-1.477618">
        <ele>675.021</ele>
        <time>2022-08-31T09:23:51Z</time>
      </trkpt>
      <trkpt lat="42.950027" lon="-1.480558">
        <ele>658.208</ele>
        <time>2022-08-31T09:25:11Z</time>
      </trkpt>
      <trkpt lat="42.949575" lon="-1.481920">
        <ele>652.050</ele>
        <time>2022-08-31T09:25:31Z</time>
      </trkpt>
      <trkpt lat="42.948923" lon="-1.482752">
        <ele>648.058</ele>
        <time>2022-08-31T09:25:51Z</time>
      </trkpt>
      <trkpt lat="42.948963" lon="-1.483632">
        <ele>642.478</ele>
        <time>2022-08-31T09:26:11Z</time>
      </trkpt>
      <trkpt lat="42.948040" lon="-1.484050">
        <ele>636.069</ele>
        <time>2022-08-31T09:26:51Z</time>
      </trkpt>
      <trkpt lat="42.947616" lon="-1.485010">
        <ele>628.898</ele>
        <time>2022-08-31T09:27:31Z</time>
      </trkpt>
      <trkpt lat="42.948291" lon="-1.485386">
        <ele>624.632</ele>
        <time>2022-08-31T09:28:11Z</time>
      </trkpt>
      <trkpt lat="42.947722" lon="-1.486754">
        <ele>618.020</ele>
        <time>2022-08-31T09:28:51Z</time>
      </trkpt>
      <trkpt lat="42.946846" lon="-1.486534">
        <ele>610.859</ele>
        <time>2022-08-31T09:29:31Z</time>
      </trkpt>
      <trkpt lat="42.945951" lon="-1.488057">
        <ele>600.139</ele>
        <time>2022-08-31T09:29:51Z</time>
      </trkpt>
      <trkpt lat="42.946363" lon="-1.488862">
        <ele>596.001</ele>
        <time>2022-08-31T09:30:51Z</time>
      </trkpt>
      <trkpt lat="42.945476" lon="-1.489361">
        <ele>589.121</ele>
        <time>2022-08-31T09:31:11Z</time>
      </trkpt>
      <trkpt lat="42.945774" lon="-1.490573">
        <ele>585.808</ele>
        <time>2022-08-31T09:31:31Z</time>
      </trkpt>
      <trkpt lat="42.944859" lon="-1.492676">
        <ele>579.059</ele>
        <time>2022-08-31T09:32:11Z</time>
      </trkpt>
      <trkpt lat="42.944113" lon="-1.493180">
        <ele>572.777</ele>
        <time>2022-08-31T09:32:31Z</time>
      </trkpt>
      <trkpt lat="42.943595" lon="-1.494532">
        <ele>570.997</ele>
        <time>2022-08-31T09:33:11Z</time>
      </trkpt>
      <trkpt lat="42.940465" lon="-1.495203">
        <ele>555.188</ele>
        <time>2022-08-31T09:34:11Z</time>
      </trkpt>
      <trkpt lat="42.935862" lon="-1.503206">
        <ele>530.257</ele>
        <time>2022-08-31T09:35:31Z</time>
      </trkpt>
      <trkpt lat="42.930442" lon="-1.504591">
        <ele>525.831</ele>
        <time>2022-08-31T09:35:51Z</time>
      </trkpt>
      <trkpt lat="42.927842" lon="-1.506001">
        <ele>525.159</ele>
        <time>2022-08-31T09:36:11Z</time>
      </trkpt>
      <trkpt lat="42.923639" lon="-1.509456">
        <ele>527.478</ele>
        <time>2022-08-31T09:36:51Z</time>
      </trkpt>
      <trkpt lat="42.921156" lon="-1.512401">
        <ele>525.227</ele>
        <time>2022-08-31T09:37:11Z</time>
      </trkpt>
      <trkpt lat="42.918725" lon="-1.516001">
        <ele>516.368</ele>
        <time>2022-08-31T09:37:51Z</time>
      </trkpt>
      <trkpt lat="42.915260" lon="-1.519021">
        <ele>516.114</ele>
        <time>2022-08-31T09:38:11Z</time>
      </trkpt>
      <trkpt lat="42.913775" lon="-1.521708">
        <ele>511.208</ele>
        <time>2022-08-31T09:38:31Z</time>
      </trkpt>
      <trkpt lat="42.912034" lon="-1.523087">
        <ele>509.698</ele>
        <time>2022-08-31T09:39:11Z</time>
      </trkpt>
      <trkpt lat="42.911240" lon="-1.524396">
        <ele>508.456</ele>
        <time>2022-08-31T09:39:51Z</time>
      </trkpt>
      <trkpt lat="42.910848" lon="-1.527915">
        <ele>509.776</ele>
        <time>2022-08-31T09:40:11Z</time>
      </trkpt>
      <trkpt lat="42.909079" lon="-1.533982">
        <ele>503.927</ele>
        <time>2022-08-31T09:40:31Z</time>
      </trkpt>
      <trkpt lat="42.908089" lon="-1.535109">
        <ele>500.126</ele>
        <time>2022-08-31T09:41:11Z</time>
      </trkpt>
      <trkpt lat="42.906093" lon="-1.535929">
        <ele>501.160</ele>
        <time>2022-08-31T09:41:31Z</time>
      </trkpt>
      <trkpt lat="42.903736" lon="-1.539009">
        <ele>499.418</ele>
        <time>2022-08-31T09:42:11Z</time>
      </trkpt>
      <trkpt lat="42.903044" lon="-1.541938">
        <ele>502.857</ele>
        <time>2022-08-31T09:42:31Z</time>
      </trkpt>
      <trkpt lat="42.900851" lon="-1.544931">
        <ele>495.186</ele>
        <time>2022-08-31T09:43:11Z</time>
      </trkpt>
      <trkpt lat="42.900105" lon="-1.548107">
        <ele>494.760</ele>
        <time>2022-08-31T09:43:31Z</time>
      </trkpt>
      <trkpt lat="42.897142" lon="-1.553020">
        <ele>490.526</ele>
        <time>2022-08-31T09:43:51Z</time>
      </trkpt>
      <trkpt lat="42.892591" lon="-1.556464">
        <ele>487.108</ele>
        <time>2022-08-31T09:44:31Z</time>
      </trkpt>
      <trkpt lat="42.886585" lon="-1.563513">
        <ele>483.394</ele>
        <time>2022-08-31T09:44:51Z</time>
      </trkpt>
      <trkpt lat="42.885972" lon="-1.563835">
        <ele>481.842</ele>
        <time>2022-08-31T09:45:11Z</time>
      </trkpt>
      <trkpt lat="42.881955" lon="-1.564200">
        <ele>481.542</ele>
        <time>2022-08-31T09:45:51Z</time>
      </trkpt>
      <trkpt lat="42.870240" lon="-1.571399">
        <ele>493.193</ele>
        <time>2022-08-31T09:46:31Z</time>
      </trkpt>
      <trkpt lat="42.868117" lon="-1.571721">
        <ele>488.452</ele>
        <time>2022-08-31T09:46:51Z</time>
      </trkpt>
      <trkpt lat="42.862715" lon="-1.573330">
        <ele>476.376</ele>
        <time>2022-08-31T09:47:31Z</time>
      </trkpt>
      <trkpt lat="42.859805" lon="-1.575390">
        <ele>469.994</ele>
        <time>2022-08-31T09:48:11Z</time>
      </trkpt>
      <trkpt lat="42.853639" lon="-1.582589">
        <ele>465.753</ele>
        <time>2022-08-31T09:49:11Z</time>
      </trkpt>
      <trkpt lat="42.852404" lon="-1.583329">
        <ele>456.398</ele>
        <time>2022-08-31T09:49:31Z</time>
      </trkpt>
      <trkpt lat="42.843979" lon="-1.586409">
        <ele>450.915</ele>
        <time>2022-08-31T09:50:11Z</time>
      </trkpt>
      <trkpt lat="42.840318" lon="-1.587009">
        <ele>447.926</ele>
        <time>2022-08-31T09:51:11Z</time>
      </trkpt>
      <trkpt lat="42.832415" lon="-1.586022">
        <ele>440.308</ele>
        <time>2022-08-31T09:52:51Z</time>
      </trkpt>
      <trkpt lat="42.830930" lon="-1.595276">
        <ele>432.445</ele>
        <time>2022-08-31T09:54:31Z</time>
      </trkpt>
      <trkpt lat="42.829712" lon="-1.597894">
        <ele>430.913</ele>
        <time>2022-08-31T09:55:31Z</time>
      </trkpt>
      <trkpt lat="42.829625" lon="-1.598892">
        <ele>434.063</ele>
        <time>2022-08-31T09:55:51Z</time>
      </trkpt>
      <trkpt lat="42.830157" lon="-1.603805">
        <ele>423.714</ele>
        <time>2022-08-31T09:56:31Z</time>
      </trkpt>
      <trkpt lat="42.829503" lon="-1.605034">
        <ele>421.853</ele>
        <time>2022-08-31T09:56:51Z</time>
      </trkpt>
      <trkpt lat="42.830916" lon="-1.608805">
        <ele>429.877</ele>
        <time>2022-08-31T09:57:31Z</time>
      </trkpt>
      <trkpt lat="42.824680" lon="-1.617748">
        <ele>425.065</ele>
        <time>2022-08-31T09:58:11Z</time>
      </trkpt>
      <trkpt lat="42.825994" lon="-1.621374">
        <ele>422.034</ele>
        <time>2022-08-31T09:58:51Z</time>
      </trkpt>
      <trkpt lat="42.826246" lon="-1.621503">
        <ele>422.241</ele>
        <time>2022-08-31T09:59:11Z</time>
      </trkpt>
      <trkpt lat="42.826167" lon="-1.621846">
        <ele>422.281</ele>
        <time>2022-08-31T09:59:51Z</time>
      </trkpt>
      <trkpt lat="42.824987" lon="-1.622307">
        <ele>421.709</ele>
        <time>2022-08-31T10:00:11Z</time>
      </trkpt>
      <trkpt lat="42.823405" lon="-1.622146">
        <ele>421.008</ele>
        <time>2022-08-31T10:00:51Z</time>
      </trkpt>
      <trkpt lat="42.821170" lon="-1.629871">
        <ele>419.030</ele>
        <time>2022-08-31T10:01:11Z</time>
      </trkpt>
      <trkpt lat="42.821548" lon="-1.634291">
        <ele>417.068</ele>
        <time>2022-08-31T10:01:31Z</time>
      </trkpt>
      <trkpt lat="42.820745" lon="-1.637371">
        <ele>415.528</ele>
        <time>2022-08-31T10:01:51Z</time>
      </trkpt>
      <trkpt lat="42.821147" lon="-1.637617">
        <ele>415.749</ele>
        <time>2022-08-31T10:02:11Z</time>
      </trkpt>
      <trkpt lat="42.820808" lon="-1.638594">
        <ele>416.968</ele>
        <time>2022-08-31T10:02:31Z</time>
      </trkpt>
      <trkpt lat="42.820651" lon="-1.638486">
        <ele>416.672</ele>
        <time>2022-08-31T10:02:51Z</time>
      </trkpt>
      <trkpt lat="42.820651" lon="-1.639313">
        <ele>418.850</ele>
        <time>2022-08-31T10:03:11Z</time>
      </trkpt>
      <trkpt lat="42.822579" lon="-1.640407">
        <ele>419.949</ele>
        <time>2022-08-31T10:03:51Z</time>
      </trkpt>
      <trkpt lat="42.822878" lon="-1.645857">
        <ele>412.491</ele>
        <time>2022-08-31T10:05:11Z</time>
      </trkpt>
      <trkpt lat="42.822524" lon="-1.645836">
        <ele>412.081</ele>
        <time>2022-08-31T10:05:31Z</time>
      </trkpt>
      <trkpt lat="42.821383" lon="-1.649269">
        <ele>411.019</ele>
        <time>2022-08-31T10:06:11Z</time>
      </trkpt>
      <trkpt lat="42.820745" lon="-1.648786">
        <ele>411.008</ele>
        <time>2022-08-31T10:06:31Z</time>
      </trkpt>
      <trkpt lat="42.819565" lon="-1.648582">
        <ele>416.735</ele>
        <time>2022-08-31T10:07:11Z</time>
      </trkpt>
      <trkpt lat="42.820084" lon="-1.646211">
        <ele>429.753</ele>
        <time>2022-08-31T10:07:31Z</time>
      </trkpt>
      <trkpt lat="42.819022" lon="-1.645514">
        <ele>438.343</ele>
        <time>2022-08-31T10:08:11Z</time>
      </trkpt>
      <trkpt lat="42.818251" lon="-1.644022">
        <ele>444.394</ele>
        <time>2022-08-31T10:08:31Z</time>
      </trkpt>
      <trkpt lat="42.818298" lon="-1.645278">
        <ele>446.123</ele>
        <time>2022-08-31T10:09:31Z</time>
      </trkpt>
      <trkpt lat="42.816826" lon="-1.649548">
        <ele>445.477</ele>
        <time>2022-08-31T10:10:11Z</time>
      </trkpt>
      <trkpt lat="42.815976" lon="-1.648636">
        <ele>447.045</ele>
        <time>2022-08-31T10:10:31Z</time>
      </trkpt>
      <trkpt lat="42.815622" lon="-1.648732">
        <ele>447.024</ele>
        <time>2022-08-31T10:10:51Z</time>
      </trkpt>
      <trkpt lat="42.815646" lon="-1.651189">
        <ele>445.963</ele>
        <time>2022-08-31T10:11:11Z</time>
      </trkpt>
      <trkpt lat="42.810215" lon="-1.657584">
        <ele>445.044</ele>
        <time>2022-08-31T10:11:51Z</time>
      </trkpt>
      <trkpt lat="42.808909" lon="-1.653550">
        <ele>448.018</ele>
        <time>2022-08-31T10:12:31Z</time>
      </trkpt>
      <trkpt lat="42.806351" lon="-1.658324">
        <ele>443.008</ele>
        <time>2022-08-31T10:13:11Z</time>
      </trkpt>
      <trkpt lat="42.804650" lon="-1.660454">
        <ele>430.662</ele>
        <time>2022-08-31T10:13:51Z</time>
      </trkpt>
      <trkpt lat="42.802671" lon="-1.662063">
        <ele>421.440</ele>
        <time>2022-08-31T10:14:31Z</time>
      </trkpt>
      <trkpt lat="42.801718" lon="-1.663506">
        <ele>412.120</ele>
        <time>2022-08-31T10:15:11Z</time>
      </trkpt>
      <trkpt lat="42.801171" lon="-1.663688">
        <ele>410.921</ele>
        <time>2022-08-31T10:15:31Z</time>
      </trkpt>
      <trkpt lat="42.800762" lon="-1.665330">
        <ele>410.980</ele>
        <time>2022-08-31T10:15:51Z</time>
      </trkpt>
      <trkpt lat="42.797589" lon="-1.667197">
        <ele>410.514</ele>
        <time>2022-08-31T10:16:31Z</time>
      </trkpt>
      <trkpt lat="42.796093" lon="-1.669074">
        <ele>413.072</ele>
        <time>2022-08-31T10:16:51Z</time>
      </trkpt>
      <trkpt lat="42.795172" lon="-1.671435">
        <ele>415.091</ele>
        <time>2022-08-31T10:17:11Z</time>
      </trkpt>
      <trkpt lat="42.794023" lon="-1.672808">
        <ele>418.624</ele>
        <time>2022-08-31T10:17:31Z</time>
      </trkpt>
      <trkpt lat="42.791118" lon="-1.674600">
        <ele>431.504</ele>
        <time>2022-08-31T10:18:11Z</time>
      </trkpt>
      <trkpt lat="42.788380" lon="-1.675265">
        <ele>460.014</ele>
        <time>2022-08-31T10:18:51Z</time>
      </trkpt>
      <trkpt lat="42.787896" lon="-1.676241">
        <ele>463.908</ele>
        <time>2022-08-31T10:19:31Z</time>
      </trkpt>
      <trkpt lat="42.786652" lon="-1.676979">
        <ele>457.068</ele>
        <time>2022-08-31T10:19:51Z</time>
      </trkpt>
      <trkpt lat="42.783504" lon="-1.677411">
        <ele>447.676</ele>
        <time>2022-08-31T10:21:11Z</time>
      </trkpt>
      <trkpt lat="42.782228" lon="-1.678205">
        <ele>436.956</ele>
        <time>2022-08-31T10:21:31Z</time>
      </trkpt>
      <trkpt lat="42.781260" lon="-1.678344">
        <ele>433.597</ele>
        <time>2022-08-31T10:21:51Z</time>
      </trkpt>
      <trkpt lat="42.780764" lon="-1.679041">
        <ele>432.636</ele>
        <time>2022-08-31T10:22:31Z</time>
      </trkpt>
      <trkpt lat="42.781815" lon="-1.682670">
        <ele>433.080</ele>
        <time>2022-08-31T10:22:51Z</time>
      </trkpt>
      <trkpt lat="42.780118" lon="-1.686144">
        <ele>437.158</ele>
        <time>2022-08-31T10:23:51Z</time>
      </trkpt>
      <trkpt lat="42.778252" lon="-1.688558">
        <ele>443.297</ele>
        <time>2022-08-31T10:24:31Z</time>
      </trkpt>
      <trkpt lat="42.777763" lon="-1.693482">
        <ele>462.135</ele>
        <time>2022-08-31T10:24:51Z</time>
      </trkpt>
      <trkpt lat="42.775763" lon="-1.694271">
        <ele>473.786</ele>
        <time>2022-08-31T10:25:11Z</time>
      </trkpt>
      <trkpt lat="42.772578" lon="-1.694319">
        <ele>477.514</ele>
        <time>2022-08-31T10:25:31Z</time>
      </trkpt>
      <trkpt lat="42.770707" lon="-1.695178">
        <ele>485.708</ele>
        <time>2022-08-31T10:25:51Z</time>
      </trkpt>
      <trkpt lat="42.771755" lon="-1.695746">
        <ele>486.779</ele>
        <time>2022-08-31T10:26:11Z</time>
      </trkpt>
      <trkpt lat="42.772802" lon="-1.697044">
        <ele>482.957</ele>
        <time>2022-08-31T10:26:31Z</time>
      </trkpt>
      <trkpt lat="42.775220" lon="-1.698804">
        <ele>472.417</ele>
        <time>2022-08-31T10:26:51Z</time>
      </trkpt>
      <trkpt lat="42.779913" lon="-1.704319">
        <ele>462.278</ele>
        <time>2022-08-31T10:27:31Z</time>
      </trkpt>
      <trkpt lat="42.779937" lon="-1.704662">
        <ele>461.667</ele>
        <time>2022-08-31T10:27:51Z</time>
      </trkpt>
      <trkpt lat="42.779429" lon="-1.704715">
        <ele>461.861</ele>
        <time>2022-08-31T10:28:31Z</time>
      </trkpt>
      <trkpt lat="42.778161" lon="-1.706810">
        <ele>453.349</ele>
        <time>2022-08-31T10:29:11Z</time>
      </trkpt>
      <trkpt lat="42.777464" lon="-1.707258">
        <ele>454.118</ele>
        <time>2022-08-31T10:29:31Z</time>
      </trkpt>
      <trkpt lat="42.776897" lon="-1.708438">
        <ele>456.794</ele>
        <time>2022-08-31T10:29:51Z</time>
      </trkpt>
      <trkpt lat="42.770227" lon="-1.716635">
        <ele>481.357</ele>
        <time>2022-08-31T10:30:31Z</time>
      </trkpt>
      <trkpt lat="42.767769" lon="-1.721313">
        <ele>485.722</ele>
        <time>2022-08-31T10:30:51Z</time>
      </trkpt>
      <trkpt lat="42.768037" lon="-1.722963">
        <ele>478.008</ele>
        <time>2022-08-31T10:31:51Z</time>
      </trkpt>
      <trkpt lat="42.765403" lon="-1.726018">
        <ele>505.755</ele>
        <time>2022-08-31T10:32:11Z</time>
      </trkpt>
      <trkpt lat="42.764231" lon="-1.728053">
        <ele>516.383</ele>
        <time>2022-08-31T10:32:31Z</time>
      </trkpt>
      <trkpt lat="42.763593" lon="-1.728469">
        <ele>519.553</ele>
        <time>2022-08-31T10:32:51Z</time>
      </trkpt>
      <trkpt lat="42.763396" lon="-1.729247">
        <ele>520.254</ele>
        <time>2022-08-31T10:33:11Z</time>
      </trkpt>
      <trkpt lat="42.758676" lon="-1.733496">
        <ele>517.543</ele>
        <time>2022-08-31T10:34:11Z</time>
      </trkpt>
      <trkpt lat="42.754827" lon="-1.740984">
        <ele>524.787</ele>
        <time>2022-08-31T10:34:31Z</time>
      </trkpt>
      <trkpt lat="42.751424" lon="-1.743624">
        <ele>516.645</ele>
        <time>2022-08-31T10:34:51Z</time>
      </trkpt>
      <trkpt lat="42.750727" lon="-1.744847">
        <ele>523.484</ele>
        <time>2022-08-31T10:35:31Z</time>
      </trkpt>
      <trkpt lat="42.750250" lon="-1.746966">
        <ele>540.226</ele>
        <time>2022-08-31T10:35:51Z</time>
      </trkpt>
      <trkpt lat="42.749557" lon="-1.748285">
        <ele>544.347</ele>
        <time>2022-08-31T10:36:11Z</time>
      </trkpt>
      <trkpt lat="42.747942" lon="-1.749358">
        <ele>551.711</ele>
        <time>2022-08-31T10:36:31Z</time>
      </trkpt>
      <trkpt lat="42.747572" lon="-1.750023">
        <ele>555.708</ele>
        <time>2022-08-31T10:36:51Z</time>
      </trkpt>
      <trkpt lat="42.747516" lon="-1.751434">
        <ele>562.968</ele>
        <time>2022-08-31T10:37:11Z</time>
      </trkpt>
      <trkpt lat="42.748048" lon="-1.754014">
        <ele>576.156</ele>
        <time>2022-08-31T10:37:31Z</time>
      </trkpt>
      <trkpt lat="42.747820" lon="-1.755323">
        <ele>581.246</ele>
        <time>2022-08-31T10:37:51Z</time>
      </trkpt>
      <trkpt lat="42.746539" lon="-1.756868">
        <ele>591.557</ele>
        <time>2022-08-31T10:38:31Z</time>
      </trkpt>
      <trkpt lat="42.744940" lon="-1.757378">
        <ele>604.846</ele>
        <time>2022-08-31T10:39:11Z</time>
      </trkpt>
      <trkpt lat="42.743427" lon="-1.759186">
        <ele>624.590</ele>
        <time>2022-08-31T10:39:31Z</time>
      </trkpt>
      <trkpt lat="42.743017" lon="-1.760108">
        <ele>631.378</ele>
        <time>2022-08-31T10:39:51Z</time>
      </trkpt>
      <trkpt lat="42.742427" lon="-1.763563">
        <ele>655.427</ele>
        <time>2022-08-31T10:40:31Z</time>
      </trkpt>
      <trkpt lat="42.741394" lon="-1.765012">
        <ele>668.419</ele>
        <time>2022-08-31T10:40:51Z</time>
      </trkpt>
      <trkpt lat="42.740583" lon="-1.765290">
        <ele>674.909</ele>
        <time>2022-08-31T10:41:11Z</time>
      </trkpt>
      <trkpt lat="42.738179" lon="-1.764776">
        <ele>661.919</ele>
        <time>2022-08-31T10:41:51Z</time>
      </trkpt>
      <trkpt lat="42.736911" lon="-1.764035">
        <ele>650.608</ele>
        <time>2022-08-31T10:42:11Z</time>
      </trkpt>
      <trkpt lat="42.734649" lon="-1.763424">
        <ele>629.847</ele>
        <time>2022-08-31T10:42:51Z</time>
      </trkpt>
      <trkpt lat="42.732285" lon="-1.763670">
        <ele>602.565</ele>
        <time>2022-08-31T10:43:31Z</time>
      </trkpt>
      <trkpt lat="42.729952" lon="-1.765827">
        <ele>577.515</ele>
        <time>2022-08-31T10:44:11Z</time>
      </trkpt>
      <trkpt lat="42.726812" lon="-1.766637">
        <ele>552.216</ele>
        <time>2022-08-31T10:45:11Z</time>
      </trkpt>
      <trkpt lat="42.726437" lon="-1.764405">
        <ele>548.925</ele>
        <time>2022-08-31T10:46:11Z</time>
      </trkpt>
      <trkpt lat="42.726063" lon="-1.764164">
        <ele>547.679</ele>
        <time>2022-08-31T10:46:31Z</time>
      </trkpt>
      <trkpt lat="42.726083" lon="-1.763526">
        <ele>546.257</ele>
        <time>2022-08-31T10:46:51Z</time>
      </trkpt>
      <trkpt lat="42.725042" lon="-1.762211">
        <ele>541.976</ele>
        <time>2022-08-31T10:47:31Z</time>
      </trkpt>
      <trkpt lat="42.724447" lon="-1.762040">
        <ele>541.658</ele>
        <time>2022-08-31T10:47:51Z</time>
      </trkpt>
      <trkpt lat="42.724286" lon="-1.762286">
        <ele>541.552</ele>
        <time>2022-08-31T10:48:11Z</time>
      </trkpt>
      <trkpt lat="42.719533" lon="-1.762158">
        <ele>509.817</ele>
        <time>2022-08-31T10:48:51Z</time>
      </trkpt>
      <trkpt lat="42.714354" lon="-1.758671">
        <ele>481.108</ele>
        <time>2022-08-31T10:49:31Z</time>
      </trkpt>
      <trkpt lat="42.712509" lon="-1.758488">
        <ele>485.151</ele>
        <time>2022-08-31T10:49:51Z</time>
      </trkpt>
      <trkpt lat="42.710751" lon="-1.759497">
        <ele>492.139</ele>
        <time>2022-08-31T10:50:31Z</time>
      </trkpt>
      <trkpt lat="42.710050" lon="-1.759540">
        <ele>492.719</ele>
        <time>2022-08-31T10:50:51Z</time>
      </trkpt>
      <trkpt lat="42.708804" lon="-1.761439">
        <ele>485.620</ele>
        <time>2022-08-31T10:51:11Z</time>
      </trkpt>
      <trkpt lat="42.708221" lon="-1.761203">
        <ele>486.889</ele>
        <time>2022-08-31T10:51:31Z</time>
      </trkpt>
      <trkpt lat="42.705477" lon="-1.763821">
        <ele>463.363</ele>
        <time>2022-08-31T10:52:11Z</time>
      </trkpt>
      <trkpt lat="42.703735" lon="-1.764625">
        <ele>449.751</ele>
        <time>2022-08-31T10:52:31Z</time>
      </trkpt>
      <trkpt lat="42.698633" lon="-1.765763">
        <ele>433.890</ele>
        <time>2022-08-31T10:52:51Z</time>
      </trkpt>
      <trkpt lat="42.697096" lon="-1.766675">
        <ele>432.436</ele>
        <time>2022-08-31T10:53:11Z</time>
      </trkpt>
      <trkpt lat="42.694628" lon="-1.769207">
        <ele>426.617</ele>
        <time>2022-08-31T10:53:31Z</time>
      </trkpt>
      <trkpt lat="42.693500" lon="-1.769743">
        <ele>425.518</ele>
        <time>2022-08-31T10:53:51Z</time>
      </trkpt>
      <trkpt lat="42.691978" lon="-1.769915">
        <ele>431.908</ele>
        <time>2022-08-31T10:54:11Z</time>
      </trkpt>
      <trkpt lat="42.687727" lon="-1.772715">
        <ele>431.199</ele>
        <time>2022-08-31T10:55:11Z</time>
      </trkpt>
      <trkpt lat="42.684494" lon="-1.776170">
        <ele>397.527</ele>
        <time>2022-08-31T10:55:31Z</time>
      </trkpt>
      <trkpt lat="42.676260" lon="-1.782178">
        <ele>376.687</ele>
        <time>2022-08-31T10:56:11Z</time>
      </trkpt>
      <trkpt lat="42.676299" lon="-1.785321">
        <ele>375.338</ele>
        <time>2022-08-31T10:56:31Z</time>
      </trkpt>
      <trkpt lat="42.677214" lon="-1.795127">
        <ele>364.587</ele>
        <time>2022-08-31T10:56:51Z</time>
      </trkpt>
      <trkpt lat="42.677443" lon="-1.803528">
        <ele>357.411</ele>
        <time>2022-08-31T10:57:31Z</time>
      </trkpt>
      <trkpt lat="42.678121" lon="-1.805288">
        <ele>358.619</ele>
        <time>2022-08-31T10:58:11Z</time>
      </trkpt>
      <trkpt lat="42.675601" lon="-1.807618">
        <ele>353.428</ele>
        <time>2022-08-31T10:58:31Z</time>
      </trkpt>
      <trkpt lat="42.673870" lon="-1.810105">
        <ele>352.236</ele>
        <time>2022-08-31T10:58:51Z</time>
      </trkpt>
      <trkpt lat="42.673317" lon="-1.812927">
        <ele>348.017</ele>
        <time>2022-08-31T10:59:11Z</time>
      </trkpt>
      <trkpt lat="42.671637" lon="-1.812497">
        <ele>346.018</ele>
        <time>2022-08-31T10:59:51Z</time>
      </trkpt>
      <trkpt lat="42.671385" lon="-1.812712">
        <ele>345.208</ele>
        <time>2022-08-31T11:00:11Z</time>
      </trkpt>
      <trkpt lat="42.670470" lon="-1.817293">
        <ele>340.579</ele>
        <time>2022-08-31T11:00:31Z</time>
      </trkpt>
      <trkpt lat="42.668237" lon="-1.823816">
        <ele>344.617</ele>
        <time>2022-08-31T11:01:11Z</time>
      </trkpt>
      <trkpt lat="42.667953" lon="-1.826499">
        <ele>349.477</ele>
        <time>2022-08-31T11:01:31Z</time>
      </trkpt>
      <trkpt lat="42.668095" lon="-1.826906">
        <ele>352.338</ele>
        <time>2022-08-31T11:01:51Z</time>
      </trkpt>
      <trkpt lat="42.667898" lon="-1.827209">
        <ele>351.667</ele>
        <time>2022-08-31T11:02:11Z</time>
      </trkpt>
      <trkpt lat="42.668667" lon="-1.828006">
        <ele>351.231</ele>
        <time>2022-08-31T11:02:31Z</time>
      </trkpt>
      <trkpt lat="42.669866" lon="-1.828607">
        <ele>357.449</ele>
        <time>2022-08-31T11:02:51Z</time>
      </trkpt>
      <trkpt lat="42.670422" lon="-1.829782">
        <ele>364.718</ele>
        <time>2022-08-31T11:03:31Z</time>
      </trkpt>
      <trkpt lat="42.669010" lon="-1.830742">
        <ele>379.176</ele>
        <time>2022-08-31T11:04:11Z</time>
      </trkpt>
      <trkpt lat="42.667995" lon="-1.832228">
        <ele>387.290</ele>
        <time>2022-08-31T11:04:31Z</time>
      </trkpt>
      <trkpt lat="42.667180" lon="-1.834261">
        <ele>392.619</ele>
        <time>2022-08-31T11:04:51Z</time>
      </trkpt>
      <trkpt lat="42.666841" lon="-1.836450">
        <ele>402.008</ele>
        <time>2022-08-31T11:05:11Z</time>
      </trkpt>
      <trkpt lat="42.668707" lon="-1.839985">
        <ele>423.473</ele>
        <time>2022-08-31T11:06:11Z</time>
      </trkpt>
      <trkpt lat="42.668561" lon="-1.840543">
        <ele>425.321</ele>
        <time>2022-08-31T11:06:31Z</time>
      </trkpt>
      <trkpt lat="42.667697" lon="-1.841283">
        <ele>433.851</ele>
        <time>2022-08-31T11:06:51Z</time>
      </trkpt>
      <trkpt lat="42.667574" lon="-1.842999">
        <ele>442.952</ele>
        <time>2022-08-31T11:07:11Z</time>
      </trkpt>
      <trkpt lat="42.667922" lon="-1.844383">
        <ele>449.531</ele>
        <time>2022-08-31T11:07:31Z</time>
      </trkpt>
      <trkpt lat="42.669014" lon="-1.845810">
        <ele>456.925</ele>
        <time>2022-08-31T11:07:51Z</time>
      </trkpt>
      <trkpt lat="42.669034" lon="-1.846454">
        <ele>458.793</ele>
        <time>2022-08-31T11:08:31Z</time>
      </trkpt>
      <trkpt lat="42.667866" lon="-1.847581">
        <ele>472.182</ele>
        <time>2022-08-31T11:09:11Z</time>
      </trkpt>
      <trkpt lat="42.667677" lon="-1.848224">
        <ele>475.844</ele>
        <time>2022-08-31T11:09:31Z</time>
      </trkpt>
      <trkpt lat="42.668340" lon="-1.850789">
        <ele>494.505</ele>
        <time>2022-08-31T11:09:51Z</time>
      </trkpt>
      <trkpt lat="42.667997" lon="-1.853090">
        <ele>490.515</ele>
        <time>2022-08-31T11:10:11Z</time>
      </trkpt>
      <trkpt lat="42.668087" lon="-1.854007">
        <ele>490.408</ele>
        <time>2022-08-31T11:10:31Z</time>
      </trkpt>
      <trkpt lat="42.668663" lon="-1.855381">
        <ele>489.740</ele>
        <time>2022-08-31T11:10:51Z</time>
      </trkpt>
      <trkpt lat="42.668553" lon="-1.857677">
        <ele>476.558</ele>
        <time>2022-08-31T11:11:11Z</time>
      </trkpt>
      <trkpt lat="42.669065" lon="-1.858610">
        <ele>473.088</ele>
        <time>2022-08-31T11:11:31Z</time>
      </trkpt>
      <trkpt lat="42.669381" lon="-1.858706">
        <ele>473.959</ele>
        <time>2022-08-31T11:11:51Z</time>
      </trkpt>
      <trkpt lat="42.669365" lon="-1.859082">
        <ele>471.158</ele>
        <time>2022-08-31T11:12:11Z</time>
      </trkpt>
      <trkpt lat="42.671621" lon="-1.862816">
        <ele>464.342</ele>
        <time>2022-08-31T11:12:51Z</time>
      </trkpt>
      <trkpt lat="42.671353" lon="-1.865155">
        <ele>461.980</ele>
        <time>2022-08-31T11:13:11Z</time>
      </trkpt>
      <trkpt lat="42.675045" lon="-1.880422">
        <ele>464.929</ele>
        <time>2022-08-31T11:13:51Z</time>
      </trkpt>
      <trkpt lat="42.675392" lon="-1.883554">
        <ele>473.365</ele>
        <time>2022-08-31T11:14:31Z</time>
      </trkpt>
      <trkpt lat="42.675786" lon="-1.883672">
        <ele>472.168</ele>
        <time>2022-08-31T11:15:11Z</time>
      </trkpt>
      <trkpt lat="42.675558" lon="-1.884123">
        <ele>472.014</ele>
        <time>2022-08-31T11:15:31Z</time>
      </trkpt>
      <trkpt lat="42.676220" lon="-1.885067">
        <ele>471.808</ele>
        <time>2022-08-31T11:15:51Z</time>
      </trkpt>
      <trkpt lat="42.676930" lon="-1.887825">
        <ele>470.832</ele>
        <time>2022-08-31T11:16:11Z</time>
      </trkpt>
      <trkpt lat="42.677766" lon="-1.889745">
        <ele>459.080</ele>
        <time>2022-08-31T11:16:31Z</time>
      </trkpt>
      <trkpt lat="42.678224" lon="-1.891848">
        <ele>456.540</ele>
        <time>2022-08-31T11:17:31Z</time>
      </trkpt>
      <trkpt lat="42.677608" lon="-1.896654">
        <ele>454.271</ele>
        <time>2022-08-31T11:17:51Z</time>
      </trkpt>
      <trkpt lat="42.675463" lon="-1.903607">
        <ele>418.790</ele>
        <time>2022-08-31T11:18:31Z</time>
      </trkpt>
      <trkpt lat="42.673475" lon="-1.907061">
        <ele>406.494</ele>
        <time>2022-08-31T11:18:51Z</time>
      </trkpt>
      <trkpt lat="42.673089" lon="-1.909658">
        <ele>392.892</ele>
        <time>2022-08-31T11:19:11Z</time>
      </trkpt>
      <trkpt lat="42.673862" lon="-1.913188">
        <ele>375.731</ele>
        <time>2022-08-31T11:19:51Z</time>
      </trkpt>
      <trkpt lat="42.677238" lon="-1.923262">
        <ele>388.311</ele>
        <time>2022-08-31T11:20:31Z</time>
      </trkpt>
      <trkpt lat="42.678594" lon="-1.925204">
        <ele>384.221</ele>
        <time>2022-08-31T11:21:31Z</time>
      </trkpt>
      <trkpt lat="42.679186" lon="-1.926717">
        <ele>382.203</ele>
        <time>2022-08-31T11:21:51Z</time>
      </trkpt>
      <trkpt lat="42.679265" lon="-1.928680">
        <ele>383.208</ele>
        <time>2022-08-31T11:22:11Z</time>
      </trkpt>
      <trkpt lat="42.678772" lon="-1.931231">
        <ele>385.337</ele>
        <time>2022-08-31T11:22:31Z</time>
      </trkpt>
      <trkpt lat="42.678914" lon="-1.934039">
        <ele>397.665</ele>
        <time>2022-08-31T11:22:51Z</time>
      </trkpt>
      <trkpt lat="42.678677" lon="-1.937193">
        <ele>412.195</ele>
        <time>2022-08-31T11:23:11Z</time>
      </trkpt>
      <trkpt lat="42.678011" lon="-1.939516">
        <ele>424.876</ele>
        <time>2022-08-31T11:23:31Z</time>
      </trkpt>
      <trkpt lat="42.675916" lon="-1.941549">
        <ele>441.465</ele>
        <time>2022-08-31T11:23:51Z</time>
      </trkpt>
      <trkpt lat="42.674852" lon="-1.944768">
        <ele>449.919</ele>
        <time>2022-08-31T11:24:31Z</time>
      </trkpt>
      <trkpt lat="42.673144" lon="-1.945776">
        <ele>448.657</ele>
        <time>2022-08-31T11:24:51Z</time>
      </trkpt>
      <trkpt lat="42.670249" lon="-1.949607">
        <ele>466.376</ele>
        <time>2022-08-31T11:25:11Z</time>
      </trkpt>
      <trkpt lat="42.668407" lon="-1.954628">
        <ele>479.399</ele>
        <time>2022-08-31T11:25:51Z</time>
      </trkpt>
      <trkpt lat="42.668620" lon="-1.955304">
        <ele>478.807</ele>
        <time>2022-08-31T11:26:11Z</time>
      </trkpt>
      <trkpt lat="42.668206" lon="-1.955363">
        <ele>479.827</ele>
        <time>2022-08-31T11:26:51Z</time>
      </trkpt>
      <trkpt lat="42.666746" lon="-1.961231">
        <ele>490.608</ele>
        <time>2022-08-31T11:27:31Z</time>
      </trkpt>
      <trkpt lat="42.666383" lon="-1.964557">
        <ele>490.685</ele>
        <time>2022-08-31T11:27:51Z</time>
      </trkpt>
      <trkpt lat="42.666841" lon="-1.972142">
        <ele>469.223</ele>
        <time>2022-08-31T11:28:31Z</time>
      </trkpt>
      <trkpt lat="42.666446" lon="-1.973687">
        <ele>464.843</ele>
        <time>2022-08-31T11:28:51Z</time>
      </trkpt>
      <trkpt lat="42.665807" lon="-1.974792">
        <ele>458.844</ele>
        <time>2022-08-31T11:29:11Z</time>
      </trkpt>
      <trkpt lat="42.664955" lon="-1.975318">
        <ele>455.583</ele>
        <time>2022-08-31T11:29:31Z</time>
      </trkpt>
      <trkpt lat="42.664798" lon="-1.975876">
        <ele>452.637</ele>
        <time>2022-08-31T11:30:11Z</time>
      </trkpt>
      <trkpt lat="42.665066" lon="-1.975970">
        <ele>452.765</ele>
        <time>2022-08-31T11:30:51Z</time>
      </trkpt>
      <trkpt lat="42.665811" lon="-1.978116">
        <ele>455.044</ele>
        <time>2022-08-31T11:31:31Z</time>
      </trkpt>
      <trkpt lat="42.663756" lon="-1.991143">
        <ele>426.586</ele>
        <time>2022-08-31T11:31:51Z</time>
      </trkpt>
      <trkpt lat="42.662028" lon="-1.994963">
        <ele>443.160</ele>
        <time>2022-08-31T11:33:31Z</time>
      </trkpt>
      <trkpt lat="42.661508" lon="-2.004586">
        <ele>450.126</ele>
        <time>2022-08-31T11:34:51Z</time>
      </trkpt>
      <trkpt lat="42.662454" lon="-2.006582">
        <ele>431.808</ele>
        <time>2022-08-31T11:35:31Z</time>
      </trkpt>
      <trkpt lat="42.664727" lon="-2.007548">
        <ele>419.154</ele>
        <time>2022-08-31T11:36:11Z</time>
      </trkpt>
      <trkpt lat="42.665839" lon="-2.008835">
        <ele>419.562</ele>
        <time>2022-08-31T11:36:51Z</time>
      </trkpt>
      <trkpt lat="42.665429" lon="-2.013609">
        <ele>419.272</ele>
        <time>2022-08-31T11:37:11Z</time>
      </trkpt>
      <trkpt lat="42.664502" lon="-2.015584">
        <ele>420.343</ele>
        <time>2022-08-31T11:37:31Z</time>
      </trkpt>
      <trkpt lat="42.664403" lon="-2.017912">
        <ele>419.112</ele>
        <time>2022-08-31T11:37:51Z</time>
      </trkpt>
      <trkpt lat="42.666178" lon="-2.020798">
        <ele>421.556</ele>
        <time>2022-08-31T11:38:31Z</time>
      </trkpt>
      <trkpt lat="42.670407" lon="-2.023169">
        <ele>420.074</ele>
        <time>2022-08-31T11:39:11Z</time>
      </trkpt>
      <trkpt lat="42.670860" lon="-2.024124">
        <ele>420.113</ele>
        <time>2022-08-31T11:39:31Z</time>
      </trkpt>
      <trkpt lat="42.670474" lon="-2.025679">
        <ele>418.578</ele>
        <time>2022-08-31T11:40:11Z</time>
      </trkpt>
      <trkpt lat="42.666508" lon="-2.032125">
        <ele>428.133</ele>
        <time>2022-08-31T11:41:11Z</time>
      </trkpt>
      <trkpt lat="42.664206" lon="-2.032471">
        <ele>437.826</ele>
        <time>2022-08-31T11:42:11Z</time>
      </trkpt>
      <trkpt lat="42.664048" lon="-2.032873">
        <ele>438.408</ele>
        <time>2022-08-31T11:42:31Z</time>
      </trkpt>
      <trkpt lat="42.663768" lon="-2.032734">
        <ele>439.483</ele>
        <time>2022-08-31T11:42:51Z</time>
      </trkpt>
      <trkpt lat="42.660837" lon="-2.034083">
        <ele>457.361</ele>
        <time>2022-08-31T11:44:11Z</time>
      </trkpt>
      <trkpt lat="42.660604" lon="-2.033865">
        <ele>459.751</ele>
        <time>2022-08-31T11:44:31Z</time>
      </trkpt>
      <trkpt lat="42.659740" lon="-2.034262">
        <ele>467.252</ele>
        <time>2022-08-31T11:45:11Z</time>
      </trkpt>
      <trkpt lat="42.658983" lon="-2.035636">
        <ele>477.541</ele>
        <time>2022-08-31T11:45:31Z</time>
      </trkpt>
      <trkpt lat="42.655614" lon="-2.038940">
        <ele>491.435</ele>
        <time>2022-08-31T11:45:51Z</time>
      </trkpt>
      <trkpt lat="42.651021" lon="-2.046708">
        <ele>520.773</ele>
        <time>2022-08-31T11:46:31Z</time>
      </trkpt>
      <trkpt lat="42.647865" lon="-2.051471">
        <ele>549.092</ele>
        <time>2022-08-31T11:46:51Z</time>
      </trkpt>
      <trkpt lat="42.643832" lon="-2.061814">
        <ele>580.884</ele>
        <time>2022-08-31T11:48:11Z</time>
      </trkpt>
      <trkpt lat="42.638616" lon="-2.071899">
        <ele>594.107</ele>
        <time>2022-08-31T11:49:11Z</time>
      </trkpt>
      <trkpt lat="42.638387" lon="-2.074260">
        <ele>602.317</ele>
        <time>2022-08-31T11:49:31Z</time>
      </trkpt>
      <trkpt lat="42.637282" lon="-2.078658">
        <ele>585.908</ele>
        <time>2022-08-31T11:49:51Z</time>
      </trkpt>
      <trkpt lat="42.636792" lon="-2.082757">
        <ele>574.294</ele>
        <time>2022-08-31T11:50:11Z</time>
      </trkpt>
      <trkpt lat="42.635182" lon="-2.085171">
        <ele>568.512</ele>
        <time>2022-08-31T11:50:51Z</time>
      </trkpt>
      <trkpt lat="42.634203" lon="-2.087660">
        <ele>574.542</ele>
        <time>2022-08-31T11:51:31Z</time>
      </trkpt>
      <trkpt lat="42.632396" lon="-2.089108">
        <ele>582.333</ele>
        <time>2022-08-31T11:51:51Z</time>
      </trkpt>
      <trkpt lat="42.629988" lon="-2.090449">
        <ele>587.222</ele>
        <time>2022-08-31T11:52:31Z</time>
      </trkpt>
      <trkpt lat="42.626041" lon="-2.096790">
        <ele>613.246</ele>
        <time>2022-08-31T11:53:11Z</time>
      </trkpt>
      <trkpt lat="42.625552" lon="-2.098582">
        <ele>616.034</ele>
        <time>2022-08-31T11:53:31Z</time>
      </trkpt>
      <trkpt lat="42.624841" lon="-2.098904">
        <ele>614.893</ele>
        <time>2022-08-31T11:54:31Z</time>
      </trkpt>
      <trkpt lat="42.624810" lon="-2.098314">
        <ele>615.016</ele>
        <time>2022-08-31T11:54:51Z</time>
      </trkpt>
      <trkpt lat="42.623681" lon="-2.096683">
        <ele>618.576</ele>
        <time>2022-08-31T11:55:51Z</time>
      </trkpt>
      <trkpt lat="42.623357" lon="-2.096790">
        <ele>618.113</ele>
        <time>2022-08-31T11:56:11Z</time>
      </trkpt>
      <trkpt lat="42.622378" lon="-2.098346">
        <ele>607.208</ele>
        <time>2022-08-31T11:56:31Z</time>
      </trkpt>
      <trkpt lat="42.618320" lon="-2.100985">
        <ele>604.027</ele>
        <time>2022-08-31T11:56:51Z</time>
      </trkpt>
      <trkpt lat="42.606942" lon="-2.110330">
        <ele>542.245</ele>
        <time>2022-08-31T11:58:11Z</time>
      </trkpt>
      <trkpt lat="42.605031" lon="-2.111585">
        <ele>529.185</ele>
        <time>2022-08-31T11:58:31Z</time>
      </trkpt>
      <trkpt lat="42.600056" lon="-2.118999">
        <ele>520.476</ele>
        <time>2022-08-31T11:58:51Z</time>
      </trkpt>
      <trkpt lat="42.599942" lon="-2.119530">
        <ele>520.725</ele>
        <time>2022-08-31T11:59:11Z</time>
      </trkpt>
      <trkpt lat="42.599602" lon="-2.119669">
        <ele>520.899</ele>
        <time>2022-08-31T11:59:31Z</time>
      </trkpt>
      <trkpt lat="42.597829" lon="-2.122571">
        <ele>523.857</ele>
        <time>2022-08-31T11:59:51Z</time>
      </trkpt>
      <trkpt lat="42.593264" lon="-2.135972">
        <ele>500.036</ele>
        <time>2022-08-31T12:00:11Z</time>
      </trkpt>
      <trkpt lat="42.592372" lon="-2.136991">
        <ele>498.431</ele>
        <time>2022-08-31T12:00:51Z</time>
      </trkpt>
      <trkpt lat="42.588833" lon="-2.137485">
        <ele>497.061</ele>
        <time>2022-08-31T12:01:31Z</time>
      </trkpt>
      <trkpt lat="42.587079" lon="-2.139062">
        <ele>504.207</ele>
        <time>2022-08-31T12:01:51Z</time>
      </trkpt>
      <trkpt lat="42.578982" lon="-2.151057">
        <ele>488.308</ele>
        <time>2022-08-31T12:02:11Z</time>
      </trkpt>
      <trkpt lat="42.579085" lon="-2.152505">
        <ele>491.029</ele>
        <time>2022-08-31T12:02:31Z</time>
      </trkpt>
      <trkpt lat="42.576502" lon="-2.155863">
        <ele>484.777</ele>
        <time>2022-08-31T12:03:11Z</time>
      </trkpt>
      <trkpt lat="42.574052" lon="-2.168652">
        <ele>460.787</ele>
        <time>2022-08-31T12:03:31Z</time>
      </trkpt>
      <trkpt lat="42.571390" lon="-2.173791">
        <ele>468.768</ele>
        <time>2022-08-31T12:03:51Z</time>
      </trkpt>
      <trkpt lat="42.567890" lon="-2.194626">
        <ele>448.237</ele>
        <time>2022-08-31T12:04:11Z</time>
      </trkpt>
      <trkpt lat="42.566183" lon="-2.203016">
        <ele>461.861</ele>
        <time>2022-08-31T12:04:31Z</time>
      </trkpt>
      <trkpt lat="42.565803" lon="-2.203453">
        <ele>460.719</ele>
        <time>2022-08-31T12:04:51Z</time>
      </trkpt>
      <trkpt lat="42.565740" lon="-2.205087">
        <ele>461.948</ele>
        <time>2022-08-31T12:05:11Z</time>
      </trkpt>
      <trkpt lat="42.557190" lon="-2.251167">
        <ele>454.142</ele>
        <time>2022-08-31T12:05:51Z</time>
      </trkpt>
      <trkpt lat="42.553902" lon="-2.264793">
        <ele>479.422</ele>
        <time>2022-08-31T12:06:11Z</time>
      </trkpt>
      <trkpt lat="42.552235" lon="-2.266853">
        <ele>478.814</ele>
        <time>2022-08-31T12:07:11Z</time>
      </trkpt>
      <trkpt lat="42.554203" lon="-2.269975">
        <ele>456.108</ele>
        <time>2022-08-31T12:07:51Z</time>
      </trkpt>
      <trkpt lat="42.554371" lon="-2.270753">
        <ele>452.210</ele>
        <time>2022-08-31T12:08:11Z</time>
      </trkpt>
      <trkpt lat="42.553456" lon="-2.272571">
        <ele>453.518</ele>
        <time>2022-08-31T12:08:31Z</time>
      </trkpt>
      <trkpt lat="42.552788" lon="-2.276053">
        <ele>459.948</ele>
        <time>2022-08-31T12:08:51Z</time>
      </trkpt>
      <trkpt lat="42.551816" lon="-2.277786">
        <ele>466.239</ele>
        <time>2022-08-31T12:09:11Z</time>
      </trkpt>
      <trkpt lat="42.551452" lon="-2.280146">
        <ele>477.318</ele>
        <time>2022-08-31T12:09:51Z</time>
      </trkpt>
      <trkpt lat="42.551839" lon="-2.281798">
        <ele>484.442</ele>
        <time>2022-08-31T12:10:11Z</time>
      </trkpt>
      <trkpt lat="42.551349" lon="-2.283493">
        <ele>495.220</ele>
        <time>2022-08-31T12:10:51Z</time>
      </trkpt>
      <trkpt lat="42.550322" lon="-2.284834">
        <ele>507.389</ele>
        <time>2022-08-31T12:11:31Z</time>
      </trkpt>
      <trkpt lat="42.549488" lon="-2.285215">
        <ele>501.887</ele>
        <time>2022-08-31T12:11:51Z</time>
      </trkpt>
      <trkpt lat="42.547808" lon="-2.285205">
        <ele>505.742</ele>
        <time>2022-08-31T12:12:31Z</time>
      </trkpt>
      <trkpt lat="42.548125" lon="-2.288455">
        <ele>499.026</ele>
        <time>2022-08-31T12:13:11Z</time>
      </trkpt>
      <trkpt lat="42.547785" lon="-2.289287">
        <ele>504.008</ele>
        <time>2022-08-31T12:13:31Z</time>
      </trkpt>
      <trkpt lat="42.547725" lon="-2.290526">
        <ele>503.514</ele>
        <time>2022-08-31T12:13:51Z</time>
      </trkpt>
      <trkpt lat="42.547322" lon="-2.290767">
        <ele>503.232</ele>
        <time>2022-08-31T12:14:31Z</time>
      </trkpt>
      <trkpt lat="42.544892" lon="-2.288225">
        <ele>524.212</ele>
        <time>2022-08-31T12:15:31Z</time>
      </trkpt>
      <trkpt lat="42.544307" lon="-2.291819">
        <ele>542.943</ele>
        <time>2022-08-31T12:16:11Z</time>
      </trkpt>
      <trkpt lat="42.541635" lon="-2.297151">
        <ele>561.112</ele>
        <time>2022-08-31T12:16:31Z</time>
      </trkpt>
      <trkpt lat="42.541580" lon="-2.297806">
        <ele>556.716</ele>
        <time>2022-08-31T12:16:51Z</time>
      </trkpt>
      <trkpt lat="42.542418" lon="-2.299297">
        <ele>542.994</ele>
        <time>2022-08-31T12:17:11Z</time>
      </trkpt>
      <trkpt lat="42.542402" lon="-2.299941">
        <ele>539.553</ele>
        <time>2022-08-31T12:17:31Z</time>
      </trkpt>
      <trkpt lat="42.540355" lon="-2.300016">
        <ele>547.582</ele>
        <time>2022-08-31T12:18:11Z</time>
      </trkpt>
      <trkpt lat="42.540117" lon="-2.300434">
        <ele>547.343</ele>
        <time>2022-08-31T12:18:31Z</time>
      </trkpt>
      <trkpt lat="42.540212" lon="-2.302312">
        <ele>537.617</ele>
        <time>2022-08-31T12:19:11Z</time>
      </trkpt>
      <trkpt lat="42.539445" lon="-2.302269">
        <ele>541.508</ele>
        <time>2022-08-31T12:19:51Z</time>
      </trkpt>
      <trkpt lat="42.538679" lon="-2.301582">
        <ele>549.924</ele>
        <time>2022-08-31T12:20:11Z</time>
      </trkpt>
      <trkpt lat="42.537928" lon="-2.301807">
        <ele>554.532</ele>
        <time>2022-08-31T12:20:51Z</time>
      </trkpt>
      <trkpt lat="42.537493" lon="-2.302988">
        <ele>561.652</ele>
        <time>2022-08-31T12:21:11Z</time>
      </trkpt>
      <trkpt lat="42.536513" lon="-2.303771">
        <ele>566.863</ele>
        <time>2022-08-31T12:21:31Z</time>
      </trkpt>
      <trkpt lat="42.536204" lon="-2.306989">
        <ele>560.682</ele>
        <time>2022-08-31T12:21:51Z</time>
      </trkpt>
      <trkpt lat="42.534710" lon="-2.311528">
        <ele>545.896</ele>
        <time>2022-08-31T12:22:11Z</time>
      </trkpt>
      <trkpt lat="42.534694" lon="-2.312343">
        <ele>543.944</ele>
        <time>2022-08-31T12:22:31Z</time>
      </trkpt>
      <trkpt lat="42.535864" lon="-2.314510">
        <ele>526.763</ele>
        <time>2022-08-31T12:22:51Z</time>
      </trkpt>
      <trkpt lat="42.535785" lon="-2.314875">
        <ele>524.555</ele>
        <time>2022-08-31T12:23:31Z</time>
      </trkpt>
      <trkpt lat="42.534773" lon="-2.314982">
        <ele>516.307</ele>
        <time>2022-08-31T12:24:11Z</time>
      </trkpt>
      <trkpt lat="42.534014" lon="-2.314382">
        <ele>514.117</ele>
        <time>2022-08-31T12:24:51Z</time>
      </trkpt>
      <trkpt lat="42.534109" lon="-2.315519">
        <ele>507.808</ele>
        <time>2022-08-31T12:25:31Z</time>
      </trkpt>
      <trkpt lat="42.534837" lon="-2.316914">
        <ele>497.851</ele>
        <time>2022-08-31T12:25:51Z</time>
      </trkpt>
      <trkpt lat="42.534536" lon="-2.318630">
        <ele>488.099</ele>
        <time>2022-08-31T12:26:11Z</time>
      </trkpt>
      <trkpt lat="42.533066" lon="-2.320712">
        <ele>472.939</ele>
        <time>2022-08-31T12:26:31Z</time>
      </trkpt>
      <trkpt lat="42.531722" lon="-2.320991">
        <ele>464.490</ele>
        <time>2022-08-31T12:27:11Z</time>
      </trkpt>
      <trkpt lat="42.527531" lon="-2.322814">
        <ele>452.039</ele>
        <time>2022-08-31T12:27:51Z</time>
      </trkpt>
      <trkpt lat="42.526258" lon="-2.324992">
        <ele>461.093</ele>
        <time>2022-08-31T12:28:11Z</time>
      </trkpt>
      <trkpt lat="42.525974" lon="-2.327267">
        <ele>471.821</ele>
        <time>2022-08-31T12:28:31Z</time>
      </trkpt>
      <trkpt lat="42.526337" lon="-2.328179">
        <ele>477.560</ele>
        <time>2022-08-31T12:28:51Z</time>
      </trkpt>
      <trkpt lat="42.526298" lon="-2.329659">
        <ele>486.476</ele>
        <time>2022-08-31T12:29:11Z</time>
      </trkpt>
      <trkpt lat="42.527073" lon="-2.331172">
        <ele>497.490</ele>
        <time>2022-08-31T12:29:51Z</time>
      </trkpt>
      <trkpt lat="42.526733" lon="-2.331730">
        <ele>499.019</ele>
        <time>2022-08-31T12:30:11Z</time>
      </trkpt>
      <trkpt lat="42.524740" lon="-2.331290">
        <ele>509.008</ele>
        <time>2022-08-31T12:31:11Z</time>
      </trkpt>
      <trkpt lat="42.523791" lon="-2.336912">
        <ele>481.763</ele>
        <time>2022-08-31T12:31:51Z</time>
      </trkpt>
      <trkpt lat="42.521214" lon="-2.340378">
        <ele>483.371</ele>
        <time>2022-08-31T12:32:11Z</time>
      </trkpt>
      <trkpt lat="42.519814" lon="-2.343746">
        <ele>477.791</ele>
        <time>2022-08-31T12:32:31Z</time>
      </trkpt>
      <trkpt lat="42.518050" lon="-2.351557">
        <ele>461.812</ele>
        <time>2022-08-31T12:32:51Z</time>
      </trkpt>
      <trkpt lat="42.518114" lon="-2.353810">
        <ele>452.531</ele>
        <time>2022-08-31T12:33:11Z</time>
      </trkpt>
      <trkpt lat="42.517022" lon="-2.358971">
        <ele>445.885</ele>
        <time>2022-08-31T12:33:51Z</time>
      </trkpt>
      <trkpt lat="42.514579" lon="-2.367811">
        <ele>444.663</ele>
        <time>2022-08-31T12:35:11Z</time>
      </trkpt>
      <trkpt lat="42.513567" lon="-2.369034">
        <ele>437.482</ele>
        <time>2022-08-31T12:36:11Z</time>
      </trkpt>
      <trkpt lat="42.512807" lon="-2.372124">
        <ele>431.167</ele>
        <time>2022-08-31T12:36:51Z</time>
      </trkpt>
      <trkpt lat="42.512633" lon="-2.375450">
        <ele>427.781</ele>
        <time>2022-08-31T12:37:31Z</time>
      </trkpt>
      <trkpt lat="42.493413" lon="-2.405341">
        <ele>405.019</ele>
        <time>2022-08-31T12:37:51Z</time>
      </trkpt>
      <trkpt lat="42.491150" lon="-2.413945">
        <ele>388.108</ele>
        <time>2022-08-31T12:38:51Z</time>
      </trkpt>
      <trkpt lat="42.490881" lon="-2.414246">
        <ele>388.032</ele>
        <time>2022-08-31T12:39:11Z</time>
      </trkpt>
      <trkpt lat="42.489267" lon="-2.420297">
        <ele>398.790</ele>
        <time>2022-08-31T12:39:31Z</time>
      </trkpt>
      <trkpt lat="42.488492" lon="-2.425747">
        <ele>409.180</ele>
        <time>2022-08-31T12:39:51Z</time>
      </trkpt>
      <trkpt lat="42.488887" lon="-2.426713">
        <ele>411.211</ele>
        <time>2022-08-31T12:40:31Z</time>
      </trkpt>
      <trkpt lat="42.488049" lon="-2.427442">
        <ele>414.090</ele>
        <time>2022-08-31T12:41:11Z</time>
      </trkpt>
      <trkpt lat="42.487368" lon="-2.430811">
        <ele>417.564</ele>
        <time>2022-08-31T12:41:51Z</time>
      </trkpt>
      <trkpt lat="42.486340" lon="-2.433021">
        <ele>417.142</ele>
        <time>2022-08-31T12:42:11Z</time>
      </trkpt>
      <trkpt lat="42.478143" lon="-2.444201">
        <ele>384.741</ele>
        <time>2022-08-31T12:44:51Z</time>
      </trkpt>
      <trkpt lat="42.476117" lon="-2.444458">
        <ele>377.088</ele>
        <time>2022-08-31T12:45:11Z</time>
      </trkpt>
      <trkpt lat="42.475785" lon="-2.444780">
        <ele>376.024</ele>
        <time>2022-08-31T12:45:31Z</time>
      </trkpt>
      <trkpt lat="42.472825" lon="-2.445080">
        <ele>374.026</ele>
        <time>2022-08-31T12:46:51Z</time>
      </trkpt>
      <trkpt lat="42.468979" lon="-2.443213">
        <ele>373.508</ele>
        <time>2022-08-31T12:48:31Z</time>
      </trkpt>
      <trkpt lat="42.467990" lon="-2.445729">
        <ele>379.144</ele>
        <time>2022-08-31T12:48:51Z</time>
      </trkpt>
      <trkpt lat="42.466747" lon="-2.445483">
        <ele>381.722</ele>
        <time>2022-08-31T12:49:31Z</time>
      </trkpt>
      <trkpt lat="42.466446" lon="-2.445767">
        <ele>382.042</ele>
        <time>2022-08-31T12:50:11Z</time>
      </trkpt>
      <trkpt lat="42.466442" lon="-2.444678">
        <ele>382.843</ele>
        <time>2022-08-31T12:50:31Z</time>
      </trkpt>
      <trkpt lat="42.466351" lon="-2.446657">
        <ele>382.032</ele>
        <time>2022-08-31T08:27:41Z</time>
      </trkpt>
      <trkpt lat="42.465309" lon="-2.446727">
        <ele>385.992</ele>
        <time>2022-08-31T08:28:01Z</time>
      </trkpt>
      <trkpt lat="42.465231" lon="-2.447580">
        <ele>385.211</ele>
        <time>2022-08-31T08:28:21Z</time>
      </trkpt>
      <trkpt lat="42.464290" lon="-2.447677">
        <ele>387.608</ele>
        <time>2022-08-31T08:28:41Z</time>
      </trkpt>
      <trkpt lat="42.464096" lon="-2.444501">
        <ele>387.019</ele>
        <time>2022-08-31T08:29:01Z</time>
      </trkpt>
      <trkpt lat="42.462893" lon="-2.444984">
        <ele>387.677</ele>
        <time>2022-08-31T08:29:21Z</time>
      </trkpt>
      <trkpt lat="42.462802" lon="-2.445177">
        <ele>387.448</ele>
        <time>2022-08-31T08:29:41Z</time>
      </trkpt>
      <trkpt lat="42.462580" lon="-2.445053">
        <ele>387.466</ele>
        <time>2022-08-31T08:30:01Z</time>
      </trkpt>
      <trkpt lat="42.457344" lon="-2.447290">
        <ele>392.468</ele>
        <time>2022-08-31T08:30:21Z</time>
      </trkpt>
      <trkpt lat="42.453956" lon="-2.448363">
        <ele>395.842</ele>
        <time>2022-08-31T08:30:41Z</time>
      </trkpt>
      <trkpt lat="42.453640" lon="-2.448771">
        <ele>394.032</ele>
        <time>2022-08-31T08:31:01Z</time>
      </trkpt>
      <trkpt lat="42.453149" lon="-2.448556">
        <ele>395.585</ele>
        <time>2022-08-31T08:31:21Z</time>
      </trkpt>
      <trkpt lat="42.450996" lon="-2.449157">
        <ele>398.063</ele>
        <time>2022-08-31T08:31:41Z</time>
      </trkpt>
      <trkpt lat="42.448716" lon="-2.449887">
        <ele>400.344</ele>
        <time>2022-08-31T08:32:01Z</time>
      </trkpt>
      <trkpt lat="42.448573" lon="-2.450155">
        <ele>400.118</ele>
        <time>2022-08-31T08:32:21Z</time>
      </trkpt>
      <trkpt lat="42.448304" lon="-2.449983">
        <ele>401.108</ele>
        <time>2022-08-31T08:32:41Z</time>
      </trkpt>
      <trkpt lat="42.447299" lon="-2.450262">
        <ele>402.092</ele>
        <time>2022-08-31T08:33:01Z</time>
      </trkpt>
      <trkpt lat="42.444900" lon="-2.451013">
        <ele>404.440</ele>
        <time>2022-08-31T08:33:21Z</time>
      </trkpt>
      <trkpt lat="42.444757" lon="-2.451196">
        <ele>404.631</ele>
        <time>2022-08-31T08:33:41Z</time>
      </trkpt>
      <trkpt lat="42.444108" lon="-2.451217">
        <ele>405.289</ele>
        <time>2022-08-31T08:34:01Z</time>
      </trkpt>
      <trkpt lat="42.441994" lon="-2.451829">
        <ele>407.891</ele>
        <time>2022-08-31T08:34:21Z</time>
      </trkpt>
      <trkpt lat="42.437837" lon="-2.453170">
        <ele>412.585</ele>
        <time>2022-08-31T08:34:41Z</time>
      </trkpt>
      <trkpt lat="42.437734" lon="-2.453320">
        <ele>412.255</ele>
        <time>2022-08-31T08:35:01Z</time>
      </trkpt>
      <trkpt lat="42.437441" lon="-2.453277">
        <ele>413.088</ele>
        <time>2022-08-31T08:35:21Z</time>
      </trkpt>
      <trkpt lat="42.434171" lon="-2.454361">
        <ele>418.024</ele>
        <time>2022-08-31T08:35:41Z</time>
      </trkpt>
      <trkpt lat="42.432865" lon="-2.454522">
        <ele>418.204</ele>
        <time>2022-08-31T08:36:01Z</time>
      </trkpt>
      <trkpt lat="42.422506" lon="-2.457891">
        <ele>439.014</ele>
        <time>2022-08-31T08:36:21Z</time>
      </trkpt>
      <trkpt lat="42.423789" lon="-2.459210">
        <ele>438.008</ele>
        <time>2022-08-31T08:36:41Z</time>
      </trkpt>
      <trkpt lat="42.426228" lon="-2.461249">
        <ele>437.438</ele>
        <time>2022-08-31T08:37:01Z</time>
      </trkpt>
      <trkpt lat="42.426474" lon="-2.461903">
        <ele>435.786</ele>
        <time>2022-08-31T08:37:21Z</time>
      </trkpt>
      <trkpt lat="42.427052" lon="-2.462622">
        <ele>438.337</ele>
        <time>2022-08-31T08:37:41Z</time>
      </trkpt>
      <trkpt lat="42.426909" lon="-2.463083">
        <ele>439.145</ele>
        <time>2022-08-31T08:38:01Z</time>
      </trkpt>
      <trkpt lat="42.426474" lon="-2.463502">
        <ele>439.697</ele>
        <time>2022-08-31T08:38:21Z</time>
      </trkpt>
      <trkpt lat="42.424803" lon="-2.464564">
        <ele>448.721</ele>
        <time>2022-08-31T08:38:41Z</time>
      </trkpt>
      <trkpt lat="42.424407" lon="-2.464993">
        <ele>452.171</ele>
        <time>2022-08-31T08:39:01Z</time>
      </trkpt>
      <trkpt lat="42.423789" lon="-2.466152">
        <ele>457.154</ele>
        <time>2022-08-31T08:39:21Z</time>
      </trkpt>
      <trkpt lat="42.422633" lon="-2.467310">
        <ele>461.196</ele>
        <time>2022-08-31T08:39:41Z</time>
      </trkpt>
      <trkpt lat="42.421635" lon="-2.467890">
        <ele>460.331</ele>
        <time>2022-08-31T08:40:01Z</time>
      </trkpt>
      <trkpt lat="42.419607" lon="-2.468469">
        <ele>461.224</ele>
        <time>2022-08-31T08:40:21Z</time>
      </trkpt>
      <trkpt lat="42.419061" lon="-2.468888">
        <ele>464.108</ele>
        <time>2022-08-31T08:40:41Z</time>
      </trkpt>
      <trkpt lat="42.418704" lon="-2.469381">
        <ele>467.785</ele>
        <time>2022-08-31T08:41:01Z</time>
      </trkpt>
      <trkpt lat="42.418554" lon="-2.469950">
        <ele>468.943</ele>
        <time>2022-08-31T08:41:21Z</time>
      </trkpt>
      <trkpt lat="42.418261" lon="-2.470357">
        <ele>470.414</ele>
        <time>2022-08-31T08:41:41Z</time>
      </trkpt>
      <trkpt lat="42.416471" lon="-2.471377">
        <ele>475.332</ele>
        <time>2022-08-31T08:42:01Z</time>
      </trkpt>
      <trkpt lat="42.415663" lon="-2.471677">
        <ele>475.664</ele>
        <time>2022-08-31T08:42:21Z</time>
      </trkpt>
      <trkpt lat="42.414332" lon="-2.473083">
        <ele>484.368</ele>
        <time>2022-08-31T08:42:41Z</time>
      </trkpt>
      <trkpt lat="42.413730" lon="-2.474601">
        <ele>495.918</ele>
        <time>2022-08-31T08:43:01Z</time>
      </trkpt>
      <trkpt lat="42.412970" lon="-2.479584">
        <ele>506.381</ele>
        <time>2022-08-31T08:43:21Z</time>
      </trkpt>
      <trkpt lat="42.412403" lon="-2.482261">
        <ele>515.149</ele>
        <time>2022-08-31T08:43:41Z</time>
      </trkpt>
      <trkpt lat="42.411786" lon="-2.484139">
        <ele>525.502</ele>
        <time>2022-08-31T08:44:01Z</time>
      </trkpt>
      <trkpt lat="42.410776" lon="-2.486327">
        <ele>525.022</ele>
        <time>2022-08-31T08:44:21Z</time>
      </trkpt>
      <trkpt lat="42.409540" lon="-2.488189">
        <ele>515.408</ele>
        <time>2022-08-31T08:44:41Z</time>
      </trkpt>
      <trkpt lat="42.406728" lon="-2.491450">
        <ele>503.640</ele>
        <time>2022-08-31T08:45:01Z</time>
      </trkpt>
      <trkpt lat="42.404668" lon="-2.495828">
        <ele>490.858</ele>
        <time>2022-08-31T08:45:21Z</time>
      </trkpt>
      <trkpt lat="42.403511" lon="-2.497201">
        <ele>493.399</ele>
        <time>2022-08-31T08:45:41Z</time>
      </trkpt>
      <trkpt lat="42.402291" lon="-2.497995">
        <ele>498.857</ele>
        <time>2022-08-31T08:46:01Z</time>
      </trkpt>
      <trkpt lat="42.399146" lon="-2.499636">
        <ele>512.329</ele>
        <time>2022-08-31T08:46:21Z</time>
      </trkpt>
      <trkpt lat="42.397847" lon="-2.500634">
        <ele>516.693</ele>
        <time>2022-08-31T08:46:41Z</time>
      </trkpt>
      <trkpt lat="42.397118" lon="-2.501718">
        <ele>522.863</ele>
        <time>2022-08-31T08:47:01Z</time>
      </trkpt>
      <trkpt lat="42.396175" lon="-2.504325">
        <ele>525.976</ele>
        <time>2022-08-31T08:47:21Z</time>
      </trkpt>
      <trkpt lat="42.394289" lon="-2.507823">
        <ele>527.967</ele>
        <time>2022-08-31T08:47:41Z</time>
      </trkpt>
      <trkpt lat="42.393576" lon="-2.510440">
        <ele>527.581</ele>
        <time>2022-08-31T08:48:01Z</time>
      </trkpt>
      <trkpt lat="42.389804" lon="-2.516985">
        <ele>546.519</ele>
        <time>2022-08-31T08:48:21Z</time>
      </trkpt>
      <trkpt lat="42.389297" lon="-2.518444">
        <ele>551.608</ele>
        <time>2022-08-31T08:48:41Z</time>
      </trkpt>
      <trkpt lat="42.389360" lon="-2.522264">
        <ele>557.182</ele>
        <time>2022-08-31T08:49:01Z</time>
      </trkpt>
      <trkpt lat="42.389012" lon="-2.526426">
        <ele>543.480</ele>
        <time>2022-08-31T08:49:21Z</time>
      </trkpt>
      <trkpt lat="42.388013" lon="-2.528722">
        <ele>542.351</ele>
        <time>2022-08-31T08:49:41Z</time>
      </trkpt>
      <trkpt lat="42.388124" lon="-2.530181">
        <ele>548.519</ele>
        <time>2022-08-31T08:50:01Z</time>
      </trkpt>
      <trkpt lat="42.389963" lon="-2.530589">
        <ele>538.941</ele>
        <time>2022-08-31T08:50:21Z</time>
      </trkpt>
      <trkpt lat="42.390311" lon="-2.530954">
        <ele>536.315</ele>
        <time>2022-08-31T08:50:41Z</time>
      </trkpt>
      <trkpt lat="42.390438" lon="-2.531512">
        <ele>531.125</ele>
        <time>2022-08-31T08:51:01Z</time>
      </trkpt>
      <trkpt lat="42.390010" lon="-2.534387">
        <ele>525.118</ele>
        <time>2022-08-31T08:51:21Z</time>
      </trkpt>
      <trkpt lat="42.390280" lon="-2.535203">
        <ele>523.039</ele>
        <time>2022-08-31T08:51:41Z</time>
      </trkpt>
      <trkpt lat="42.390723" lon="-2.535846">
        <ele>524.001</ele>
        <time>2022-08-31T08:52:01Z</time>
      </trkpt>
      <trkpt lat="42.394400" lon="-2.537177">
        <ele>523.021</ele>
        <time>2022-08-31T08:52:21Z</time>
      </trkpt>
      <trkpt lat="42.396302" lon="-2.538764">
        <ele>520.608</ele>
        <time>2022-08-31T08:52:41Z</time>
      </trkpt>
      <trkpt lat="42.397823" lon="-2.539065">
        <ele>518.319</ele>
        <time>2022-08-31T08:53:01Z</time>
      </trkpt>
      <trkpt lat="42.398060" lon="-2.540138">
        <ele>521.047</ele>
        <time>2022-08-31T08:53:21Z</time>
      </trkpt>
      <trkpt lat="42.398884" lon="-2.540867">
        <ele>522.168</ele>
        <time>2022-08-31T08:53:41Z</time>
      </trkpt>
      <trkpt lat="42.399724" lon="-2.541275">
        <ele>520.066</ele>
        <time>2022-08-31T08:54:01Z</time>
      </trkpt>
      <trkpt lat="42.401705" lon="-2.541275">
        <ele>508.598</ele>
        <time>2022-08-31T08:54:21Z</time>
      </trkpt>
      <trkpt lat="42.404351" lon="-2.542133">
        <ele>505.642</ele>
        <time>2022-08-31T08:54:41Z</time>
      </trkpt>
      <trkpt lat="42.421191" lon="-2.555587">
        <ele>482.382</ele>
        <time>2022-08-31T08:55:01Z</time>
      </trkpt>
      <trkpt lat="42.424882" lon="-2.558870">
        <ele>491.445</ele>
        <time>2022-08-31T08:55:21Z</time>
      </trkpt>
      <trkpt lat="42.427503" lon="-2.561499">
        <ele>495.444</ele>
        <time>2022-08-31T08:55:41Z</time>
      </trkpt>
      <trkpt lat="42.427994" lon="-2.561595">
        <ele>496.805</ele>
        <time>2022-08-31T08:56:01Z</time>
      </trkpt>
      <trkpt lat="42.428707" lon="-2.561488">
        <ele>501.515</ele>
        <time>2022-08-31T08:56:21Z</time>
      </trkpt>
      <trkpt lat="42.429634" lon="-2.563688">
        <ele>505.308</ele>
        <time>2022-08-31T08:56:41Z</time>
      </trkpt>
      <trkpt lat="42.430394" lon="-2.564546">
        <ele>504.490</ele>
        <time>2022-08-31T08:57:01Z</time>
      </trkpt>
      <trkpt lat="42.430719" lon="-2.564653">
        <ele>504.228</ele>
        <time>2022-08-31T08:57:21Z</time>
      </trkpt>
      <trkpt lat="42.430140" lon="-2.568033">
        <ele>504.029</ele>
        <time>2022-08-31T08:57:41Z</time>
      </trkpt>
      <trkpt lat="42.427654" lon="-2.573408">
        <ele>509.477</ele>
        <time>2022-08-31T08:58:01Z</time>
      </trkpt>
      <trkpt lat="42.421128" lon="-2.588471">
        <ele>553.479</ele>
        <time>2022-08-31T08:58:21Z</time>
      </trkpt>
      <trkpt lat="42.420669" lon="-2.589684">
        <ele>555.693</ele>
        <time>2022-08-31T08:58:41Z</time>
      </trkpt>
      <trkpt lat="42.420807" lon="-2.589952">
        <ele>555.283</ele>
        <time>2022-08-31T08:59:01Z</time>
      </trkpt>
      <trkpt lat="42.420752" lon="-2.590317">
        <ele>555.586</ele>
        <time>2022-08-31T08:59:21Z</time>
      </trkpt>
      <trkpt lat="42.420483" lon="-2.590435">
        <ele>557.195</ele>
        <time>2022-08-31T08:59:41Z</time>
      </trkpt>
      <trkpt lat="42.420197" lon="-2.590070">
        <ele>558.149</ele>
        <time>2022-08-31T09:00:01Z</time>
      </trkpt>
      <trkpt lat="42.417635" lon="-2.591797">
        <ele>568.323</ele>
        <time>2022-08-31T09:00:21Z</time>
      </trkpt>
      <trkpt lat="42.415552" lon="-2.592484">
        <ele>578.008</ele>
        <time>2022-08-31T09:00:41Z</time>
      </trkpt>
      <trkpt lat="42.412336" lon="-2.592183">
        <ele>588.615</ele>
        <time>2022-08-31T09:01:01Z</time>
      </trkpt>
      <trkpt lat="42.411643" lon="-2.592366">
        <ele>591.183</ele>
        <time>2022-08-31T09:01:21Z</time>
      </trkpt>
      <trkpt lat="42.409722" lon="-2.593546">
        <ele>598.014</ele>
        <time>2022-08-31T09:01:41Z</time>
      </trkpt>
      <trkpt lat="42.409405" lon="-2.593868">
        <ele>599.172</ele>
        <time>2022-08-31T09:02:01Z</time>
      </trkpt>
      <trkpt lat="42.408011" lon="-2.594318">
        <ele>602.584</ele>
        <time>2022-08-31T09:02:21Z</time>
      </trkpt>
      <trkpt lat="42.406173" lon="-2.596035">
        <ele>602.728</ele>
        <time>2022-08-31T09:02:41Z</time>
      </trkpt>
      <trkpt lat="42.405935" lon="-2.597451">
        <ele>606.168</ele>
        <time>2022-08-31T09:03:01Z</time>
      </trkpt>
      <trkpt lat="42.405397" lon="-2.598674">
        <ele>615.791</ele>
        <time>2022-08-31T09:03:21Z</time>
      </trkpt>
      <trkpt lat="42.403939" lon="-2.599361">
        <ele>631.988</ele>
        <time>2022-08-31T09:03:41Z</time>
      </trkpt>
      <trkpt lat="42.402624" lon="-2.600348">
        <ele>644.024</ele>
        <time>2022-08-31T09:04:01Z</time>
      </trkpt>
      <trkpt lat="42.401293" lon="-2.600627">
        <ele>656.026</ele>
        <time>2022-08-31T09:04:21Z</time>
      </trkpt>
      <trkpt lat="42.400453" lon="-2.601721">
        <ele>667.208</ele>
        <time>2022-08-31T09:04:41Z</time>
      </trkpt>
      <trkpt lat="42.400517" lon="-2.602708">
        <ele>662.564</ele>
        <time>2022-08-31T09:05:01Z</time>
      </trkpt>
      <trkpt lat="42.399598" lon="-2.607536">
        <ele>659.292</ele>
        <time>2022-08-31T09:05:21Z</time>
      </trkpt>
      <trkpt lat="42.399772" lon="-2.611881">
        <ele>664.313</ele>
        <time>2022-08-31T09:05:41Z</time>
      </trkpt>
      <trkpt lat="42.400271" lon="-2.613555">
        <ele>667.051</ele>
        <time>2022-08-31T09:06:01Z</time>
      </trkpt>
      <trkpt lat="42.400754" lon="-2.616398">
        <ele>655.123</ele>
        <time>2022-08-31T09:06:21Z</time>
      </trkpt>
      <trkpt lat="42.402988" lon="-2.620271">
        <ele>645.447</ele>
        <time>2022-08-31T09:06:41Z</time>
      </trkpt>
      <trkpt lat="42.403337" lon="-2.622364">
        <ele>637.057</ele>
        <time>2022-08-31T09:07:01Z</time>
      </trkpt>
      <trkpt lat="42.405563" lon="-2.625164">
        <ele>632.110</ele>
        <time>2022-08-31T09:07:21Z</time>
      </trkpt>
      <trkpt lat="42.405935" lon="-2.625990">
        <ele>631.537</ele>
        <time>2022-08-31T09:07:41Z</time>
      </trkpt>
      <trkpt lat="42.407056" lon="-2.626092">
        <ele>624.849</ele>
        <time>2022-08-31T09:08:01Z</time>
      </trkpt>
      <trkpt lat="42.408114" lon="-2.626516">
        <ele>617.613</ele>
        <time>2022-08-31T09:08:21Z</time>
      </trkpt>
      <trkpt lat="42.410617" lon="-2.627878">
        <ele>614.008</ele>
        <time>2022-08-31T09:08:41Z</time>
      </trkpt>
      <trkpt lat="42.412114" lon="-2.628071">
        <ele>617.519</ele>
        <time>2022-08-31T09:09:01Z</time>
      </trkpt>
      <trkpt lat="42.412205" lon="-2.627685">
        <ele>616.837</ele>
        <time>2022-08-31T09:09:21Z</time>
      </trkpt>
      <trkpt lat="42.412530" lon="-2.627723">
        <ele>618.828</ele>
        <time>2022-08-31T09:09:41Z</time>
      </trkpt>
      <trkpt lat="42.412352" lon="-2.628661">
        <ele>616.996</ele>
        <time>2022-08-31T09:10:01Z</time>
      </trkpt>
      <trkpt lat="42.412582" lon="-2.629069">
        <ele>615.968</ele>
        <time>2022-08-31T09:10:21Z</time>
      </trkpt>
      <trkpt lat="42.413310" lon="-2.629595">
        <ele>615.322</ele>
        <time>2022-08-31T09:10:41Z</time>
      </trkpt>
      <trkpt lat="42.416891" lon="-2.637792">
        <ele>636.762</ele>
        <time>2022-08-31T09:11:01Z</time>
      </trkpt>
      <trkpt lat="42.417699" lon="-2.640527">
        <ele>643.515</ele>
        <time>2022-08-31T09:11:21Z</time>
      </trkpt>
      <trkpt lat="42.417730" lon="-2.641751">
        <ele>650.723</ele>
        <time>2022-08-31T09:11:41Z</time>
      </trkpt>
      <trkpt lat="42.417501" lon="-2.643049">
        <ele>651.083</ele>
        <time>2022-08-31T09:12:01Z</time>
      </trkpt>
      <trkpt lat="42.415314" lon="-2.647920">
        <ele>638.811</ele>
        <time>2022-08-31T09:12:21Z</time>
      </trkpt>
      <trkpt lat="42.414206" lon="-2.649314">
        <ele>635.508</ele>
        <time>2022-08-31T09:12:41Z</time>
      </trkpt>
      <trkpt lat="42.412669" lon="-2.649786">
        <ele>631.588</ele>
        <time>2022-08-31T09:13:01Z</time>
      </trkpt>
      <trkpt lat="42.411441" lon="-2.650355">
        <ele>624.776</ele>
        <time>2022-08-31T09:13:21Z</time>
      </trkpt>
      <trkpt lat="42.410855" lon="-2.651224">
        <ele>622.427</ele>
        <time>2022-08-31T09:13:41Z</time>
      </trkpt>
      <trkpt lat="42.410696" lon="-2.651911">
        <ele>621.545</ele>
        <time>2022-08-31T09:14:01Z</time>
      </trkpt>
      <trkpt lat="42.410593" lon="-2.654679">
        <ele>616.837</ele>
        <time>2022-08-31T09:14:21Z</time>
      </trkpt>
      <trkpt lat="42.411148" lon="-2.659936">
        <ele>612.591</ele>
        <time>2022-08-31T09:14:41Z</time>
      </trkpt>
      <trkpt lat="42.411417" lon="-2.668133">
        <ele>589.641</ele>
        <time>2022-08-31T09:15:01Z</time>
      </trkpt>
      <trkpt lat="42.412146" lon="-2.674699">
        <ele>573.424</ele>
        <time>2022-08-31T09:15:21Z</time>
      </trkpt>
      <trkpt lat="42.409168" lon="-2.689762">
        <ele>556.088</ele>
        <time>2022-08-31T09:15:41Z</time>
      </trkpt>
      <trkpt lat="42.409073" lon="-2.691135">
        <ele>553.924</ele>
        <time>2022-08-31T09:16:01Z</time>
      </trkpt>
      <trkpt lat="42.409500" lon="-2.694204">
        <ele>557.126</ele>
        <time>2022-08-31T09:16:21Z</time>
      </trkpt>
      <trkpt lat="42.411861" lon="-2.702508">
        <ele>544.008</ele>
        <time>2022-08-31T09:16:41Z</time>
      </trkpt>
      <trkpt lat="42.412526" lon="-2.704482">
        <ele>538.984</ele>
        <time>2022-08-31T09:17:01Z</time>
      </trkpt>
      <trkpt lat="42.412811" lon="-2.704589">
        <ele>538.322</ele>
        <time>2022-08-31T09:17:21Z</time>
      </trkpt>
      <trkpt lat="42.412740" lon="-2.705748">
        <ele>537.033</ele>
        <time>2022-08-31T09:17:41Z</time>
      </trkpt>
      <trkpt lat="42.413825" lon="-2.709932">
        <ele>528.461</ele>
        <time>2022-08-31T09:18:01Z</time>
      </trkpt>
      <trkpt lat="42.414776" lon="-2.712679">
        <ele>522.473</ele>
        <time>2022-08-31T09:18:21Z</time>
      </trkpt>
      <trkpt lat="42.415441" lon="-2.715425">
        <ele>517.127</ele>
        <time>2022-08-31T09:18:41Z</time>
      </trkpt>
      <trkpt lat="42.418506" lon="-2.725521">
        <ele>503.537</ele>
        <time>2022-08-31T09:19:01Z</time>
      </trkpt>
      <trkpt lat="42.417881" lon="-2.728418">
        <ele>492.680</ele>
        <time>2022-08-31T09:19:21Z</time>
      </trkpt>
      <trkpt lat="42.416903" lon="-2.731009">
        <ele>486.056</ele>
        <time>2022-08-31T09:19:41Z</time>
      </trkpt>
      <trkpt lat="42.417334" lon="-2.732101">
        <ele>485.859</ele>
        <time>2022-08-31T09:20:01Z</time>
      </trkpt>
      <trkpt lat="42.417483" lon="-2.733168">
        <ele>485.314</ele>
        <time>2022-08-31T09:20:21Z</time>
      </trkpt>
      <trkpt lat="42.417631" lon="-2.733386">
        <ele>485.408</ele>
        <time>2022-08-31T09:20:41Z</time>
      </trkpt>
      <trkpt lat="42.419362" lon="-2.733493">
        <ele>483.071</ele>
        <time>2022-08-31T09:21:01Z</time>
      </trkpt>
      <trkpt lat="42.419956" lon="-2.734104">
        <ele>483.079</ele>
        <time>2022-08-31T09:21:21Z</time>
      </trkpt>
      <trkpt lat="42.420756" lon="-2.734330">
        <ele>483.060</ele>
        <time>2022-08-31T09:21:41Z</time>
      </trkpt>
      <trkpt lat="42.423750" lon="-2.734920">
        <ele>486.868</ele>
        <time>2022-08-31T09:22:01Z</time>
      </trkpt>
      <trkpt lat="42.424945" lon="-2.738374">
        <ele>492.360</ele>
        <time>2022-08-31T09:22:21Z</time>
      </trkpt>
      <trkpt lat="42.424518" lon="-2.740864">
        <ele>494.024</ele>
        <time>2022-08-31T09:22:41Z</time>
      </trkpt>
      <trkpt lat="42.424407" lon="-2.743320">
        <ele>498.084</ele>
        <time>2022-08-31T09:23:01Z</time>
      </trkpt>
      <trkpt lat="42.423773" lon="-2.748663">
        <ele>510.557</ele>
        <time>2022-08-31T09:23:21Z</time>
      </trkpt>
      <trkpt lat="42.423710" lon="-2.750187">
        <ele>514.462</ele>
        <time>2022-08-31T09:23:41Z</time>
      </trkpt>
      <trkpt lat="42.422815" lon="-2.756152">
        <ele>526.383</ele>
        <time>2022-08-31T09:24:01Z</time>
      </trkpt>
      <trkpt lat="42.421033" lon="-2.764167">
        <ele>541.711</ele>
        <time>2022-08-31T09:24:21Z</time>
      </trkpt>
      <trkpt lat="42.420423" lon="-2.767707">
        <ele>543.008</ele>
        <time>2022-08-31T09:24:41Z</time>
      </trkpt>
      <trkpt lat="42.420471" lon="-2.769542">
        <ele>538.142</ele>
        <time>2022-08-31T09:25:01Z</time>
      </trkpt>
      <trkpt lat="42.419829" lon="-2.778425">
        <ele>548.590</ele>
        <time>2022-08-31T09:25:21Z</time>
      </trkpt>
      <trkpt lat="42.419908" lon="-2.779503">
        <ele>547.791</ele>
        <time>2022-08-31T09:25:41Z</time>
      </trkpt>
      <trkpt lat="42.420217" lon="-2.780871">
        <ele>547.779</ele>
        <time>2022-08-31T09:26:01Z</time>
      </trkpt>
      <trkpt lat="42.420241" lon="-2.783248">
        <ele>543.191</ele>
        <time>2022-08-31T09:26:21Z</time>
      </trkpt>
      <trkpt lat="42.420784" lon="-2.789084">
        <ele>549.865</ele>
        <time>2022-08-31T09:26:41Z</time>
      </trkpt>
      <trkpt lat="42.422371" lon="-2.793676">
        <ele>544.335</ele>
        <time>2022-08-31T09:27:01Z</time>
      </trkpt>
      <trkpt lat="42.422981" lon="-2.797088">
        <ele>550.128</ele>
        <time>2022-08-31T09:27:21Z</time>
      </trkpt>
      <trkpt lat="42.423144" lon="-2.801106">
        <ele>554.378</ele>
        <time>2022-08-31T09:27:41Z</time>
      </trkpt>
      <trkpt lat="42.424557" lon="-2.802565">
        <ele>540.533</ele>
        <time>2022-08-31T09:28:01Z</time>
      </trkpt>
      <trkpt lat="42.423472" lon="-2.803102">
        <ele>541.026</ele>
        <time>2022-08-31T09:28:21Z</time>
      </trkpt>
      <trkpt lat="42.420003" lon="-2.806610">
        <ele>549.008</ele>
        <time>2022-08-31T09:28:41Z</time>
      </trkpt>
      <trkpt lat="42.419306" lon="-2.807157">
        <ele>550.573</ele>
        <time>2022-08-31T09:29:01Z</time>
      </trkpt>
      <trkpt lat="42.416891" lon="-2.811491">
        <ele>557.981</ele>
        <time>2022-08-31T09:29:21Z</time>
      </trkpt>
      <trkpt lat="42.415823" lon="-2.815000">
        <ele>562.042</ele>
        <time>2022-08-31T09:29:41Z</time>
      </trkpt>
      <trkpt lat="42.414443" lon="-2.816918">
        <ele>565.030</ele>
        <time>2022-08-31T09:30:01Z</time>
      </trkpt>
      <trkpt lat="42.413794" lon="-2.817253">
        <ele>566.322</ele>
        <time>2022-08-31T09:30:21Z</time>
      </trkpt>
      <trkpt lat="42.411663" lon="-2.819602">
        <ele>572.636</ele>
        <time>2022-08-31T09:30:41Z</time>
      </trkpt>
      <trkpt lat="42.392815" lon="-2.845287">
        <ele>641.986</ele>
        <time>2022-08-31T09:31:01Z</time>
      </trkpt>
      <trkpt lat="42.392403" lon="-2.845802">
        <ele>643.169</ele>
        <time>2022-08-31T09:31:21Z</time>
      </trkpt>
      <trkpt lat="42.391377" lon="-2.846183">
        <ele>645.185</ele>
        <time>2022-08-31T09:31:41Z</time>
      </trkpt>
      <trkpt lat="42.391425" lon="-2.848973">
        <ele>646.789</ele>
        <time>2022-08-31T09:32:01Z</time>
      </trkpt>
      <trkpt lat="42.391714" lon="-2.850641">
        <ele>659.517</ele>
        <time>2022-08-31T09:32:21Z</time>
      </trkpt>
      <trkpt lat="42.391413" lon="-2.851671">
        <ele>665.108</ele>
        <time>2022-08-31T09:32:41Z</time>
      </trkpt>
      <trkpt lat="42.391278" lon="-2.853141">
        <ele>671.524</ele>
        <time>2022-08-31T09:33:01Z</time>
      </trkpt>
      <trkpt lat="42.390866" lon="-2.854911">
        <ele>676.362</ele>
        <time>2022-08-31T09:33:21Z</time>
      </trkpt>
      <trkpt lat="42.389852" lon="-2.861370">
        <ele>695.593</ele>
        <time>2022-08-31T09:33:41Z</time>
      </trkpt>
      <trkpt lat="42.389915" lon="-2.861820">
        <ele>696.141</ele>
        <time>2022-08-31T09:34:01Z</time>
      </trkpt>
      <trkpt lat="42.390949" lon="-2.864031">
        <ele>711.723</ele>
        <time>2022-08-31T09:34:21Z</time>
      </trkpt>
      <trkpt lat="42.391163" lon="-2.865077">
        <ele>719.467</ele>
        <time>2022-08-31T09:34:41Z</time>
      </trkpt>
      <trkpt lat="42.391959" lon="-2.867013">
        <ele>728.267</ele>
        <time>2022-08-31T09:35:01Z</time>
      </trkpt>
      <trkpt lat="42.393715" lon="-2.869567">
        <ele>742.890</ele>
        <time>2022-08-31T09:35:21Z</time>
      </trkpt>
      <trkpt lat="42.393037" lon="-2.876551">
        <ele>764.627</ele>
        <time>2022-08-31T09:35:41Z</time>
      </trkpt>
      <trkpt lat="42.392831" lon="-2.881615">
        <ele>784.868</ele>
        <time>2022-08-31T09:36:01Z</time>
      </trkpt>
      <trkpt lat="42.397514" lon="-2.885714">
        <ele>791.014</ele>
        <time>2022-08-31T09:36:21Z</time>
      </trkpt>
      <trkpt lat="42.398092" lon="-2.886668">
        <ele>789.908</ele>
        <time>2022-08-31T09:36:41Z</time>
      </trkpt>
      <trkpt lat="42.398671" lon="-2.888782">
        <ele>779.868</ele>
        <time>2022-08-31T09:37:01Z</time>
      </trkpt>
      <trkpt lat="42.398948" lon="-2.889190">
        <ele>777.516</ele>
        <time>2022-08-31T09:37:21Z</time>
      </trkpt>
      <trkpt lat="42.400319" lon="-2.889898">
        <ele>777.987</ele>
        <time>2022-08-31T09:37:41Z</time>
      </trkpt>
      <trkpt lat="42.403392" lon="-2.893031">
        <ele>767.615</ele>
        <time>2022-08-31T09:38:01Z</time>
      </trkpt>
      <trkpt lat="42.404921" lon="-2.894039">
        <ele>765.967</ele>
        <time>2022-08-31T09:38:21Z</time>
      </trkpt>
      <trkpt lat="42.408534" lon="-2.894876">
        <ele>758.321</ele>
        <time>2022-08-31T09:38:41Z</time>
      </trkpt>
      <trkpt lat="42.409025" lon="-2.895241">
        <ele>758.381</ele>
        <time>2022-08-31T09:39:01Z</time>
      </trkpt>
      <trkpt lat="42.409334" lon="-2.895702">
        <ele>757.484</ele>
        <time>2022-08-31T09:39:21Z</time>
      </trkpt>
      <trkpt lat="42.409785" lon="-2.896035">
        <ele>758.179</ele>
        <time>2022-08-31T09:39:41Z</time>
      </trkpt>
      <trkpt lat="42.410182" lon="-2.896131">
        <ele>757.105</ele>
        <time>2022-08-31T09:40:01Z</time>
      </trkpt>
      <trkpt lat="42.412502" lon="-2.896453">
        <ele>745.225</ele>
        <time>2022-08-31T09:40:21Z</time>
      </trkpt>
      <trkpt lat="42.414269" lon="-2.896292">
        <ele>736.008</ele>
        <time>2022-08-31T09:40:41Z</time>
      </trkpt>
      <trkpt lat="42.414404" lon="-2.896593">
        <ele>734.633</ele>
        <time>2022-08-31T09:41:01Z</time>
      </trkpt>
      <trkpt lat="42.414308" lon="-2.896893">
        <ele>734.211</ele>
        <time>2022-08-31T09:41:21Z</time>
      </trkpt>
      <trkpt lat="42.414792" lon="-2.898202">
        <ele>727.612</ele>
        <time>2022-08-31T09:41:41Z</time>
      </trkpt>
      <trkpt lat="42.415544" lon="-2.898588">
        <ele>726.080</ele>
        <time>2022-08-31T09:42:01Z</time>
      </trkpt>
      <trkpt lat="42.422158" lon="-2.899725">
        <ele>706.242</ele>
        <time>2022-08-31T09:42:21Z</time>
      </trkpt>
      <trkpt lat="42.423789" lon="-2.900305">
        <ele>703.086</ele>
        <time>2022-08-31T09:42:41Z</time>
      </trkpt>
      <trkpt lat="42.423932" lon="-2.900090">
        <ele>702.296</ele>
        <time>2022-08-31T09:43:01Z</time>
      </trkpt>
      <trkpt lat="42.424256" lon="-2.900219">
        <ele>701.259</ele>
        <time>2022-08-31T09:43:21Z</time>
      </trkpt>
      <trkpt lat="42.424351" lon="-2.900627">
        <ele>700.669</ele>
        <time>2022-08-31T09:43:41Z</time>
      </trkpt>
      <trkpt lat="42.426909" lon="-2.902064">
        <ele>692.104</ele>
        <time>2022-08-31T09:44:01Z</time>
      </trkpt>
      <trkpt lat="42.427812" lon="-2.902794">
        <ele>688.924</ele>
        <time>2022-08-31T09:44:21Z</time>
      </trkpt>
      <trkpt lat="42.429840" lon="-2.904038">
        <ele>681.308</ele>
        <time>2022-08-31T09:44:41Z</time>
      </trkpt>
      <trkpt lat="42.431297" lon="-2.905326">
        <ele>676.432</ele>
        <time>2022-08-31T09:45:01Z</time>
      </trkpt>
      <trkpt lat="42.431883" lon="-2.906034">
        <ele>674.480</ele>
        <time>2022-08-31T09:45:21Z</time>
      </trkpt>
      <trkpt lat="42.432358" lon="-2.907107">
        <ele>669.941</ele>
        <time>2022-08-31T09:45:41Z</time>
      </trkpt>
      <trkpt lat="42.432595" lon="-2.907922">
        <ele>668.899</ele>
        <time>2022-08-31T09:46:01Z</time>
      </trkpt>
      <trkpt lat="42.432849" lon="-2.910755">
        <ele>662.081</ele>
        <time>2022-08-31T09:46:21Z</time>
      </trkpt>
      <trkpt lat="42.433308" lon="-2.913136">
        <ele>660.085</ele>
        <time>2022-08-31T09:46:41Z</time>
      </trkpt>
      <trkpt lat="42.433981" lon="-2.915636">
        <ele>662.035</ele>
        <time>2022-08-31T09:47:01Z</time>
      </trkpt>
      <trkpt lat="42.439065" lon="-2.943553">
        <ele>636.038</ele>
        <time>2022-08-31T09:47:21Z</time>
      </trkpt>
      <trkpt lat="42.439338" lon="-2.943842">
        <ele>635.975</ele>
        <time>2022-08-31T09:47:41Z</time>
      </trkpt>
      <trkpt lat="42.439334" lon="-2.944990">
        <ele>636.028</ele>
        <time>2022-08-31T09:48:01Z</time>
      </trkpt>
      <trkpt lat="42.440707" lon="-2.951476">
        <ele>638.020</ele>
        <time>2022-08-31T09:48:21Z</time>
      </trkpt>
      <trkpt lat="42.441153" lon="-2.957152">
        <ele>638.808</ele>
        <time>2022-08-31T09:48:41Z</time>
      </trkpt>
      <trkpt lat="42.440282" lon="-2.957481">
        <ele>640.053</ele>
        <time>2022-08-31T09:49:01Z</time>
      </trkpt>
      <trkpt lat="42.440236" lon="-2.957685">
        <ele>640.781</ele>
        <time>2022-08-31T09:49:21Z</time>
      </trkpt>
      <trkpt lat="42.441101" lon="-2.958557">
        <ele>639.832</ele>
        <time>2022-08-31T09:49:41Z</time>
      </trkpt>
      <trkpt lat="42.441394" lon="-2.959083">
        <ele>640.050</ele>
        <time>2022-08-31T09:50:01Z</time>
      </trkpt>
      <trkpt lat="42.447932" lon="-2.980133">
        <ele>634.722</ele>
        <time>2022-08-31T09:50:21Z</time>
      </trkpt>
      <trkpt lat="42.448189" lon="-2.980610">
        <ele>635.676</ele>
        <time>2022-08-31T09:50:41Z</time>
      </trkpt>
      <trkpt lat="42.450762" lon="-2.981603">
        <ele>639.366</ele>
        <time>2022-08-31T09:51:01Z</time>
      </trkpt>
      <trkpt lat="42.451071" lon="-2.981860">
        <ele>638.489</ele>
        <time>2022-08-31T09:51:21Z</time>
      </trkpt>
      <trkpt lat="42.451189" lon="-2.982252">
        <ele>637.423</ele>
        <time>2022-08-31T09:51:41Z</time>
      </trkpt>
      <trkpt lat="42.451170" lon="-2.982606">
        <ele>637.683</ele>
        <time>2022-08-31T09:52:01Z</time>
      </trkpt>
      <trkpt lat="42.450168" lon="-2.984440">
        <ele>641.411</ele>
        <time>2022-08-31T09:52:21Z</time>
      </trkpt>
      <trkpt lat="42.450097" lon="-2.986098">
        <ele>645.608</ele>
        <time>2022-08-31T09:52:41Z</time>
      </trkpt>
      <trkpt lat="42.451641" lon="-2.997036">
        <ele>660.638</ele>
        <time>2022-08-31T09:53:01Z</time>
      </trkpt>
      <trkpt lat="42.453180" lon="-3.013923">
        <ele>682.426</ele>
        <time>2022-08-31T09:53:21Z</time>
      </trkpt>
      <trkpt lat="42.453545" lon="-3.019288">
        <ele>690.267</ele>
        <time>2022-08-31T09:53:41Z</time>
      </trkpt>
      <trkpt lat="42.453782" lon="-3.020854">
        <ele>693.645</ele>
        <time>2022-08-31T09:54:01Z</time>
      </trkpt>
      <trkpt lat="42.454114" lon="-3.021498">
        <ele>694.647</ele>
        <time>2022-08-31T09:54:21Z</time>
      </trkpt>
      <trkpt lat="42.456838" lon="-3.024791">
        <ele>682.211</ele>
        <time>2022-08-31T09:54:41Z</time>
      </trkpt>
      <trkpt lat="42.457265" lon="-3.026884">
        <ele>678.841</ele>
        <time>2022-08-31T09:55:01Z</time>
      </trkpt>
      <trkpt lat="42.457265" lon="-3.028268">
        <ele>677.014</ele>
        <time>2022-08-31T09:55:21Z</time>
      </trkpt>
      <trkpt lat="42.456592" lon="-3.031701">
        <ele>667.572</ele>
        <time>2022-08-31T09:55:41Z</time>
      </trkpt>
      <trkpt lat="42.455262" lon="-3.035649">
        <ele>675.813</ele>
        <time>2022-08-31T09:56:01Z</time>
      </trkpt>
      <trkpt lat="42.448510" lon="-3.047376">
        <ele>699.214</ele>
        <time>2022-08-31T09:56:21Z</time>
      </trkpt>
      <trkpt lat="42.441171" lon="-3.057493">
        <ele>725.008</ele>
        <time>2022-08-31T09:56:41Z</time>
      </trkpt>
      <trkpt lat="42.437334" lon="-3.066205">
        <ele>742.863</ele>
        <time>2022-08-31T09:57:01Z</time>
      </trkpt>
      <trkpt lat="42.437291" lon="-3.071043">
        <ele>749.411</ele>
        <time>2022-08-31T09:57:21Z</time>
      </trkpt>
      <trkpt lat="42.438011" lon="-3.082931">
        <ele>766.142</ele>
        <time>2022-08-31T09:57:41Z</time>
      </trkpt>
      <trkpt lat="42.438004" lon="-3.084522">
        <ele>765.090</ele>
        <time>2022-08-31T09:58:01Z</time>
      </trkpt>
      <trkpt lat="42.437251" lon="-3.086472">
        <ele>760.052</ele>
        <time>2022-08-31T09:58:21Z</time>
      </trkpt>
      <trkpt lat="42.436230" lon="-3.087308">
        <ele>753.726</ele>
        <time>2022-08-31T09:58:41Z</time>
      </trkpt>
      <trkpt lat="42.435802" lon="-3.087845">
        <ele>753.366</ele>
        <time>2022-08-31T09:59:01Z</time>
      </trkpt>
      <trkpt lat="42.435343" lon="-3.088928">
        <ele>752.399</ele>
        <time>2022-08-31T09:59:21Z</time>
      </trkpt>
      <trkpt lat="42.432350" lon="-3.101031">
        <ele>749.943</ele>
        <time>2022-08-31T09:59:41Z</time>
      </trkpt>
      <trkpt lat="42.430548" lon="-3.122531">
        <ele>785.064</ele>
        <time>2022-08-31T10:00:01Z</time>
      </trkpt>
      <trkpt lat="42.431233" lon="-3.128110">
        <ele>785.010</ele>
        <time>2022-08-31T10:00:21Z</time>
      </trkpt>
      <trkpt lat="42.431206" lon="-3.129333">
        <ele>789.808</ele>
        <time>2022-08-31T10:00:41Z</time>
      </trkpt>
      <trkpt lat="42.430548" lon="-3.131184">
        <ele>791.010</ele>
        <time>2022-08-31T10:01:01Z</time>
      </trkpt>
      <trkpt lat="42.429455" lon="-3.132627">
        <ele>783.578</ele>
        <time>2022-08-31T10:01:21Z</time>
      </trkpt>
      <trkpt lat="42.428644" lon="-3.134494">
        <ele>780.879</ele>
        <time>2022-08-31T10:01:41Z</time>
      </trkpt>
      <trkpt lat="42.420756" lon="-3.158580">
        <ele>821.737</ele>
        <time>2022-08-31T10:02:01Z</time>
      </trkpt>
      <trkpt lat="42.415964" lon="-3.177527">
        <ele>802.419</ele>
        <time>2022-08-31T10:02:21Z</time>
      </trkpt>
      <trkpt lat="42.415980" lon="-3.179480">
        <ele>797.913</ele>
        <time>2022-08-31T10:02:41Z</time>
      </trkpt>
      <trkpt lat="42.417928" lon="-3.186904">
        <ele>782.363</ele>
        <time>2022-08-31T10:03:01Z</time>
      </trkpt>
      <trkpt lat="42.418055" lon="-3.187151">
        <ele>780.316</ele>
        <time>2022-08-31T10:03:21Z</time>
      </trkpt>
      <trkpt lat="42.419607" lon="-3.188444">
        <ele>773.125</ele>
        <time>2022-08-31T10:03:41Z</time>
      </trkpt>
      <trkpt lat="42.420787" lon="-3.189179">
        <ele>770.226</ele>
        <time>2022-08-31T10:04:01Z</time>
      </trkpt>
      <trkpt lat="42.420748" lon="-3.188621">
        <ele>769.308</ele>
        <time>2022-08-31T10:04:21Z</time>
      </trkpt>
      <trkpt lat="42.420772" lon="-3.189082">
        <ele>770.208</ele>
        <time>2022-08-31T10:04:41Z</time>
      </trkpt>
      <trkpt lat="42.420720" lon="-3.189211">
        <ele>770.338</ele>
        <time>2022-08-31T10:05:01Z</time>
      </trkpt>
      <trkpt lat="42.420582" lon="-3.189157">
        <ele>770.966</ele>
        <time>2022-08-31T10:05:21Z</time>
      </trkpt>
      <trkpt lat="42.420582" lon="-3.189908">
        <ele>769.397</ele>
        <time>2022-08-31T10:05:41Z</time>
      </trkpt>
      <trkpt lat="42.420423" lon="-3.190096">
        <ele>768.725</ele>
        <time>2022-08-31T10:06:01Z</time>
      </trkpt>
      <trkpt lat="42.420273" lon="-3.190058">
        <ele>768.887</ele>
        <time>2022-08-31T10:06:21Z</time>
      </trkpt>
      <trkpt lat="42.419766" lon="-3.190745">
        <ele>768.851</ele>
        <time>2022-08-31T10:06:41Z</time>
      </trkpt>
      <trkpt lat="42.419441" lon="-3.190616">
        <ele>769.031</ele>
        <time>2022-08-31T10:07:01Z</time>
      </trkpt>
      <trkpt lat="42.419124" lon="-3.191003">
        <ele>769.214</ele>
        <time>2022-08-31T10:07:21Z</time>
      </trkpt>
      <trkpt lat="42.417548" lon="-3.200262">
        <ele>766.851</ele>
        <time>2022-08-31T10:07:41Z</time>
      </trkpt>
      <trkpt lat="42.417675" lon="-3.201002">
        <ele>766.801</ele>
        <time>2022-08-31T10:08:01Z</time>
      </trkpt>
      <trkpt lat="42.418744" lon="-3.203716">
        <ele>766.611</ele>
        <time>2022-08-31T10:08:21Z</time>
      </trkpt>
      <trkpt lat="42.418736" lon="-3.204317">
        <ele>768.508</ele>
        <time>2022-08-31T10:08:41Z</time>
      </trkpt>
      <trkpt lat="42.416835" lon="-3.208523">
        <ele>776.991</ele>
        <time>2022-08-31T10:09:01Z</time>
      </trkpt>
      <trkpt lat="42.416827" lon="-3.209091">
        <ele>776.689</ele>
        <time>2022-08-31T10:09:21Z</time>
      </trkpt>
      <trkpt lat="42.416590" lon="-3.209167">
        <ele>777.320</ele>
        <time>2022-08-31T10:09:41Z</time>
      </trkpt>
      <trkpt lat="42.412970" lon="-3.228210">
        <ele>797.948</ele>
        <time>2022-08-31T10:10:01Z</time>
      </trkpt>
      <trkpt lat="42.414142" lon="-3.241428">
        <ele>816.920</ele>
        <time>2022-08-31T10:10:21Z</time>
      </trkpt>
      <trkpt lat="42.413794" lon="-3.243595">
        <ele>820.344</ele>
        <time>2022-08-31T10:10:41Z</time>
      </trkpt>
      <trkpt lat="42.413017" lon="-3.246439">
        <ele>823.194</ele>
        <time>2022-08-31T10:11:01Z</time>
      </trkpt>
      <trkpt lat="42.408787" lon="-3.260214">
        <ele>841.997</ele>
        <time>2022-08-31T10:11:21Z</time>
      </trkpt>
      <trkpt lat="42.407219" lon="-3.270493">
        <ele>870.062</ele>
        <time>2022-08-31T10:11:41Z</time>
      </trkpt>
      <trkpt lat="42.406031" lon="-3.273185">
        <ele>872.483</ele>
        <time>2022-08-31T10:12:01Z</time>
      </trkpt>
      <trkpt lat="42.403987" lon="-3.282326">
        <ele>907.511</ele>
        <time>2022-08-31T10:12:21Z</time>
      </trkpt>
      <trkpt lat="42.403472" lon="-3.283367">
        <ele>907.808</ele>
        <time>2022-08-31T10:12:41Z</time>
      </trkpt>
      <trkpt lat="42.402402" lon="-3.284869">
        <ele>903.492</ele>
        <time>2022-08-31T10:13:01Z</time>
      </trkpt>
      <trkpt lat="42.402212" lon="-3.285513">
        <ele>905.160</ele>
        <time>2022-08-31T10:13:21Z</time>
      </trkpt>
      <trkpt lat="42.401697" lon="-3.291543">
        <ele>927.141</ele>
        <time>2022-08-31T10:13:41Z</time>
      </trkpt>
      <trkpt lat="42.400532" lon="-3.297272">
        <ele>945.239</ele>
        <time>2022-08-31T10:14:01Z</time>
      </trkpt>
      <trkpt lat="42.400120" lon="-3.298366">
        <ele>944.971</ele>
        <time>2022-08-31T10:14:21Z</time>
      </trkpt>
      <trkpt lat="42.399796" lon="-3.298795">
        <ele>942.775</ele>
        <time>2022-08-31T10:14:41Z</time>
      </trkpt>
      <trkpt lat="42.391508" lon="-3.305726">
        <ele>936.665</ele>
        <time>2022-08-31T10:15:01Z</time>
      </trkpt>
      <trkpt lat="42.390248" lon="-3.307915">
        <ele>937.548</ele>
        <time>2022-08-31T10:15:21Z</time>
      </trkpt>
      <trkpt lat="42.389527" lon="-3.308419">
        <ele>941.533</ele>
        <time>2022-08-31T10:15:41Z</time>
      </trkpt>
      <trkpt lat="42.389123" lon="-3.308644">
        <ele>943.623</ele>
        <time>2022-08-31T10:16:01Z</time>
      </trkpt>
      <trkpt lat="42.388354" lon="-3.308762">
        <ele>945.115</ele>
        <time>2022-08-31T10:16:21Z</time>
      </trkpt>
      <trkpt lat="42.386508" lon="-3.308998">
        <ele>949.808</ele>
        <time>2022-08-31T10:16:41Z</time>
      </trkpt>
      <trkpt lat="42.384923" lon="-3.308945">
        <ele>950.279</ele>
        <time>2022-08-31T10:17:01Z</time>
      </trkpt>
      <trkpt lat="42.384320" lon="-3.309202">
        <ele>952.177</ele>
        <time>2022-08-31T10:17:21Z</time>
      </trkpt>
      <trkpt lat="42.383797" lon="-3.308880">
        <ele>953.218</ele>
        <time>2022-08-31T10:17:41Z</time>
      </trkpt>
      <trkpt lat="42.383306" lon="-3.308945">
        <ele>955.966</ele>
        <time>2022-08-31T10:18:01Z</time>
      </trkpt>
      <trkpt lat="42.381642" lon="-3.309245">
        <ele>963.918</ele>
        <time>2022-08-31T10:18:21Z</time>
      </trkpt>
      <trkpt lat="42.379772" lon="-3.309846">
        <ele>976.242</ele>
        <time>2022-08-31T10:18:41Z</time>
      </trkpt>
      <trkpt lat="42.378789" lon="-3.309953">
        <ele>981.942</ele>
        <time>2022-08-31T10:19:01Z</time>
      </trkpt>
      <trkpt lat="42.378725" lon="-3.310318">
        <ele>982.155</ele>
        <time>2022-08-31T10:19:21Z</time>
      </trkpt>
      <trkpt lat="42.379439" lon="-3.311756">
        <ele>996.452</ele>
        <time>2022-08-31T10:19:41Z</time>
      </trkpt>
      <trkpt lat="42.379645" lon="-3.313816">
        <ele>1006.053</ele>
        <time>2022-08-31T10:20:01Z</time>
      </trkpt>
      <trkpt lat="42.379296" lon="-3.318536">
        <ele>1027.308</ele>
        <time>2022-08-31T10:20:21Z</time>
      </trkpt>
      <trkpt lat="42.377457" lon="-3.323708">
        <ele>1055.608</ele>
        <time>2022-08-31T10:20:41Z</time>
      </trkpt>
      <trkpt lat="42.376855" lon="-3.327870">
        <ele>1075.261</ele>
        <time>2022-08-31T10:21:01Z</time>
      </trkpt>
      <trkpt lat="42.376585" lon="-3.328815">
        <ele>1082.119</ele>
        <time>2022-08-31T10:21:21Z</time>
      </trkpt>
      <trkpt lat="42.375761" lon="-3.330059">
        <ele>1089.360</ele>
        <time>2022-08-31T10:21:41Z</time>
      </trkpt>
      <trkpt lat="42.375064" lon="-3.332677">
        <ele>1103.468</ele>
        <time>2022-08-31T10:22:01Z</time>
      </trkpt>
      <trkpt lat="42.374176" lon="-3.333836">
        <ele>1111.370</ele>
        <time>2022-08-31T10:22:21Z</time>
      </trkpt>
      <trkpt lat="42.373859" lon="-3.334737">
        <ele>1117.124</ele>
        <time>2022-08-31T10:22:41Z</time>
      </trkpt>
      <trkpt lat="42.373447" lon="-3.337269">
        <ele>1128.034</ele>
        <time>2022-08-31T10:23:01Z</time>
      </trkpt>
      <trkpt lat="42.373193" lon="-3.340359">
        <ele>1144.347</ele>
        <time>2022-08-31T10:23:21Z</time>
      </trkpt>
      <trkpt lat="42.373019" lon="-3.340831">
        <ele>1143.237</ele>
        <time>2022-08-31T10:23:41Z</time>
      </trkpt>
      <trkpt lat="42.369634" lon="-3.347332">
        <ele>1130.049</ele>
        <time>2022-08-31T10:24:01Z</time>
      </trkpt>
      <trkpt lat="42.369159" lon="-3.347901">
        <ele>1131.813</ele>
        <time>2022-08-31T10:24:21Z</time>
      </trkpt>
      <trkpt lat="42.367280" lon="-3.349167">
        <ele>1143.208</ele>
        <time>2022-08-31T10:24:41Z</time>
      </trkpt>
      <trkpt lat="42.366765" lon="-3.349682">
        <ele>1145.019</ele>
        <time>2022-08-31T10:25:01Z</time>
      </trkpt>
      <trkpt lat="42.366305" lon="-3.350219">
        <ele>1150.027</ele>
        <time>2022-08-31T10:25:21Z</time>
      </trkpt>
      <trkpt lat="42.365877" lon="-3.351120">
        <ele>1155.048</ele>
        <time>2022-08-31T10:25:41Z</time>
      </trkpt>
      <trkpt lat="42.363792" lon="-3.361098">
        <ele>1141.056</ele>
        <time>2022-08-31T10:26:01Z</time>
      </trkpt>
      <trkpt lat="42.363641" lon="-3.364112">
        <ele>1128.068</ele>
        <time>2022-08-31T10:26:21Z</time>
      </trkpt>
      <trkpt lat="42.364196" lon="-3.367074">
        <ele>1116.382</ele>
        <time>2022-08-31T10:26:41Z</time>
      </trkpt>
      <trkpt lat="42.364212" lon="-3.368168">
        <ele>1110.912</ele>
        <time>2022-08-31T10:27:01Z</time>
      </trkpt>
      <trkpt lat="42.362246" lon="-3.379369">
        <ele>1121.225</ele>
        <time>2022-08-31T10:27:21Z</time>
      </trkpt>
      <trkpt lat="42.361874" lon="-3.380345">
        <ele>1120.314</ele>
        <time>2022-08-31T10:27:41Z</time>
      </trkpt>
      <trkpt lat="42.361033" lon="-3.381740">
        <ele>1114.054</ele>
        <time>2022-08-31T10:28:01Z</time>
      </trkpt>
      <trkpt lat="42.360399" lon="-3.384240">
        <ele>1116.009</ele>
        <time>2022-08-31T10:28:21Z</time>
      </trkpt>
      <trkpt lat="42.359939" lon="-3.385270">
        <ele>1117.208</ele>
        <time>2022-08-31T10:28:41Z</time>
      </trkpt>
      <trkpt lat="42.358734" lon="-3.386879">
        <ele>1111.917</ele>
        <time>2022-08-31T10:29:01Z</time>
      </trkpt>
      <trkpt lat="42.358480" lon="-3.387480">
        <ele>1107.615</ele>
        <time>2022-08-31T10:29:21Z</time>
      </trkpt>
      <trkpt lat="42.353176" lon="-3.403831">
        <ele>1095.536</ele>
        <time>2022-08-31T10:29:41Z</time>
      </trkpt>
      <trkpt lat="42.351016" lon="-3.409485">
        <ele>1076.944</ele>
        <time>2022-08-31T10:30:01Z</time>
      </trkpt>
      <trkpt lat="42.350877" lon="-3.412988">
        <ele>1080.336</ele>
        <time>2022-08-31T10:30:21Z</time>
      </trkpt>
      <trkpt lat="42.350861" lon="-3.433732">
        <ele>1059.820</ele>
        <time>2022-08-31T10:30:41Z</time>
      </trkpt>
      <trkpt lat="42.350639" lon="-3.434966">
        <ele>1057.190</ele>
        <time>2022-08-31T10:31:01Z</time>
      </trkpt>
      <trkpt lat="42.349545" lon="-3.437551">
        <ele>1057.253</ele>
        <time>2022-08-31T10:31:21Z</time>
      </trkpt>
      <trkpt lat="42.349220" lon="-3.440319">
        <ele>1050.813</ele>
        <time>2022-08-31T10:31:41Z</time>
      </trkpt>
      <trkpt lat="42.349252" lon="-3.443227">
        <ele>1046.243</ele>
        <time>2022-08-31T10:32:01Z</time>
      </trkpt>
      <trkpt lat="42.348609" lon="-3.449959">
        <ele>1016.207</ele>
        <time>2022-08-31T10:32:21Z</time>
      </trkpt>
      <trkpt lat="42.348625" lon="-3.450539">
        <ele>1014.008</ele>
        <time>2022-08-31T10:32:41Z</time>
      </trkpt>
      <trkpt lat="42.350477" lon="-3.459889">
        <ele>995.317</ele>
        <time>2022-08-31T10:33:01Z</time>
      </trkpt>
      <trkpt lat="42.350560" lon="-3.462099">
        <ele>999.545</ele>
        <time>2022-08-31T10:33:21Z</time>
      </trkpt>
      <trkpt lat="42.350362" lon="-3.463547">
        <ele>1000.946</ele>
        <time>2022-08-31T10:33:41Z</time>
      </trkpt>
      <trkpt lat="42.354699" lon="-3.462936">
        <ele>984.144</ele>
        <time>2022-08-31T10:34:01Z</time>
      </trkpt>
      <trkpt lat="42.355087" lon="-3.462785">
        <ele>981.796</ele>
        <time>2022-08-31T10:34:21Z</time>
      </trkpt>
      <trkpt lat="42.356102" lon="-3.461992">
        <ele>979.020</ele>
        <time>2022-08-31T10:34:41Z</time>
      </trkpt>
      <trkpt lat="42.356998" lon="-3.462743">
        <ele>978.160</ele>
        <time>2022-08-31T10:35:01Z</time>
      </trkpt>
      <trkpt lat="42.358322" lon="-3.463322">
        <ele>978.273</ele>
        <time>2022-08-31T10:35:21Z</time>
      </trkpt>
      <trkpt lat="42.364284" lon="-3.467485">
        <ele>967.499</ele>
        <time>2022-08-31T10:35:41Z</time>
      </trkpt>
      <trkpt lat="42.366582" lon="-3.474641">
        <ele>959.707</ele>
        <time>2022-08-31T10:36:01Z</time>
      </trkpt>
      <trkpt lat="42.369404" lon="-3.478600">
        <ele>967.327</ele>
        <time>2022-08-31T10:36:21Z</time>
      </trkpt>
      <trkpt lat="42.369706" lon="-3.478761">
        <ele>966.608</ele>
        <time>2022-08-31T10:36:41Z</time>
      </trkpt>
      <trkpt lat="42.369872" lon="-3.478653">
        <ele>966.165</ele>
        <time>2022-08-31T10:37:01Z</time>
      </trkpt>
      <trkpt lat="42.370260" lon="-3.479683">
        <ele>967.183</ele>
        <time>2022-08-31T10:37:21Z</time>
      </trkpt>
      <trkpt lat="42.370213" lon="-3.480327">
        <ele>965.194</ele>
        <time>2022-08-31T10:37:41Z</time>
      </trkpt>
      <trkpt lat="42.371275" lon="-3.482977">
        <ele>953.772</ele>
        <time>2022-08-31T10:38:01Z</time>
      </trkpt>
      <trkpt lat="42.371703" lon="-3.484941">
        <ele>948.964</ele>
        <time>2022-08-31T10:38:21Z</time>
      </trkpt>
      <trkpt lat="42.371770" lon="-3.489388">
        <ele>949.178</ele>
        <time>2022-08-31T10:38:41Z</time>
      </trkpt>
      <trkpt lat="42.374002" lon="-3.501307">
        <ele>954.288</ele>
        <time>2022-08-31T10:39:01Z</time>
      </trkpt>
      <trkpt lat="42.375270" lon="-3.505443">
        <ele>953.621</ele>
        <time>2022-08-31T10:39:21Z</time>
      </trkpt>
      <trkpt lat="42.378967" lon="-3.512009">
        <ele>952.031</ele>
        <time>2022-08-31T10:39:41Z</time>
      </trkpt>
      <trkpt lat="42.379641" lon="-3.513930">
        <ele>956.561</ele>
        <time>2022-08-31T10:40:01Z</time>
      </trkpt>
      <trkpt lat="42.383968" lon="-3.518624">
        <ele>955.507</ele>
        <time>2022-08-31T10:40:21Z</time>
      </trkpt>
      <trkpt lat="42.386294" lon="-3.521955">
        <ele>950.108</ele>
        <time>2022-08-31T10:40:41Z</time>
      </trkpt>
      <trkpt lat="42.387397" lon="-3.523162">
        <ele>952.019</ele>
        <time>2022-08-31T10:41:01Z</time>
      </trkpt>
      <trkpt lat="42.389107" lon="-3.526547">
        <ele>949.017</ele>
        <time>2022-08-31T10:41:21Z</time>
      </trkpt>
      <trkpt lat="42.390692" lon="-3.531203">
        <ele>942.878</ele>
        <time>2022-08-31T10:41:41Z</time>
      </trkpt>
      <trkpt lat="42.392403" lon="-3.532544">
        <ele>941.616</ele>
        <time>2022-08-31T10:42:01Z</time>
      </trkpt>
      <trkpt lat="42.392894" lon="-3.532684">
        <ele>938.678</ele>
        <time>2022-08-31T10:42:21Z</time>
      </trkpt>
      <trkpt lat="42.397110" lon="-3.532834">
        <ele>921.232</ele>
        <time>2022-08-31T10:42:41Z</time>
      </trkpt>
      <trkpt lat="42.398203" lon="-3.532695">
        <ele>917.482</ele>
        <time>2022-08-31T10:43:01Z</time>
      </trkpt>
      <trkpt lat="42.399657" lon="-3.532223">
        <ele>916.235</ele>
        <time>2022-08-31T10:43:21Z</time>
      </trkpt>
      <trkpt lat="42.400073" lon="-3.532324">
        <ele>913.734</ele>
        <time>2022-08-31T10:43:41Z</time>
      </trkpt>
      <trkpt lat="42.400105" lon="-3.532695">
        <ele>912.955</ele>
        <time>2022-08-31T10:44:01Z</time>
      </trkpt>
      <trkpt lat="42.399875" lon="-3.533456">
        <ele>912.010</ele>
        <time>2022-08-31T10:44:21Z</time>
      </trkpt>
      <trkpt lat="42.401297" lon="-3.541664">
        <ele>909.708</ele>
        <time>2022-08-31T10:44:41Z</time>
      </trkpt>
      <trkpt lat="42.401590" lon="-3.542023">
        <ele>908.949</ele>
        <time>2022-08-31T10:45:01Z</time>
      </trkpt>
      <trkpt lat="42.403056" lon="-3.543085">
        <ele>908.997</ele>
        <time>2022-08-31T10:45:21Z</time>
      </trkpt>
      <trkpt lat="42.399756" lon="-3.548090">
        <ele>917.128</ele>
        <time>2022-08-31T10:45:41Z</time>
      </trkpt>
      <trkpt lat="42.399407" lon="-3.548777">
        <ele>917.156</ele>
        <time>2022-08-31T10:46:01Z</time>
      </trkpt>
      <trkpt lat="42.398025" lon="-3.553262">
        <ele>918.178</ele>
        <time>2022-08-31T10:46:21Z</time>
      </trkpt>
      <trkpt lat="42.390549" lon="-3.567209">
        <ele>914.162</ele>
        <time>2022-08-31T10:46:41Z</time>
      </trkpt>
      <trkpt lat="42.389757" lon="-3.568497">
        <ele>913.452</ele>
        <time>2022-08-31T10:47:01Z</time>
      </trkpt>
      <trkpt lat="42.387332" lon="-3.571372">
        <ele>916.865</ele>
        <time>2022-08-31T10:47:21Z</time>
      </trkpt>
      <trkpt lat="42.386698" lon="-3.572488">
        <ele>915.958</ele>
        <time>2022-08-31T10:47:41Z</time>
      </trkpt>
      <trkpt lat="42.386056" lon="-3.573947">
        <ele>915.052</ele>
        <time>2022-08-31T10:48:01Z</time>
      </trkpt>
      <trkpt lat="42.384043" lon="-3.581221">
        <ele>904.617</ele>
        <time>2022-08-31T10:48:21Z</time>
      </trkpt>
      <trkpt lat="42.381452" lon="-3.586457">
        <ele>897.008</ele>
        <time>2022-08-31T10:48:41Z</time>
      </trkpt>
      <trkpt lat="42.380568" lon="-3.589670">
        <ele>904.771</ele>
        <time>2022-08-31T10:49:01Z</time>
      </trkpt>
      <trkpt lat="42.380033" lon="-3.589954">
        <ele>904.089</ele>
        <time>2022-08-31T10:49:21Z</time>
      </trkpt>
      <trkpt lat="42.379597" lon="-3.589675">
        <ele>901.380</ele>
        <time>2022-08-31T10:49:41Z</time>
      </trkpt>
      <trkpt lat="42.379340" lon="-3.589053">
        <ele>904.088</ele>
        <time>2022-08-31T10:50:01Z</time>
      </trkpt>
      <trkpt lat="42.378686" lon="-3.589171">
        <ele>900.550</ele>
        <time>2022-08-31T10:50:21Z</time>
      </trkpt>
      <trkpt lat="42.377687" lon="-3.590212">
        <ele>896.244</ele>
        <time>2022-08-31T10:50:41Z</time>
      </trkpt>
      <trkpt lat="42.375317" lon="-3.593291">
        <ele>896.064</ele>
        <time>2022-08-31T10:51:01Z</time>
      </trkpt>
      <trkpt lat="42.374453" lon="-3.594621">
        <ele>897.047</ele>
        <time>2022-08-31T10:51:21Z</time>
      </trkpt>
      <trkpt lat="42.368437" lon="-3.609288">
        <ele>885.543</ele>
        <time>2022-08-31T10:51:41Z</time>
      </trkpt>
      <trkpt lat="42.367773" lon="-3.611412">
        <ele>884.964</ele>
        <time>2022-08-31T10:52:01Z</time>
      </trkpt>
      <trkpt lat="42.367304" lon="-3.614910">
        <ele>883.810</ele>
        <time>2022-08-31T10:52:21Z</time>
      </trkpt>
      <trkpt lat="42.366899" lon="-3.616583">
        <ele>883.508</ele>
        <time>2022-08-31T10:52:41Z</time>
      </trkpt>
      <trkpt lat="42.364680" lon="-3.621079">
        <ele>891.130</ele>
        <time>2022-08-31T10:53:01Z</time>
      </trkpt>
      <trkpt lat="42.361176" lon="-3.638985">
        <ele>881.888</ele>
        <time>2022-08-31T10:53:21Z</time>
      </trkpt>
      <trkpt lat="42.361481" lon="-3.639640">
        <ele>879.629</ele>
        <time>2022-08-31T10:53:41Z</time>
      </trkpt>
      <trkpt lat="42.361445" lon="-3.640106">
        <ele>878.757</ele>
        <time>2022-08-31T10:54:01Z</time>
      </trkpt>
      <trkpt lat="42.360998" lon="-3.640541">
        <ele>881.649</ele>
        <time>2022-08-31T10:54:21Z</time>
      </trkpt>
      <trkpt lat="42.360811" lon="-3.641093">
        <ele>881.023</ele>
        <time>2022-08-31T10:54:41Z</time>
      </trkpt>
      <trkpt lat="42.359701" lon="-3.646710">
        <ele>881.093</ele>
        <time>2022-08-31T10:55:01Z</time>
      </trkpt>
      <trkpt lat="42.355309" lon="-3.663168">
        <ele>874.036</ele>
        <time>2022-08-31T10:55:21Z</time>
      </trkpt>
      <trkpt lat="42.355123" lon="-3.663350">
        <ele>874.038</ele>
        <time>2022-08-31T10:55:41Z</time>
      </trkpt>
      <trkpt lat="42.354627" lon="-3.664906">
        <ele>873.070</ele>
        <time>2022-08-31T10:56:01Z</time>
      </trkpt>
      <trkpt lat="42.353470" lon="-3.669305">
        <ele>868.717</ele>
        <time>2022-08-31T10:56:21Z</time>
      </trkpt>
      <trkpt lat="42.351139" lon="-3.673124">
        <ele>865.008</ele>
        <time>2022-08-31T10:56:41Z</time>
      </trkpt>
      <trkpt lat="42.344022" lon="-3.686095">
        <ele>860.559</ele>
        <time>2022-08-31T10:57:01Z</time>
      </trkpt>
      <trkpt lat="42.341685" lon="-3.696720">
        <ele>856.927</ele>
        <time>2022-08-31T10:57:21Z</time>
      </trkpt>
      <trkpt lat="42.339984" lon="-3.703095">
        <ele>855.148</ele>
        <time>2022-08-31T10:57:41Z</time>
      </trkpt>
      <trkpt lat="42.340428" lon="-3.704015">
        <ele>856.576</ele>
        <time>2022-08-31T10:58:01Z</time>
      </trkpt>
      <trkpt lat="42.340315" lon="-3.705064">
        <ele>860.666</ele>
        <time>2022-08-31T08:27:50Z</time>
      </trkpt>
      <trkpt lat="42.340537" lon="-3.705343">
        <ele>866.629</ele>
        <time>2022-08-31T08:28:10Z</time>
      </trkpt>
      <trkpt lat="42.340220" lon="-3.706641">
        <ele>873.321</ele>
        <time>2022-08-31T08:28:30Z</time>
      </trkpt>
      <trkpt lat="42.340311" lon="-3.707309">
        <ele>875.208</ele>
        <time>2022-08-31T08:28:50Z</time>
      </trkpt>
      <trkpt lat="42.340957" lon="-3.709168">
        <ele>879.942</ele>
        <time>2022-08-31T08:29:10Z</time>
      </trkpt>
      <trkpt lat="42.341282" lon="-3.710718">
        <ele>875.180</ele>
        <time>2022-08-31T08:29:30Z</time>
      </trkpt>
      <trkpt lat="42.341576" lon="-3.711252">
        <ele>870.545</ele>
        <time>2022-08-31T08:29:50Z</time>
      </trkpt>
      <trkpt lat="42.341818" lon="-3.713191">
        <ele>856.040</ele>
        <time>2022-08-31T08:30:10Z</time>
      </trkpt>
      <trkpt lat="42.342718" lon="-3.714463">
        <ele>852.078</ele>
        <time>2022-08-31T08:30:30Z</time>
      </trkpt>
      <trkpt lat="42.341802" lon="-3.714967">
        <ele>850.186</ele>
        <time>2022-08-31T08:30:50Z</time>
      </trkpt>
      <trkpt lat="42.342345" lon="-3.716415">
        <ele>850.014</ele>
        <time>2022-08-31T08:31:10Z</time>
      </trkpt>
      <trkpt lat="42.341915" lon="-3.716531">
        <ele>850.054</ele>
        <time>2022-08-31T08:31:30Z</time>
      </trkpt>
      <trkpt lat="42.341294" lon="-3.716166">
        <ele>850.097</ele>
        <time>2022-08-31T08:31:50Z</time>
      </trkpt>
      <trkpt lat="42.341064" lon="-3.716429">
        <ele>850.323</ele>
        <time>2022-08-31T08:32:10Z</time>
      </trkpt>
      <trkpt lat="42.342170" lon="-3.719505">
        <ele>849.025</ele>
        <time>2022-08-31T08:32:30Z</time>
      </trkpt>
      <trkpt lat="42.342345" lon="-3.719704">
        <ele>849.008</ele>
        <time>2022-08-31T08:32:50Z</time>
      </trkpt>
      <trkpt lat="42.341286" lon="-3.720535">
        <ele>848.655</ele>
        <time>2022-08-31T08:33:10Z</time>
      </trkpt>
      <trkpt lat="42.342888" lon="-3.736355">
        <ele>844.013</ele>
        <time>2022-08-31T08:33:30Z</time>
      </trkpt>
      <trkpt lat="42.342876" lon="-3.737154">
        <ele>843.688</ele>
        <time>2022-08-31T08:33:50Z</time>
      </trkpt>
      <trkpt lat="42.341826" lon="-3.739482">
        <ele>843.413</ele>
        <time>2022-08-31T08:34:10Z</time>
      </trkpt>
      <trkpt lat="42.340553" lon="-3.744460">
        <ele>851.181</ele>
        <time>2022-08-31T08:34:30Z</time>
      </trkpt>
      <trkpt lat="42.340751" lon="-3.759534">
        <ele>863.619</ele>
        <time>2022-08-31T08:34:50Z</time>
      </trkpt>
      <trkpt lat="42.340779" lon="-3.760296">
        <ele>865.217</ele>
        <time>2022-08-31T08:35:10Z</time>
      </trkpt>
      <trkpt lat="42.340997" lon="-3.760645">
        <ele>865.017</ele>
        <time>2022-08-31T08:35:30Z</time>
      </trkpt>
      <trkpt lat="42.340806" lon="-3.761455">
        <ele>866.047</ele>
        <time>2022-08-31T08:35:50Z</time>
      </trkpt>
      <trkpt lat="42.340925" lon="-3.766894">
        <ele>870.729</ele>
        <time>2022-08-31T08:36:10Z</time>
      </trkpt>
      <trkpt lat="42.342289" lon="-3.773375">
        <ele>865.921</ele>
        <time>2022-08-31T08:36:30Z</time>
      </trkpt>
      <trkpt lat="42.342511" lon="-3.773654">
        <ele>866.208</ele>
        <time>2022-08-31T08:36:50Z</time>
      </trkpt>
      <trkpt lat="42.342353" lon="-3.774340">
        <ele>864.090</ele>
        <time>2022-08-31T08:37:10Z</time>
      </trkpt>
      <trkpt lat="42.342702" lon="-3.776014">
        <ele>859.818</ele>
        <time>2022-08-31T08:37:30Z</time>
      </trkpt>
      <trkpt lat="42.343241" lon="-3.776979">
        <ele>854.153</ele>
        <time>2022-08-31T08:37:50Z</time>
      </trkpt>
      <trkpt lat="42.345874" lon="-3.780370">
        <ele>839.538</ele>
        <time>2022-08-31T08:38:10Z</time>
      </trkpt>
      <trkpt lat="42.346889" lon="-3.784060">
        <ele>831.756</ele>
        <time>2022-08-31T08:38:30Z</time>
      </trkpt>
      <trkpt lat="42.348776" lon="-3.792536">
        <ele>826.594</ele>
        <time>2022-08-31T08:38:50Z</time>
      </trkpt>
      <trkpt lat="42.348934" lon="-3.793030">
        <ele>827.172</ele>
        <time>2022-08-31T08:39:10Z</time>
      </trkpt>
      <trkpt lat="42.349410" lon="-3.793266">
        <ele>827.692</ele>
        <time>2022-08-31T08:39:30Z</time>
      </trkpt>
      <trkpt lat="42.349680" lon="-3.793588">
        <ele>827.241</ele>
        <time>2022-08-31T08:39:50Z</time>
      </trkpt>
      <trkpt lat="42.349712" lon="-3.794188">
        <ele>828.381</ele>
        <time>2022-08-31T08:40:10Z</time>
      </trkpt>
      <trkpt lat="42.349482" lon="-3.794811">
        <ele>830.809</ele>
        <time>2022-08-31T08:40:30Z</time>
      </trkpt>
      <trkpt lat="42.349188" lon="-3.795079">
        <ele>827.408</ele>
        <time>2022-08-31T08:40:50Z</time>
      </trkpt>
      <trkpt lat="42.348689" lon="-3.795240">
        <ele>826.920</ele>
        <time>2022-08-31T08:41:10Z</time>
      </trkpt>
      <trkpt lat="42.348712" lon="-3.795594">
        <ele>825.658</ele>
        <time>2022-08-31T08:41:30Z</time>
      </trkpt>
      <trkpt lat="42.349537" lon="-3.796141">
        <ele>826.343</ele>
        <time>2022-08-31T08:41:50Z</time>
      </trkpt>
      <trkpt lat="42.349886" lon="-3.796774">
        <ele>827.078</ele>
        <time>2022-08-31T08:42:10Z</time>
      </trkpt>
      <trkpt lat="42.350045" lon="-3.798094">
        <ele>824.826</ele>
        <time>2022-08-31T08:42:30Z</time>
      </trkpt>
      <trkpt lat="42.349981" lon="-3.799939">
        <ele>826.924</ele>
        <time>2022-08-31T08:42:50Z</time>
      </trkpt>
      <trkpt lat="42.349410" lon="-3.801355">
        <ele>826.842</ele>
        <time>2022-08-31T08:43:10Z</time>
      </trkpt>
      <trkpt lat="42.348617" lon="-3.802729">
        <ele>827.952</ele>
        <time>2022-08-31T08:43:30Z</time>
      </trkpt>
      <trkpt lat="42.348015" lon="-3.804445">
        <ele>828.793</ele>
        <time>2022-08-31T08:43:50Z</time>
      </trkpt>
      <trkpt lat="42.347666" lon="-3.806977">
        <ele>828.865</ele>
        <time>2022-08-31T08:44:10Z</time>
      </trkpt>
      <trkpt lat="42.348332" lon="-3.812428">
        <ele>828.321</ele>
        <time>2022-08-31T08:44:30Z</time>
      </trkpt>
      <trkpt lat="42.348685" lon="-3.813978">
        <ele>827.408</ele>
        <time>2022-08-31T08:44:50Z</time>
      </trkpt>
      <trkpt lat="42.349125" lon="-3.814997">
        <ele>827.035</ele>
        <time>2022-08-31T08:45:10Z</time>
      </trkpt>
      <trkpt lat="42.349478" lon="-3.815517">
        <ele>828.443</ele>
        <time>2022-08-31T08:45:30Z</time>
      </trkpt>
      <trkpt lat="42.350045" lon="-3.815947">
        <ele>829.448</ele>
        <time>2022-08-31T08:45:50Z</time>
      </trkpt>
      <trkpt lat="42.350996" lon="-3.818307">
        <ele>828.773</ele>
        <time>2022-08-31T08:46:10Z</time>
      </trkpt>
      <trkpt lat="42.364180" lon="-3.827469">
        <ele>825.931</ele>
        <time>2022-08-31T08:46:30Z</time>
      </trkpt>
      <trkpt lat="42.365647" lon="-3.828585">
        <ele>826.669</ele>
        <time>2022-08-31T08:46:50Z</time>
      </trkpt>
      <trkpt lat="42.365972" lon="-3.828982">
        <ele>827.047</ele>
        <time>2022-08-31T08:47:10Z</time>
      </trkpt>
      <trkpt lat="42.367581" lon="-3.832018">
        <ele>827.037</ele>
        <time>2022-08-31T08:47:30Z</time>
      </trkpt>
      <trkpt lat="42.369674" lon="-3.836482">
        <ele>833.235</ele>
        <time>2022-08-31T08:47:50Z</time>
      </trkpt>
      <trkpt lat="42.371116" lon="-3.842146">
        <ele>836.086</ele>
        <time>2022-08-31T08:48:10Z</time>
      </trkpt>
      <trkpt lat="42.372353" lon="-3.847833">
        <ele>845.114</ele>
        <time>2022-08-31T08:48:30Z</time>
      </trkpt>
      <trkpt lat="42.372945" lon="-3.858199">
        <ele>874.008</ele>
        <time>2022-08-31T08:48:50Z</time>
      </trkpt>
      <trkpt lat="42.372716" lon="-3.860157">
        <ele>876.259</ele>
        <time>2022-08-31T08:49:10Z</time>
      </trkpt>
      <trkpt lat="42.372187" lon="-3.862145">
        <ele>877.587</ele>
        <time>2022-08-31T08:49:30Z</time>
      </trkpt>
      <trkpt lat="42.371247" lon="-3.871382">
        <ele>894.032</ele>
        <time>2022-08-31T08:49:50Z</time>
      </trkpt>
      <trkpt lat="42.371719" lon="-3.876012">
        <ele>912.037</ele>
        <time>2022-08-31T08:50:10Z</time>
      </trkpt>
      <trkpt lat="42.370791" lon="-3.886360">
        <ele>919.925</ele>
        <time>2022-08-31T08:50:30Z</time>
      </trkpt>
      <trkpt lat="42.371085" lon="-3.892229">
        <ele>905.643</ele>
        <time>2022-08-31T08:50:50Z</time>
      </trkpt>
      <trkpt lat="42.371323" lon="-3.893409">
        <ele>900.521</ele>
        <time>2022-08-31T08:51:10Z</time>
      </trkpt>
      <trkpt lat="42.371988" lon="-3.895061">
        <ele>893.941</ele>
        <time>2022-08-31T08:51:30Z</time>
      </trkpt>
      <trkpt lat="42.378119" lon="-3.906713">
        <ele>862.653</ele>
        <time>2022-08-31T08:51:50Z</time>
      </trkpt>
      <trkpt lat="42.379748" lon="-3.908730">
        <ele>858.104</ele>
        <time>2022-08-31T08:52:10Z</time>
      </trkpt>
      <trkpt lat="42.380350" lon="-3.909695">
        <ele>855.514</ele>
        <time>2022-08-31T08:52:30Z</time>
      </trkpt>
      <trkpt lat="42.380774" lon="-3.910929">
        <ele>852.608</ele>
        <time>2022-08-31T08:52:50Z</time>
      </trkpt>
      <trkpt lat="42.380905" lon="-3.912994">
        <ele>847.131</ele>
        <time>2022-08-31T08:53:10Z</time>
      </trkpt>
      <trkpt lat="42.380136" lon="-3.916422">
        <ele>838.199</ele>
        <time>2022-08-31T08:53:30Z</time>
      </trkpt>
      <trkpt lat="42.378931" lon="-3.923342">
        <ele>841.044</ele>
        <time>2022-08-31T08:53:50Z</time>
      </trkpt>
      <trkpt lat="42.378820" lon="-3.924726">
        <ele>841.059</ele>
        <time>2022-08-31T08:54:10Z</time>
      </trkpt>
      <trkpt lat="42.379066" lon="-3.926282">
        <ele>839.457</ele>
        <time>2022-08-31T08:54:30Z</time>
      </trkpt>
      <trkpt lat="42.379542" lon="-3.927816">
        <ele>834.995</ele>
        <time>2022-08-31T08:54:50Z</time>
      </trkpt>
      <trkpt lat="42.382165" lon="-3.934211">
        <ele>839.473</ele>
        <time>2022-08-31T08:55:10Z</time>
      </trkpt>
      <trkpt lat="42.382783" lon="-3.936614">
        <ele>842.073</ele>
        <time>2022-08-31T08:55:30Z</time>
      </trkpt>
      <trkpt lat="42.382751" lon="-3.938502">
        <ele>845.031</ele>
        <time>2022-08-31T08:55:50Z</time>
      </trkpt>
      <trkpt lat="42.381951" lon="-3.943856">
        <ele>854.161</ele>
        <time>2022-08-31T08:56:10Z</time>
      </trkpt>
      <trkpt lat="42.381785" lon="-3.950347">
        <ele>864.307</ele>
        <time>2022-08-31T08:56:30Z</time>
      </trkpt>
      <trkpt lat="42.381959" lon="-3.953297">
        <ele>869.908</ele>
        <time>2022-08-31T08:56:50Z</time>
      </trkpt>
      <trkpt lat="42.382339" lon="-3.956151">
        <ele>875.169</ele>
        <time>2022-08-31T08:57:10Z</time>
      </trkpt>
      <trkpt lat="42.383037" lon="-3.958941">
        <ele>880.287</ele>
        <time>2022-08-31T08:57:30Z</time>
      </trkpt>
      <trkpt lat="42.383734" lon="-3.963339">
        <ele>883.322</ele>
        <time>2022-08-31T08:57:50Z</time>
      </trkpt>
      <trkpt lat="42.384241" lon="-3.964970">
        <ele>888.427</ele>
        <time>2022-08-31T08:58:10Z</time>
      </trkpt>
      <trkpt lat="42.385240" lon="-3.967652">
        <ele>897.235</ele>
        <time>2022-08-31T08:58:30Z</time>
      </trkpt>
      <trkpt lat="42.386563" lon="-3.969895">
        <ele>901.053</ele>
        <time>2022-08-31T08:58:50Z</time>
      </trkpt>
      <trkpt lat="42.387011" lon="-3.971627">
        <ele>908.271</ele>
        <time>2022-08-31T08:59:10Z</time>
      </trkpt>
      <trkpt lat="42.387344" lon="-3.972378">
        <ele>909.471</ele>
        <time>2022-08-31T08:59:30Z</time>
      </trkpt>
      <trkpt lat="42.388520" lon="-3.974133">
        <ele>913.572</ele>
        <time>2022-08-31T08:59:50Z</time>
      </trkpt>
      <trkpt lat="42.388691" lon="-3.975522">
        <ele>918.213</ele>
        <time>2022-08-31T09:00:10Z</time>
      </trkpt>
      <trkpt lat="42.388287" lon="-3.978209">
        <ele>924.914</ele>
        <time>2022-08-31T09:00:30Z</time>
      </trkpt>
      <trkpt lat="42.388314" lon="-3.978800">
        <ele>926.708</ele>
        <time>2022-08-31T09:00:50Z</time>
      </trkpt>
      <trkpt lat="42.389337" lon="-3.982522">
        <ele>932.923</ele>
        <time>2022-08-31T09:01:10Z</time>
      </trkpt>
      <trkpt lat="42.389202" lon="-3.982641">
        <ele>932.521</ele>
        <time>2022-08-31T09:01:30Z</time>
      </trkpt>
      <trkpt lat="42.388877" lon="-3.982480">
        <ele>931.916</ele>
        <time>2022-08-31T09:01:50Z</time>
      </trkpt>
      <trkpt lat="42.387649" lon="-3.982930">
        <ele>929.091</ele>
        <time>2022-08-31T09:02:10Z</time>
      </trkpt>
      <trkpt lat="42.387035" lon="-3.984100">
        <ele>931.279</ele>
        <time>2022-08-31T09:02:30Z</time>
      </trkpt>
      <trkpt lat="42.365282" lon="-4.001770">
        <ele>919.647</ele>
        <time>2022-08-31T09:02:50Z</time>
      </trkpt>
      <trkpt lat="42.364886" lon="-4.002231">
        <ele>916.325</ele>
        <time>2022-08-31T09:03:10Z</time>
      </trkpt>
      <trkpt lat="42.363427" lon="-4.003197">
        <ele>905.375</ele>
        <time>2022-08-31T09:03:30Z</time>
      </trkpt>
      <trkpt lat="42.362880" lon="-4.003991">
        <ele>898.319</ele>
        <time>2022-08-31T09:03:50Z</time>
      </trkpt>
      <trkpt lat="42.363237" lon="-4.004527">
        <ele>896.609</ele>
        <time>2022-08-31T09:04:10Z</time>
      </trkpt>
      <trkpt lat="42.363023" lon="-4.005193">
        <ele>893.119</ele>
        <time>2022-08-31T09:04:30Z</time>
      </trkpt>
      <trkpt lat="42.362809" lon="-4.007907">
        <ele>884.008</ele>
        <time>2022-08-31T09:04:50Z</time>
      </trkpt>
      <trkpt lat="42.362833" lon="-4.009806">
        <ele>883.037</ele>
        <time>2022-08-31T09:05:10Z</time>
      </trkpt>
      <trkpt lat="42.363744" lon="-4.012166">
        <ele>879.085</ele>
        <time>2022-08-31T09:05:30Z</time>
      </trkpt>
      <trkpt lat="42.365179" lon="-4.013872">
        <ele>872.890</ele>
        <time>2022-08-31T09:05:50Z</time>
      </trkpt>
      <trkpt lat="42.366765" lon="-4.016576">
        <ele>869.855</ele>
        <time>2022-08-31T09:06:10Z</time>
      </trkpt>
      <trkpt lat="42.367581" lon="-4.019634">
        <ele>865.463</ele>
        <time>2022-08-31T09:06:30Z</time>
      </trkpt>
      <trkpt lat="42.367724" lon="-4.020942">
        <ele>862.281</ele>
        <time>2022-08-31T09:06:50Z</time>
      </trkpt>
      <trkpt lat="42.367676" lon="-4.023399">
        <ele>858.529</ele>
        <time>2022-08-31T09:07:10Z</time>
      </trkpt>
      <trkpt lat="42.367930" lon="-4.024612">
        <ele>856.719</ele>
        <time>2022-08-31T09:07:30Z</time>
      </trkpt>
      <trkpt lat="42.368699" lon="-4.025695">
        <ele>854.779</ele>
        <time>2022-08-31T09:07:50Z</time>
      </trkpt>
      <trkpt lat="42.369499" lon="-4.027879">
        <ele>853.105</ele>
        <time>2022-08-31T09:08:10Z</time>
      </trkpt>
      <trkpt lat="42.370387" lon="-4.029289">
        <ele>852.725</ele>
        <time>2022-08-31T09:08:30Z</time>
      </trkpt>
      <trkpt lat="42.368259" lon="-4.027970">
        <ele>863.908</ele>
        <time>2022-08-31T09:08:50Z</time>
      </trkpt>
      <trkpt lat="42.366594" lon="-4.028233">
        <ele>874.563</ele>
        <time>2022-08-31T09:09:10Z</time>
      </trkpt>
      <trkpt lat="42.363451" lon="-4.028163">
        <ele>890.431</ele>
        <time>2022-08-31T09:09:30Z</time>
      </trkpt>
      <trkpt lat="42.362983" lon="-4.028045">
        <ele>893.486</ele>
        <time>2022-08-31T09:09:50Z</time>
      </trkpt>
      <trkpt lat="42.362452" lon="-4.027712">
        <ele>895.891</ele>
        <time>2022-08-31T09:10:10Z</time>
      </trkpt>
      <trkpt lat="42.360688" lon="-4.025969">
        <ele>908.439</ele>
        <time>2022-08-31T09:10:30Z</time>
      </trkpt>
      <trkpt lat="42.360605" lon="-4.024660">
        <ele>914.377</ele>
        <time>2022-08-31T09:10:50Z</time>
      </trkpt>
      <trkpt lat="42.360871" lon="-4.023496">
        <ele>918.355</ele>
        <time>2022-08-31T09:11:10Z</time>
      </trkpt>
      <trkpt lat="42.360784" lon="-4.022992">
        <ele>920.295</ele>
        <time>2022-08-31T09:11:30Z</time>
      </trkpt>
      <trkpt lat="42.342741" lon="-4.017112">
        <ele>931.993</ele>
        <time>2022-08-31T09:11:50Z</time>
      </trkpt>
      <trkpt lat="42.336445" lon="-4.014162">
        <ele>927.065</ele>
        <time>2022-08-31T09:12:10Z</time>
      </trkpt>
      <trkpt lat="42.326100" lon="-4.009047">
        <ele>927.021</ele>
        <time>2022-08-31T09:12:30Z</time>
      </trkpt>
      <trkpt lat="42.325668" lon="-4.008958">
        <ele>926.908</ele>
        <time>2022-08-31T09:12:50Z</time>
      </trkpt>
      <trkpt lat="42.324587" lon="-4.017123">
        <ele>924.285</ele>
        <time>2022-08-31T09:13:10Z</time>
      </trkpt>
      <trkpt lat="42.324865" lon="-4.017735">
        <ele>923.673</ele>
        <time>2022-08-31T09:13:30Z</time>
      </trkpt>
      <trkpt lat="42.325904" lon="-4.018282">
        <ele>922.488</ele>
        <time>2022-08-31T09:13:50Z</time>
      </trkpt>
      <trkpt lat="42.327514" lon="-4.021007">
        <ele>911.493</ele>
        <time>2022-08-31T09:14:10Z</time>
      </trkpt>
      <trkpt lat="42.327387" lon="-4.024043">
        <ele>902.981</ele>
        <time>2022-08-31T09:14:30Z</time>
      </trkpt>
      <trkpt lat="42.327994" lon="-4.025797">
        <ele>900.019</ele>
        <time>2022-08-31T09:14:50Z</time>
      </trkpt>
      <trkpt lat="42.328129" lon="-4.031703">
        <ele>884.457</ele>
        <time>2022-08-31T09:15:10Z</time>
      </trkpt>
      <trkpt lat="42.327819" lon="-4.033527">
        <ele>880.077</ele>
        <time>2022-08-31T09:15:30Z</time>
      </trkpt>
      <trkpt lat="42.326860" lon="-4.035662">
        <ele>873.494</ele>
        <time>2022-08-31T09:15:50Z</time>
      </trkpt>
      <trkpt lat="42.321366" lon="-4.040490">
        <ele>863.857</ele>
        <time>2022-08-31T09:16:10Z</time>
      </trkpt>
      <trkpt lat="42.320327" lon="-4.041027">
        <ele>859.822</ele>
        <time>2022-08-31T09:16:30Z</time>
      </trkpt>
      <trkpt lat="42.318507" lon="-4.043393">
        <ele>858.308</ele>
        <time>2022-08-31T09:16:50Z</time>
      </trkpt>
      <trkpt lat="42.314342" lon="-4.048333">
        <ele>854.565</ele>
        <time>2022-08-31T09:17:10Z</time>
      </trkpt>
      <trkpt lat="42.309236" lon="-4.064341">
        <ele>836.793</ele>
        <time>2022-08-31T09:17:30Z</time>
      </trkpt>
      <trkpt lat="42.309181" lon="-4.068332">
        <ele>832.878</ele>
        <time>2022-08-31T09:17:50Z</time>
      </trkpt>
      <trkpt lat="42.307395" lon="-4.078406">
        <ele>823.863</ele>
        <time>2022-08-31T09:18:10Z</time>
      </trkpt>
      <trkpt lat="42.306733" lon="-4.080707">
        <ele>822.251</ele>
        <time>2022-08-31T09:18:30Z</time>
      </trkpt>
      <trkpt lat="42.305473" lon="-4.082896">
        <ele>820.199</ele>
        <time>2022-08-31T09:18:50Z</time>
      </trkpt>
      <trkpt lat="42.303682" lon="-4.084859">
        <ele>816.927</ele>
        <time>2022-08-31T09:19:10Z</time>
      </trkpt>
      <trkpt lat="42.303305" lon="-4.086791">
        <ele>816.227</ele>
        <time>2022-08-31T09:19:30Z</time>
      </trkpt>
      <trkpt lat="42.301647" lon="-4.091039">
        <ele>813.638</ele>
        <time>2022-08-31T09:19:50Z</time>
      </trkpt>
      <trkpt lat="42.301123" lon="-4.091554">
        <ele>812.770</ele>
        <time>2022-08-31T09:20:10Z</time>
      </trkpt>
      <trkpt lat="42.299111" lon="-4.092826">
        <ele>812.117</ele>
        <time>2022-08-31T09:20:30Z</time>
      </trkpt>
      <trkpt lat="42.295342" lon="-4.095862">
        <ele>811.008</ele>
        <time>2022-08-31T09:20:50Z</time>
      </trkpt>
      <trkpt lat="42.292818" lon="-4.098984">
        <ele>805.849</ele>
        <time>2022-08-31T09:21:10Z</time>
      </trkpt>
      <trkpt lat="42.291993" lon="-4.100894">
        <ele>804.757</ele>
        <time>2022-08-31T09:21:30Z</time>
      </trkpt>
      <trkpt lat="42.291540" lon="-4.102632">
        <ele>803.632</ele>
        <time>2022-08-31T09:21:50Z</time>
      </trkpt>
      <trkpt lat="42.291540" lon="-4.103512">
        <ele>804.167</ele>
        <time>2022-08-31T09:22:10Z</time>
      </trkpt>
      <trkpt lat="42.292263" lon="-4.124148">
        <ele>788.025</ele>
        <time>2022-08-31T09:22:30Z</time>
      </trkpt>
      <trkpt lat="42.290231" lon="-4.131256">
        <ele>787.943</ele>
        <time>2022-08-31T09:22:50Z</time>
      </trkpt>
      <trkpt lat="42.287473" lon="-4.135226">
        <ele>786.951</ele>
        <time>2022-08-31T09:23:10Z</time>
      </trkpt>
      <trkpt lat="42.286886" lon="-4.137264">
        <ele>786.641</ele>
        <time>2022-08-31T09:23:30Z</time>
      </trkpt>
      <trkpt lat="42.286782" lon="-4.142200">
        <ele>784.457</ele>
        <time>2022-08-31T09:23:50Z</time>
      </trkpt>
      <trkpt lat="42.288596" lon="-4.146502">
        <ele>795.000</ele>
        <time>2022-08-31T09:24:10Z</time>
      </trkpt>
      <trkpt lat="42.288733" lon="-4.146491">
        <ele>795.320</ele>
        <time>2022-08-31T09:24:30Z</time>
      </trkpt>
      <trkpt lat="42.288905" lon="-4.146845">
        <ele>794.408</ele>
        <time>2022-08-31T09:24:50Z</time>
      </trkpt>
      <trkpt lat="42.296405" lon="-4.153057">
        <ele>781.141</ele>
        <time>2022-08-31T09:25:10Z</time>
      </trkpt>
      <trkpt lat="42.301855" lon="-4.158137">
        <ele>776.579</ele>
        <time>2022-08-31T09:25:30Z</time>
      </trkpt>
      <trkpt lat="42.302837" lon="-4.159259">
        <ele>777.234</ele>
        <time>2022-08-31T09:25:50Z</time>
      </trkpt>
      <trkpt lat="42.309704" lon="-4.173517">
        <ele>788.049</ele>
        <time>2022-08-31T09:26:10Z</time>
      </trkpt>
      <trkpt lat="42.309942" lon="-4.173764">
        <ele>787.677</ele>
        <time>2022-08-31T09:26:30Z</time>
      </trkpt>
      <trkpt lat="42.309883" lon="-4.173946">
        <ele>788.185</ele>
        <time>2022-08-31T09:26:50Z</time>
      </trkpt>
      <trkpt lat="42.309502" lon="-4.174188">
        <ele>789.113</ele>
        <time>2022-08-31T09:27:10Z</time>
      </trkpt>
      <trkpt lat="42.304819" lon="-4.184638">
        <ele>817.773</ele>
        <time>2022-08-31T09:27:30Z</time>
      </trkpt>
      <trkpt lat="42.297369" lon="-4.215263">
        <ele>825.457</ele>
        <time>2022-08-31T09:27:50Z</time>
      </trkpt>
      <trkpt lat="42.296183" lon="-4.219018">
        <ele>820.300</ele>
        <time>2022-08-31T09:28:10Z</time>
      </trkpt>
      <trkpt lat="42.291556" lon="-4.225563">
        <ele>820.020</ele>
        <time>2022-08-31T09:28:30Z</time>
      </trkpt>
      <trkpt lat="42.285524" lon="-4.235573">
        <ele>797.008</ele>
        <time>2022-08-31T09:28:50Z</time>
      </trkpt>
      <trkpt lat="42.283476" lon="-4.237654">
        <ele>789.151</ele>
        <time>2022-08-31T09:29:10Z</time>
      </trkpt>
      <trkpt lat="42.280940" lon="-4.242659">
        <ele>774.179</ele>
        <time>2022-08-31T09:29:30Z</time>
      </trkpt>
      <trkpt lat="42.278797" lon="-4.244553">
        <ele>769.584</ele>
        <time>2022-08-31T09:29:50Z</time>
      </trkpt>
      <trkpt lat="42.277531" lon="-4.247267">
        <ele>769.119</ele>
        <time>2022-08-31T09:30:10Z</time>
      </trkpt>
      <trkpt lat="42.270493" lon="-4.259997">
        <ele>769.047</ele>
        <time>2022-08-31T09:30:30Z</time>
      </trkpt>
      <trkpt lat="42.269600" lon="-4.262760">
        <ele>769.025</ele>
        <time>2022-08-31T09:30:50Z</time>
      </trkpt>
      <trkpt lat="42.262852" lon="-4.284314">
        <ele>806.743</ele>
        <time>2022-08-31T09:31:10Z</time>
      </trkpt>
      <trkpt lat="42.260517" lon="-4.294431">
        <ele>810.323</ele>
        <time>2022-08-31T09:31:30Z</time>
      </trkpt>
      <trkpt lat="42.258197" lon="-4.344943">
        <ele>781.011</ele>
        <time>2022-08-31T09:31:50Z</time>
      </trkpt>
      <trkpt lat="42.257867" lon="-4.345704">
        <ele>781.921</ele>
        <time>2022-08-31T09:32:10Z</time>
      </trkpt>
      <trkpt lat="42.257269" lon="-4.346257">
        <ele>783.603</ele>
        <time>2022-08-31T09:32:30Z</time>
      </trkpt>
      <trkpt lat="42.257105" lon="-4.347021">
        <ele>783.708</ele>
        <time>2022-08-31T09:32:50Z</time>
      </trkpt>
      <trkpt lat="42.257385" lon="-4.347496">
        <ele>783.437</ele>
        <time>2022-08-31T09:33:10Z</time>
      </trkpt>
      <trkpt lat="42.253456" lon="-4.357525">
        <ele>787.025</ele>
        <time>2022-08-31T09:33:30Z</time>
      </trkpt>
      <trkpt lat="42.245071" lon="-4.377196">
        <ele>776.080</ele>
        <time>2022-08-31T09:33:50Z</time>
      </trkpt>
      <trkpt lat="42.245518" lon="-4.377934">
        <ele>775.915</ele>
        <time>2022-08-31T09:34:10Z</time>
      </trkpt>
      <trkpt lat="42.261835" lon="-4.398380">
        <ele>785.873</ele>
        <time>2022-08-31T09:34:30Z</time>
      </trkpt>
      <trkpt lat="42.263455" lon="-4.400121">
        <ele>784.871</ele>
        <time>2022-08-31T09:34:50Z</time>
      </trkpt>
      <trkpt lat="42.264408" lon="-4.399799">
        <ele>787.039</ele>
        <time>2022-08-31T09:35:10Z</time>
      </trkpt>
      <trkpt lat="42.264781" lon="-4.399885">
        <ele>788.619</ele>
        <time>2022-08-31T09:35:30Z</time>
      </trkpt>
      <trkpt lat="42.265333" lon="-4.400598">
        <ele>788.117</ele>
        <time>2022-08-31T09:35:50Z</time>
      </trkpt>
      <trkpt lat="42.266127" lon="-4.401282">
        <ele>783.987</ele>
        <time>2022-08-31T09:36:10Z</time>
      </trkpt>
      <trkpt lat="42.266393" lon="-4.402020">
        <ele>783.715</ele>
        <time>2022-08-31T09:36:30Z</time>
      </trkpt>
      <trkpt lat="42.266071" lon="-4.406161">
        <ele>780.008</ele>
        <time>2022-08-31T09:36:50Z</time>
      </trkpt>
      <trkpt lat="42.267975" lon="-4.404936">
        <ele>781.057</ele>
        <time>2022-08-31T09:37:10Z</time>
      </trkpt>
      <trkpt lat="42.268026" lon="-4.405043">
        <ele>781.085</ele>
        <time>2022-08-31T09:37:30Z</time>
      </trkpt>
      <trkpt lat="42.267568" lon="-4.408656">
        <ele>787.430</ele>
        <time>2022-08-31T09:37:50Z</time>
      </trkpt>
      <trkpt lat="42.265980" lon="-4.410769">
        <ele>783.185</ele>
        <time>2022-08-31T09:38:10Z</time>
      </trkpt>
      <trkpt lat="42.265118" lon="-4.411547">
        <ele>782.493</ele>
        <time>2022-08-31T09:38:30Z</time>
      </trkpt>
      <trkpt lat="42.264968" lon="-4.413838">
        <ele>787.561</ele>
        <time>2022-08-31T09:38:50Z</time>
      </trkpt>
      <trkpt lat="42.265214" lon="-4.414347">
        <ele>788.059</ele>
        <time>2022-08-31T09:39:10Z</time>
      </trkpt>
      <trkpt lat="42.265063" lon="-4.415270">
        <ele>787.399</ele>
        <time>2022-08-31T09:39:30Z</time>
      </trkpt>
      <trkpt lat="42.265313" lon="-4.417593">
        <ele>787.436</ele>
        <time>2022-08-31T09:39:50Z</time>
      </trkpt>
      <trkpt lat="42.265678" lon="-4.418237">
        <ele>785.417</ele>
        <time>2022-08-31T09:40:10Z</time>
      </trkpt>
      <trkpt lat="42.265464" lon="-4.419250">
        <ele>781.918</ele>
        <time>2022-08-31T09:40:30Z</time>
      </trkpt>
      <trkpt lat="42.267901" lon="-4.444179">
        <ele>775.908</ele>
        <time>2022-08-31T09:40:50Z</time>
      </trkpt>
      <trkpt lat="42.268759" lon="-4.447301">
        <ele>775.499</ele>
        <time>2022-08-31T09:41:10Z</time>
      </trkpt>
      <trkpt lat="42.268790" lon="-4.448621">
        <ele>776.037</ele>
        <time>2022-08-31T09:41:30Z</time>
      </trkpt>
      <trkpt lat="42.269176" lon="-4.449248">
        <ele>776.012</ele>
        <time>2022-08-31T09:41:50Z</time>
      </trkpt>
      <trkpt lat="42.268711" lon="-4.450257">
        <ele>775.777</ele>
        <time>2022-08-31T09:42:10Z</time>
      </trkpt>
      <trkpt lat="42.268679" lon="-4.450772">
        <ele>775.455</ele>
        <time>2022-08-31T09:42:30Z</time>
      </trkpt>
      <trkpt lat="42.269473" lon="-4.453191">
        <ele>775.923</ele>
        <time>2022-08-31T09:42:50Z</time>
      </trkpt>
      <trkpt lat="42.272954" lon="-4.462445">
        <ele>777.961</ele>
        <time>2022-08-31T09:43:10Z</time>
      </trkpt>
      <trkpt lat="42.273780" lon="-4.463915">
        <ele>778.061</ele>
        <time>2022-08-31T09:43:30Z</time>
      </trkpt>
      <trkpt lat="42.283540" lon="-4.479348">
        <ele>782.773</ele>
        <time>2022-08-31T09:43:50Z</time>
      </trkpt>
      <trkpt lat="42.285219" lon="-4.481494">
        <ele>785.585</ele>
        <time>2022-08-31T09:44:10Z</time>
      </trkpt>
      <trkpt lat="42.286548" lon="-4.482899">
        <ele>783.413</ele>
        <time>2022-08-31T09:44:30Z</time>
      </trkpt>
      <trkpt lat="42.296350" lon="-4.497088">
        <ele>789.108</ele>
        <time>2022-08-31T09:44:50Z</time>
      </trkpt>
      <trkpt lat="42.298106" lon="-4.499905">
        <ele>790.013</ele>
        <time>2022-08-31T09:45:10Z</time>
      </trkpt>
      <trkpt lat="42.298853" lon="-4.501409">
        <ele>789.081</ele>
        <time>2022-08-31T09:45:30Z</time>
      </trkpt>
      <trkpt lat="42.311835" lon="-4.532123">
        <ele>804.136</ele>
        <time>2022-08-31T09:45:50Z</time>
      </trkpt>
      <trkpt lat="42.322209" lon="-4.566144">
        <ele>833.191</ele>
        <time>2022-08-31T09:46:10Z</time>
      </trkpt>
      <trkpt lat="42.322852" lon="-4.567783">
        <ele>841.529</ele>
        <time>2022-08-31T09:46:30Z</time>
      </trkpt>
      <trkpt lat="42.324672" lon="-4.571849">
        <ele>845.197</ele>
        <time>2022-08-31T09:46:50Z</time>
      </trkpt>
      <trkpt lat="42.337440" lon="-4.596373">
        <ele>824.025</ele>
        <time>2022-08-31T09:47:10Z</time>
      </trkpt>
      <trkpt lat="42.337440" lon="-4.599463">
        <ele>826.085</ele>
        <time>2022-08-31T09:47:30Z</time>
      </trkpt>
      <trkpt lat="42.337174" lon="-4.601185">
        <ele>828.244</ele>
        <time>2022-08-31T09:47:50Z</time>
      </trkpt>
      <trkpt lat="42.337319" lon="-4.602196">
        <ele>830.005</ele>
        <time>2022-08-31T09:48:10Z</time>
      </trkpt>
      <trkpt lat="42.337965" lon="-4.602094">
        <ele>830.015</ele>
        <time>2022-08-31T09:48:30Z</time>
      </trkpt>
      <trkpt lat="42.338174" lon="-4.602335">
        <ele>829.508</ele>
        <time>2022-08-31T09:48:50Z</time>
      </trkpt>
      <trkpt lat="42.338640" lon="-4.601761">
        <ele>829.010</ele>
        <time>2022-08-31T09:49:10Z</time>
      </trkpt>
      <trkpt lat="42.338925" lon="-4.601767">
        <ele>829.478</ele>
        <time>2022-08-31T09:49:30Z</time>
      </trkpt>
      <trkpt lat="42.339103" lon="-4.602223">
        <ele>830.553</ele>
        <time>2022-08-31T09:49:50Z</time>
      </trkpt>
      <trkpt lat="42.340188" lon="-4.602982">
        <ele>835.658</ele>
        <time>2022-08-31T09:50:10Z</time>
      </trkpt>
      <trkpt lat="42.339990" lon="-4.604060">
        <ele>835.416</ele>
        <time>2022-08-31T09:50:30Z</time>
      </trkpt>
      <trkpt lat="42.339552" lon="-4.604926">
        <ele>835.734</ele>
        <time>2022-08-31T09:50:50Z</time>
      </trkpt>
      <trkpt lat="42.339401" lon="-4.605911">
        <ele>832.832</ele>
        <time>2022-08-31T09:51:10Z</time>
      </trkpt>
      <trkpt lat="42.339698" lon="-4.606764">
        <ele>822.312</ele>
        <time>2022-08-31T09:51:30Z</time>
      </trkpt>
      <trkpt lat="42.339637" lon="-4.608325">
        <ele>819.081</ele>
        <time>2022-08-31T09:51:50Z</time>
      </trkpt>
      <trkpt lat="42.340727" lon="-4.610508">
        <ele>820.361</ele>
        <time>2022-08-31T09:52:10Z</time>
      </trkpt>
      <trkpt lat="42.340814" lon="-4.613067">
        <ele>821.017</ele>
        <time>2022-08-31T09:52:30Z</time>
      </trkpt>
      <trkpt lat="42.340965" lon="-4.613260">
        <ele>821.408</ele>
        <time>2022-08-31T09:52:50Z</time>
      </trkpt>
      <trkpt lat="42.340862" lon="-4.614075">
        <ele>822.084</ele>
        <time>2022-08-31T09:53:10Z</time>
      </trkpt>
      <trkpt lat="42.341278" lon="-4.621535">
        <ele>822.022</ele>
        <time>2022-08-31T09:53:30Z</time>
      </trkpt>
      <trkpt lat="42.341423" lon="-4.622186">
        <ele>822.127</ele>
        <time>2022-08-31T09:53:50Z</time>
      </trkpt>
      <trkpt lat="42.341076" lon="-4.622532">
        <ele>822.112</ele>
        <time>2022-08-31T09:54:10Z</time>
      </trkpt>
      <trkpt lat="42.339288" lon="-4.625764">
        <ele>822.910</ele>
        <time>2022-08-31T09:54:30Z</time>
      </trkpt>
      <trkpt lat="42.338106" lon="-4.630319">
        <ele>822.028</ele>
        <time>2022-08-31T09:54:50Z</time>
      </trkpt>
      <trkpt lat="42.336936" lon="-4.633521">
        <ele>822.086</ele>
        <time>2022-08-31T09:55:10Z</time>
      </trkpt>
      <trkpt lat="42.331234" lon="-4.642485">
        <ele>821.066</ele>
        <time>2022-08-31T09:55:30Z</time>
      </trkpt>
      <trkpt lat="42.329418" lon="-4.646927">
        <ele>820.987</ele>
        <time>2022-08-31T09:55:50Z</time>
      </trkpt>
      <trkpt lat="42.329037" lon="-4.648665">
        <ele>821.042</ele>
        <time>2022-08-31T09:56:10Z</time>
      </trkpt>
      <trkpt lat="42.329013" lon="-4.651487">
        <ele>823.226</ele>
        <time>2022-08-31T09:56:30Z</time>
      </trkpt>
      <trkpt lat="42.318598" lon="-4.702272">
        <ele>839.908</ele>
        <time>2022-08-31T09:56:50Z</time>
      </trkpt>
      <trkpt lat="42.302754" lon="-4.744656">
        <ele>853.074</ele>
        <time>2022-08-31T09:57:10Z</time>
      </trkpt>
      <trkpt lat="42.298044" lon="-4.757665">
        <ele>853.022</ele>
        <time>2022-08-31T09:57:30Z</time>
      </trkpt>
      <trkpt lat="42.296612" lon="-4.764317">
        <ele>832.837</ele>
        <time>2022-08-31T09:57:50Z</time>
      </trkpt>
      <trkpt lat="42.296155" lon="-4.765164">
        <ele>832.642</ele>
        <time>2022-08-31T09:58:10Z</time>
      </trkpt>
      <trkpt lat="42.293874" lon="-4.766774">
        <ele>831.530</ele>
        <time>2022-08-31T09:58:30Z</time>
      </trkpt>
      <trkpt lat="42.293354" lon="-4.767417">
        <ele>833.968</ele>
        <time>2022-08-31T09:58:50Z</time>
      </trkpt>
      <trkpt lat="42.289152" lon="-4.779503">
        <ele>846.716</ele>
        <time>2022-08-31T09:59:10Z</time>
      </trkpt>
      <trkpt lat="42.288989" lon="-4.781000">
        <ele>846.446</ele>
        <time>2022-08-31T09:59:30Z</time>
      </trkpt>
      <trkpt lat="42.289124" lon="-4.781756">
        <ele>846.486</ele>
        <time>2022-08-31T09:59:50Z</time>
      </trkpt>
      <trkpt lat="42.289497" lon="-4.782588">
        <ele>848.460</ele>
        <time>2022-08-31T10:00:10Z</time>
      </trkpt>
      <trkpt lat="42.290759" lon="-4.784841">
        <ele>851.626</ele>
        <time>2022-08-31T10:00:30Z</time>
      </trkpt>
      <trkpt lat="42.296076" lon="-4.792475">
        <ele>847.208</ele>
        <time>2022-08-31T10:00:50Z</time>
      </trkpt>
      <trkpt lat="42.297381" lon="-4.794309">
        <ele>846.084</ele>
        <time>2022-08-31T10:01:10Z</time>
      </trkpt>
      <trkpt lat="42.300040" lon="-4.796613">
        <ele>844.012</ele>
        <time>2022-08-31T10:01:30Z</time>
      </trkpt>
      <trkpt lat="42.304912" lon="-4.799405">
        <ele>841.197</ele>
        <time>2022-08-31T10:01:50Z</time>
      </trkpt>
      <trkpt lat="42.310391" lon="-4.799019">
        <ele>841.532</ele>
        <time>2022-08-31T10:02:10Z</time>
      </trkpt>
      <trkpt lat="42.310883" lon="-4.799212">
        <ele>842.060</ele>
        <time>2022-08-31T10:02:30Z</time>
      </trkpt>
      <trkpt lat="42.313382" lon="-4.801160">
        <ele>843.148</ele>
        <time>2022-08-31T10:02:50Z</time>
      </trkpt>
      <trkpt lat="42.322410" lon="-4.803649">
        <ele>847.086</ele>
        <time>2022-08-31T10:03:10Z</time>
      </trkpt>
      <trkpt lat="42.323001" lon="-4.803901">
        <ele>847.856</ele>
        <time>2022-08-31T10:03:30Z</time>
      </trkpt>
      <trkpt lat="42.328573" lon="-4.807650">
        <ele>851.044</ele>
        <time>2022-08-31T10:03:50Z</time>
      </trkpt>
      <trkpt lat="42.329251" lon="-4.808648">
        <ele>851.305</ele>
        <time>2022-08-31T10:04:10Z</time>
      </trkpt>
      <trkpt lat="42.329842" lon="-4.812704">
        <ele>853.215</ele>
        <time>2022-08-31T10:04:30Z</time>
      </trkpt>
      <trkpt lat="42.333443" lon="-4.818910">
        <ele>854.008</ele>
        <time>2022-08-31T10:04:50Z</time>
      </trkpt>
      <trkpt lat="42.337353" lon="-4.826458">
        <ele>858.140</ele>
        <time>2022-08-31T10:05:10Z</time>
      </trkpt>
      <trkpt lat="42.340275" lon="-4.833089">
        <ele>861.038</ele>
        <time>2022-08-31T10:05:30Z</time>
      </trkpt>
      <trkpt lat="42.340961" lon="-4.835427">
        <ele>861.023</ele>
        <time>2022-08-31T10:05:50Z</time>
      </trkpt>
      <trkpt lat="42.342741" lon="-4.839864">
        <ele>871.358</ele>
        <time>2022-08-31T10:06:10Z</time>
      </trkpt>
      <trkpt lat="42.343523" lon="-4.843667">
        <ele>880.726</ele>
        <time>2022-08-31T10:06:30Z</time>
      </trkpt>
      <trkpt lat="42.344113" lon="-4.845507">
        <ele>889.974</ele>
        <time>2022-08-31T10:06:50Z</time>
      </trkpt>
      <trkpt lat="42.348102" lon="-4.856611">
        <ele>901.072</ele>
        <time>2022-08-31T10:07:10Z</time>
      </trkpt>
      <trkpt lat="42.348320" lon="-4.857867">
        <ele>899.132</ele>
        <time>2022-08-31T10:07:30Z</time>
      </trkpt>
      <trkpt lat="42.348332" lon="-4.860646">
        <ele>886.345</ele>
        <time>2022-08-31T10:07:50Z</time>
      </trkpt>
      <trkpt lat="42.348768" lon="-4.861869">
        <ele>882.347</ele>
        <time>2022-08-31T10:08:10Z</time>
      </trkpt>
      <trkpt lat="42.353684" lon="-4.866664">
        <ele>870.011</ele>
        <time>2022-08-31T10:08:30Z</time>
      </trkpt>
      <trkpt lat="42.354504" lon="-4.866589">
        <ele>870.108</ele>
        <time>2022-08-31T10:08:50Z</time>
      </trkpt>
      <trkpt lat="42.357470" lon="-4.865350">
        <ele>873.960</ele>
        <time>2022-08-31T10:09:10Z</time>
      </trkpt>
      <trkpt lat="42.358346" lon="-4.865221">
        <ele>876.468</ele>
        <time>2022-08-31T10:09:30Z</time>
      </trkpt>
      <trkpt lat="42.361608" lon="-4.866080">
        <ele>875.093</ele>
        <time>2022-08-31T10:09:50Z</time>
      </trkpt>
      <trkpt lat="42.362639" lon="-4.866546">
        <ele>874.938</ele>
        <time>2022-08-31T10:10:10Z</time>
      </trkpt>
      <trkpt lat="42.362976" lon="-4.866879">
        <ele>874.826</ele>
        <time>2022-08-31T10:10:30Z</time>
      </trkpt>
      <trkpt lat="42.363427" lon="-4.867737">
        <ele>873.844</ele>
        <time>2022-08-31T10:10:50Z</time>
      </trkpt>
      <trkpt lat="42.365833" lon="-4.873971">
        <ele>883.032</ele>
        <time>2022-08-31T10:11:10Z</time>
      </trkpt>
      <trkpt lat="42.366335" lon="-4.873885">
        <ele>882.012</ele>
        <time>2022-08-31T10:11:30Z</time>
      </trkpt>
      <trkpt lat="42.366462" lon="-4.873654">
        <ele>880.922</ele>
        <time>2022-08-31T10:11:50Z</time>
      </trkpt>
      <trkpt lat="42.366681" lon="-4.873810">
        <ele>881.462</ele>
        <time>2022-08-31T10:12:10Z</time>
      </trkpt>
      <trkpt lat="42.366588" lon="-4.874126">
        <ele>881.108</ele>
        <time>2022-08-31T10:12:30Z</time>
      </trkpt>
      <trkpt lat="42.366301" lon="-4.873965">
        <ele>881.808</ele>
        <time>2022-08-31T10:12:50Z</time>
      </trkpt>
      <trkpt lat="42.365982" lon="-4.874226">
        <ele>882.758</ele>
        <time>2022-08-31T10:13:10Z</time>
      </trkpt>
      <trkpt lat="42.366136" lon="-4.875856">
        <ele>885.146</ele>
        <time>2022-08-31T10:13:30Z</time>
      </trkpt>
      <trkpt lat="42.364605" lon="-4.888618">
        <ele>885.411</ele>
        <time>2022-08-31T10:13:50Z</time>
      </trkpt>
      <trkpt lat="42.362298" lon="-4.928645">
        <ele>864.026</ele>
        <time>2022-08-31T10:14:10Z</time>
      </trkpt>
      <trkpt lat="42.363796" lon="-4.938086">
        <ele>869.084</ele>
        <time>2022-08-31T10:14:30Z</time>
      </trkpt>
      <trkpt lat="42.365338" lon="-4.949507">
        <ele>848.652</ele>
        <time>2022-08-31T10:14:50Z</time>
      </trkpt>
      <trkpt lat="42.365088" lon="-4.952495">
        <ele>843.070</ele>
        <time>2022-08-31T10:15:10Z</time>
      </trkpt>
      <trkpt lat="42.365088" lon="-4.959877">
        <ele>847.170</ele>
        <time>2022-08-31T10:15:30Z</time>
      </trkpt>
      <trkpt lat="42.366004" lon="-4.972443">
        <ele>862.451</ele>
        <time>2022-08-31T10:15:50Z</time>
      </trkpt>
      <trkpt lat="42.365611" lon="-4.982225">
        <ele>837.801</ele>
        <time>2022-08-31T10:16:10Z</time>
      </trkpt>
      <trkpt lat="42.367962" lon="-5.005310">
        <ele>808.611</ele>
        <time>2022-08-31T10:16:30Z</time>
      </trkpt>
      <trkpt lat="42.368362" lon="-5.007362">
        <ele>809.508</ele>
        <time>2022-08-31T10:16:50Z</time>
      </trkpt>
      <trkpt lat="42.369591" lon="-5.009841">
        <ele>813.721</ele>
        <time>2022-08-31T10:17:10Z</time>
      </trkpt>
      <trkpt lat="42.369525" lon="-5.010420">
        <ele>813.729</ele>
        <time>2022-08-31T10:17:30Z</time>
      </trkpt>
      <trkpt lat="42.368844" lon="-5.011678">
        <ele>815.014</ele>
        <time>2022-08-31T10:17:50Z</time>
      </trkpt>
      <trkpt lat="42.368717" lon="-5.012496">
        <ele>816.079</ele>
        <time>2022-08-31T10:18:10Z</time>
      </trkpt>
      <trkpt lat="42.369482" lon="-5.019840">
        <ele>824.417</ele>
        <time>2022-08-31T10:18:30Z</time>
      </trkpt>
      <trkpt lat="42.369603" lon="-5.020717">
        <ele>826.435</ele>
        <time>2022-08-31T10:18:50Z</time>
      </trkpt>
      <trkpt lat="42.370181" lon="-5.021476">
        <ele>826.693</ele>
        <time>2022-08-31T10:19:10Z</time>
      </trkpt>
      <trkpt lat="42.370161" lon="-5.022726">
        <ele>827.523</ele>
        <time>2022-08-31T10:19:30Z</time>
      </trkpt>
      <trkpt lat="42.370522" lon="-5.023477">
        <ele>828.857</ele>
        <time>2022-08-31T10:19:50Z</time>
      </trkpt>
      <trkpt lat="42.370898" lon="-5.023842">
        <ele>830.900</ele>
        <time>2022-08-31T10:20:10Z</time>
      </trkpt>
      <trkpt lat="42.371105" lon="-5.025102">
        <ele>832.820</ele>
        <time>2022-08-31T10:20:30Z</time>
      </trkpt>
      <trkpt lat="42.371451" lon="-5.025819">
        <ele>833.108</ele>
        <time>2022-08-31T10:20:50Z</time>
      </trkpt>
      <trkpt lat="42.370447" lon="-5.026701">
        <ele>830.071</ele>
        <time>2022-08-31T10:21:10Z</time>
      </trkpt>
      <trkpt lat="42.370641" lon="-5.027651">
        <ele>828.789</ele>
        <time>2022-08-31T10:21:30Z</time>
      </trkpt>
      <trkpt lat="42.370744" lon="-5.030639">
        <ele>817.824</ele>
        <time>2022-08-31T10:21:50Z</time>
      </trkpt>
      <trkpt lat="42.371103" lon="-5.030800">
        <ele>816.019</ele>
        <time>2022-08-31T10:22:10Z</time>
      </trkpt>
      <trkpt lat="42.371190" lon="-5.031961">
        <ele>813.787</ele>
        <time>2022-08-31T10:22:30Z</time>
      </trkpt>
      <trkpt lat="42.370980" lon="-5.032272">
        <ele>814.355</ele>
        <time>2022-08-31T10:22:50Z</time>
      </trkpt>
      <trkpt lat="42.370730" lon="-5.032304">
        <ele>815.128</ele>
        <time>2022-08-31T08:28:03Z</time>
      </trkpt>
      <trkpt lat="42.370946" lon="-5.033517">
        <ele>812.989</ele>
        <time>2022-08-31T08:28:23Z</time>
      </trkpt>
      <trkpt lat="42.370427" lon="-5.033712">
        <ele>813.017</ele>
        <time>2022-08-31T08:28:43Z</time>
      </trkpt>
      <trkpt lat="42.369892" lon="-5.035086">
        <ele>807.308</ele>
        <time>2022-08-31T08:29:03Z</time>
      </trkpt>
      <trkpt lat="42.368746" lon="-5.035920">
        <ele>800.898</ele>
        <time>2022-08-31T08:29:23Z</time>
      </trkpt>
      <trkpt lat="42.368925" lon="-5.036977">
        <ele>799.847</ele>
        <time>2022-08-31T08:29:43Z</time>
      </trkpt>
      <trkpt lat="42.372190" lon="-5.045412">
        <ele>800.939</ele>
        <time>2022-08-31T08:30:03Z</time>
      </trkpt>
      <trkpt lat="42.374132" lon="-5.049194">
        <ele>802.079</ele>
        <time>2022-08-31T08:30:23Z</time>
      </trkpt>
      <trkpt lat="42.374652" lon="-5.049516">
        <ele>802.055</ele>
        <time>2022-08-31T08:30:43Z</time>
      </trkpt>
      <trkpt lat="42.376130" lon="-5.049505">
        <ele>802.291</ele>
        <time>2022-08-31T08:31:03Z</time>
      </trkpt>
      <trkpt lat="42.376169" lon="-5.050197">
        <ele>802.836</ele>
        <time>2022-08-31T08:31:23Z</time>
      </trkpt>
      <trkpt lat="42.375769" lon="-5.051394">
        <ele>803.279</ele>
        <time>2022-08-31T08:31:43Z</time>
      </trkpt>
      <trkpt lat="42.375789" lon="-5.052230">
        <ele>802.889</ele>
        <time>2022-08-31T08:32:03Z</time>
      </trkpt>
      <trkpt lat="42.376578" lon="-5.056951">
        <ele>807.006</ele>
        <time>2022-08-31T08:32:23Z</time>
      </trkpt>
      <trkpt lat="42.378456" lon="-5.064000">
        <ele>809.526</ele>
        <time>2022-08-31T08:33:03Z</time>
      </trkpt>
      <trkpt lat="42.381016" lon="-5.068399">
        <ele>808.208</ele>
        <time>2022-08-31T08:33:23Z</time>
      </trkpt>
      <trkpt lat="42.382133" lon="-5.071762">
        <ele>813.474</ele>
        <time>2022-08-31T08:33:43Z</time>
      </trkpt>
      <trkpt lat="42.382343" lon="-5.077797">
        <ele>819.613</ele>
        <time>2022-08-31T08:34:23Z</time>
      </trkpt>
      <trkpt lat="42.382191" lon="-5.078688">
        <ele>820.295</ele>
        <time>2022-08-31T08:34:43Z</time>
      </trkpt>
      <trkpt lat="42.382787" lon="-5.077955">
        <ele>819.175</ele>
        <time>2022-08-31T08:35:03Z</time>
      </trkpt>
      <trkpt lat="42.383803" lon="-5.083872">
        <ele>824.071</ele>
        <time>2022-08-31T08:35:23Z</time>
      </trkpt>
      <trkpt lat="42.384180" lon="-5.089913">
        <ele>824.067</ele>
        <time>2022-08-31T08:35:43Z</time>
      </trkpt>
      <trkpt lat="42.383946" lon="-5.096567">
        <ele>826.022</ele>
        <time>2022-08-31T08:36:03Z</time>
      </trkpt>
      <trkpt lat="42.384786" lon="-5.111083">
        <ele>826.035</ele>
        <time>2022-08-31T08:36:23Z</time>
      </trkpt>
      <trkpt lat="42.386329" lon="-5.117716">
        <ele>832.012</ele>
        <time>2022-08-31T08:36:43Z</time>
      </trkpt>
      <trkpt lat="42.386959" lon="-5.119685">
        <ele>831.032</ele>
        <time>2022-08-31T08:37:03Z</time>
      </trkpt>
      <trkpt lat="42.389495" lon="-5.132300">
        <ele>832.505</ele>
        <time>2022-08-31T08:37:23Z</time>
      </trkpt>
      <trkpt lat="42.388116" lon="-5.141119">
        <ele>849.208</ele>
        <time>2022-08-31T08:37:43Z</time>
      </trkpt>
      <trkpt lat="42.388513" lon="-5.142433">
        <ele>851.037</ele>
        <time>2022-08-31T08:38:03Z</time>
      </trkpt>
      <trkpt lat="42.389313" lon="-5.143061">
        <ele>852.056</ele>
        <time>2022-08-31T08:38:23Z</time>
      </trkpt>
      <trkpt lat="42.389642" lon="-5.143951">
        <ele>854.538</ele>
        <time>2022-08-31T08:38:43Z</time>
      </trkpt>
      <trkpt lat="42.389543" lon="-5.147379">
        <ele>848.648</ele>
        <time>2022-08-31T08:39:03Z</time>
      </trkpt>
      <trkpt lat="42.390688" lon="-5.149460">
        <ele>854.114</ele>
        <time>2022-08-31T08:39:23Z</time>
      </trkpt>
      <trkpt lat="42.391813" lon="-5.152084">
        <ele>856.560</ele>
        <time>2022-08-31T08:39:43Z</time>
      </trkpt>
      <trkpt lat="42.394285" lon="-5.156649">
        <ele>861.495</ele>
        <time>2022-08-31T08:40:03Z</time>
      </trkpt>
      <trkpt lat="42.397137" lon="-5.163301">
        <ele>860.858</ele>
        <time>2022-08-31T08:40:43Z</time>
      </trkpt>
      <trkpt lat="42.398249" lon="-5.167555">
        <ele>858.085</ele>
        <time>2022-08-31T08:41:03Z</time>
      </trkpt>
      <trkpt lat="42.404367" lon="-5.182950">
        <ele>874.089</ele>
        <time>2022-08-31T08:41:23Z</time>
      </trkpt>
      <trkpt lat="42.411417" lon="-5.198239">
        <ele>875.117</ele>
        <time>2022-08-31T08:41:43Z</time>
      </trkpt>
      <trkpt lat="42.412803" lon="-5.201565">
        <ele>875.008</ele>
        <time>2022-08-31T08:42:03Z</time>
      </trkpt>
      <trkpt lat="42.415766" lon="-5.207530">
        <ele>875.084</ele>
        <time>2022-08-31T08:42:23Z</time>
      </trkpt>
      <trkpt lat="42.418459" lon="-5.212197">
        <ele>876.013</ele>
        <time>2022-08-31T08:42:43Z</time>
      </trkpt>
      <trkpt lat="42.422249" lon="-5.219648">
        <ele>878.045</ele>
        <time>2022-08-31T08:43:23Z</time>
      </trkpt>
      <trkpt lat="42.423025" lon="-5.222449">
        <ele>878.065</ele>
        <time>2022-08-31T08:43:43Z</time>
      </trkpt>
      <trkpt lat="42.423851" lon="-5.223473">
        <ele>877.931</ele>
        <time>2022-08-31T08:44:03Z</time>
      </trkpt>
      <trkpt lat="42.425143" lon="-5.225780">
        <ele>878.047</ele>
        <time>2022-08-31T08:44:23Z</time>
      </trkpt>
      <trkpt lat="42.426680" lon="-5.228028">
        <ele>878.012</ele>
        <time>2022-08-31T08:44:43Z</time>
      </trkpt>
      <trkpt lat="42.430954" lon="-5.236959">
        <ele>877.035</ele>
        <time>2022-08-31T08:45:03Z</time>
      </trkpt>
      <trkpt lat="42.433684" lon="-5.245049">
        <ele>867.168</ele>
        <time>2022-08-31T08:45:23Z</time>
      </trkpt>
      <trkpt lat="42.439255" lon="-5.254512">
        <ele>876.042</ele>
        <time>2022-08-31T08:45:43Z</time>
      </trkpt>
      <trkpt lat="42.445129" lon="-5.263149">
        <ele>865.626</ele>
        <time>2022-08-31T08:46:03Z</time>
      </trkpt>
      <trkpt lat="42.448027" lon="-5.268095">
        <ele>868.908</ele>
        <time>2022-08-31T08:46:23Z</time>
      </trkpt>
      <trkpt lat="42.453355" lon="-5.281227">
        <ele>859.082</ele>
        <time>2022-08-31T08:46:43Z</time>
      </trkpt>
      <trkpt lat="42.458571" lon="-5.293597">
        <ele>862.911</ele>
        <time>2022-08-31T08:47:03Z</time>
      </trkpt>
      <trkpt lat="42.463882" lon="-5.311005">
        <ele>854.413</ele>
        <time>2022-08-31T08:47:23Z</time>
      </trkpt>
      <trkpt lat="42.465346" lon="-5.318520">
        <ele>850.263</ele>
        <time>2022-08-31T08:47:43Z</time>
      </trkpt>
      <trkpt lat="42.464523" lon="-5.327446">
        <ele>849.019</ele>
        <time>2022-08-31T08:48:03Z</time>
      </trkpt>
      <trkpt lat="42.464618" lon="-5.328305">
        <ele>848.155</ele>
        <time>2022-08-31T08:48:23Z</time>
      </trkpt>
      <trkpt lat="42.464832" lon="-5.328659">
        <ele>847.180</ele>
        <time>2022-08-31T08:48:43Z</time>
      </trkpt>
      <trkpt lat="42.467673" lon="-5.329914">
        <ele>841.173</ele>
        <time>2022-08-31T08:49:23Z</time>
      </trkpt>
      <trkpt lat="42.468061" lon="-5.330601">
        <ele>838.831</ele>
        <time>2022-08-31T08:49:43Z</time>
      </trkpt>
      <trkpt lat="42.468354" lon="-5.331781">
        <ele>837.061</ele>
        <time>2022-08-31T08:50:03Z</time>
      </trkpt>
      <trkpt lat="42.468417" lon="-5.337135">
        <ele>838.807</ele>
        <time>2022-08-31T08:50:23Z</time>
      </trkpt>
      <trkpt lat="42.468678" lon="-5.337982">
        <ele>838.808</ele>
        <time>2022-08-31T08:51:03Z</time>
      </trkpt>
      <trkpt lat="42.470027" lon="-5.339420">
        <ele>842.189</ele>
        <time>2022-08-31T08:51:23Z</time>
      </trkpt>
      <trkpt lat="42.470423" lon="-5.340117">
        <ele>846.788</ele>
        <time>2022-08-31T08:51:43Z</time>
      </trkpt>
      <trkpt lat="42.470744" lon="-5.343293">
        <ele>849.010</ele>
        <time>2022-08-31T08:52:03Z</time>
      </trkpt>
      <trkpt lat="42.470609" lon="-5.346801">
        <ele>847.610</ele>
        <time>2022-08-31T08:52:23Z</time>
      </trkpt>
      <trkpt lat="42.470696" lon="-5.347670">
        <ele>845.496</ele>
        <time>2022-08-31T08:52:43Z</time>
      </trkpt>
      <trkpt lat="42.471828" lon="-5.350631">
        <ele>832.742</ele>
        <time>2022-08-31T08:53:03Z</time>
      </trkpt>
      <trkpt lat="42.472322" lon="-5.352402">
        <ele>830.657</ele>
        <time>2022-08-31T08:53:23Z</time>
      </trkpt>
      <trkpt lat="42.474133" lon="-5.353853">
        <ele>822.120</ele>
        <time>2022-08-31T08:53:43Z</time>
      </trkpt>
      <trkpt lat="42.473852" lon="-5.354475">
        <ele>819.947</ele>
        <time>2022-08-31T08:54:03Z</time>
      </trkpt>
      <trkpt lat="42.473860" lon="-5.355406">
        <ele>818.129</ele>
        <time>2022-08-31T08:54:23Z</time>
      </trkpt>
      <trkpt lat="42.474784" lon="-5.357069">
        <ele>817.021</ele>
        <time>2022-08-31T08:54:43Z</time>
      </trkpt>
      <trkpt lat="42.476081" lon="-5.358635">
        <ele>817.008</ele>
        <time>2022-08-31T08:55:03Z</time>
      </trkpt>
      <trkpt lat="42.479076" lon="-5.365191">
        <ele>815.250</ele>
        <time>2022-08-31T08:55:23Z</time>
      </trkpt>
      <trkpt lat="42.485383" lon="-5.385661">
        <ele>801.089</ele>
        <time>2022-08-31T08:55:43Z</time>
      </trkpt>
      <trkpt lat="42.493935" lon="-5.405740">
        <ele>800.821</ele>
        <time>2022-08-31T08:56:03Z</time>
      </trkpt>
      <trkpt lat="42.494580" lon="-5.408041">
        <ele>803.061</ele>
        <time>2022-08-31T08:56:23Z</time>
      </trkpt>
      <trkpt lat="42.495390" lon="-5.408809">
        <ele>799.637</ele>
        <time>2022-08-31T08:56:43Z</time>
      </trkpt>
      <trkpt lat="42.497708" lon="-5.414954">
        <ele>796.023</ele>
        <time>2022-08-31T08:57:23Z</time>
      </trkpt>
      <trkpt lat="42.497617" lon="-5.415560">
        <ele>797.018</ele>
        <time>2022-08-31T08:57:43Z</time>
      </trkpt>
      <trkpt lat="42.497955" lon="-5.415949">
        <ele>797.061</ele>
        <time>2022-08-31T08:58:03Z</time>
      </trkpt>
      <trkpt lat="42.498784" lon="-5.417773">
        <ele>797.635</ele>
        <time>2022-08-31T08:58:23Z</time>
      </trkpt>
      <trkpt lat="42.499907" lon="-5.418974">
        <ele>797.086</ele>
        <time>2022-08-31T08:58:43Z</time>
      </trkpt>
      <trkpt lat="42.504244" lon="-5.421887">
        <ele>793.814</ele>
        <time>2022-08-31T08:59:03Z</time>
      </trkpt>
      <trkpt lat="42.504780" lon="-5.421592">
        <ele>794.008</ele>
        <time>2022-08-31T08:59:23Z</time>
      </trkpt>
      <trkpt lat="42.505219" lon="-5.421587">
        <ele>793.839</ele>
        <time>2022-08-31T08:59:43Z</time>
      </trkpt>
      <trkpt lat="42.506583" lon="-5.423437">
        <ele>793.598</ele>
        <time>2022-08-31T09:00:03Z</time>
      </trkpt>
      <trkpt lat="42.508382" lon="-5.424988">
        <ele>793.020</ele>
        <time>2022-08-31T09:00:23Z</time>
      </trkpt>
      <trkpt lat="42.520628" lon="-5.433941">
        <ele>794.930</ele>
        <time>2022-08-31T09:00:43Z</time>
      </trkpt>
      <trkpt lat="42.521016" lon="-5.433909">
        <ele>795.736</ele>
        <time>2022-08-31T09:01:03Z</time>
      </trkpt>
      <trkpt lat="42.521233" lon="-5.434354">
        <ele>795.612</ele>
        <time>2022-08-31T09:01:23Z</time>
      </trkpt>
      <trkpt lat="42.540560" lon="-5.448521">
        <ele>798.077</ele>
        <time>2022-08-31T09:02:03Z</time>
      </trkpt>
      <trkpt lat="42.542307" lon="-5.449176">
        <ele>799.760</ele>
        <time>2022-08-31T09:02:23Z</time>
      </trkpt>
      <trkpt lat="42.542829" lon="-5.449659">
        <ele>801.064</ele>
        <time>2022-08-31T09:02:43Z</time>
      </trkpt>
      <trkpt lat="42.543295" lon="-5.450603">
        <ele>801.106</ele>
        <time>2022-08-31T09:03:03Z</time>
      </trkpt>
      <trkpt lat="42.543631" lon="-5.451831">
        <ele>797.016</ele>
        <time>2022-08-31T09:03:23Z</time>
      </trkpt>
      <trkpt lat="42.544635" lon="-5.457829">
        <ele>804.208</ele>
        <time>2022-08-31T09:03:43Z</time>
      </trkpt>
      <trkpt lat="42.555309" lon="-5.472908">
        <ele>821.422</ele>
        <time>2022-08-31T09:04:03Z</time>
      </trkpt>
      <trkpt lat="42.562145" lon="-5.487778">
        <ele>839.341</ele>
        <time>2022-08-31T09:04:23Z</time>
      </trkpt>
      <trkpt lat="42.562611" lon="-5.488309">
        <ele>838.683</ele>
        <time>2022-08-31T09:04:43Z</time>
      </trkpt>
      <trkpt lat="42.562568" lon="-5.488481">
        <ele>838.463</ele>
        <time>2022-08-31T09:05:03Z</time>
      </trkpt>
      <trkpt lat="42.564397" lon="-5.489817">
        <ele>833.549</ele>
        <time>2022-08-31T09:05:23Z</time>
      </trkpt>
      <trkpt lat="42.564745" lon="-5.489806">
        <ele>833.175</ele>
        <time>2022-08-31T09:05:43Z</time>
      </trkpt>
      <trkpt lat="42.564954" lon="-5.491109">
        <ele>835.060</ele>
        <time>2022-08-31T09:06:03Z</time>
      </trkpt>
      <trkpt lat="42.564664" lon="-5.492641">
        <ele>839.393</ele>
        <time>2022-08-31T09:06:23Z</time>
      </trkpt>
      <trkpt lat="42.564662" lon="-5.493368">
        <ele>840.867</ele>
        <time>2022-08-31T09:06:43Z</time>
      </trkpt>
      <trkpt lat="42.571627" lon="-5.525007">
        <ele>880.981</ele>
        <time>2022-08-31T09:07:23Z</time>
      </trkpt>
      <trkpt lat="42.572401" lon="-5.527990">
        <ele>889.619</ele>
        <time>2022-08-31T09:07:43Z</time>
      </trkpt>
      <trkpt lat="42.572721" lon="-5.528167">
        <ele>890.508</ele>
        <time>2022-08-31T09:08:03Z</time>
      </trkpt>
      <trkpt lat="42.572737" lon="-5.528832">
        <ele>891.952</ele>
        <time>2022-08-31T09:08:23Z</time>
      </trkpt>
      <trkpt lat="42.574045" lon="-5.531230">
        <ele>894.451</ele>
        <time>2022-08-31T09:08:43Z</time>
      </trkpt>
      <trkpt lat="42.574424" lon="-5.532217">
        <ele>891.443</ele>
        <time>2022-08-31T09:09:03Z</time>
      </trkpt>
      <trkpt lat="42.575340" lon="-5.538332">
        <ele>868.013</ele>
        <time>2022-08-31T09:09:23Z</time>
      </trkpt>
      <trkpt lat="42.575569" lon="-5.538660">
        <ele>870.669</ele>
        <time>2022-08-31T09:09:43Z</time>
      </trkpt>
      <trkpt lat="42.575407" lon="-5.539518">
        <ele>857.615</ele>
        <time>2022-08-31T09:10:03Z</time>
      </trkpt>
      <trkpt lat="42.575933" lon="-5.541358">
        <ele>854.610</ele>
        <time>2022-08-31T09:10:23Z</time>
      </trkpt>
      <trkpt lat="42.576786" lon="-5.543096">
        <ele>848.153</ele>
        <time>2022-08-31T09:10:43Z</time>
      </trkpt>
      <trkpt lat="42.577185" lon="-5.543144">
        <ele>849.643</ele>
        <time>2022-08-31T09:11:03Z</time>
      </trkpt>
      <trkpt lat="42.577260" lon="-5.543429">
        <ele>848.664</ele>
        <time>2022-08-31T09:11:23Z</time>
      </trkpt>
      <trkpt lat="42.577063" lon="-5.543944">
        <ele>844.810</ele>
        <time>2022-08-31T09:11:43Z</time>
      </trkpt>
      <trkpt lat="42.582727" lon="-5.556067">
        <ele>816.808</ele>
        <time>2022-08-31T09:12:23Z</time>
      </trkpt>
      <trkpt lat="42.583240" lon="-5.556698">
        <ele>817.070</ele>
        <time>2022-08-31T09:12:43Z</time>
      </trkpt>
      <trkpt lat="42.587024" lon="-5.560176">
        <ele>818.089</ele>
        <time>2022-08-31T09:13:23Z</time>
      </trkpt>
      <trkpt lat="42.587439" lon="-5.560176">
        <ele>818.071</ele>
        <time>2022-08-31T09:13:43Z</time>
      </trkpt>
      <trkpt lat="42.587873" lon="-5.561062">
        <ele>817.751</ele>
        <time>2022-08-31T09:14:03Z</time>
      </trkpt>
      <trkpt lat="42.590608" lon="-5.563156">
        <ele>819.087</ele>
        <time>2022-08-31T09:14:23Z</time>
      </trkpt>
      <trkpt lat="42.591116" lon="-5.563218">
        <ele>819.083</ele>
        <time>2022-08-31T09:14:43Z</time>
      </trkpt>
      <trkpt lat="42.591957" lon="-5.565085">
        <ele>820.078</ele>
        <time>2022-08-31T09:15:03Z</time>
      </trkpt>
      <trkpt lat="42.594944" lon="-5.566064">
        <ele>822.711</ele>
        <time>2022-08-31T09:15:23Z</time>
      </trkpt>
      <trkpt lat="42.595928" lon="-5.566863">
        <ele>827.249</ele>
        <time>2022-08-31T09:15:43Z</time>
      </trkpt>
      <trkpt lat="42.596157" lon="-5.566528">
        <ele>827.202</ele>
        <time>2022-08-31T09:16:03Z</time>
      </trkpt>
      <trkpt lat="42.597614" lon="-5.566960">
        <ele>833.522</ele>
        <time>2022-08-31T09:16:43Z</time>
      </trkpt>
      <trkpt lat="42.598959" lon="-5.567118">
        <ele>836.308</ele>
        <time>2022-08-31T09:17:03Z</time>
      </trkpt>
      <trkpt lat="42.598773" lon="-5.567397">
        <ele>836.490</ele>
        <time>2022-08-31T09:17:23Z</time>
      </trkpt>
      <trkpt lat="42.598094" lon="-5.570288">
        <ele>831.199</ele>
        <time>2022-08-31T09:17:43Z</time>
      </trkpt>
      <trkpt lat="42.599969" lon="-5.571267">
        <ele>832.811</ele>
        <time>2022-08-31T09:18:03Z</time>
      </trkpt>
      <trkpt lat="42.600019" lon="-5.571458">
        <ele>832.121</ele>
        <time>2022-08-31T09:18:23Z</time>
      </trkpt>
      <trkpt lat="42.599507" lon="-5.572874">
        <ele>830.077</ele>
        <time>2022-08-31T09:18:43Z</time>
      </trkpt>
      <trkpt lat="42.605255" lon="-5.578077">
        <ele>838.853</ele>
        <time>2022-08-31T09:19:03Z</time>
      </trkpt>
      <trkpt lat="42.605308" lon="-5.578271">
        <ele>838.378</ele>
        <time>2022-08-31T09:19:23Z</time>
      </trkpt>
      <trkpt lat="42.604654" lon="-5.579351">
        <ele>834.131</ele>
        <time>2022-08-31T09:19:43Z</time>
      </trkpt>
      <trkpt lat="42.604542" lon="-5.580103">
        <ele>832.246</ele>
        <time>2022-08-31T09:20:03Z</time>
      </trkpt>
      <trkpt lat="42.604635" lon="-5.580406">
        <ele>832.088</ele>
        <time>2022-08-31T09:20:23Z</time>
      </trkpt>
      <trkpt lat="42.604429" lon="-5.580730">
        <ele>832.016</ele>
        <time>2022-08-31T09:20:43Z</time>
      </trkpt>
      <trkpt lat="42.604062" lon="-5.583007">
        <ele>831.708</ele>
        <time>2022-08-31T09:21:03Z</time>
      </trkpt>
      <trkpt lat="42.604123" lon="-5.583345">
        <ele>832.070</ele>
        <time>2022-08-31T09:21:23Z</time>
      </trkpt>
      <trkpt lat="42.602414" lon="-5.588184">
        <ele>826.049</ele>
        <time>2022-08-31T09:22:03Z</time>
      </trkpt>
      <trkpt lat="42.602382" lon="-5.588710">
        <ele>826.061</ele>
        <time>2022-08-31T09:22:23Z</time>
      </trkpt>
      <trkpt lat="42.602031" lon="-5.588688">
        <ele>826.041</ele>
        <time>2022-08-31T09:23:03Z</time>
      </trkpt>
      <trkpt lat="42.601948" lon="-5.587916">
        <ele>826.037</ele>
        <time>2022-08-31T09:23:23Z</time>
      </trkpt>
      <trkpt lat="42.600510" lon="-5.586167">
        <ele>826.073</ele>
        <time>2022-08-31T09:23:43Z</time>
      </trkpt>
      <trkpt lat="42.600151" lon="-5.586076">
        <ele>826.168</ele>
        <time>2022-08-31T09:24:03Z</time>
      </trkpt>
      <trkpt lat="42.598765" lon="-5.590029">
        <ele>825.041</ele>
        <time>2022-08-31T09:24:23Z</time>
      </trkpt>
      <trkpt lat="42.598406" lon="-5.598060">
        <ele>826.042</ele>
        <time>2022-08-31T09:24:43Z</time>
      </trkpt>
      <trkpt lat="42.598915" lon="-5.599452">
        <ele>828.822</ele>
        <time>2022-08-31T09:25:03Z</time>
      </trkpt>
      <trkpt lat="42.598795" lon="-5.600203">
        <ele>827.914</ele>
        <time>2022-08-31T09:25:23Z</time>
      </trkpt>
      <trkpt lat="42.597886" lon="-5.601531">
        <ele>826.708</ele>
        <time>2022-08-31T09:25:43Z</time>
      </trkpt>
      <trkpt lat="42.596552" lon="-5.605372">
        <ele>832.550</ele>
        <time>2022-08-31T09:26:03Z</time>
      </trkpt>
      <trkpt lat="42.595831" lon="-5.611500">
        <ele>842.469</ele>
        <time>2022-08-31T09:26:23Z</time>
      </trkpt>
      <trkpt lat="42.595626" lon="-5.611916">
        <ele>845.091</ele>
        <time>2022-08-31T09:26:43Z</time>
      </trkpt>
      <trkpt lat="42.595262" lon="-5.612123">
        <ele>846.331</ele>
        <time>2022-08-31T09:27:03Z</time>
      </trkpt>
      <trkpt lat="42.594305" lon="-5.612082">
        <ele>851.267</ele>
        <time>2022-08-31T09:27:23Z</time>
      </trkpt>
      <trkpt lat="42.594401" lon="-5.613228">
        <ele>861.923</ele>
        <time>2022-08-31T09:27:43Z</time>
      </trkpt>
      <trkpt lat="42.591337" lon="-5.620247">
        <ele>868.228</ele>
        <time>2022-08-31T09:28:03Z</time>
      </trkpt>
      <trkpt lat="42.588452" lon="-5.626137">
        <ele>875.751</ele>
        <time>2022-08-31T09:28:43Z</time>
      </trkpt>
      <trkpt lat="42.587660" lon="-5.626754">
        <ele>882.989</ele>
        <time>2022-08-31T09:29:03Z</time>
      </trkpt>
      <trkpt lat="42.586408" lon="-5.628779">
        <ele>886.606</ele>
        <time>2022-08-31T09:29:23Z</time>
      </trkpt>
      <trkpt lat="42.586015" lon="-5.628862">
        <ele>888.326</ele>
        <time>2022-08-31T09:29:43Z</time>
      </trkpt>
      <trkpt lat="42.585286" lon="-5.630965">
        <ele>893.508</ele>
        <time>2022-08-31T09:30:03Z</time>
      </trkpt>
      <trkpt lat="42.584581" lon="-5.632389">
        <ele>894.334</ele>
        <time>2022-08-31T09:30:23Z</time>
      </trkpt>
      <trkpt lat="42.583355" lon="-5.635627">
        <ele>903.283</ele>
        <time>2022-08-31T09:30:43Z</time>
      </trkpt>
      <trkpt lat="42.578461" lon="-5.643695">
        <ele>895.915</ele>
        <time>2022-08-31T09:31:03Z</time>
      </trkpt>
      <trkpt lat="42.577315" lon="-5.649309">
        <ele>904.715</ele>
        <time>2022-08-31T09:31:23Z</time>
      </trkpt>
      <trkpt lat="42.574586" lon="-5.655049">
        <ele>901.261</ele>
        <time>2022-08-31T09:31:43Z</time>
      </trkpt>
      <trkpt lat="42.574173" lon="-5.656272">
        <ele>894.567</ele>
        <time>2022-08-31T09:32:03Z</time>
      </trkpt>
      <trkpt lat="42.573973" lon="-5.657943">
        <ele>889.522</ele>
        <time>2022-08-31T09:32:23Z</time>
      </trkpt>
      <trkpt lat="42.574096" lon="-5.662701">
        <ele>892.355</ele>
        <time>2022-08-31T09:32:43Z</time>
      </trkpt>
      <trkpt lat="42.573499" lon="-5.667481">
        <ele>897.421</ele>
        <time>2022-08-31T09:33:03Z</time>
      </trkpt>
      <trkpt lat="42.569827" lon="-5.680916">
        <ele>888.741</ele>
        <time>2022-08-31T09:33:23Z</time>
      </trkpt>
      <trkpt lat="42.567078" lon="-5.687412">
        <ele>901.405</ele>
        <time>2022-08-31T09:33:43Z</time>
      </trkpt>
      <trkpt lat="42.556676" lon="-5.707017">
        <ele>919.008</ele>
        <time>2022-08-31T09:34:03Z</time>
      </trkpt>
      <trkpt lat="42.550990" lon="-5.719703">
        <ele>920.178</ele>
        <time>2022-08-31T09:34:23Z</time>
      </trkpt>
      <trkpt lat="42.529049" lon="-5.751085">
        <ele>898.087</ele>
        <time>2022-08-31T09:35:03Z</time>
      </trkpt>
      <trkpt lat="42.529073" lon="-5.751590">
        <ele>898.179</ele>
        <time>2022-08-31T09:35:23Z</time>
      </trkpt>
      <trkpt lat="42.528251" lon="-5.752094">
        <ele>897.519</ele>
        <time>2022-08-31T09:36:03Z</time>
      </trkpt>
      <trkpt lat="42.521364" lon="-5.761803">
        <ele>894.515</ele>
        <time>2022-08-31T09:36:43Z</time>
      </trkpt>
      <trkpt lat="42.520233" lon="-5.764357">
        <ele>888.481</ele>
        <time>2022-08-31T09:37:03Z</time>
      </trkpt>
      <trkpt lat="42.519537" lon="-5.764936">
        <ele>890.476</ele>
        <time>2022-08-31T09:37:23Z</time>
      </trkpt>
      <trkpt lat="42.517513" lon="-5.765966">
        <ele>896.099</ele>
        <time>2022-08-31T09:37:43Z</time>
      </trkpt>
      <trkpt lat="42.515223" lon="-5.768901">
        <ele>881.543</ele>
        <time>2022-08-31T09:38:03Z</time>
      </trkpt>
      <trkpt lat="42.512400" lon="-5.777135">
        <ele>877.064</ele>
        <time>2022-08-31T09:38:23Z</time>
      </trkpt>
      <trkpt lat="42.498040" lon="-5.803785">
        <ele>867.010</ele>
        <time>2022-08-31T09:38:43Z</time>
      </trkpt>
      <trkpt lat="42.494156" lon="-5.810115">
        <ele>864.008</ele>
        <time>2022-08-31T09:39:03Z</time>
      </trkpt>
      <trkpt lat="42.489228" lon="-5.820018">
        <ele>847.240</ele>
        <time>2022-08-31T09:39:23Z</time>
      </trkpt>
      <trkpt lat="42.459513" lon="-5.875465">
        <ele>824.039</ele>
        <time>2022-08-31T09:39:43Z</time>
      </trkpt>
      <trkpt lat="42.459283" lon="-5.876538">
        <ele>823.061</ele>
        <time>2022-08-31T09:40:03Z</time>
      </trkpt>
      <trkpt lat="42.459196" lon="-5.880239">
        <ele>818.631</ele>
        <time>2022-08-31T09:40:23Z</time>
      </trkpt>
      <trkpt lat="42.458484" lon="-5.884187">
        <ele>819.077</ele>
        <time>2022-08-31T09:40:43Z</time>
      </trkpt>
      <trkpt lat="42.458508" lon="-5.884649">
        <ele>818.513</ele>
        <time>2022-08-31T09:41:23Z</time>
      </trkpt>
      <trkpt lat="42.458310" lon="-5.884745">
        <ele>818.918</ele>
        <time>2022-08-31T09:41:43Z</time>
      </trkpt>
      <trkpt lat="42.450022" lon="-5.931330">
        <ele>848.911</ele>
        <time>2022-08-31T09:42:23Z</time>
      </trkpt>
      <trkpt lat="42.448771" lon="-5.936995">
        <ele>858.735</ele>
        <time>2022-08-31T09:42:43Z</time>
      </trkpt>
      <trkpt lat="42.447029" lon="-5.943400">
        <ele>847.286</ele>
        <time>2022-08-31T09:43:03Z</time>
      </trkpt>
      <trkpt lat="42.446535" lon="-5.945926">
        <ele>852.814</ele>
        <time>2022-08-31T09:43:23Z</time>
      </trkpt>
      <trkpt lat="42.447132" lon="-5.954815">
        <ele>878.708</ele>
        <time>2022-08-31T09:43:43Z</time>
      </trkpt>
      <trkpt lat="42.447512" lon="-5.963731">
        <ele>862.069</ele>
        <time>2022-08-31T09:44:03Z</time>
      </trkpt>
      <trkpt lat="42.448494" lon="-5.980275">
        <ele>905.448</ele>
        <time>2022-08-31T09:44:23Z</time>
      </trkpt>
      <trkpt lat="42.449016" lon="-5.982120">
        <ele>911.150</ele>
        <time>2022-08-31T09:44:43Z</time>
      </trkpt>
      <trkpt lat="42.452341" lon="-5.987431">
        <ele>914.010</ele>
        <time>2022-08-31T09:45:03Z</time>
      </trkpt>
      <trkpt lat="42.452998" lon="-5.989652">
        <ele>914.016</ele>
        <time>2022-08-31T09:45:23Z</time>
      </trkpt>
      <trkpt lat="42.453212" lon="-5.991390">
        <ele>912.662</ele>
        <time>2022-08-31T09:45:43Z</time>
      </trkpt>
      <trkpt lat="42.453109" lon="-5.992967">
        <ele>913.017</ele>
        <time>2022-08-31T09:46:03Z</time>
      </trkpt>
      <trkpt lat="42.452306" lon="-5.996722">
        <ele>913.790</ele>
        <time>2022-08-31T09:46:23Z</time>
      </trkpt>
      <trkpt lat="42.449871" lon="-6.000370">
        <ele>897.797</ele>
        <time>2022-08-31T09:46:43Z</time>
      </trkpt>
      <trkpt lat="42.449717" lon="-6.001330">
        <ele>897.923</ele>
        <time>2022-08-31T09:47:03Z</time>
      </trkpt>
      <trkpt lat="42.450065" lon="-6.002440">
        <ele>890.225</ele>
        <time>2022-08-31T09:47:23Z</time>
      </trkpt>
      <trkpt lat="42.451138" lon="-6.003835">
        <ele>882.108</ele>
        <time>2022-08-31T09:47:43Z</time>
      </trkpt>
      <trkpt lat="42.453078" lon="-6.005133">
        <ele>871.685</ele>
        <time>2022-08-31T09:48:03Z</time>
      </trkpt>
      <trkpt lat="42.453687" lon="-6.005734">
        <ele>865.894</ele>
        <time>2022-08-31T09:48:23Z</time>
      </trkpt>
      <trkpt lat="42.454186" lon="-6.006689">
        <ele>861.056</ele>
        <time>2022-08-31T09:48:43Z</time>
      </trkpt>
      <trkpt lat="42.454312" lon="-6.007311">
        <ele>861.696</ele>
        <time>2022-08-31T09:49:03Z</time>
      </trkpt>
      <trkpt lat="42.454225" lon="-6.014768">
        <ele>851.982</ele>
        <time>2022-08-31T09:49:23Z</time>
      </trkpt>
      <trkpt lat="42.454621" lon="-6.022578">
        <ele>838.178</ele>
        <time>2022-08-31T09:49:43Z</time>
      </trkpt>
      <trkpt lat="42.453853" lon="-6.023523">
        <ele>841.463</ele>
        <time>2022-08-31T09:50:03Z</time>
      </trkpt>
      <trkpt lat="42.454496" lon="-6.039141">
        <ele>840.916</ele>
        <time>2022-08-31T09:51:03Z</time>
      </trkpt>
      <trkpt lat="42.454635" lon="-6.039452">
        <ele>842.368</ele>
        <time>2022-08-31T09:51:23Z</time>
      </trkpt>
      <trkpt lat="42.454510" lon="-6.040131">
        <ele>842.442</ele>
        <time>2022-08-31T09:51:43Z</time>
      </trkpt>
      <trkpt lat="42.454811" lon="-6.048381">
        <ele>840.826</ele>
        <time>2022-08-31T09:52:23Z</time>
      </trkpt>
      <trkpt lat="42.456592" lon="-6.050881">
        <ele>851.308</ele>
        <time>2022-08-31T09:53:03Z</time>
      </trkpt>
      <trkpt lat="42.456889" lon="-6.052930">
        <ele>863.392</ele>
        <time>2022-08-31T09:53:23Z</time>
      </trkpt>
      <trkpt lat="42.456454" lon="-6.053628">
        <ele>870.911</ele>
        <time>2022-08-31T09:53:43Z</time>
      </trkpt>
      <trkpt lat="42.456897" lon="-6.054245">
        <ele>873.283</ele>
        <time>2022-08-31T09:54:03Z</time>
      </trkpt>
      <trkpt lat="42.457617" lon="-6.056090">
        <ele>870.633</ele>
        <time>2022-08-31T09:54:23Z</time>
      </trkpt>
      <trkpt lat="42.457948" lon="-6.056342">
        <ele>870.599</ele>
        <time>2022-08-31T09:54:43Z</time>
      </trkpt>
      <trkpt lat="42.457378" lon="-6.056323">
        <ele>871.945</ele>
        <time>2022-08-31T09:55:03Z</time>
      </trkpt>
      <trkpt lat="42.457538" lon="-6.057407">
        <ele>873.910</ele>
        <time>2022-08-31T09:55:23Z</time>
      </trkpt>
      <trkpt lat="42.456792" lon="-6.058906">
        <ele>875.923</ele>
        <time>2022-08-31T09:55:43Z</time>
      </trkpt>
      <trkpt lat="42.458890" lon="-6.062334">
        <ele>877.663</ele>
        <time>2022-08-31T09:56:03Z</time>
      </trkpt>
      <trkpt lat="42.458595" lon="-6.065687">
        <ele>871.944</ele>
        <time>2022-08-31T09:56:43Z</time>
      </trkpt>
      <trkpt lat="42.458650" lon="-6.067897">
        <ele>866.118</ele>
        <time>2022-08-31T09:57:03Z</time>
      </trkpt>
      <trkpt lat="42.459370" lon="-6.073519">
        <ele>857.608</ele>
        <time>2022-08-31T09:57:23Z</time>
      </trkpt>
      <trkpt lat="42.459149" lon="-6.076217">
        <ele>855.042</ele>
        <time>2022-08-31T09:57:43Z</time>
      </trkpt>
      <trkpt lat="42.459331" lon="-6.081378">
        <ele>860.661</ele>
        <time>2022-08-31T09:58:03Z</time>
      </trkpt>
      <trkpt lat="42.461375" lon="-6.091096">
        <ele>865.053</ele>
        <time>2022-08-31T09:58:23Z</time>
      </trkpt>
      <trkpt lat="42.461618" lon="-6.096103">
        <ele>869.183</ele>
        <time>2022-08-31T09:59:03Z</time>
      </trkpt>
      <trkpt lat="42.460486" lon="-6.099054">
        <ele>870.269</ele>
        <time>2022-08-31T09:59:23Z</time>
      </trkpt>
      <trkpt lat="42.460297" lon="-6.103506">
        <ele>879.335</ele>
        <time>2022-08-31T09:59:43Z</time>
      </trkpt>
      <trkpt lat="42.460368" lon="-6.106360">
        <ele>883.780</ele>
        <time>2022-08-31T10:00:03Z</time>
      </trkpt>
      <trkpt lat="42.463878" lon="-6.125033">
        <ele>894.053</ele>
        <time>2022-08-31T10:00:23Z</time>
      </trkpt>
      <trkpt lat="42.463795" lon="-6.125318">
        <ele>894.075</ele>
        <time>2022-08-31T10:00:43Z</time>
      </trkpt>
      <trkpt lat="42.458611" lon="-6.128676">
        <ele>912.728</ele>
        <time>2022-08-31T10:01:03Z</time>
      </trkpt>
      <trkpt lat="42.454797" lon="-6.135296">
        <ele>933.920</ele>
        <time>2022-08-31T10:01:23Z</time>
      </trkpt>
      <trkpt lat="42.454918" lon="-6.142130">
        <ele>953.208</ele>
        <time>2022-08-31T10:01:43Z</time>
      </trkpt>
      <trkpt lat="42.454728" lon="-6.145129">
        <ele>962.963</ele>
        <time>2022-08-31T10:02:03Z</time>
      </trkpt>
      <trkpt lat="42.455318" lon="-6.148900">
        <ele>969.882</ele>
        <time>2022-08-31T10:02:23Z</time>
      </trkpt>
      <trkpt lat="42.455088" lon="-6.155691">
        <ele>976.824</ele>
        <time>2022-08-31T10:02:43Z</time>
      </trkpt>
      <trkpt lat="42.454724" lon="-6.156635">
        <ele>977.074</ele>
        <time>2022-08-31T10:03:03Z</time>
      </trkpt>
      <trkpt lat="42.454209" lon="-6.157215">
        <ele>977.150</ele>
        <time>2022-08-31T10:03:23Z</time>
      </trkpt>
      <trkpt lat="42.454502" lon="-6.158384">
        <ele>982.026</ele>
        <time>2022-08-31T10:03:43Z</time>
      </trkpt>
      <trkpt lat="42.454502" lon="-6.159017">
        <ele>981.761</ele>
        <time>2022-08-31T10:04:03Z</time>
      </trkpt>
      <trkpt lat="42.455492" lon="-6.162139">
        <ele>984.864</ele>
        <time>2022-08-31T10:04:23Z</time>
      </trkpt>
      <trkpt lat="42.458302" lon="-6.176709">
        <ele>996.855</ele>
        <time>2022-08-31T10:04:43Z</time>
      </trkpt>
      <trkpt lat="42.459220" lon="-6.182610">
        <ele>1001.307</ele>
        <time>2022-08-31T10:05:03Z</time>
      </trkpt>
      <trkpt lat="42.459901" lon="-6.184970">
        <ele>997.117</ele>
        <time>2022-08-31T10:05:23Z</time>
      </trkpt>
      <trkpt lat="42.461041" lon="-6.193146">
        <ele>1011.708</ele>
        <time>2022-08-31T10:06:03Z</time>
      </trkpt>
      <trkpt lat="42.460993" lon="-6.198381">
        <ele>1018.161</ele>
        <time>2022-08-31T10:06:23Z</time>
      </trkpt>
      <trkpt lat="42.461460" lon="-6.201986">
        <ele>1016.840</ele>
        <time>2022-08-31T10:06:43Z</time>
      </trkpt>
      <trkpt lat="42.462354" lon="-6.206042">
        <ele>1017.352</ele>
        <time>2022-08-31T10:07:03Z</time>
      </trkpt>
      <trkpt lat="42.463122" lon="-6.215365">
        <ele>1013.662</ele>
        <time>2022-08-31T10:07:23Z</time>
      </trkpt>
      <trkpt lat="42.463463" lon="-6.217028">
        <ele>1014.398</ele>
        <time>2022-08-31T10:07:43Z</time>
      </trkpt>
      <trkpt lat="42.464365" lon="-6.218455">
        <ele>1014.884</ele>
        <time>2022-08-31T10:08:03Z</time>
      </trkpt>
      <trkpt lat="42.464468" lon="-6.218852">
        <ele>1015.089</ele>
        <time>2022-08-31T10:08:23Z</time>
      </trkpt>
      <trkpt lat="42.463993" lon="-6.221641">
        <ele>1027.252</ele>
        <time>2022-08-31T10:08:43Z</time>
      </trkpt>
      <trkpt lat="42.464013" lon="-6.224023">
        <ele>1026.171</ele>
        <time>2022-08-31T10:09:03Z</time>
      </trkpt>
      <trkpt lat="42.464167" lon="-6.224865">
        <ele>1027.541</ele>
        <time>2022-08-31T10:09:23Z</time>
      </trkpt>
      <trkpt lat="42.468330" lon="-6.236351">
        <ele>1056.915</ele>
        <time>2022-08-31T10:09:43Z</time>
      </trkpt>
      <trkpt lat="42.471448" lon="-6.244344">
        <ele>1066.308</ele>
        <time>2022-08-31T10:10:03Z</time>
      </trkpt>
      <trkpt lat="42.472975" lon="-6.250030">
        <ele>1062.613</ele>
        <time>2022-08-31T10:10:23Z</time>
      </trkpt>
      <trkpt lat="42.474067" lon="-6.252594">
        <ele>1066.292</ele>
        <time>2022-08-31T10:10:43Z</time>
      </trkpt>
      <trkpt lat="42.474162" lon="-6.255373">
        <ele>1068.494</ele>
        <time>2022-08-31T10:11:03Z</time>
      </trkpt>
      <trkpt lat="42.476924" lon="-6.260072">
        <ele>1102.094</ele>
        <time>2022-08-31T10:11:23Z</time>
      </trkpt>
      <trkpt lat="42.477684" lon="-6.260984">
        <ele>1103.830</ele>
        <time>2022-08-31T10:11:43Z</time>
      </trkpt>
      <trkpt lat="42.479108" lon="-6.270919">
        <ele>1103.086</ele>
        <time>2022-08-31T10:12:03Z</time>
      </trkpt>
      <trkpt lat="42.478934" lon="-6.272990">
        <ele>1108.931</ele>
        <time>2022-08-31T10:12:23Z</time>
      </trkpt>
      <trkpt lat="42.480457" lon="-6.279392">
        <ele>1124.764</ele>
        <time>2022-08-31T10:12:43Z</time>
      </trkpt>
      <trkpt lat="42.480687" lon="-6.283101">
        <ele>1137.473</ele>
        <time>2022-08-31T10:13:03Z</time>
      </trkpt>
      <trkpt lat="42.481136" lon="-6.285175">
        <ele>1149.185</ele>
        <time>2022-08-31T10:13:23Z</time>
      </trkpt>
      <trkpt lat="42.480485" lon="-6.292092">
        <ele>1162.413</ele>
        <time>2022-08-31T10:13:43Z</time>
      </trkpt>
      <trkpt lat="42.480691" lon="-6.292918">
        <ele>1167.008</ele>
        <time>2022-08-31T10:14:03Z</time>
      </trkpt>
      <trkpt lat="42.482305" lon="-6.296062">
        <ele>1179.293</ele>
        <time>2022-08-31T10:14:23Z</time>
      </trkpt>
      <trkpt lat="42.483056" lon="-6.297835">
        <ele>1191.022</ele>
        <time>2022-08-31T10:14:43Z</time>
      </trkpt>
      <trkpt lat="42.485224" lon="-6.301426">
        <ele>1209.944</ele>
        <time>2022-08-31T10:15:03Z</time>
      </trkpt>
      <trkpt lat="42.486585" lon="-6.305042">
        <ele>1234.674</ele>
        <time>2022-08-31T10:15:23Z</time>
      </trkpt>
      <trkpt lat="42.487277" lon="-6.306109">
        <ele>1241.090</ele>
        <time>2022-08-31T10:15:43Z</time>
      </trkpt>
      <trkpt lat="42.487562" lon="-6.307413">
        <ele>1249.616</ele>
        <time>2022-08-31T10:16:23Z</time>
      </trkpt>
      <trkpt lat="42.487333" lon="-6.308373">
        <ele>1253.211</ele>
        <time>2022-08-31T10:16:43Z</time>
      </trkpt>
      <trkpt lat="42.486142" lon="-6.309307">
        <ele>1252.964</ele>
        <time>2022-08-31T10:17:23Z</time>
      </trkpt>
      <trkpt lat="42.485996" lon="-6.310578">
        <ele>1261.929</ele>
        <time>2022-08-31T10:17:43Z</time>
      </trkpt>
      <trkpt lat="42.486308" lon="-6.311828">
        <ele>1266.100</ele>
        <time>2022-08-31T10:18:03Z</time>
      </trkpt>
      <trkpt lat="42.488215" lon="-6.314226">
        <ele>1282.920</ele>
        <time>2022-08-31T10:18:43Z</time>
      </trkpt>
      <trkpt lat="42.487930" lon="-6.315358">
        <ele>1285.508</ele>
        <time>2022-08-31T10:19:03Z</time>
      </trkpt>
      <trkpt lat="42.488373" lon="-6.317343">
        <ele>1296.998</ele>
        <time>2022-08-31T10:19:23Z</time>
      </trkpt>
      <trkpt lat="42.489259" lon="-6.318684">
        <ele>1303.697</ele>
        <time>2022-08-31T10:19:43Z</time>
      </trkpt>
      <trkpt lat="42.489861" lon="-6.319306">
        <ele>1313.539</ele>
        <time>2022-08-31T10:20:03Z</time>
      </trkpt>
      <trkpt lat="42.489481" lon="-6.320722">
        <ele>1317.089</ele>
        <time>2022-08-31T10:20:23Z</time>
      </trkpt>
      <trkpt lat="42.489465" lon="-6.321505">
        <ele>1317.445</ele>
        <time>2022-08-31T10:20:43Z</time>
      </trkpt>
      <trkpt lat="42.489702" lon="-6.322353">
        <ele>1321.281</ele>
        <time>2022-08-31T10:21:03Z</time>
      </trkpt>
      <trkpt lat="42.490747" lon="-6.323882">
        <ele>1330.946</ele>
        <time>2022-08-31T10:21:23Z</time>
      </trkpt>
      <trkpt lat="42.491316" lon="-6.326408">
        <ele>1341.659</ele>
        <time>2022-08-31T10:21:43Z</time>
      </trkpt>
      <trkpt lat="42.491079" lon="-6.327063">
        <ele>1347.862</ele>
        <time>2022-08-31T10:22:03Z</time>
      </trkpt>
      <trkpt lat="42.489845" lon="-6.327878">
        <ele>1349.483</ele>
        <time>2022-08-31T10:22:23Z</time>
      </trkpt>
      <trkpt lat="42.489196" lon="-6.328865">
        <ele>1353.311</ele>
        <time>2022-08-31T10:22:43Z</time>
      </trkpt>
      <trkpt lat="42.489058" lon="-6.330743">
        <ele>1365.108</ele>
        <time>2022-08-31T10:23:03Z</time>
      </trkpt>
      <trkpt lat="42.489394" lon="-6.331923">
        <ele>1370.342</ele>
        <time>2022-08-31T10:23:23Z</time>
      </trkpt>
      <trkpt lat="42.490359" lon="-6.333296">
        <ele>1379.671</ele>
        <time>2022-08-31T10:23:43Z</time>
      </trkpt>
      <trkpt lat="42.491095" lon="-6.333876">
        <ele>1386.943</ele>
        <time>2022-08-31T10:24:03Z</time>
      </trkpt>
      <trkpt lat="42.491411" lon="-6.334605">
        <ele>1388.893</ele>
        <time>2022-08-31T10:24:23Z</time>
      </trkpt>
      <trkpt lat="42.490755" lon="-6.335903">
        <ele>1392.089</ele>
        <time>2022-08-31T10:24:43Z</time>
      </trkpt>
      <trkpt lat="42.490565" lon="-6.336676">
        <ele>1397.175</ele>
        <time>2022-08-31T10:25:03Z</time>
      </trkpt>
      <trkpt lat="42.490612" lon="-6.337813">
        <ele>1404.890</ele>
        <time>2022-08-31T10:25:23Z</time>
      </trkpt>
      <trkpt lat="42.491376" lon="-6.341273">
        <ele>1418.353</ele>
        <time>2022-08-31T10:25:43Z</time>
      </trkpt>
      <trkpt lat="42.491700" lon="-6.341853">
        <ele>1423.863</ele>
        <time>2022-08-31T10:26:03Z</time>
      </trkpt>
      <trkpt lat="42.493045" lon="-6.341971">
        <ele>1432.444</ele>
        <time>2022-08-31T10:26:23Z</time>
      </trkpt>
      <trkpt lat="42.493943" lon="-6.341552">
        <ele>1438.218</ele>
        <time>2022-08-31T10:26:43Z</time>
      </trkpt>
      <trkpt lat="42.494710" lon="-6.341869">
        <ele>1439.608</ele>
        <time>2022-08-31T10:27:03Z</time>
      </trkpt>
      <trkpt lat="42.495379" lon="-6.343338">
        <ele>1453.012</ele>
        <time>2022-08-31T10:27:23Z</time>
      </trkpt>
      <trkpt lat="42.495572" lon="-6.344197">
        <ele>1458.061</ele>
        <time>2022-08-31T10:27:43Z</time>
      </trkpt>
      <trkpt lat="42.494603" lon="-6.349803">
        <ele>1493.573</ele>
        <time>2022-08-31T10:28:03Z</time>
      </trkpt>
      <trkpt lat="42.494453" lon="-6.350049">
        <ele>1496.283</ele>
        <time>2022-08-31T10:28:23Z</time>
      </trkpt>
      <trkpt lat="42.493970" lon="-6.350259">
        <ele>1499.759</ele>
        <time>2022-08-31T10:28:43Z</time>
      </trkpt>
      <trkpt lat="42.492542" lon="-6.351964">
        <ele>1496.525</ele>
        <time>2022-08-31T10:29:23Z</time>
      </trkpt>
      <trkpt lat="42.491807" lon="-6.353434">
        <ele>1492.390</ele>
        <time>2022-08-31T10:29:43Z</time>
      </trkpt>
      <trkpt lat="42.491633" lon="-6.354631">
        <ele>1485.063</ele>
        <time>2022-08-31T10:30:03Z</time>
      </trkpt>
      <trkpt lat="42.490747" lon="-6.355757">
        <ele>1485.634</ele>
        <time>2022-08-31T10:30:23Z</time>
      </trkpt>
      <trkpt lat="42.490608" lon="-6.357651">
        <ele>1490.955</ele>
        <time>2022-08-31T10:30:43Z</time>
      </trkpt>
      <trkpt lat="42.489819" lon="-6.359797">
        <ele>1492.910</ele>
        <time>2022-08-31T10:31:23Z</time>
      </trkpt>
      <trkpt lat="42.488670" lon="-6.361540">
        <ele>1496.708</ele>
        <time>2022-08-31T10:31:43Z</time>
      </trkpt>
      <trkpt lat="42.488516" lon="-6.362323">
        <ele>1494.749</ele>
        <time>2022-08-31T10:32:03Z</time>
      </trkpt>
      <trkpt lat="42.488705" lon="-6.364126">
        <ele>1487.968</ele>
        <time>2022-08-31T10:32:23Z</time>
      </trkpt>
      <trkpt lat="42.489145" lon="-6.365622">
        <ele>1482.750</ele>
        <time>2022-08-31T10:32:43Z</time>
      </trkpt>
      <trkpt lat="42.489046" lon="-6.369721">
        <ele>1471.960</ele>
        <time>2022-08-31T10:33:03Z</time>
      </trkpt>
      <trkpt lat="42.489967" lon="-6.372832">
        <ele>1479.166</ele>
        <time>2022-08-31T10:33:23Z</time>
      </trkpt>
      <trkpt lat="42.489789" lon="-6.373336">
        <ele>1479.222</ele>
        <time>2022-08-31T10:33:43Z</time>
      </trkpt>
      <trkpt lat="42.488935" lon="-6.374200">
        <ele>1475.267</ele>
        <time>2022-08-31T10:34:03Z</time>
      </trkpt>
      <trkpt lat="42.488334" lon="-6.375573">
        <ele>1472.910</ele>
        <time>2022-08-31T10:34:23Z</time>
      </trkpt>
      <trkpt lat="42.488385" lon="-6.378137">
        <ele>1463.163</ele>
        <time>2022-08-31T10:34:43Z</time>
      </trkpt>
      <trkpt lat="42.488274" lon="-6.378567">
        <ele>1464.344</ele>
        <time>2022-08-31T10:35:03Z</time>
      </trkpt>
      <trkpt lat="42.487661" lon="-6.379302">
        <ele>1464.618</ele>
        <time>2022-08-31T10:35:23Z</time>
      </trkpt>
      <trkpt lat="42.487384" lon="-6.380364">
        <ele>1466.008</ele>
        <time>2022-08-31T10:35:43Z</time>
      </trkpt>
      <trkpt lat="42.487513" lon="-6.381718">
        <ele>1457.642</ele>
        <time>2022-08-31T10:36:03Z</time>
      </trkpt>
      <trkpt lat="42.488274" lon="-6.384585">
        <ele>1448.751</ele>
        <time>2022-08-31T10:36:43Z</time>
      </trkpt>
      <trkpt lat="42.489220" lon="-6.385074">
        <ele>1448.543</ele>
        <time>2022-08-31T10:37:03Z</time>
      </trkpt>
      <trkpt lat="42.489963" lon="-6.386511">
        <ele>1440.083</ele>
        <time>2022-08-31T10:37:23Z</time>
      </trkpt>
      <trkpt lat="42.490311" lon="-6.386876">
        <ele>1440.969</ele>
        <time>2022-08-31T10:37:43Z</time>
      </trkpt>
      <trkpt lat="42.490549" lon="-6.387713">
        <ele>1438.135</ele>
        <time>2022-08-31T10:38:03Z</time>
      </trkpt>
      <trkpt lat="42.490501" lon="-6.388400">
        <ele>1435.060</ele>
        <time>2022-08-31T10:38:23Z</time>
      </trkpt>
      <trkpt lat="42.490153" lon="-6.389542">
        <ele>1435.573</ele>
        <time>2022-08-31T10:38:43Z</time>
      </trkpt>
      <trkpt lat="42.490252" lon="-6.390840">
        <ele>1441.374</ele>
        <time>2022-08-31T10:39:03Z</time>
      </trkpt>
      <trkpt lat="42.490490" lon="-6.391581">
        <ele>1447.956</ele>
        <time>2022-08-31T10:39:23Z</time>
      </trkpt>
      <trkpt lat="42.491585" lon="-6.393136">
        <ele>1451.921</ele>
        <time>2022-08-31T10:39:43Z</time>
      </trkpt>
      <trkpt lat="42.491593" lon="-6.393635">
        <ele>1455.008</ele>
        <time>2022-08-31T10:40:03Z</time>
      </trkpt>
      <trkpt lat="42.491320" lon="-6.394107">
        <ele>1450.883</ele>
        <time>2022-08-31T10:40:23Z</time>
      </trkpt>
      <trkpt lat="42.491395" lon="-6.394998">
        <ele>1455.262</ele>
        <time>2022-08-31T10:40:43Z</time>
      </trkpt>
      <trkpt lat="42.491882" lon="-6.396527">
        <ele>1459.824</ele>
        <time>2022-08-31T10:41:03Z</time>
      </trkpt>
      <trkpt lat="42.492610" lon="-6.397975">
        <ele>1461.954</ele>
        <time>2022-08-31T10:41:23Z</time>
      </trkpt>
      <trkpt lat="42.492210" lon="-6.399423">
        <ele>1461.680</ele>
        <time>2022-08-31T10:41:43Z</time>
      </trkpt>
      <trkpt lat="42.492756" lon="-6.402540">
        <ele>1463.636</ele>
        <time>2022-08-31T10:42:03Z</time>
      </trkpt>
      <trkpt lat="42.492289" lon="-6.405287">
        <ele>1472.171</ele>
        <time>2022-08-31T10:42:23Z</time>
      </trkpt>
      <trkpt lat="42.491728" lon="-6.405662">
        <ele>1474.154</ele>
        <time>2022-08-31T10:42:43Z</time>
      </trkpt>
      <trkpt lat="42.490897" lon="-6.405791">
        <ele>1473.165</ele>
        <time>2022-08-31T10:43:03Z</time>
      </trkpt>
      <trkpt lat="42.489876" lon="-6.406317">
        <ele>1481.468</ele>
        <time>2022-08-31T10:43:43Z</time>
      </trkpt>
      <trkpt lat="42.489441" lon="-6.406757">
        <ele>1487.314</ele>
        <time>2022-08-31T10:44:03Z</time>
      </trkpt>
      <trkpt lat="42.490315" lon="-6.409718">
        <ele>1493.208</ele>
        <time>2022-08-31T10:44:23Z</time>
      </trkpt>
      <trkpt lat="42.490379" lon="-6.411225">
        <ele>1492.322</ele>
        <time>2022-08-31T10:44:43Z</time>
      </trkpt>
      <trkpt lat="42.490027" lon="-6.412202">
        <ele>1494.321</ele>
        <time>2022-08-31T10:45:03Z</time>
      </trkpt>
      <trkpt lat="42.489512" lon="-6.413017">
        <ele>1496.733</ele>
        <time>2022-08-31T10:45:23Z</time>
      </trkpt>
      <trkpt lat="42.489315" lon="-6.418135">
        <ele>1503.543</ele>
        <time>2022-08-31T10:45:43Z</time>
      </trkpt>
      <trkpt lat="42.488429" lon="-6.419025">
        <ele>1500.579</ele>
        <time>2022-08-31T10:46:03Z</time>
      </trkpt>
      <trkpt lat="42.487962" lon="-6.419969">
        <ele>1503.255</ele>
        <time>2022-08-31T10:46:23Z</time>
      </trkpt>
      <trkpt lat="42.488076" lon="-6.420892">
        <ele>1501.540</ele>
        <time>2022-08-31T10:46:43Z</time>
      </trkpt>
      <trkpt lat="42.488808" lon="-6.422941">
        <ele>1492.263</ele>
        <time>2022-08-31T10:47:03Z</time>
      </trkpt>
      <trkpt lat="42.488753" lon="-6.424341">
        <ele>1486.057</ele>
        <time>2022-08-31T10:47:23Z</time>
      </trkpt>
      <trkpt lat="42.489528" lon="-6.426814">
        <ele>1468.000</ele>
        <time>2022-08-31T10:47:43Z</time>
      </trkpt>
      <trkpt lat="42.490980" lon="-6.428681">
        <ele>1437.820</ele>
        <time>2022-08-31T10:48:03Z</time>
      </trkpt>
      <trkpt lat="42.491712" lon="-6.431508">
        <ele>1412.608</ele>
        <time>2022-08-31T10:48:23Z</time>
      </trkpt>
      <trkpt lat="42.491728" lon="-6.432431">
        <ele>1407.711</ele>
        <time>2022-08-31T10:48:43Z</time>
      </trkpt>
      <trkpt lat="42.490826" lon="-6.435896">
        <ele>1395.830</ele>
        <time>2022-08-31T10:49:03Z</time>
      </trkpt>
      <trkpt lat="42.490486" lon="-6.439694">
        <ele>1375.742</ele>
        <time>2022-08-31T10:49:23Z</time>
      </trkpt>
      <trkpt lat="42.489607" lon="-6.440445">
        <ele>1369.392</ele>
        <time>2022-08-31T10:50:03Z</time>
      </trkpt>
      <trkpt lat="42.489172" lon="-6.441137">
        <ele>1368.188</ele>
        <time>2022-08-31T10:50:23Z</time>
      </trkpt>
      <trkpt lat="42.489900" lon="-6.441920">
        <ele>1369.494</ele>
        <time>2022-08-31T10:50:43Z</time>
      </trkpt>
      <trkpt lat="42.491676" lon="-6.442811">
        <ele>1353.179</ele>
        <time>2022-08-31T10:51:03Z</time>
      </trkpt>
      <trkpt lat="42.492610" lon="-6.441700">
        <ele>1358.132</ele>
        <time>2022-08-31T10:51:23Z</time>
      </trkpt>
      <trkpt lat="42.493595" lon="-6.442323">
        <ele>1336.046</ele>
        <time>2022-08-31T10:51:43Z</time>
      </trkpt>
      <trkpt lat="42.494670" lon="-6.442569">
        <ele>1320.488</ele>
        <time>2022-08-31T10:52:03Z</time>
      </trkpt>
      <trkpt lat="42.495153" lon="-6.442859">
        <ele>1318.416</ele>
        <time>2022-08-31T10:52:23Z</time>
      </trkpt>
      <trkpt lat="42.495841" lon="-6.444619">
        <ele>1293.908</ele>
        <time>2022-08-31T10:52:43Z</time>
      </trkpt>
      <trkpt lat="42.496411" lon="-6.445402">
        <ele>1288.490</ele>
        <time>2022-08-31T10:53:03Z</time>
      </trkpt>
      <trkpt lat="42.496830" lon="-6.445445">
        <ele>1281.989</ele>
        <time>2022-08-31T10:53:23Z</time>
      </trkpt>
      <trkpt lat="42.497621" lon="-6.444254">
        <ele>1272.611</ele>
        <time>2022-08-31T10:53:43Z</time>
      </trkpt>
      <trkpt lat="42.497985" lon="-6.444329">
        <ele>1266.761</ele>
        <time>2022-08-31T10:54:03Z</time>
      </trkpt>
      <trkpt lat="42.498325" lon="-6.444908">
        <ele>1261.117</ele>
        <time>2022-08-31T10:54:23Z</time>
      </trkpt>
      <trkpt lat="42.498626" lon="-6.446089">
        <ele>1249.093</ele>
        <time>2022-08-31T10:54:43Z</time>
      </trkpt>
      <trkpt lat="42.498325" lon="-6.448846">
        <ele>1222.478</ele>
        <time>2022-08-31T10:55:03Z</time>
      </trkpt>
      <trkpt lat="42.498555" lon="-6.449769">
        <ele>1219.511</ele>
        <time>2022-08-31T10:55:23Z</time>
      </trkpt>
      <trkpt lat="42.498871" lon="-6.450219">
        <ele>1213.889</ele>
        <time>2022-08-31T10:55:43Z</time>
      </trkpt>
      <trkpt lat="42.499267" lon="-6.452923">
        <ele>1192.606</ele>
        <time>2022-08-31T10:56:03Z</time>
      </trkpt>
      <trkpt lat="42.499172" lon="-6.453631">
        <ele>1181.526</ele>
        <time>2022-08-31T10:56:23Z</time>
      </trkpt>
      <trkpt lat="42.498651" lon="-6.454122">
        <ele>1178.608</ele>
        <time>2022-08-31T10:56:43Z</time>
      </trkpt>
      <trkpt lat="42.498240" lon="-6.455345">
        <ele>1166.094</ele>
        <time>2022-08-31T10:57:03Z</time>
      </trkpt>
      <trkpt lat="42.497712" lon="-6.455911">
        <ele>1158.773</ele>
        <time>2022-08-31T10:57:23Z</time>
      </trkpt>
      <trkpt lat="42.498309" lon="-6.456243">
        <ele>1153.165</ele>
        <time>2022-08-31T10:57:43Z</time>
      </trkpt>
      <trkpt lat="42.499077" lon="-6.457316">
        <ele>1144.175</ele>
        <time>2022-08-31T10:58:03Z</time>
      </trkpt>
      <trkpt lat="42.499397" lon="-6.458062">
        <ele>1141.381</ele>
        <time>2022-08-31T10:58:23Z</time>
      </trkpt>
      <trkpt lat="42.500425" lon="-6.458534">
        <ele>1130.897</ele>
        <time>2022-08-31T10:59:03Z</time>
      </trkpt>
      <trkpt lat="42.503055" lon="-6.460851">
        <ele>1109.682</ele>
        <time>2022-08-31T10:59:23Z</time>
      </trkpt>
      <trkpt lat="42.504962" lon="-6.463265">
        <ele>1090.775</ele>
        <time>2022-08-31T10:59:43Z</time>
      </trkpt>
      <trkpt lat="42.506971" lon="-6.467139">
        <ele>1066.174</ele>
        <time>2022-08-31T11:00:03Z</time>
      </trkpt>
      <trkpt lat="42.507793" lon="-6.467965">
        <ele>1054.156</ele>
        <time>2022-08-31T11:00:43Z</time>
      </trkpt>
      <trkpt lat="42.508339" lon="-6.467772">
        <ele>1052.021</ele>
        <time>2022-08-31T11:01:23Z</time>
      </trkpt>
      <trkpt lat="42.509470" lon="-6.467975">
        <ele>1035.408</ele>
        <time>2022-08-31T11:01:43Z</time>
      </trkpt>
      <trkpt lat="42.509921" lon="-6.468254">
        <ele>1030.033</ele>
        <time>2022-08-31T11:02:03Z</time>
      </trkpt>
      <trkpt lat="42.513045" lon="-6.472009">
        <ele>997.632</ele>
        <time>2022-08-31T11:02:23Z</time>
      </trkpt>
      <trkpt lat="42.514634" lon="-6.471720">
        <ele>985.484</ele>
        <time>2022-08-31T11:02:43Z</time>
      </trkpt>
      <trkpt lat="42.515164" lon="-6.470947">
        <ele>981.434</ele>
        <time>2022-08-31T11:03:03Z</time>
      </trkpt>
      <trkpt lat="42.515931" lon="-6.470507">
        <ele>973.530</ele>
        <time>2022-08-31T11:03:23Z</time>
      </trkpt>
      <trkpt lat="42.516390" lon="-6.470604">
        <ele>972.096</ele>
        <time>2022-08-31T11:03:43Z</time>
      </trkpt>
      <trkpt lat="42.519577" lon="-6.477031">
        <ele>953.041</ele>
        <time>2022-08-31T11:04:03Z</time>
      </trkpt>
      <trkpt lat="42.521356" lon="-6.478168">
        <ele>941.494</ele>
        <time>2022-08-31T11:04:43Z</time>
      </trkpt>
      <trkpt lat="42.521751" lon="-6.478661">
        <ele>939.027</ele>
        <time>2022-08-31T11:05:03Z</time>
      </trkpt>
      <trkpt lat="42.522510" lon="-6.479037">
        <ele>937.468</ele>
        <time>2022-08-31T11:05:23Z</time>
      </trkpt>
      <trkpt lat="42.522906" lon="-6.479026">
        <ele>934.714</ele>
        <time>2022-08-31T11:05:43Z</time>
      </trkpt>
      <trkpt lat="42.523032" lon="-6.478618">
        <ele>937.208</ele>
        <time>2022-08-31T11:06:03Z</time>
      </trkpt>
      <trkpt lat="42.523285" lon="-6.478468">
        <ele>936.978</ele>
        <time>2022-08-31T11:06:23Z</time>
      </trkpt>
      <trkpt lat="42.523807" lon="-6.478704">
        <ele>934.797</ele>
        <time>2022-08-31T11:06:43Z</time>
      </trkpt>
      <trkpt lat="42.523918" lon="-6.479080">
        <ele>933.759</ele>
        <time>2022-08-31T11:07:03Z</time>
      </trkpt>
      <trkpt lat="42.523878" lon="-6.479992">
        <ele>926.779</ele>
        <time>2022-08-31T11:07:23Z</time>
      </trkpt>
      <trkpt lat="42.524890" lon="-6.482363">
        <ele>911.015</ele>
        <time>2022-08-31T11:07:43Z</time>
      </trkpt>
      <trkpt lat="42.526369" lon="-6.485023">
        <ele>893.541</ele>
        <time>2022-08-31T11:08:03Z</time>
      </trkpt>
      <trkpt lat="42.526946" lon="-6.484637">
        <ele>896.256</ele>
        <time>2022-08-31T11:08:23Z</time>
      </trkpt>
      <trkpt lat="42.527357" lon="-6.485324">
        <ele>896.669</ele>
        <time>2022-08-31T11:09:03Z</time>
      </trkpt>
      <trkpt lat="42.527286" lon="-6.485761">
        <ele>892.684</ele>
        <time>2022-08-31T11:09:23Z</time>
      </trkpt>
      <trkpt lat="42.526535" lon="-6.486912">
        <ele>881.007</ele>
        <time>2022-08-31T11:09:43Z</time>
      </trkpt>
      <trkpt lat="42.526302" lon="-6.488054">
        <ele>878.417</ele>
        <time>2022-08-31T11:10:03Z</time>
      </trkpt>
      <trkpt lat="42.526511" lon="-6.491632">
        <ele>860.108</ele>
        <time>2022-08-31T11:10:23Z</time>
      </trkpt>
      <trkpt lat="42.526401" lon="-6.492469">
        <ele>853.434</ele>
        <time>2022-08-31T11:10:43Z</time>
      </trkpt>
      <trkpt lat="42.526586" lon="-6.492990">
        <ele>849.523</ele>
        <time>2022-08-31T11:11:03Z</time>
      </trkpt>
      <trkpt lat="42.526918" lon="-6.493392">
        <ele>846.755</ele>
        <time>2022-08-31T11:11:23Z</time>
      </trkpt>
      <trkpt lat="42.528069" lon="-6.493888">
        <ele>841.175</ele>
        <time>2022-08-31T11:11:43Z</time>
      </trkpt>
      <trkpt lat="42.528369" lon="-6.494545">
        <ele>839.781</ele>
        <time>2022-08-31T11:12:03Z</time>
      </trkpt>
      <trkpt lat="42.528116" lon="-6.496286">
        <ele>830.347</ele>
        <time>2022-08-31T11:12:23Z</time>
      </trkpt>
      <trkpt lat="42.527160" lon="-6.496112">
        <ele>820.332</ele>
        <time>2022-08-31T11:13:23Z</time>
      </trkpt>
      <trkpt lat="42.526578" lon="-6.497163">
        <ele>815.935</ele>
        <time>2022-08-31T11:13:43Z</time>
      </trkpt>
      <trkpt lat="42.525902" lon="-6.497732">
        <ele>811.693</ele>
        <time>2022-08-31T11:14:03Z</time>
      </trkpt>
      <trkpt lat="42.525689" lon="-6.498494">
        <ele>803.565</ele>
        <time>2022-08-31T11:14:23Z</time>
      </trkpt>
      <trkpt lat="42.525211" lon="-6.498783">
        <ele>800.721</ele>
        <time>2022-08-31T11:14:43Z</time>
      </trkpt>
      <trkpt lat="42.524795" lon="-6.498429">
        <ele>794.608</ele>
        <time>2022-08-31T11:15:03Z</time>
      </trkpt>
      <trkpt lat="42.524483" lon="-6.498510">
        <ele>798.565</ele>
        <time>2022-08-31T11:15:23Z</time>
      </trkpt>
      <trkpt lat="42.524321" lon="-6.499009">
        <ele>795.944</ele>
        <time>2022-08-31T11:15:43Z</time>
      </trkpt>
      <trkpt lat="42.523768" lon="-6.499722">
        <ele>796.816</ele>
        <time>2022-08-31T11:16:03Z</time>
      </trkpt>
      <trkpt lat="42.523594" lon="-6.500749">
        <ele>792.896</ele>
        <time>2022-08-31T11:16:23Z</time>
      </trkpt>
      <trkpt lat="42.523702" lon="-6.501785">
        <ele>782.272</ele>
        <time>2022-08-31T11:16:43Z</time>
      </trkpt>
      <trkpt lat="42.523153" lon="-6.503458">
        <ele>782.668</ele>
        <time>2022-08-31T11:17:03Z</time>
      </trkpt>
      <trkpt lat="42.522635" lon="-6.504542">
        <ele>779.483</ele>
        <time>2022-08-31T11:17:23Z</time>
      </trkpt>
      <trkpt lat="42.522757" lon="-6.504647">
        <ele>772.436</ele>
        <time>2022-08-31T11:17:43Z</time>
      </trkpt>
      <trkpt lat="42.523675" lon="-6.502884">
        <ele>768.627</ele>
        <time>2022-08-31T11:18:23Z</time>
      </trkpt>
      <trkpt lat="42.523890" lon="-6.503659">
        <ele>760.568</ele>
        <time>2022-08-31T11:18:43Z</time>
      </trkpt>
      <trkpt lat="42.523613" lon="-6.505395">
        <ele>742.514</ele>
        <time>2022-08-31T11:19:03Z</time>
      </trkpt>
      <trkpt lat="42.523898" lon="-6.508466">
        <ele>713.608</ele>
        <time>2022-08-31T11:19:23Z</time>
      </trkpt>
      <trkpt lat="42.524072" lon="-6.508713">
        <ele>713.998</ele>
        <time>2022-08-31T11:19:43Z</time>
      </trkpt>
      <trkpt lat="42.525555" lon="-6.508906">
        <ele>709.587</ele>
        <time>2022-08-31T11:20:03Z</time>
      </trkpt>
      <trkpt lat="42.525835" lon="-6.508520">
        <ele>714.379</ele>
        <time>2022-08-31T11:20:23Z</time>
      </trkpt>
      <trkpt lat="42.526634" lon="-6.509517">
        <ele>709.319</ele>
        <time>2022-08-31T11:21:03Z</time>
      </trkpt>
      <trkpt lat="42.526760" lon="-6.510086">
        <ele>701.545</ele>
        <time>2022-08-31T11:21:23Z</time>
      </trkpt>
      <trkpt lat="42.526693" lon="-6.510832">
        <ele>688.081</ele>
        <time>2022-08-31T11:21:43Z</time>
      </trkpt>
      <trkpt lat="42.527349" lon="-6.511272">
        <ele>685.066</ele>
        <time>2022-08-31T11:22:03Z</time>
      </trkpt>
      <trkpt lat="42.529630" lon="-6.511003">
        <ele>670.219</ele>
        <time>2022-08-31T11:22:43Z</time>
      </trkpt>
      <trkpt lat="42.530034" lon="-6.510660">
        <ele>673.369</ele>
        <time>2022-08-31T11:23:03Z</time>
      </trkpt>
      <trkpt lat="42.530184" lon="-6.510730">
        <ele>675.504</ele>
        <time>2022-08-31T11:23:23Z</time>
      </trkpt>
      <trkpt lat="42.530607" lon="-6.511870">
        <ele>649.024</ele>
        <time>2022-08-31T11:23:43Z</time>
      </trkpt>
      <trkpt lat="42.531425" lon="-6.512744">
        <ele>641.508</ele>
        <time>2022-08-31T11:24:03Z</time>
      </trkpt>
      <trkpt lat="42.532016" lon="-6.512487">
        <ele>650.612</ele>
        <time>2022-08-31T11:24:43Z</time>
      </trkpt>
      <trkpt lat="42.532530" lon="-6.512956">
        <ele>635.841</ele>
        <time>2022-08-31T11:25:03Z</time>
      </trkpt>
      <trkpt lat="42.533489" lon="-6.512548">
        <ele>635.213</ele>
        <time>2022-08-31T11:25:43Z</time>
      </trkpt>
      <trkpt lat="42.534169" lon="-6.511856">
        <ele>644.243</ele>
        <time>2022-08-31T11:26:03Z</time>
      </trkpt>
      <trkpt lat="42.534331" lon="-6.511910">
        <ele>643.649</ele>
        <time>2022-08-31T11:26:23Z</time>
      </trkpt>
      <trkpt lat="42.534342" lon="-6.512221">
        <ele>642.165</ele>
        <time>2022-08-31T11:26:43Z</time>
      </trkpt>
      <trkpt lat="42.533979" lon="-6.512817">
        <ele>631.140</ele>
        <time>2022-08-31T11:27:03Z</time>
      </trkpt>
      <trkpt lat="42.533789" lon="-6.513825">
        <ele>616.383</ele>
        <time>2022-08-31T11:27:23Z</time>
      </trkpt>
      <trkpt lat="42.534350" lon="-6.514673">
        <ele>619.412</ele>
        <time>2022-08-31T11:27:43Z</time>
      </trkpt>
      <trkpt lat="42.534852" lon="-6.516325">
        <ele>603.932</ele>
        <time>2022-08-31T11:28:03Z</time>
      </trkpt>
      <trkpt lat="42.535153" lon="-6.516663">
        <ele>604.105</ele>
        <time>2022-08-31T11:28:23Z</time>
      </trkpt>
      <trkpt lat="42.536837" lon="-6.517457">
        <ele>594.808</ele>
        <time>2022-08-31T11:28:43Z</time>
      </trkpt>
      <trkpt lat="42.537564" lon="-6.518084">
        <ele>588.157</ele>
        <time>2022-08-31T11:29:03Z</time>
      </trkpt>
      <trkpt lat="42.537659" lon="-6.519235">
        <ele>584.536</ele>
        <time>2022-08-31T11:29:23Z</time>
      </trkpt>
      <trkpt lat="42.537181" lon="-6.519538">
        <ele>588.328</ele>
        <time>2022-08-31T11:29:43Z</time>
      </trkpt>
      <trkpt lat="42.537441" lon="-6.520249">
        <ele>586.428</ele>
        <time>2022-08-31T11:30:03Z</time>
      </trkpt>
      <trkpt lat="42.537576" lon="-6.519007">
        <ele>584.061</ele>
        <time>2022-08-31T08:28:19Z</time>
      </trkpt>
      <trkpt lat="42.538750" lon="-6.522499">
        <ele>580.021</ele>
        <time>2022-08-31T08:28:39Z</time>
      </trkpt>
      <trkpt lat="42.541983" lon="-6.528068">
        <ele>572.713</ele>
        <time>2022-08-31T08:29:39Z</time>
      </trkpt>
      <trkpt lat="42.545540" lon="-6.535696">
        <ele>571.008</ele>
        <time>2022-08-31T08:29:59Z</time>
      </trkpt>
      <trkpt lat="42.545714" lon="-6.538217">
        <ele>580.222</ele>
        <time>2022-08-31T08:30:39Z</time>
      </trkpt>
      <trkpt lat="42.546157" lon="-6.539065">
        <ele>581.022</ele>
        <time>2022-08-31T08:30:59Z</time>
      </trkpt>
      <trkpt lat="42.546362" lon="-6.542262">
        <ele>588.189</ele>
        <time>2022-08-31T08:31:39Z</time>
      </trkpt>
      <trkpt lat="42.545872" lon="-6.548088">
        <ele>611.179</ele>
        <time>2022-08-31T08:31:59Z</time>
      </trkpt>
      <trkpt lat="42.545334" lon="-6.549740">
        <ele>607.523</ele>
        <time>2022-08-31T08:32:19Z</time>
      </trkpt>
      <trkpt lat="42.545690" lon="-6.551918">
        <ele>596.076</ele>
        <time>2022-08-31T08:32:59Z</time>
      </trkpt>
      <trkpt lat="42.545165" lon="-6.553940">
        <ele>586.665</ele>
        <time>2022-08-31T08:33:19Z</time>
      </trkpt>
      <trkpt lat="42.545785" lon="-6.560984">
        <ele>551.090</ele>
        <time>2022-08-31T08:33:39Z</time>
      </trkpt>
      <trkpt lat="42.545232" lon="-6.564031">
        <ele>532.488</ele>
        <time>2022-08-31T08:33:59Z</time>
      </trkpt>
      <trkpt lat="42.545493" lon="-6.564964">
        <ele>528.124</ele>
        <time>2022-08-31T08:34:19Z</time>
      </trkpt>
      <trkpt lat="42.546520" lon="-6.565774">
        <ele>522.726</ele>
        <time>2022-08-31T08:34:39Z</time>
      </trkpt>
      <trkpt lat="42.546773" lon="-6.567421">
        <ele>521.008</ele>
        <time>2022-08-31T08:35:19Z</time>
      </trkpt>
      <trkpt lat="42.545121" lon="-6.571337">
        <ele>519.764</ele>
        <time>2022-08-31T08:35:59Z</time>
      </trkpt>
      <trkpt lat="42.545010" lon="-6.573644">
        <ele>520.094</ele>
        <time>2022-08-31T08:36:19Z</time>
      </trkpt>
      <trkpt lat="42.545500" lon="-6.577007">
        <ele>523.621</ele>
        <time>2022-08-31T08:36:39Z</time>
      </trkpt>
      <trkpt lat="42.546184" lon="-6.578421">
        <ele>531.061</ele>
        <time>2022-08-31T08:37:19Z</time>
      </trkpt>
      <trkpt lat="42.545651" lon="-6.582935">
        <ele>535.255</ele>
        <time>2022-08-31T08:37:39Z</time>
      </trkpt>
      <trkpt lat="42.544773" lon="-6.583879">
        <ele>534.268</ele>
        <time>2022-08-31T08:37:59Z</time>
      </trkpt>
      <trkpt lat="42.544331" lon="-6.586754">
        <ele>532.837</ele>
        <time>2022-08-31T08:38:19Z</time>
      </trkpt>
      <trkpt lat="42.542900" lon="-6.589297">
        <ele>530.732</ele>
        <time>2022-08-31T08:38:39Z</time>
      </trkpt>
      <trkpt lat="42.543026" lon="-6.594211">
        <ele>531.398</ele>
        <time>2022-08-31T08:39:39Z</time>
      </trkpt>
      <trkpt lat="42.544797" lon="-6.596603">
        <ele>515.115</ele>
        <time>2022-08-31T08:39:59Z</time>
      </trkpt>
      <trkpt lat="42.547939" lon="-6.597961">
        <ele>524.326</ele>
        <time>2022-08-31T08:41:19Z</time>
      </trkpt>
      <trkpt lat="42.547623" lon="-6.596255">
        <ele>520.808</ele>
        <time>2022-08-31T08:41:39Z</time>
      </trkpt>
      <trkpt lat="42.552013" lon="-6.594651">
        <ele>512.765</ele>
        <time>2022-08-31T08:42:19Z</time>
      </trkpt>
      <trkpt lat="42.554637" lon="-6.594125">
        <ele>522.495</ele>
        <time>2022-08-31T08:43:19Z</time>
      </trkpt>
      <trkpt lat="42.555590" lon="-6.594844">
        <ele>523.722</ele>
        <time>2022-08-31T08:43:39Z</time>
      </trkpt>
      <trkpt lat="42.557328" lon="-6.591743">
        <ele>522.272</ele>
        <time>2022-08-31T08:44:39Z</time>
      </trkpt>
      <trkpt lat="42.557917" lon="-6.591743">
        <ele>529.386</ele>
        <time>2022-08-31T08:45:19Z</time>
      </trkpt>
      <trkpt lat="42.558747" lon="-6.588299">
        <ele>537.279</ele>
        <time>2022-08-31T08:45:59Z</time>
      </trkpt>
      <trkpt lat="42.562101" lon="-6.592843">
        <ele>539.538</ele>
        <time>2022-08-31T08:46:19Z</time>
      </trkpt>
      <trkpt lat="42.562678" lon="-6.592151">
        <ele>540.793</ele>
        <time>2022-08-31T08:46:39Z</time>
      </trkpt>
      <trkpt lat="42.564551" lon="-6.594785">
        <ele>536.811</ele>
        <time>2022-08-31T08:46:59Z</time>
      </trkpt>
      <trkpt lat="42.564405" lon="-6.596373">
        <ele>535.221</ele>
        <time>2022-08-31T08:47:39Z</time>
      </trkpt>
      <trkpt lat="42.567972" lon="-6.600391">
        <ele>539.303</ele>
        <time>2022-08-31T08:48:39Z</time>
      </trkpt>
      <trkpt lat="42.568585" lon="-6.602515">
        <ele>537.908</ele>
        <time>2022-08-31T08:48:59Z</time>
      </trkpt>
      <trkpt lat="42.571733" lon="-6.607574">
        <ele>530.877</ele>
        <time>2022-08-31T08:49:39Z</time>
      </trkpt>
      <trkpt lat="42.572397" lon="-6.607863">
        <ele>532.577</ele>
        <time>2022-08-31T08:50:19Z</time>
      </trkpt>
      <trkpt lat="42.573377" lon="-6.611146">
        <ele>523.944</ele>
        <time>2022-08-31T08:51:19Z</time>
      </trkpt>
      <trkpt lat="42.574321" lon="-6.611994">
        <ele>523.084</ele>
        <time>2022-08-31T08:51:39Z</time>
      </trkpt>
      <trkpt lat="42.575964" lon="-6.627398">
        <ele>512.468</ele>
        <time>2022-08-31T08:52:59Z</time>
      </trkpt>
      <trkpt lat="42.578113" lon="-6.632352">
        <ele>511.181</ele>
        <time>2022-08-31T08:53:59Z</time>
      </trkpt>
      <trkpt lat="42.577078" lon="-6.636257">
        <ele>508.540</ele>
        <time>2022-08-31T08:54:39Z</time>
      </trkpt>
      <trkpt lat="42.576794" lon="-6.639374">
        <ele>506.155</ele>
        <time>2022-08-31T08:55:19Z</time>
      </trkpt>
      <trkpt lat="42.577323" lon="-6.640919">
        <ele>504.911</ele>
        <time>2022-08-31T08:55:39Z</time>
      </trkpt>
      <trkpt lat="42.577434" lon="-6.644615">
        <ele>503.121</ele>
        <time>2022-08-31T08:55:59Z</time>
      </trkpt>
      <trkpt lat="42.576940" lon="-6.650489">
        <ele>503.003</ele>
        <time>2022-08-31T08:56:19Z</time>
      </trkpt>
      <trkpt lat="42.576960" lon="-6.656744">
        <ele>496.308</ele>
        <time>2022-08-31T08:57:19Z</time>
      </trkpt>
      <trkpt lat="42.576427" lon="-6.658224">
        <ele>497.037</ele>
        <time>2022-08-31T08:57:39Z</time>
      </trkpt>
      <trkpt lat="42.576079" lon="-6.660864">
        <ele>496.247</ele>
        <time>2022-08-31T08:57:59Z</time>
      </trkpt>
      <trkpt lat="42.578003" lon="-6.665955">
        <ele>492.154</ele>
        <time>2022-08-31T08:58:19Z</time>
      </trkpt>
      <trkpt lat="42.578927" lon="-6.667156">
        <ele>490.694</ele>
        <time>2022-08-31T08:58:59Z</time>
      </trkpt>
      <trkpt lat="42.581273" lon="-6.672338">
        <ele>491.868</ele>
        <time>2022-08-31T08:59:19Z</time>
      </trkpt>
      <trkpt lat="42.584101" lon="-6.675224">
        <ele>495.221</ele>
        <time>2022-08-31T08:59:39Z</time>
      </trkpt>
      <trkpt lat="42.586187" lon="-6.676104">
        <ele>502.220</ele>
        <time>2022-08-31T08:59:59Z</time>
      </trkpt>
      <trkpt lat="42.586874" lon="-6.676050">
        <ele>505.865</ele>
        <time>2022-08-31T09:00:39Z</time>
      </trkpt>
      <trkpt lat="42.587664" lon="-6.676630">
        <ele>504.177</ele>
        <time>2022-08-31T09:01:19Z</time>
      </trkpt>
      <trkpt lat="42.587909" lon="-6.676372">
        <ele>502.061</ele>
        <time>2022-08-31T09:01:39Z</time>
      </trkpt>
      <trkpt lat="42.590302" lon="-6.677456">
        <ele>515.727</ele>
        <time>2022-08-31T09:02:39Z</time>
      </trkpt>
      <trkpt lat="42.591432" lon="-6.678454">
        <ele>516.308</ele>
        <time>2022-08-31T09:02:59Z</time>
      </trkpt>
      <trkpt lat="42.592127" lon="-6.679816">
        <ele>508.073</ele>
        <time>2022-08-31T09:03:19Z</time>
      </trkpt>
      <trkpt lat="42.594899" lon="-6.695920">
        <ele>499.343</ele>
        <time>2022-08-31T09:03:39Z</time>
      </trkpt>
      <trkpt lat="42.594307" lon="-6.700126">
        <ele>509.240</ele>
        <time>2022-08-31T09:03:59Z</time>
      </trkpt>
      <trkpt lat="42.593493" lon="-6.717550">
        <ele>485.530</ele>
        <time>2022-08-31T09:05:39Z</time>
      </trkpt>
      <trkpt lat="42.593746" lon="-6.718397">
        <ele>482.984</ele>
        <time>2022-08-31T09:05:59Z</time>
      </trkpt>
      <trkpt lat="42.598591" lon="-6.725854">
        <ele>486.097</ele>
        <time>2022-08-31T09:06:39Z</time>
      </trkpt>
      <trkpt lat="42.598828" lon="-6.725392">
        <ele>485.476</ele>
        <time>2022-08-31T09:07:19Z</time>
      </trkpt>
      <trkpt lat="42.599569" lon="-6.726058">
        <ele>485.661</ele>
        <time>2022-08-31T09:08:39Z</time>
      </trkpt>
      <trkpt lat="42.600374" lon="-6.726299">
        <ele>480.439</ele>
        <time>2022-08-31T09:09:39Z</time>
      </trkpt>
      <trkpt lat="42.600664" lon="-6.727549">
        <ele>478.001</ele>
        <time>2022-08-31T09:09:59Z</time>
      </trkpt>
      <trkpt lat="42.599928" lon="-6.727847">
        <ele>476.521</ele>
        <time>2022-08-31T09:10:19Z</time>
      </trkpt>
      <trkpt lat="42.600119" lon="-6.731325">
        <ele>476.508</ele>
        <time>2022-08-31T09:10:39Z</time>
      </trkpt>
      <trkpt lat="42.601620" lon="-6.737022">
        <ele>479.229</ele>
        <time>2022-08-31T09:10:59Z</time>
      </trkpt>
      <trkpt lat="42.604613" lon="-6.743240">
        <ele>509.099</ele>
        <time>2022-08-31T09:11:39Z</time>
      </trkpt>
      <trkpt lat="42.605884" lon="-6.750965">
        <ele>541.426</ele>
        <time>2022-08-31T09:11:59Z</time>
      </trkpt>
      <trkpt lat="42.606133" lon="-6.755546">
        <ele>567.836</ele>
        <time>2022-08-31T09:12:39Z</time>
      </trkpt>
      <trkpt lat="42.604416" lon="-6.762267">
        <ele>538.290</ele>
        <time>2022-08-31T09:13:19Z</time>
      </trkpt>
      <trkpt lat="42.604226" lon="-6.765620">
        <ele>519.813</ele>
        <time>2022-08-31T09:13:39Z</time>
      </trkpt>
      <trkpt lat="42.601371" lon="-6.770207">
        <ele>533.822</ele>
        <time>2022-08-31T09:14:19Z</time>
      </trkpt>
      <trkpt lat="42.601671" lon="-6.775180">
        <ele>519.027</ele>
        <time>2022-08-31T09:15:19Z</time>
      </trkpt>
      <trkpt lat="42.599614" lon="-6.779943">
        <ele>533.941</ele>
        <time>2022-08-31T09:15:39Z</time>
      </trkpt>
      <trkpt lat="42.600064" lon="-6.804458">
        <ele>538.981</ele>
        <time>2022-08-31T09:15:59Z</time>
      </trkpt>
      <trkpt lat="42.601089" lon="-6.807444">
        <ele>528.209</ele>
        <time>2022-08-31T09:16:39Z</time>
      </trkpt>
      <trkpt lat="42.604218" lon="-6.809431">
        <ele>531.608</ele>
        <time>2022-08-31T09:16:59Z</time>
      </trkpt>
      <trkpt lat="42.604498" lon="-6.809968">
        <ele>526.780</ele>
        <time>2022-08-31T09:17:19Z</time>
      </trkpt>
      <trkpt lat="42.604269" lon="-6.810821">
        <ele>519.960</ele>
        <time>2022-08-31T09:17:39Z</time>
      </trkpt>
      <trkpt lat="42.605051" lon="-6.811282">
        <ele>511.067</ele>
        <time>2022-08-31T09:17:59Z</time>
      </trkpt>
      <trkpt lat="42.605430" lon="-6.810327">
        <ele>511.867</ele>
        <time>2022-08-31T09:18:39Z</time>
      </trkpt>
      <trkpt lat="42.607100" lon="-6.808737">
        <ele>514.151</ele>
        <time>2022-08-31T09:19:39Z</time>
      </trkpt>
      <trkpt lat="42.609683" lon="-6.808573">
        <ele>503.354</ele>
        <time>2022-08-31T09:19:59Z</time>
      </trkpt>
      <trkpt lat="42.609746" lon="-6.810284">
        <ele>495.963</ele>
        <time>2022-08-31T09:20:39Z</time>
      </trkpt>
      <trkpt lat="42.608980" lon="-6.811277">
        <ele>496.328</ele>
        <time>2022-08-31T09:20:59Z</time>
      </trkpt>
      <trkpt lat="42.609777" lon="-6.813444">
        <ele>499.096</ele>
        <time>2022-08-31T09:21:19Z</time>
      </trkpt>
      <trkpt lat="42.612616" lon="-6.815091">
        <ele>501.231</ele>
        <time>2022-08-31T09:21:59Z</time>
      </trkpt>
      <trkpt lat="42.613883" lon="-6.814871">
        <ele>507.524</ele>
        <time>2022-08-31T09:22:19Z</time>
      </trkpt>
      <trkpt lat="42.615087" lon="-6.815729">
        <ele>514.908</ele>
        <time>2022-08-31T09:22:59Z</time>
      </trkpt>
      <trkpt lat="42.615257" lon="-6.816823">
        <ele>517.885</ele>
        <time>2022-08-31T09:23:19Z</time>
      </trkpt>
      <trkpt lat="42.614720" lon="-6.818604">
        <ele>521.755</ele>
        <time>2022-08-31T09:23:39Z</time>
      </trkpt>
      <trkpt lat="42.612951" lon="-6.818937">
        <ele>511.432</ele>
        <time>2022-08-31T09:24:19Z</time>
      </trkpt>
      <trkpt lat="42.611625" lon="-6.820364">
        <ele>507.642</ele>
        <time>2022-08-31T09:25:19Z</time>
      </trkpt>
      <trkpt lat="42.612963" lon="-6.821249">
        <ele>509.246</ele>
        <time>2022-08-31T09:25:39Z</time>
      </trkpt>
      <trkpt lat="42.614302" lon="-6.820954">
        <ele>518.089</ele>
        <time>2022-08-31T09:26:19Z</time>
      </trkpt>
      <trkpt lat="42.614878" lon="-6.821314">
        <ele>521.138</ele>
        <time>2022-08-31T09:26:39Z</time>
      </trkpt>
      <trkpt lat="42.615113" lon="-6.824296">
        <ele>517.943</ele>
        <time>2022-08-31T09:27:39Z</time>
      </trkpt>
      <trkpt lat="42.616935" lon="-6.826302">
        <ele>520.972</ele>
        <time>2022-08-31T09:27:59Z</time>
      </trkpt>
      <trkpt lat="42.618297" lon="-6.829280">
        <ele>519.613</ele>
        <time>2022-08-31T09:28:19Z</time>
      </trkpt>
      <trkpt lat="42.620594" lon="-6.830513">
        <ele>525.514</ele>
        <time>2022-08-31T09:28:59Z</time>
      </trkpt>
      <trkpt lat="42.621810" lon="-6.829752">
        <ele>529.608</ele>
        <time>2022-08-31T09:29:39Z</time>
      </trkpt>
      <trkpt lat="42.622757" lon="-6.829666">
        <ele>530.523</ele>
        <time>2022-08-31T09:30:19Z</time>
      </trkpt>
      <trkpt lat="42.623397" lon="-6.830889">
        <ele>525.863</ele>
        <time>2022-08-31T09:30:59Z</time>
      </trkpt>
      <trkpt lat="42.622820" lon="-6.833625">
        <ele>531.330</ele>
        <time>2022-08-31T09:31:39Z</time>
      </trkpt>
      <trkpt lat="42.621139" lon="-6.835685">
        <ele>531.210</ele>
        <time>2022-08-31T09:32:19Z</time>
      </trkpt>
      <trkpt lat="42.621076" lon="-6.836575">
        <ele>531.354</ele>
        <time>2022-08-31T09:32:39Z</time>
      </trkpt>
      <trkpt lat="42.622702" lon="-6.838367">
        <ele>530.067</ele>
        <time>2022-08-31T09:33:19Z</time>
      </trkpt>
      <trkpt lat="42.626073" lon="-6.845663">
        <ele>531.546</ele>
        <time>2022-08-31T09:33:59Z</time>
      </trkpt>
      <trkpt lat="42.629266" lon="-6.847186">
        <ele>539.931</ele>
        <time>2022-08-31T09:34:59Z</time>
      </trkpt>
      <trkpt lat="42.633730" lon="-6.852422">
        <ele>539.462</ele>
        <time>2022-08-31T09:35:39Z</time>
      </trkpt>
      <trkpt lat="42.635064" lon="-6.852990">
        <ele>543.783</ele>
        <time>2022-08-31T09:35:59Z</time>
      </trkpt>
      <trkpt lat="42.637463" lon="-6.855147">
        <ele>546.811</ele>
        <time>2022-08-31T09:36:39Z</time>
      </trkpt>
      <trkpt lat="42.638505" lon="-6.857142">
        <ele>547.808</ele>
        <time>2022-08-31T09:37:19Z</time>
      </trkpt>
      <trkpt lat="42.638868" lon="-6.860672">
        <ele>554.252</ele>
        <time>2022-08-31T09:37:59Z</time>
      </trkpt>
      <trkpt lat="42.637953" lon="-6.862314">
        <ele>559.312</ele>
        <time>2022-08-31T09:38:19Z</time>
      </trkpt>
      <trkpt lat="42.637953" lon="-6.862839">
        <ele>556.449</ele>
        <time>2022-08-31T09:38:39Z</time>
      </trkpt>
      <trkpt lat="42.640344" lon="-6.867796">
        <ele>543.219</ele>
        <time>2022-08-31T09:39:19Z</time>
      </trkpt>
      <trkpt lat="42.642278" lon="-6.870843">
        <ele>553.553</ele>
        <time>2022-08-31T09:39:39Z</time>
      </trkpt>
      <trkpt lat="42.646500" lon="-6.875199">
        <ele>551.466</ele>
        <time>2022-08-31T09:40:39Z</time>
      </trkpt>
      <trkpt lat="42.648157" lon="-6.879491">
        <ele>553.965</ele>
        <time>2022-08-31T09:40:59Z</time>
      </trkpt>
      <trkpt lat="42.649135" lon="-6.885939">
        <ele>564.960</ele>
        <time>2022-08-31T09:41:39Z</time>
      </trkpt>
      <trkpt lat="42.649692" lon="-6.887473">
        <ele>567.875</ele>
        <time>2022-08-31T09:41:59Z</time>
      </trkpt>
      <trkpt lat="42.650848" lon="-6.888760">
        <ele>565.928</ele>
        <time>2022-08-31T09:42:39Z</time>
      </trkpt>
      <trkpt lat="42.653925" lon="-6.890466">
        <ele>570.020</ele>
        <time>2022-08-31T09:42:59Z</time>
      </trkpt>
      <trkpt lat="42.654738" lon="-6.891550">
        <ele>574.008</ele>
        <time>2022-08-31T09:43:19Z</time>
      </trkpt>
      <trkpt lat="42.655346" lon="-6.893245">
        <ele>569.333</ele>
        <time>2022-08-31T09:43:59Z</time>
      </trkpt>
      <trkpt lat="42.655495" lon="-6.894897">
        <ele>577.473</ele>
        <time>2022-08-31T09:44:19Z</time>
      </trkpt>
      <trkpt lat="42.654505" lon="-6.899672">
        <ele>583.920</ele>
        <time>2022-08-31T09:45:19Z</time>
      </trkpt>
      <trkpt lat="42.655661" lon="-6.904950">
        <ele>584.010</ele>
        <time>2022-08-31T09:45:59Z</time>
      </trkpt>
      <trkpt lat="42.656584" lon="-6.906216">
        <ele>584.294</ele>
        <time>2022-08-31T09:46:19Z</time>
      </trkpt>
      <trkpt lat="42.657318" lon="-6.908287">
        <ele>591.757</ele>
        <time>2022-08-31T09:46:59Z</time>
      </trkpt>
      <trkpt lat="42.658726" lon="-6.909762">
        <ele>600.656</ele>
        <time>2022-08-31T09:47:39Z</time>
      </trkpt>
      <trkpt lat="42.658726" lon="-6.910910">
        <ele>604.881</ele>
        <time>2022-08-31T09:47:59Z</time>
      </trkpt>
      <trkpt lat="42.657657" lon="-6.912573">
        <ele>604.471</ele>
        <time>2022-08-31T09:48:59Z</time>
      </trkpt>
      <trkpt lat="42.657934" lon="-6.913855">
        <ele>596.241</ele>
        <time>2022-08-31T09:49:39Z</time>
      </trkpt>
      <trkpt lat="42.659346" lon="-6.915336">
        <ele>596.215</ele>
        <time>2022-08-31T09:49:59Z</time>
      </trkpt>
      <trkpt lat="42.660372" lon="-6.918093">
        <ele>598.708</ele>
        <time>2022-08-31T09:50:39Z</time>
      </trkpt>
      <trkpt lat="42.660407" lon="-6.921929">
        <ele>601.413</ele>
        <time>2022-08-31T09:50:59Z</time>
      </trkpt>
      <trkpt lat="42.660999" lon="-6.924536">
        <ele>615.333</ele>
        <time>2022-08-31T09:51:19Z</time>
      </trkpt>
      <trkpt lat="42.662111" lon="-6.926494">
        <ele>609.470</ele>
        <time>2022-08-31T09:52:19Z</time>
      </trkpt>
      <trkpt lat="42.665117" lon="-6.926558">
        <ele>615.220</ele>
        <time>2022-08-31T09:52:59Z</time>
      </trkpt>
      <trkpt lat="42.665898" lon="-6.927266">
        <ele>617.064</ele>
        <time>2022-08-31T09:53:19Z</time>
      </trkpt>
      <trkpt lat="42.665255" lon="-6.930490">
        <ele>616.857</ele>
        <time>2022-08-31T09:53:59Z</time>
      </trkpt>
      <trkpt lat="42.666415" lon="-6.936021">
        <ele>619.996</ele>
        <time>2022-08-31T09:54:39Z</time>
      </trkpt>
      <trkpt lat="42.666383" lon="-6.938279">
        <ele>625.411</ele>
        <time>2022-08-31T09:55:19Z</time>
      </trkpt>
      <trkpt lat="42.664024" lon="-6.941224">
        <ele>622.468</ele>
        <time>2022-08-31T09:56:39Z</time>
      </trkpt>
      <trkpt lat="42.664009" lon="-6.942297">
        <ele>625.442</ele>
        <time>2022-08-31T09:56:59Z</time>
      </trkpt>
      <trkpt lat="42.665295" lon="-6.946471">
        <ele>633.226</ele>
        <time>2022-08-31T09:57:19Z</time>
      </trkpt>
      <trkpt lat="42.664423" lon="-6.954399">
        <ele>645.608</ele>
        <time>2022-08-31T09:58:19Z</time>
      </trkpt>
      <trkpt lat="42.670123" lon="-6.959925">
        <ele>653.422</ele>
        <time>2022-08-31T09:59:19Z</time>
      </trkpt>
      <trkpt lat="42.672836" lon="-6.966496">
        <ele>653.742</ele>
        <time>2022-08-31T09:59:59Z</time>
      </trkpt>
      <trkpt lat="42.672828" lon="-6.967655">
        <ele>656.139</ele>
        <time>2022-08-31T10:00:39Z</time>
      </trkpt>
      <trkpt lat="42.671700" lon="-6.969017">
        <ele>659.069</ele>
        <time>2022-08-31T10:00:59Z</time>
      </trkpt>
      <trkpt lat="42.672667" lon="-6.970299">
        <ele>670.843</ele>
        <time>2022-08-31T10:01:39Z</time>
      </trkpt>
      <trkpt lat="42.672278" lon="-6.978563">
        <ele>686.676</ele>
        <time>2022-08-31T10:03:19Z</time>
      </trkpt>
      <trkpt lat="42.671118" lon="-6.978968">
        <ele>665.765</ele>
        <time>2022-08-31T10:03:39Z</time>
      </trkpt>
      <trkpt lat="42.670537" lon="-6.982206">
        <ele>676.590</ele>
        <time>2022-08-31T10:04:59Z</time>
      </trkpt>
      <trkpt lat="42.671777" lon="-6.985827">
        <ele>679.243</ele>
        <time>2022-08-31T10:05:39Z</time>
      </trkpt>
      <trkpt lat="42.672868" lon="-6.987948">
        <ele>677.664</ele>
        <time>2022-08-31T10:05:59Z</time>
      </trkpt>
      <trkpt lat="42.672783" lon="-6.990368">
        <ele>685.310</ele>
        <time>2022-08-31T10:06:39Z</time>
      </trkpt>
      <trkpt lat="42.673219" lon="-6.991119">
        <ele>691.608</ele>
        <time>2022-08-31T10:06:59Z</time>
      </trkpt>
      <trkpt lat="42.673085" lon="-6.992240">
        <ele>695.020</ele>
        <time>2022-08-31T10:07:19Z</time>
      </trkpt>
      <trkpt lat="42.673438" lon="-6.993329">
        <ele>696.470</ele>
        <time>2022-08-31T10:07:59Z</time>
      </trkpt>
      <trkpt lat="42.675936" lon="-6.995984">
        <ele>729.427</ele>
        <time>2022-08-31T10:09:19Z</time>
      </trkpt>
      <trkpt lat="42.676110" lon="-6.996851">
        <ele>736.637</ele>
        <time>2022-08-31T10:09:39Z</time>
      </trkpt>
      <trkpt lat="42.675672" lon="-6.998248">
        <ele>737.891</ele>
        <time>2022-08-31T10:09:59Z</time>
      </trkpt>
      <trkpt lat="42.676753" lon="-7.000185">
        <ele>753.474</ele>
        <time>2022-08-31T10:10:59Z</time>
      </trkpt>
      <trkpt lat="42.677569" lon="-7.000120">
        <ele>762.873</ele>
        <time>2022-08-31T10:11:19Z</time>
      </trkpt>
      <trkpt lat="42.680460" lon="-7.002325">
        <ele>790.828</ele>
        <time>2022-08-31T10:11:59Z</time>
      </trkpt>
      <trkpt lat="42.681430" lon="-7.002121">
        <ele>796.969</ele>
        <time>2022-08-31T10:12:19Z</time>
      </trkpt>
      <trkpt lat="42.682077" lon="-7.001499">
        <ele>809.504</ele>
        <time>2022-08-31T10:12:59Z</time>
      </trkpt>
      <trkpt lat="42.683287" lon="-7.001595">
        <ele>824.924</ele>
        <time>2022-08-31T10:13:39Z</time>
      </trkpt>
      <trkpt lat="42.683398" lon="-7.002127">
        <ele>816.808</ele>
        <time>2022-08-31T10:13:59Z</time>
      </trkpt>
      <trkpt lat="42.684036" lon="-7.002588">
        <ele>835.492</ele>
        <time>2022-08-31T10:14:39Z</time>
      </trkpt>
      <trkpt lat="42.686264" lon="-7.006622">
        <ele>856.262</ele>
        <time>2022-08-31T10:15:19Z</time>
      </trkpt>
      <trkpt lat="42.688362" lon="-7.008376">
        <ele>879.339</ele>
        <time>2022-08-31T10:15:59Z</time>
      </trkpt>
      <trkpt lat="42.686919" lon="-7.006021">
        <ele>897.989</ele>
        <time>2022-08-31T10:16:59Z</time>
      </trkpt>
      <trkpt lat="42.690440" lon="-7.008280">
        <ele>950.073</ele>
        <time>2022-08-31T10:17:39Z</time>
      </trkpt>
      <trkpt lat="42.692009" lon="-7.009889">
        <ele>972.416</ele>
        <time>2022-08-31T10:18:19Z</time>
      </trkpt>
      <trkpt lat="42.693555" lon="-7.010211">
        <ele>990.545</ele>
        <time>2022-08-31T10:18:39Z</time>
      </trkpt>
      <trkpt lat="42.697230" lon="-7.012764">
        <ele>1043.520</ele>
        <time>2022-08-31T10:19:19Z</time>
      </trkpt>
      <trkpt lat="42.699059" lon="-7.013537">
        <ele>1063.954</ele>
        <time>2022-08-31T10:19:39Z</time>
      </trkpt>
      <trkpt lat="42.704815" lon="-7.020870">
        <ele>1141.356</ele>
        <time>2022-08-31T10:21:19Z</time>
      </trkpt>
      <trkpt lat="42.703601" lon="-7.021353">
        <ele>1144.711</ele>
        <time>2022-08-31T10:21:59Z</time>
      </trkpt>
      <trkpt lat="42.701212" lon="-7.021106">
        <ele>1157.508</ele>
        <time>2022-08-31T10:22:59Z</time>
      </trkpt>
      <trkpt lat="42.701294" lon="-7.022031">
        <ele>1161.631</ele>
        <time>2022-08-31T10:23:39Z</time>
      </trkpt>
      <trkpt lat="42.704330" lon="-7.024330">
        <ele>1193.151</ele>
        <time>2022-08-31T10:24:19Z</time>
      </trkpt>
      <trkpt lat="42.706104" lon="-7.026283">
        <ele>1226.158</ele>
        <time>2022-08-31T10:24:39Z</time>
      </trkpt>
      <trkpt lat="42.706183" lon="-7.027334">
        <ele>1228.078</ele>
        <time>2022-08-31T10:24:59Z</time>
      </trkpt>
      <trkpt lat="42.707046" lon="-7.029619">
        <ele>1250.672</ele>
        <time>2022-08-31T10:25:19Z</time>
      </trkpt>
      <trkpt lat="42.706388" lon="-7.030644">
        <ele>1253.245</ele>
        <time>2022-08-31T10:25:59Z</time>
      </trkpt>
      <trkpt lat="42.706482" lon="-7.031296">
        <ele>1259.774</ele>
        <time>2022-08-31T10:26:19Z</time>
      </trkpt>
      <trkpt lat="42.707848" lon="-7.032822">
        <ele>1275.129</ele>
        <time>2022-08-31T10:26:59Z</time>
      </trkpt>
      <trkpt lat="42.708638" lon="-7.035204">
        <ele>1296.911</ele>
        <time>2022-08-31T10:27:39Z</time>
      </trkpt>
      <trkpt lat="42.708845" lon="-7.037231">
        <ele>1304.821</ele>
        <time>2022-08-31T10:27:59Z</time>
      </trkpt>
      <trkpt lat="42.707919" lon="-7.042336">
        <ele>1302.903</ele>
        <time>2022-08-31T10:28:19Z</time>
      </trkpt>
      <trkpt lat="42.707479" lon="-7.043347">
        <ele>1295.208</ele>
        <time>2022-08-31T10:28:59Z</time>
      </trkpt>
      <trkpt lat="42.707824" lon="-7.043811">
        <ele>1298.057</ele>
        <time>2022-08-31T10:29:19Z</time>
      </trkpt>
      <trkpt lat="42.707696" lon="-7.044763">
        <ele>1291.187</ele>
        <time>2022-08-31T10:29:39Z</time>
      </trkpt>
      <trkpt lat="42.708027" lon="-7.046598">
        <ele>1281.954</ele>
        <time>2022-08-31T10:30:19Z</time>
      </trkpt>
      <trkpt lat="42.706577" lon="-7.051125">
        <ele>1271.594</ele>
        <time>2022-08-31T10:30:59Z</time>
      </trkpt>
      <trkpt lat="42.705650" lon="-7.051973">
        <ele>1272.038</ele>
        <time>2022-08-31T10:31:39Z</time>
      </trkpt>
      <trkpt lat="42.705099" lon="-7.053936">
        <ele>1260.041</ele>
        <time>2022-08-31T10:31:59Z</time>
      </trkpt>
      <trkpt lat="42.703514" lon="-7.056592">
        <ele>1244.630</ele>
        <time>2022-08-31T10:32:59Z</time>
      </trkpt>
      <trkpt lat="42.703534" lon="-7.057895">
        <ele>1240.625</ele>
        <time>2022-08-31T10:33:19Z</time>
      </trkpt>
      <trkpt lat="42.705079" lon="-7.062208">
        <ele>1255.136</ele>
        <time>2022-08-31T10:34:39Z</time>
      </trkpt>
      <trkpt lat="42.704322" lon="-7.065840">
        <ele>1251.917</ele>
        <time>2022-08-31T10:35:19Z</time>
      </trkpt>
      <trkpt lat="42.704913" lon="-7.068383">
        <ele>1237.818</ele>
        <time>2022-08-31T10:35:59Z</time>
      </trkpt>
      <trkpt lat="42.704665" lon="-7.069402">
        <ele>1238.008</ele>
        <time>2022-08-31T10:36:19Z</time>
      </trkpt>
      <trkpt lat="42.703269" lon="-7.070689">
        <ele>1234.399</ele>
        <time>2022-08-31T10:36:39Z</time>
      </trkpt>
      <trkpt lat="42.699950" lon="-7.072749">
        <ele>1224.199</ele>
        <time>2022-08-31T10:37:19Z</time>
      </trkpt>
      <trkpt lat="42.698050" lon="-7.075807">
        <ele>1227.786</ele>
        <time>2022-08-31T10:37:59Z</time>
      </trkpt>
      <trkpt lat="42.698767" lon="-7.078457">
        <ele>1241.766</ele>
        <time>2022-08-31T10:38:39Z</time>
      </trkpt>
      <trkpt lat="42.698365" lon="-7.080098">
        <ele>1259.240</ele>
        <time>2022-08-31T10:38:59Z</time>
      </trkpt>
      <trkpt lat="42.698783" lon="-7.081515">
        <ele>1256.553</ele>
        <time>2022-08-31T10:39:19Z</time>
      </trkpt>
      <trkpt lat="42.698657" lon="-7.084497">
        <ele>1270.592</ele>
        <time>2022-08-31T10:39:39Z</time>
      </trkpt>
      <trkpt lat="42.699051" lon="-7.087909">
        <ele>1255.677</ele>
        <time>2022-08-31T10:39:59Z</time>
      </trkpt>
      <trkpt lat="42.698822" lon="-7.088553">
        <ele>1254.369</ele>
        <time>2022-08-31T10:40:19Z</time>
      </trkpt>
      <trkpt lat="42.697971" lon="-7.089196">
        <ele>1243.804</ele>
        <time>2022-08-31T10:40:39Z</time>
      </trkpt>
      <trkpt lat="42.697860" lon="-7.089905">
        <ele>1239.524</ele>
        <time>2022-08-31T10:40:59Z</time>
      </trkpt>
      <trkpt lat="42.704054" lon="-7.097887">
        <ele>1226.008</ele>
        <time>2022-08-31T10:41:59Z</time>
      </trkpt>
      <trkpt lat="42.704712" lon="-7.102146">
        <ele>1247.422</ele>
        <time>2022-08-31T10:42:19Z</time>
      </trkpt>
      <trkpt lat="42.705422" lon="-7.103938">
        <ele>1237.772</ele>
        <time>2022-08-31T10:42:39Z</time>
      </trkpt>
      <trkpt lat="42.705134" lon="-7.105778">
        <ele>1241.589</ele>
        <time>2022-08-31T10:43:39Z</time>
      </trkpt>
      <trkpt lat="42.706234" lon="-7.108355">
        <ele>1245.639</ele>
        <time>2022-08-31T10:44:39Z</time>
      </trkpt>
      <trkpt lat="42.707546" lon="-7.108541">
        <ele>1247.383</ele>
        <time>2022-08-31T10:45:19Z</time>
      </trkpt>
      <trkpt lat="42.707771" lon="-7.109045">
        <ele>1243.536</ele>
        <time>2022-08-31T10:45:39Z</time>
      </trkpt>
      <trkpt lat="42.707440" lon="-7.110381">
        <ele>1247.985</ele>
        <time>2022-08-31T10:45:59Z</time>
      </trkpt>
      <trkpt lat="42.707669" lon="-7.111255">
        <ele>1242.840</ele>
        <time>2022-08-31T10:46:19Z</time>
      </trkpt>
      <trkpt lat="42.709604" lon="-7.112585">
        <ele>1251.011</ele>
        <time>2022-08-31T10:47:19Z</time>
      </trkpt>
      <trkpt lat="42.709687" lon="-7.114758">
        <ele>1264.021</ele>
        <time>2022-08-31T10:47:39Z</time>
      </trkpt>
      <trkpt lat="42.708378" lon="-7.116952">
        <ele>1286.803</ele>
        <time>2022-08-31T10:48:39Z</time>
      </trkpt>
      <trkpt lat="42.708666" lon="-7.118250">
        <ele>1295.608</ele>
        <time>2022-08-31T10:48:59Z</time>
      </trkpt>
      <trkpt lat="42.708564" lon="-7.119758">
        <ele>1302.877</ele>
        <time>2022-08-31T10:49:19Z</time>
      </trkpt>
      <trkpt lat="42.709900" lon="-7.122150">
        <ele>1314.767</ele>
        <time>2022-08-31T10:49:39Z</time>
      </trkpt>
      <trkpt lat="42.710873" lon="-7.122746">
        <ele>1310.334</ele>
        <time>2022-08-31T10:49:59Z</time>
      </trkpt>
      <trkpt lat="42.712040" lon="-7.125390">
        <ele>1333.694</ele>
        <time>2022-08-31T10:50:19Z</time>
      </trkpt>
      <trkpt lat="42.714228" lon="-7.128968">
        <ele>1323.768</ele>
        <time>2022-08-31T10:50:59Z</time>
      </trkpt>
      <trkpt lat="42.714937" lon="-7.129376">
        <ele>1324.341</ele>
        <time>2022-08-31T10:51:19Z</time>
      </trkpt>
      <trkpt lat="42.716261" lon="-7.131479">
        <ele>1328.280</ele>
        <time>2022-08-31T10:51:59Z</time>
      </trkpt>
      <trkpt lat="42.716403" lon="-7.133174">
        <ele>1313.195</ele>
        <time>2022-08-31T10:52:19Z</time>
      </trkpt>
      <trkpt lat="42.718004" lon="-7.136017">
        <ele>1306.564</ele>
        <time>2022-08-31T10:52:59Z</time>
      </trkpt>
      <trkpt lat="42.719052" lon="-7.139354">
        <ele>1290.006</ele>
        <time>2022-08-31T10:53:19Z</time>
      </trkpt>
      <trkpt lat="42.720723" lon="-7.141049">
        <ele>1292.016</ele>
        <time>2022-08-31T10:53:39Z</time>
      </trkpt>
      <trkpt lat="42.722142" lon="-7.143302">
        <ele>1285.908</ele>
        <time>2022-08-31T10:53:59Z</time>
      </trkpt>
      <trkpt lat="42.723371" lon="-7.146896">
        <ele>1290.852</ele>
        <time>2022-08-31T10:54:19Z</time>
      </trkpt>
      <trkpt lat="42.726390" lon="-7.151327">
        <ele>1283.732</ele>
        <time>2022-08-31T10:54:39Z</time>
      </trkpt>
      <trkpt lat="42.727091" lon="-7.153441">
        <ele>1282.829</ele>
        <time>2022-08-31T10:55:19Z</time>
      </trkpt>
      <trkpt lat="42.730843" lon="-7.157421">
        <ele>1283.169</ele>
        <time>2022-08-31T10:55:39Z</time>
      </trkpt>
      <trkpt lat="42.732758" lon="-7.160028">
        <ele>1281.313</ele>
        <time>2022-08-31T10:55:59Z</time>
      </trkpt>
      <trkpt lat="42.736651" lon="-7.170296">
        <ele>1246.626</ele>
        <time>2022-08-31T10:56:19Z</time>
      </trkpt>
      <trkpt lat="42.737155" lon="-7.174169">
        <ele>1247.025</ele>
        <time>2022-08-31T10:56:59Z</time>
      </trkpt>
      <trkpt lat="42.739590" lon="-7.175446">
        <ele>1239.490</ele>
        <time>2022-08-31T10:57:59Z</time>
      </trkpt>
      <trkpt lat="42.743104" lon="-7.179855">
        <ele>1219.857</ele>
        <time>2022-08-31T10:59:19Z</time>
      </trkpt>
      <trkpt lat="42.743151" lon="-7.180874">
        <ele>1214.100</ele>
        <time>2022-08-31T10:59:39Z</time>
      </trkpt>
      <trkpt lat="42.742671" lon="-7.182376">
        <ele>1219.920</ele>
        <time>2022-08-31T10:59:59Z</time>
      </trkpt>
      <trkpt lat="42.743230" lon="-7.184640">
        <ele>1208.208</ele>
        <time>2022-08-31T11:00:39Z</time>
      </trkpt>
      <trkpt lat="42.743081" lon="-7.187880">
        <ele>1201.051</ele>
        <time>2022-08-31T11:01:19Z</time>
      </trkpt>
      <trkpt lat="42.741481" lon="-7.189296">
        <ele>1189.141</ele>
        <time>2022-08-31T11:01:39Z</time>
      </trkpt>
      <trkpt lat="42.738849" lon="-7.190048">
        <ele>1174.748</ele>
        <time>2022-08-31T11:02:39Z</time>
      </trkpt>
      <trkpt lat="42.736154" lon="-7.188739">
        <ele>1153.998</ele>
        <time>2022-08-31T11:03:59Z</time>
      </trkpt>
      <trkpt lat="42.735737" lon="-7.188921">
        <ele>1147.062</ele>
        <time>2022-08-31T11:04:19Z</time>
      </trkpt>
      <trkpt lat="42.735563" lon="-7.189983">
        <ele>1127.335</ele>
        <time>2022-08-31T11:04:59Z</time>
      </trkpt>
      <trkpt lat="42.737163" lon="-7.191389">
        <ele>1123.794</ele>
        <time>2022-08-31T11:05:39Z</time>
      </trkpt>
      <trkpt lat="42.737919" lon="-7.192665">
        <ele>1117.129</ele>
        <time>2022-08-31T11:05:59Z</time>
      </trkpt>
      <trkpt lat="42.739621" lon="-7.197257">
        <ele>1076.828</ele>
        <time>2022-08-31T11:06:19Z</time>
      </trkpt>
      <trkpt lat="42.742592" lon="-7.199982">
        <ele>1053.389</ele>
        <time>2022-08-31T11:06:39Z</time>
      </trkpt>
      <trkpt lat="42.742868" lon="-7.201130">
        <ele>1043.017</ele>
        <time>2022-08-31T11:07:19Z</time>
      </trkpt>
      <trkpt lat="42.742647" lon="-7.201967">
        <ele>1035.108</ele>
        <time>2022-08-31T11:07:39Z</time>
      </trkpt>
      <trkpt lat="42.741725" lon="-7.202600">
        <ele>1029.638</ele>
        <time>2022-08-31T11:08:19Z</time>
      </trkpt>
      <trkpt lat="42.738731" lon="-7.201270">
        <ele>998.248</ele>
        <time>2022-08-31T11:08:59Z</time>
      </trkpt>
      <trkpt lat="42.737754" lon="-7.199661">
        <ele>996.125</ele>
        <time>2022-08-31T11:09:39Z</time>
      </trkpt>
      <trkpt lat="42.737194" lon="-7.199993">
        <ele>981.555</ele>
        <time>2022-08-31T11:10:19Z</time>
      </trkpt>
      <trkpt lat="42.737084" lon="-7.200873">
        <ele>969.799</ele>
        <time>2022-08-31T11:10:39Z</time>
      </trkpt>
      <trkpt lat="42.737793" lon="-7.201849">
        <ele>969.122</ele>
        <time>2022-08-31T11:10:59Z</time>
      </trkpt>
      <trkpt lat="42.739251" lon="-7.206302">
        <ele>936.491</ele>
        <time>2022-08-31T11:11:19Z</time>
      </trkpt>
      <trkpt lat="42.741087" lon="-7.208104">
        <ele>920.346</ele>
        <time>2022-08-31T11:11:59Z</time>
      </trkpt>
      <trkpt lat="42.743136" lon="-7.207890">
        <ele>904.173</ele>
        <time>2022-08-31T11:12:59Z</time>
      </trkpt>
      <trkpt lat="42.743616" lon="-7.208169">
        <ele>902.985</ele>
        <time>2022-08-31T11:13:19Z</time>
      </trkpt>
      <trkpt lat="42.744719" lon="-7.210057">
        <ele>886.313</ele>
        <time>2022-08-31T11:13:39Z</time>
      </trkpt>
      <trkpt lat="42.745129" lon="-7.211913">
        <ele>869.108</ele>
        <time>2022-08-31T11:13:59Z</time>
      </trkpt>
      <trkpt lat="42.747162" lon="-7.215056">
        <ele>851.483</ele>
        <time>2022-08-31T11:14:39Z</time>
      </trkpt>
      <trkpt lat="42.747635" lon="-7.217342">
        <ele>831.283</ele>
        <time>2022-08-31T11:14:59Z</time>
      </trkpt>
      <trkpt lat="42.750353" lon="-7.219734">
        <ele>810.330</ele>
        <time>2022-08-31T11:15:19Z</time>
      </trkpt>
      <trkpt lat="42.752543" lon="-7.223886">
        <ele>793.350</ele>
        <time>2022-08-31T11:16:19Z</time>
      </trkpt>
      <trkpt lat="42.753788" lon="-7.224240">
        <ele>788.624</ele>
        <time>2022-08-31T11:16:59Z</time>
      </trkpt>
      <trkpt lat="42.755544" lon="-7.225807">
        <ele>774.487</ele>
        <time>2022-08-31T11:17:39Z</time>
      </trkpt>
      <trkpt lat="42.756616" lon="-7.226075">
        <ele>766.366</ele>
        <time>2022-08-31T11:18:19Z</time>
      </trkpt>
      <trkpt lat="42.757994" lon="-7.225217">
        <ele>761.971</ele>
        <time>2022-08-31T11:18:59Z</time>
      </trkpt>
      <trkpt lat="42.758687" lon="-7.225345">
        <ele>749.467</ele>
        <time>2022-08-31T11:19:19Z</time>
      </trkpt>
      <trkpt lat="42.758861" lon="-7.225764">
        <ele>740.881</ele>
        <time>2022-08-31T11:19:39Z</time>
      </trkpt>
      <trkpt lat="42.758498" lon="-7.228532">
        <ele>727.919</ele>
        <time>2022-08-31T11:19:59Z</time>
      </trkpt>
      <trkpt lat="42.757915" lon="-7.230195">
        <ele>719.208</ele>
        <time>2022-08-31T11:20:39Z</time>
      </trkpt>
      <trkpt lat="42.756379" lon="-7.232244">
        <ele>707.812</ele>
        <time>2022-08-31T11:21:19Z</time>
      </trkpt>
      <trkpt lat="42.756687" lon="-7.240108">
        <ele>672.952</ele>
        <time>2022-08-31T11:21:39Z</time>
      </trkpt>
      <trkpt lat="42.756009" lon="-7.243456">
        <ele>655.729</ele>
        <time>2022-08-31T11:21:59Z</time>
      </trkpt>
      <trkpt lat="42.754587" lon="-7.244464">
        <ele>660.349</ele>
        <time>2022-08-31T11:22:59Z</time>
      </trkpt>
      <trkpt lat="42.752917" lon="-7.244292">
        <ele>664.163</ele>
        <time>2022-08-31T11:23:39Z</time>
      </trkpt>
      <trkpt lat="42.752622" lon="-7.244748">
        <ele>663.736</ele>
        <time>2022-08-31T11:23:59Z</time>
      </trkpt>
      <trkpt lat="42.752606" lon="-7.246975">
        <ele>674.415</ele>
        <time>2022-08-31T11:24:39Z</time>
      </trkpt>
      <trkpt lat="42.753638" lon="-7.248992">
        <ele>677.090</ele>
        <time>2022-08-31T11:24:59Z</time>
      </trkpt>
      <trkpt lat="42.753906" lon="-7.251910">
        <ele>669.917</ele>
        <time>2022-08-31T11:25:19Z</time>
      </trkpt>
      <trkpt lat="42.753378" lon="-7.253573">
        <ele>675.887</ele>
        <time>2022-08-31T11:25:39Z</time>
      </trkpt>
      <trkpt lat="42.751928" lon="-7.255182">
        <ele>659.815</ele>
        <time>2022-08-31T11:25:59Z</time>
      </trkpt>
      <trkpt lat="42.751345" lon="-7.256556">
        <ele>646.508</ele>
        <time>2022-08-31T11:26:19Z</time>
      </trkpt>
      <trkpt lat="42.751818" lon="-7.259742">
        <ele>641.527</ele>
        <time>2022-08-31T11:26:59Z</time>
      </trkpt>
      <trkpt lat="42.749455" lon="-7.264495">
        <ele>634.167</ele>
        <time>2022-08-31T11:27:59Z</time>
      </trkpt>
      <trkpt lat="42.745941" lon="-7.267874">
        <ele>621.514</ele>
        <time>2022-08-31T11:28:39Z</time>
      </trkpt>
      <trkpt lat="42.745484" lon="-7.270782">
        <ele>609.324</ele>
        <time>2022-08-31T11:29:59Z</time>
      </trkpt>
      <trkpt lat="42.744251" lon="-7.271394">
        <ele>623.438</ele>
        <time>2022-08-31T11:30:19Z</time>
      </trkpt>
      <trkpt lat="42.743636" lon="-7.272649">
        <ele>616.521</ele>
        <time>2022-08-31T11:30:39Z</time>
      </trkpt>
      <trkpt lat="42.741713" lon="-7.273191">
        <ele>600.890</ele>
        <time>2022-08-31T11:30:59Z</time>
      </trkpt>
      <trkpt lat="42.740855" lon="-7.271935">
        <ele>600.935</ele>
        <time>2022-08-31T11:31:39Z</time>
      </trkpt>
      <trkpt lat="42.739121" lon="-7.272488">
        <ele>610.968</ele>
        <time>2022-08-31T11:32:19Z</time>
      </trkpt>
      <trkpt lat="42.738593" lon="-7.274033">
        <ele>621.842</ele>
        <time>2022-08-31T11:32:59Z</time>
      </trkpt>
      <trkpt lat="42.739759" lon="-7.277949">
        <ele>608.726</ele>
        <time>2022-08-31T11:33:19Z</time>
      </trkpt>
      <trkpt lat="42.740094" lon="-7.281446">
        <ele>593.208</ele>
        <time>2022-08-31T11:33:59Z</time>
      </trkpt>
      <trkpt lat="42.740740" lon="-7.284236">
        <ele>597.082</ele>
        <time>2022-08-31T11:34:19Z</time>
      </trkpt>
      <trkpt lat="42.740378" lon="-7.286704">
        <ele>597.482</ele>
        <time>2022-08-31T11:34:39Z</time>
      </trkpt>
      <trkpt lat="42.739889" lon="-7.287841">
        <ele>604.449</ele>
        <time>2022-08-31T11:34:59Z</time>
      </trkpt>
      <trkpt lat="42.740000" lon="-7.288957">
        <ele>604.519</ele>
        <time>2022-08-31T11:35:19Z</time>
      </trkpt>
      <trkpt lat="42.739590" lon="-7.291617">
        <ele>595.413</ele>
        <time>2022-08-31T11:35:39Z</time>
      </trkpt>
      <trkpt lat="42.738597" lon="-7.293634">
        <ele>605.296</ele>
        <time>2022-08-31T11:35:59Z</time>
      </trkpt>
      <trkpt lat="42.738755" lon="-7.295716">
        <ele>594.245</ele>
        <time>2022-08-31T11:36:39Z</time>
      </trkpt>
      <trkpt lat="42.737699" lon="-7.297583">
        <ele>605.240</ele>
        <time>2022-08-31T11:36:59Z</time>
      </trkpt>
      <trkpt lat="42.737494" lon="-7.299278">
        <ele>607.928</ele>
        <time>2022-08-31T11:37:39Z</time>
      </trkpt>
      <trkpt lat="42.739023" lon="-7.303891">
        <ele>609.689</ele>
        <time>2022-08-31T11:38:19Z</time>
      </trkpt>
      <trkpt lat="42.739007" lon="-7.304814">
        <ele>612.217</ele>
        <time>2022-08-31T11:38:39Z</time>
      </trkpt>
      <trkpt lat="42.738093" lon="-7.307260">
        <ele>608.308</ele>
        <time>2022-08-31T11:38:59Z</time>
      </trkpt>
      <trkpt lat="42.738014" lon="-7.309459">
        <ele>605.138</ele>
        <time>2022-08-31T11:39:19Z</time>
      </trkpt>
      <trkpt lat="42.736209" lon="-7.313032">
        <ele>584.858</ele>
        <time>2022-08-31T11:39:39Z</time>
      </trkpt>
      <trkpt lat="42.735784" lon="-7.315553">
        <ele>596.155</ele>
        <time>2022-08-31T11:39:59Z</time>
      </trkpt>
      <trkpt lat="42.735547" lon="-7.320489">
        <ele>606.975</ele>
        <time>2022-08-31T11:40:19Z</time>
      </trkpt>
      <trkpt lat="42.737218" lon="-7.324662">
        <ele>581.389</ele>
        <time>2022-08-31T11:40:39Z</time>
      </trkpt>
      <trkpt lat="42.736926" lon="-7.325832">
        <ele>578.192</ele>
        <time>2022-08-31T11:41:19Z</time>
      </trkpt>
      <trkpt lat="42.735949" lon="-7.326497">
        <ele>566.611</ele>
        <time>2022-08-31T11:41:59Z</time>
      </trkpt>
      <trkpt lat="42.734428" lon="-7.325896">
        <ele>553.026</ele>
        <time>2022-08-31T11:42:39Z</time>
      </trkpt>
      <trkpt lat="42.733688" lon="-7.324040">
        <ele>546.944</ele>
        <time>2022-08-31T11:43:19Z</time>
      </trkpt>
      <trkpt lat="42.732939" lon="-7.323675">
        <ele>552.405</ele>
        <time>2022-08-31T11:43:59Z</time>
      </trkpt>
      <trkpt lat="42.732277" lon="-7.324501">
        <ele>544.215</ele>
        <time>2022-08-31T11:44:19Z</time>
      </trkpt>
      <trkpt lat="42.732837" lon="-7.326121">
        <ele>541.008</ele>
        <time>2022-08-31T11:45:19Z</time>
      </trkpt>
      <trkpt lat="42.732348" lon="-7.326787">
        <ele>544.230</ele>
        <time>2022-08-31T11:45:39Z</time>
      </trkpt>
      <trkpt lat="42.731615" lon="-7.327012">
        <ele>545.310</ele>
        <time>2022-08-31T11:45:59Z</time>
      </trkpt>
      <trkpt lat="42.730535" lon="-7.326626">
        <ele>531.797</ele>
        <time>2022-08-31T11:46:19Z</time>
      </trkpt>
      <trkpt lat="42.729810" lon="-7.326905">
        <ele>530.767</ele>
        <time>2022-08-31T11:46:39Z</time>
      </trkpt>
      <trkpt lat="42.729038" lon="-7.328643">
        <ele>531.311</ele>
        <time>2022-08-31T11:47:19Z</time>
      </trkpt>
      <trkpt lat="42.729117" lon="-7.329651">
        <ele>530.844</ele>
        <time>2022-08-31T11:47:59Z</time>
      </trkpt>
      <trkpt lat="42.730409" lon="-7.331829">
        <ele>537.653</ele>
        <time>2022-08-31T11:48:19Z</time>
      </trkpt>
      <trkpt lat="42.730717" lon="-7.333149">
        <ele>543.598</ele>
        <time>2022-08-31T11:48:39Z</time>
      </trkpt>
      <trkpt lat="42.730197" lon="-7.334050">
        <ele>546.459</ele>
        <time>2022-08-31T11:49:19Z</time>
      </trkpt>
      <trkpt lat="42.726272" lon="-7.336560">
        <ele>521.303</ele>
        <time>2022-08-31T11:49:39Z</time>
      </trkpt>
      <trkpt lat="42.725767" lon="-7.338427">
        <ele>525.123</ele>
        <time>2022-08-31T11:50:19Z</time>
      </trkpt>
      <trkpt lat="42.724159" lon="-7.341839">
        <ele>517.808</ele>
        <time>2022-08-31T11:50:59Z</time>
      </trkpt>
      <trkpt lat="42.724554" lon="-7.342504">
        <ele>512.911</ele>
        <time>2022-08-31T11:51:19Z</time>
      </trkpt>
      <trkpt lat="42.726146" lon="-7.343116">
        <ele>530.541</ele>
        <time>2022-08-31T11:51:59Z</time>
      </trkpt>
      <trkpt lat="42.727336" lon="-7.346034">
        <ele>517.148</ele>
        <time>2022-08-31T11:52:19Z</time>
      </trkpt>
      <trkpt lat="42.728770" lon="-7.347879">
        <ele>512.648</ele>
        <time>2022-08-31T11:52:39Z</time>
      </trkpt>
      <trkpt lat="42.729424" lon="-7.349735">
        <ele>518.192</ele>
        <time>2022-08-31T11:52:59Z</time>
      </trkpt>
      <trkpt lat="42.732064" lon="-7.350873">
        <ele>535.115</ele>
        <time>2022-08-31T11:53:39Z</time>
      </trkpt>
      <trkpt lat="42.732561" lon="-7.351559">
        <ele>542.114</ele>
        <time>2022-08-31T11:54:19Z</time>
      </trkpt>
      <trkpt lat="42.732758" lon="-7.353576">
        <ele>552.999</ele>
        <time>2022-08-31T11:54:39Z</time>
      </trkpt>
      <trkpt lat="42.734555" lon="-7.356151">
        <ele>567.493</ele>
        <time>2022-08-31T11:54:59Z</time>
      </trkpt>
      <trkpt lat="42.734807" lon="-7.358125">
        <ele>577.865</ele>
        <time>2022-08-31T11:55:19Z</time>
      </trkpt>
      <trkpt lat="42.734145" lon="-7.360722">
        <ele>576.321</ele>
        <time>2022-08-31T11:55:59Z</time>
      </trkpt>
      <trkpt lat="42.734287" lon="-7.362202">
        <ele>571.608</ele>
        <time>2022-08-31T11:56:19Z</time>
      </trkpt>
      <trkpt lat="42.735997" lon="-7.364810">
        <ele>575.255</ele>
        <time>2022-08-31T11:56:39Z</time>
      </trkpt>
      <trkpt lat="42.738983" lon="-7.367824">
        <ele>581.915</ele>
        <time>2022-08-31T11:56:59Z</time>
      </trkpt>
      <trkpt lat="42.740543" lon="-7.370335">
        <ele>593.442</ele>
        <time>2022-08-31T11:57:19Z</time>
      </trkpt>
      <trkpt lat="42.746666" lon="-7.373435">
        <ele>566.372</ele>
        <time>2022-08-31T11:57:59Z</time>
      </trkpt>
      <trkpt lat="42.747942" lon="-7.373049">
        <ele>557.146</ele>
        <time>2022-08-31T11:58:19Z</time>
      </trkpt>
      <trkpt lat="42.748541" lon="-7.373543">
        <ele>554.699</ele>
        <time>2022-08-31T11:58:39Z</time>
      </trkpt>
      <trkpt lat="42.750195" lon="-7.377083">
        <ele>529.398</ele>
        <time>2022-08-31T11:59:19Z</time>
      </trkpt>
      <trkpt lat="42.749360" lon="-7.381729">
        <ele>511.573</ele>
        <time>2022-08-31T11:59:59Z</time>
      </trkpt>
      <trkpt lat="42.749715" lon="-7.382662">
        <ele>503.055</ele>
        <time>2022-08-31T12:00:19Z</time>
      </trkpt>
      <trkpt lat="42.752102" lon="-7.384111">
        <ele>483.407</ele>
        <time>2022-08-31T12:00:59Z</time>
      </trkpt>
      <trkpt lat="42.753189" lon="-7.383070">
        <ele>473.617</ele>
        <time>2022-08-31T12:01:39Z</time>
      </trkpt>
      <trkpt lat="42.754008" lon="-7.382920">
        <ele>465.108</ele>
        <time>2022-08-31T12:01:59Z</time>
      </trkpt>
      <trkpt lat="42.754922" lon="-7.384036">
        <ele>450.991</ele>
        <time>2022-08-31T12:02:39Z</time>
      </trkpt>
      <trkpt lat="42.755521" lon="-7.386482">
        <ele>455.721</ele>
        <time>2022-08-31T12:02:59Z</time>
      </trkpt>
      <trkpt lat="42.757758" lon="-7.388735">
        <ele>455.648</ele>
        <time>2022-08-31T12:03:39Z</time>
      </trkpt>
      <trkpt lat="42.758120" lon="-7.390451">
        <ele>455.988</ele>
        <time>2022-08-31T12:03:59Z</time>
      </trkpt>
      <trkpt lat="42.760342" lon="-7.391911">
        <ele>462.832</ele>
        <time>2022-08-31T12:04:39Z</time>
      </trkpt>
      <trkpt lat="42.762421" lon="-7.390215">
        <ele>476.315</ele>
        <time>2022-08-31T12:05:19Z</time>
      </trkpt>
      <trkpt lat="42.763177" lon="-7.390580">
        <ele>474.714</ele>
        <time>2022-08-31T12:05:39Z</time>
      </trkpt>
      <trkpt lat="42.764375" lon="-7.394013">
        <ele>489.739</ele>
        <time>2022-08-31T12:05:59Z</time>
      </trkpt>
      <trkpt lat="42.766013" lon="-7.395365">
        <ele>484.438</ele>
        <time>2022-08-31T12:06:39Z</time>
      </trkpt>
      <trkpt lat="42.766359" lon="-7.397318">
        <ele>466.970</ele>
        <time>2022-08-31T12:06:59Z</time>
      </trkpt>
      <trkpt lat="42.767635" lon="-7.398090">
        <ele>462.917</ele>
        <time>2022-08-31T12:07:39Z</time>
      </trkpt>
      <trkpt lat="42.768959" lon="-7.397683">
        <ele>455.408</ele>
        <time>2022-08-31T12:07:59Z</time>
      </trkpt>
      <trkpt lat="42.771747" lon="-7.398520">
        <ele>441.139</ele>
        <time>2022-08-31T12:08:39Z</time>
      </trkpt>
      <trkpt lat="42.773605" lon="-7.401094">
        <ele>430.059</ele>
        <time>2022-08-31T12:09:19Z</time>
      </trkpt>
      <trkpt lat="42.774361" lon="-7.404099">
        <ele>422.556</ele>
        <time>2022-08-31T12:09:39Z</time>
      </trkpt>
      <trkpt lat="42.779098" lon="-7.411373">
        <ele>428.276</ele>
        <time>2022-08-31T12:10:19Z</time>
      </trkpt>
      <trkpt lat="42.777677" lon="-7.412569">
        <ele>435.970</ele>
        <time>2022-08-31T12:10:59Z</time>
      </trkpt>
      <trkpt lat="42.775877" lon="-7.413180">
        <ele>429.923</ele>
        <time>2022-08-31T12:11:39Z</time>
      </trkpt>
      <trkpt lat="42.776220" lon="-7.414540">
        <ele>437.612</ele>
        <time>2022-08-31T12:11:59Z</time>
      </trkpt>
      <trkpt lat="42.776614" lon="-7.414543">
        <ele>444.757</ele>
        <time>2022-08-31T12:12:19Z</time>
      </trkpt>
      <trkpt lat="42.777315" lon="-7.413720">
        <ele>446.596</ele>
        <time>2022-08-31T12:13:19Z</time>
      </trkpt>
      <trkpt lat="42.777395" lon="-7.414591">
        <ele>454.331</ele>
        <time>2022-08-31T12:14:19Z</time>
      </trkpt>
      <trkpt lat="42.777864" lon="-7.414607">
        <ele>449.924</ele>
        <time>2022-08-31T12:14:39Z</time>
      </trkpt>
      <trkpt lat="42.777935" lon="-7.413620">
        <ele>438.708</ele>
        <time>2022-08-31T12:14:59Z</time>
      </trkpt>
      <trkpt lat="42.779181" lon="-7.415442">
        <ele>429.475</ele>
        <time>2022-08-31T12:15:19Z</time>
      </trkpt>
      <trkpt lat="42.781374" lon="-7.421592">
        <ele>423.325</ele>
        <time>2022-08-31T12:15:59Z</time>
      </trkpt>
      <trkpt lat="42.781291" lon="-7.424333">
        <ele>458.292</ele>
        <time>2022-08-31T12:16:39Z</time>
      </trkpt>
      <trkpt lat="42.779795" lon="-7.424355">
        <ele>450.432</ele>
        <time>2022-08-31T12:17:39Z</time>
      </trkpt>
      <trkpt lat="42.777708" lon="-7.426490">
        <ele>456.866</ele>
        <time>2022-08-31T12:18:19Z</time>
      </trkpt>
      <trkpt lat="42.775338" lon="-7.430985">
        <ele>477.569</ele>
        <time>2022-08-31T12:18:59Z</time>
      </trkpt>
      <trkpt lat="42.774582" lon="-7.434214">
        <ele>489.768</ele>
        <time>2022-08-31T12:19:59Z</time>
      </trkpt>
      <trkpt lat="42.776456" lon="-7.440813">
        <ele>511.893</ele>
        <time>2022-08-31T12:20:39Z</time>
      </trkpt>
      <trkpt lat="42.777448" lon="-7.441467">
        <ele>518.661</ele>
        <time>2022-08-31T12:21:19Z</time>
      </trkpt>
      <trkpt lat="42.779236" lon="-7.441102">
        <ele>523.021</ele>
        <time>2022-08-31T12:21:59Z</time>
      </trkpt>
      <trkpt lat="42.780472" lon="-7.442014">
        <ele>532.413</ele>
        <time>2022-08-31T12:22:19Z</time>
      </trkpt>
      <trkpt lat="42.782134" lon="-7.445812">
        <ele>533.808</ele>
        <time>2022-08-31T12:22:59Z</time>
      </trkpt>
      <trkpt lat="42.782220" lon="-7.447186">
        <ele>538.442</ele>
        <time>2022-08-31T12:23:19Z</time>
      </trkpt>
      <trkpt lat="42.784354" lon="-7.451869">
        <ele>560.532</ele>
        <time>2022-08-31T12:24:19Z</time>
      </trkpt>
      <trkpt lat="42.784413" lon="-7.452555">
        <ele>564.789</ele>
        <time>2022-08-31T12:24:39Z</time>
      </trkpt>
      <trkpt lat="42.782331" lon="-7.457485">
        <ele>586.279</ele>
        <time>2022-08-31T12:25:19Z</time>
      </trkpt>
      <trkpt lat="42.782421" lon="-7.458193">
        <ele>588.813</ele>
        <time>2022-08-31T12:25:39Z</time>
      </trkpt>
      <trkpt lat="42.783870" lon="-7.460591">
        <ele>592.176</ele>
        <time>2022-08-31T12:26:19Z</time>
      </trkpt>
      <trkpt lat="42.783728" lon="-7.462753">
        <ele>599.145</ele>
        <time>2022-08-31T12:26:39Z</time>
      </trkpt>
      <trkpt lat="42.783012" lon="-7.465897">
        <ele>615.150</ele>
        <time>2022-08-31T12:26:59Z</time>
      </trkpt>
      <trkpt lat="42.775582" lon="-7.485895">
        <ele>601.219</ele>
        <time>2022-08-31T12:27:39Z</time>
      </trkpt>
      <trkpt lat="42.775708" lon="-7.487832">
        <ele>599.609</ele>
        <time>2022-08-31T12:27:59Z</time>
      </trkpt>
      <trkpt lat="42.775362" lon="-7.491045">
        <ele>587.419</ele>
        <time>2022-08-31T12:28:19Z</time>
      </trkpt>
      <trkpt lat="42.772550" lon="-7.497064">
        <ele>568.708</ele>
        <time>2022-08-31T12:28:59Z</time>
      </trkpt>
      <trkpt lat="42.771723" lon="-7.500143">
        <ele>555.767</ele>
        <time>2022-08-31T12:29:19Z</time>
      </trkpt>
      <trkpt lat="42.771762" lon="-7.502922">
        <ele>550.997</ele>
        <time>2022-08-31T12:29:39Z</time>
      </trkpt>
      <trkpt lat="42.771282" lon="-7.504799">
        <ele>541.644</ele>
        <time>2022-08-31T12:29:59Z</time>
      </trkpt>
      <trkpt lat="42.770628" lon="-7.512503">
        <ele>527.144</ele>
        <time>2022-08-31T12:30:39Z</time>
      </trkpt>
      <trkpt lat="42.768525" lon="-7.515754">
        <ele>516.528</ele>
        <time>2022-08-31T12:31:39Z</time>
      </trkpt>
      <trkpt lat="42.768494" lon="-7.517899">
        <ele>519.241</ele>
        <time>2022-08-31T12:31:59Z</time>
      </trkpt>
      <trkpt lat="42.767194" lon="-7.520764">
        <ele>530.750</ele>
        <time>2022-08-31T12:32:19Z</time>
      </trkpt>
      <trkpt lat="42.767210" lon="-7.523430">
        <ele>537.995</ele>
        <time>2022-08-31T12:32:39Z</time>
      </trkpt>
      <trkpt lat="42.766482" lon="-7.526193">
        <ele>544.168</ele>
        <time>2022-08-31T12:33:19Z</time>
      </trkpt>
      <trkpt lat="42.765615" lon="-7.527823">
        <ele>541.342</ele>
        <time>2022-08-31T12:33:39Z</time>
      </trkpt>
      <trkpt lat="42.766537" lon="-7.530318">
        <ele>552.226</ele>
        <time>2022-08-31T12:34:19Z</time>
      </trkpt>
      <trkpt lat="42.765942" lon="-7.533596">
        <ele>570.508</ele>
        <time>2022-08-31T12:34:59Z</time>
      </trkpt>
      <trkpt lat="42.766214" lon="-7.536637">
        <ele>589.872</ele>
        <time>2022-08-31T12:35:19Z</time>
      </trkpt>
      <trkpt lat="42.765273" lon="-7.539738">
        <ele>602.162</ele>
        <time>2022-08-31T12:35:59Z</time>
      </trkpt>
      <trkpt lat="42.765135" lon="-7.541943">
        <ele>604.139</ele>
        <time>2022-08-31T12:36:19Z</time>
      </trkpt>
      <trkpt lat="42.764075" lon="-7.543423">
        <ele>602.489</ele>
        <time>2022-08-31T12:36:59Z</time>
      </trkpt>
      <trkpt lat="42.763563" lon="-7.546009">
        <ele>602.983</ele>
        <time>2022-08-31T12:37:39Z</time>
      </trkpt>
      <trkpt lat="42.763607" lon="-7.548214">
        <ele>608.626</ele>
        <time>2022-08-31T12:37:59Z</time>
      </trkpt>
      <trkpt lat="42.762992" lon="-7.553417">
        <ele>612.065</ele>
        <time>2022-08-31T12:38:39Z</time>
      </trkpt>
      <trkpt lat="42.762394" lon="-7.555262">
        <ele>610.610</ele>
        <time>2022-08-31T12:38:59Z</time>
      </trkpt>
      <trkpt lat="42.762165" lon="-7.558106">
        <ele>608.593</ele>
        <time>2022-08-31T12:39:19Z</time>
      </trkpt>
      <trkpt lat="42.761622" lon="-7.559586">
        <ele>609.265</ele>
        <time>2022-08-31T12:39:39Z</time>
      </trkpt>
      <trkpt lat="42.761689" lon="-7.566597">
        <ele>598.921</ele>
        <time>2022-08-31T12:40:39Z</time>
      </trkpt>
      <trkpt lat="42.763229" lon="-7.567681">
        <ele>608.108</ele>
        <time>2022-08-31T12:41:19Z</time>
      </trkpt>
      <trkpt lat="42.767194" lon="-7.567735">
        <ele>613.345</ele>
        <time>2022-08-31T12:41:39Z</time>
      </trkpt>
      <trkpt lat="42.769195" lon="-7.569258">
        <ele>621.945</ele>
        <time>2022-08-31T12:41:59Z</time>
      </trkpt>
      <trkpt lat="42.770156" lon="-7.570610">
        <ele>621.452</ele>
        <time>2022-08-31T12:42:39Z</time>
      </trkpt>
      <trkpt lat="42.771932" lon="-7.578324">
        <ele>637.342</ele>
        <time>2022-08-31T12:43:39Z</time>
      </trkpt>
      <trkpt lat="42.772719" lon="-7.579247">
        <ele>638.616</ele>
        <time>2022-08-31T12:43:59Z</time>
      </trkpt>
      <trkpt lat="42.774310" lon="-7.580094">
        <ele>628.869</ele>
        <time>2022-08-31T12:44:19Z</time>
      </trkpt>
      <trkpt lat="42.776263" lon="-7.582181">
        <ele>622.678</ele>
        <time>2022-08-31T12:45:19Z</time>
      </trkpt>
      <trkpt lat="42.775775" lon="-7.583892">
        <ele>614.133</ele>
        <time>2022-08-31T12:45:59Z</time>
      </trkpt>
      <trkpt lat="42.775322" lon="-7.590512">
        <ele>583.188</ele>
        <time>2022-08-31T12:46:39Z</time>
      </trkpt>
      <trkpt lat="42.775464" lon="-7.591660">
        <ele>574.324</ele>
        <time>2022-08-31T12:46:59Z</time>
      </trkpt>
      <trkpt lat="42.776275" lon="-7.592132">
        <ele>561.226</ele>
        <time>2022-08-31T12:47:39Z</time>
      </trkpt>
      <trkpt lat="42.777228" lon="-7.591081">
        <ele>553.708</ele>
        <time>2022-08-31T12:47:59Z</time>
      </trkpt>
      <trkpt lat="42.777905" lon="-7.591231">
        <ele>551.094</ele>
        <time>2022-08-31T12:48:39Z</time>
      </trkpt>
      <trkpt lat="42.780094" lon="-7.594761">
        <ele>527.624</ele>
        <time>2022-08-31T12:49:19Z</time>
      </trkpt>
      <trkpt lat="42.781035" lon="-7.598011">
        <ele>518.581</ele>
        <time>2022-08-31T12:49:59Z</time>
      </trkpt>
      <trkpt lat="42.784547" lon="-7.599701">
        <ele>483.291</ele>
        <time>2022-08-31T12:50:59Z</time>
      </trkpt>
      <trkpt lat="42.784807" lon="-7.604089">
        <ele>460.375</ele>
        <time>2022-08-31T12:51:59Z</time>
      </trkpt>
      <trkpt lat="42.783539" lon="-7.609041">
        <ele>444.288</ele>
        <time>2022-08-31T12:52:59Z</time>
      </trkpt>
      <trkpt lat="42.783787" lon="-7.610548">
        <ele>429.917</ele>
        <time>2022-08-31T12:53:19Z</time>
      </trkpt>
      <trkpt lat="42.783575" lon="-7.613021">
        <ele>413.252</ele>
        <time>2022-08-31T12:53:39Z</time>
      </trkpt>
      <trkpt lat="42.783760" lon="-7.613713">
        <ele>409.787</ele>
        <time>2022-08-31T12:53:59Z</time>
      </trkpt>
      <trkpt lat="42.786283" lon="-7.614781">
        <ele>400.642</ele>
        <time>2022-08-31T12:54:59Z</time>
      </trkpt>
      <trkpt lat="42.788716" lon="-7.617087">
        <ele>371.226</ele>
        <time>2022-08-31T12:55:19Z</time>
      </trkpt>
      <trkpt lat="42.789244" lon="-7.618139">
        <ele>356.708</ele>
        <time>2022-08-31T12:55:39Z</time>
      </trkpt>
      <trkpt lat="42.789929" lon="-7.617774">
        <ele>351.694</ele>
        <time>2022-08-31T12:55:59Z</time>
      </trkpt>
      <trkpt lat="42.790582" lon="-7.613713">
        <ele>359.614</ele>
        <time>2022-08-31T12:56:59Z</time>
      </trkpt>
      <trkpt lat="42.791153" lon="-7.612962">
        <ele>357.391</ele>
        <time>2022-08-31T12:57:19Z</time>
      </trkpt>
      <trkpt lat="42.791716" lon="-7.613032">
        <ele>355.291</ele>
        <time>2022-08-31T12:57:59Z</time>
      </trkpt>
      <trkpt lat="42.792539" lon="-7.613965">
        <ele>360.555</ele>
        <time>2022-08-31T12:58:19Z</time>
      </trkpt>
      <trkpt lat="42.795479" lon="-7.613702">
        <ele>363.298</ele>
        <time>2022-08-31T12:58:59Z</time>
      </trkpt>
      <trkpt lat="42.795869" lon="-7.614056">
        <ele>366.197</ele>
        <time>2022-08-31T12:59:19Z</time>
      </trkpt>
      <trkpt lat="42.796172" lon="-7.616084">
        <ele>369.782</ele>
        <time>2022-08-31T12:59:39Z</time>
      </trkpt>
      <trkpt lat="42.797420" lon="-7.617474">
        <ele>371.076</ele>
        <time>2022-08-31T13:00:19Z</time>
      </trkpt>
      <trkpt lat="42.797168" lon="-7.618965">
        <ele>378.190</ele>
        <time>2022-08-31T13:00:39Z</time>
      </trkpt>
      <trkpt lat="42.797396" lon="-7.619657">
        <ele>375.119</ele>
        <time>2022-08-31T13:01:19Z</time>
      </trkpt>
      <trkpt lat="42.798085" lon="-7.619882">
        <ele>371.008</ele>
        <time>2022-08-31T13:01:39Z</time>
      </trkpt>
      <trkpt lat="42.799585" lon="-7.619314">
        <ele>363.663</ele>
        <time>2022-08-31T13:02:19Z</time>
      </trkpt>
      <trkpt lat="42.801998" lon="-7.615564">
        <ele>349.773</ele>
        <time>2022-08-31T13:02:39Z</time>
      </trkpt>
      <trkpt lat="42.802029" lon="-7.615006">
        <ele>356.010</ele>
        <time>2022-08-31T13:02:59Z</time>
      </trkpt>
      <trkpt lat="42.804934" lon="-7.616814">
        <ele>346.260</ele>
        <time>2022-08-31T13:03:19Z</time>
      </trkpt>
      <trkpt lat="42.805091" lon="-7.616991">
        <ele>350.573</ele>
        <time>2022-08-31T08:28:30Z</time>
      </trkpt>
      <trkpt lat="42.805020" lon="-7.617227">
        <ele>347.685</ele>
        <time>2022-08-31T08:28:50Z</time>
      </trkpt>
      <trkpt lat="42.805382" lon="-7.618461">
        <ele>349.213</ele>
        <time>2022-08-31T08:29:10Z</time>
      </trkpt>
      <trkpt lat="42.806217" lon="-7.619416">
        <ele>350.808</ele>
        <time>2022-08-31T08:29:30Z</time>
      </trkpt>
      <trkpt lat="42.806587" lon="-7.622205">
        <ele>364.523</ele>
        <time>2022-08-31T08:29:50Z</time>
      </trkpt>
      <trkpt lat="42.808084" lon="-7.627741">
        <ele>392.734</ele>
        <time>2022-08-31T08:30:10Z</time>
      </trkpt>
      <trkpt lat="42.808913" lon="-7.628798">
        <ele>386.259</ele>
        <time>2022-08-31T08:30:30Z</time>
      </trkpt>
      <trkpt lat="42.810257" lon="-7.629887">
        <ele>383.494</ele>
        <time>2022-08-31T08:30:50Z</time>
      </trkpt>
      <trkpt lat="42.810398" lon="-7.630300">
        <ele>376.190</ele>
        <time>2022-08-31T08:31:10Z</time>
      </trkpt>
      <trkpt lat="42.810176" lon="-7.632006">
        <ele>378.220</ele>
        <time>2022-08-31T08:31:30Z</time>
      </trkpt>
      <trkpt lat="42.809574" lon="-7.633165">
        <ele>393.822</ele>
        <time>2022-08-31T08:31:50Z</time>
      </trkpt>
      <trkpt lat="42.808163" lon="-7.637000">
        <ele>424.163</ele>
        <time>2022-08-31T08:32:10Z</time>
      </trkpt>
      <trkpt lat="42.807870" lon="-7.638062">
        <ele>434.462</ele>
        <time>2022-08-31T08:32:30Z</time>
      </trkpt>
      <trkpt lat="42.807870" lon="-7.638878">
        <ele>438.183</ele>
        <time>2022-08-31T08:32:50Z</time>
      </trkpt>
      <trkpt lat="42.808232" lon="-7.639865">
        <ele>445.311</ele>
        <time>2022-08-31T08:33:10Z</time>
      </trkpt>
      <trkpt lat="42.811486" lon="-7.645771">
        <ele>448.708</ele>
        <time>2022-08-31T08:33:30Z</time>
      </trkpt>
      <trkpt lat="42.811636" lon="-7.646243">
        <ele>449.772</ele>
        <time>2022-08-31T08:33:50Z</time>
      </trkpt>
      <trkpt lat="42.812045" lon="-7.658179">
        <ele>481.573</ele>
        <time>2022-08-31T08:34:10Z</time>
      </trkpt>
      <trkpt lat="42.812816" lon="-7.662878">
        <ele>488.998</ele>
        <time>2022-08-31T08:34:30Z</time>
      </trkpt>
      <trkpt lat="42.815449" lon="-7.668747">
        <ele>532.653</ele>
        <time>2022-08-31T08:34:50Z</time>
      </trkpt>
      <trkpt lat="42.821123" lon="-7.679293">
        <ele>547.079</ele>
        <time>2022-08-31T08:35:10Z</time>
      </trkpt>
      <trkpt lat="42.822272" lon="-7.686052">
        <ele>535.189</ele>
        <time>2022-08-31T08:35:30Z</time>
      </trkpt>
      <trkpt lat="42.824774" lon="-7.690805">
        <ele>536.541</ele>
        <time>2022-08-31T08:35:50Z</time>
      </trkpt>
      <trkpt lat="42.826490" lon="-7.696191">
        <ele>553.082</ele>
        <time>2022-08-31T08:36:10Z</time>
      </trkpt>
      <trkpt lat="42.829047" lon="-7.700332">
        <ele>580.184</ele>
        <time>2022-08-31T08:36:30Z</time>
      </trkpt>
      <trkpt lat="42.830487" lon="-7.703229">
        <ele>592.407</ele>
        <time>2022-08-31T08:36:50Z</time>
      </trkpt>
      <trkpt lat="42.834240" lon="-7.707317">
        <ele>620.417</ele>
        <time>2022-08-31T08:37:10Z</time>
      </trkpt>
      <trkpt lat="42.834649" lon="-7.708079">
        <ele>625.808</ele>
        <time>2022-08-31T08:37:30Z</time>
      </trkpt>
      <trkpt lat="42.834854" lon="-7.708669">
        <ele>628.714</ele>
        <time>2022-08-31T08:37:50Z</time>
      </trkpt>
      <trkpt lat="42.835019" lon="-7.711909">
        <ele>647.095</ele>
        <time>2022-08-31T08:38:10Z</time>
      </trkpt>
      <trkpt lat="42.835381" lon="-7.714977">
        <ele>651.680</ele>
        <time>2022-08-31T08:38:30Z</time>
      </trkpt>
      <trkpt lat="42.835507" lon="-7.721994">
        <ele>677.125</ele>
        <time>2022-08-31T08:38:50Z</time>
      </trkpt>
      <trkpt lat="42.838087" lon="-7.729665">
        <ele>691.321</ele>
        <time>2022-08-31T08:39:10Z</time>
      </trkpt>
      <trkpt lat="42.838481" lon="-7.730298">
        <ele>692.581</ele>
        <time>2022-08-31T08:39:30Z</time>
      </trkpt>
      <trkpt lat="42.841804" lon="-7.733275">
        <ele>689.743</ele>
        <time>2022-08-31T08:39:50Z</time>
      </trkpt>
      <trkpt lat="42.842445" lon="-7.734450">
        <ele>689.674</ele>
        <time>2022-08-31T08:40:10Z</time>
      </trkpt>
      <trkpt lat="42.841911" lon="-7.735426">
        <ele>684.545</ele>
        <time>2022-08-31T08:40:30Z</time>
      </trkpt>
      <trkpt lat="42.842560" lon="-7.737481">
        <ele>692.947</ele>
        <time>2022-08-31T08:40:50Z</time>
      </trkpt>
      <trkpt lat="42.842772" lon="-7.740684">
        <ele>702.511</ele>
        <time>2022-08-31T08:41:10Z</time>
      </trkpt>
      <trkpt lat="42.843236" lon="-7.742212">
        <ele>701.908</ele>
        <time>2022-08-31T08:41:30Z</time>
      </trkpt>
      <trkpt lat="42.843437" lon="-7.745318">
        <ele>705.560</ele>
        <time>2022-08-31T08:41:50Z</time>
      </trkpt>
      <trkpt lat="42.843759" lon="-7.746735">
        <ele>706.421</ele>
        <time>2022-08-31T08:42:10Z</time>
      </trkpt>
      <trkpt lat="42.844337" lon="-7.748137">
        <ele>705.826</ele>
        <time>2022-08-31T08:42:30Z</time>
      </trkpt>
      <trkpt lat="42.844292" lon="-7.748974">
        <ele>703.471</ele>
        <time>2022-08-31T08:42:50Z</time>
      </trkpt>
      <trkpt lat="42.845315" lon="-7.752268">
        <ele>720.297</ele>
        <time>2022-08-31T08:43:10Z</time>
      </trkpt>
      <trkpt lat="42.845466" lon="-7.754057">
        <ele>725.667</ele>
        <time>2022-08-31T08:43:30Z</time>
      </trkpt>
      <trkpt lat="42.845832" lon="-7.755768">
        <ele>724.599</ele>
        <time>2022-08-31T08:43:50Z</time>
      </trkpt>
      <trkpt lat="42.847014" lon="-7.757211">
        <ele>722.640</ele>
        <time>2022-08-31T08:44:10Z</time>
      </trkpt>
      <trkpt lat="42.847846" lon="-7.757893">
        <ele>722.371</ele>
        <time>2022-08-31T08:44:30Z</time>
      </trkpt>
      <trkpt lat="42.849678" lon="-7.760449">
        <ele>718.341</ele>
        <time>2022-08-31T08:44:50Z</time>
      </trkpt>
      <trkpt lat="42.850819" lon="-7.763783">
        <ele>700.315</ele>
        <time>2022-08-31T08:45:10Z</time>
      </trkpt>
      <trkpt lat="42.851625" lon="-7.767168">
        <ele>681.408</ele>
        <time>2022-08-31T08:45:30Z</time>
      </trkpt>
      <trkpt lat="42.852585" lon="-7.770199">
        <ele>663.423</ele>
        <time>2022-08-31T08:45:50Z</time>
      </trkpt>
      <trkpt lat="42.852518" lon="-7.771883">
        <ele>654.254</ele>
        <time>2022-08-31T08:46:10Z</time>
      </trkpt>
      <trkpt lat="42.852691" lon="-7.772688">
        <ele>650.429</ele>
        <time>2022-08-31T08:46:30Z</time>
      </trkpt>
      <trkpt lat="42.854028" lon="-7.774394">
        <ele>645.094</ele>
        <time>2022-08-31T08:46:50Z</time>
      </trkpt>
      <trkpt lat="42.854575" lon="-7.775370">
        <ele>643.230</ele>
        <time>2022-08-31T08:47:10Z</time>
      </trkpt>
      <trkpt lat="42.855353" lon="-7.777365">
        <ele>637.570</ele>
        <time>2022-08-31T08:47:30Z</time>
      </trkpt>
      <trkpt lat="42.855676" lon="-7.777730">
        <ele>634.132</ele>
        <time>2022-08-31T08:47:50Z</time>
      </trkpt>
      <trkpt lat="42.856431" lon="-7.778020">
        <ele>628.473</ele>
        <time>2022-08-31T08:48:10Z</time>
      </trkpt>
      <trkpt lat="42.857445" lon="-7.778771">
        <ele>629.591</ele>
        <time>2022-08-31T08:48:30Z</time>
      </trkpt>
      <trkpt lat="42.857634" lon="-7.779082">
        <ele>628.081</ele>
        <time>2022-08-31T08:48:50Z</time>
      </trkpt>
      <trkpt lat="42.858153" lon="-7.779243">
        <ele>627.319</ele>
        <time>2022-08-31T08:49:10Z</time>
      </trkpt>
      <trkpt lat="42.858892" lon="-7.779790">
        <ele>628.508</ele>
        <time>2022-08-31T08:49:30Z</time>
      </trkpt>
      <trkpt lat="42.860033" lon="-7.781475">
        <ele>623.925</ele>
        <time>2022-08-31T08:49:50Z</time>
      </trkpt>
      <trkpt lat="42.860654" lon="-7.781721">
        <ele>619.616</ele>
        <time>2022-08-31T08:50:10Z</time>
      </trkpt>
      <trkpt lat="42.861441" lon="-7.782590">
        <ele>616.181</ele>
        <time>2022-08-31T08:50:30Z</time>
      </trkpt>
      <trkpt lat="42.861794" lon="-7.782794">
        <ele>610.256</ele>
        <time>2022-08-31T08:50:50Z</time>
      </trkpt>
      <trkpt lat="42.862363" lon="-7.782580">
        <ele>607.282</ele>
        <time>2022-08-31T08:51:10Z</time>
      </trkpt>
      <trkpt lat="42.862211" lon="-7.783406">
        <ele>601.742</ele>
        <time>2022-08-31T08:51:30Z</time>
      </trkpt>
      <trkpt lat="42.862736" lon="-7.784996">
        <ele>608.714</ele>
        <time>2022-08-31T08:51:50Z</time>
      </trkpt>
      <trkpt lat="42.863501" lon="-7.785358">
        <ele>615.395</ele>
        <time>2022-08-31T08:52:10Z</time>
      </trkpt>
      <trkpt lat="42.865382" lon="-7.787271">
        <ele>632.992</ele>
        <time>2022-08-31T08:52:30Z</time>
      </trkpt>
      <trkpt lat="42.865687" lon="-7.788644">
        <ele>631.373</ele>
        <time>2022-08-31T08:52:50Z</time>
      </trkpt>
      <trkpt lat="42.865557" lon="-7.790211">
        <ele>626.220</ele>
        <time>2022-08-31T08:53:10Z</time>
      </trkpt>
      <trkpt lat="42.866063" lon="-7.791758">
        <ele>629.308</ele>
        <time>2022-08-31T08:53:30Z</time>
      </trkpt>
      <trkpt lat="42.866074" lon="-7.792737">
        <ele>627.915</ele>
        <time>2022-08-31T08:53:50Z</time>
      </trkpt>
      <trkpt lat="42.866328" lon="-7.793764">
        <ele>634.746</ele>
        <time>2022-08-31T08:54:10Z</time>
      </trkpt>
      <trkpt lat="42.868439" lon="-7.797815">
        <ele>648.221</ele>
        <time>2022-08-31T08:54:30Z</time>
      </trkpt>
      <trkpt lat="42.871066" lon="-7.801124">
        <ele>634.756</ele>
        <time>2022-08-31T08:54:50Z</time>
      </trkpt>
      <trkpt lat="42.872139" lon="-7.803715">
        <ele>609.692</ele>
        <time>2022-08-31T08:55:10Z</time>
      </trkpt>
      <trkpt lat="42.873782" lon="-7.805797">
        <ele>588.332</ele>
        <time>2022-08-31T08:55:30Z</time>
      </trkpt>
      <trkpt lat="42.873735" lon="-7.806602">
        <ele>581.864</ele>
        <time>2022-08-31T08:55:50Z</time>
      </trkpt>
      <trkpt lat="42.873535" lon="-7.807122">
        <ele>581.555</ele>
        <time>2022-08-31T08:56:10Z</time>
      </trkpt>
      <trkpt lat="42.873539" lon="-7.807707">
        <ele>580.118</ele>
        <time>2022-08-31T08:56:30Z</time>
      </trkpt>
      <trkpt lat="42.873743" lon="-7.808264">
        <ele>580.098</ele>
        <time>2022-08-31T08:56:50Z</time>
      </trkpt>
      <trkpt lat="42.873727" lon="-7.808989">
        <ele>582.417</ele>
        <time>2022-08-31T08:57:10Z</time>
      </trkpt>
      <trkpt lat="42.872363" lon="-7.811982">
        <ele>587.508</ele>
        <time>2022-08-31T08:57:30Z</time>
      </trkpt>
      <trkpt lat="42.872174" lon="-7.814181">
        <ele>599.427</ele>
        <time>2022-08-31T08:57:50Z</time>
      </trkpt>
      <trkpt lat="42.872587" lon="-7.814546">
        <ele>601.458</ele>
        <time>2022-08-31T08:58:10Z</time>
      </trkpt>
      <trkpt lat="42.872701" lon="-7.815174">
        <ele>604.483</ele>
        <time>2022-08-31T08:58:30Z</time>
      </trkpt>
      <trkpt lat="42.873196" lon="-7.815716">
        <ele>610.218</ele>
        <time>2022-08-31T08:58:50Z</time>
      </trkpt>
      <trkpt lat="42.873448" lon="-7.817255">
        <ele>615.434</ele>
        <time>2022-08-31T08:59:10Z</time>
      </trkpt>
      <trkpt lat="42.874148" lon="-7.817786">
        <ele>619.114</ele>
        <time>2022-08-31T08:59:30Z</time>
      </trkpt>
      <trkpt lat="42.874199" lon="-7.818065">
        <ele>620.836</ele>
        <time>2022-08-31T08:59:50Z</time>
      </trkpt>
      <trkpt lat="42.873601" lon="-7.820367">
        <ele>627.017</ele>
        <time>2022-08-31T09:00:10Z</time>
      </trkpt>
      <trkpt lat="42.873157" lon="-7.821515">
        <ele>629.452</ele>
        <time>2022-08-31T09:00:30Z</time>
      </trkpt>
      <trkpt lat="42.872972" lon="-7.822786">
        <ele>635.653</ele>
        <time>2022-08-31T09:00:50Z</time>
      </trkpt>
      <trkpt lat="42.873004" lon="-7.825034">
        <ele>629.508</ele>
        <time>2022-08-31T09:01:10Z</time>
      </trkpt>
      <trkpt lat="42.873346" lon="-7.826267">
        <ele>624.008</ele>
        <time>2022-08-31T09:01:30Z</time>
      </trkpt>
      <trkpt lat="42.874914" lon="-7.829186">
        <ele>615.361</ele>
        <time>2022-08-31T09:01:50Z</time>
      </trkpt>
      <trkpt lat="42.875146" lon="-7.829363">
        <ele>614.852</ele>
        <time>2022-08-31T09:02:10Z</time>
      </trkpt>
      <trkpt lat="42.875701" lon="-7.831503">
        <ele>612.327</ele>
        <time>2022-08-31T09:02:30Z</time>
      </trkpt>
      <trkpt lat="42.875917" lon="-7.833043">
        <ele>620.272</ele>
        <time>2022-08-31T09:02:50Z</time>
      </trkpt>
      <trkpt lat="42.876007" lon="-7.834319">
        <ele>624.468</ele>
        <time>2022-08-31T09:03:10Z</time>
      </trkpt>
      <trkpt lat="42.875905" lon="-7.836031">
        <ele>620.668</ele>
        <time>2022-08-31T09:03:30Z</time>
      </trkpt>
      <trkpt lat="42.876062" lon="-7.836288">
        <ele>619.980</ele>
        <time>2022-08-31T09:03:50Z</time>
      </trkpt>
      <trkpt lat="42.874588" lon="-7.843380">
        <ele>639.631</ele>
        <time>2022-08-31T09:04:10Z</time>
      </trkpt>
      <trkpt lat="42.874352" lon="-7.848648">
        <ele>635.715</ele>
        <time>2022-08-31T09:04:30Z</time>
      </trkpt>
      <trkpt lat="42.875516" lon="-7.853004">
        <ele>624.065</ele>
        <time>2022-08-31T09:04:50Z</time>
      </trkpt>
      <trkpt lat="42.875178" lon="-7.856319">
        <ele>611.711</ele>
        <time>2022-08-31T09:05:10Z</time>
      </trkpt>
      <trkpt lat="42.876058" lon="-7.862799">
        <ele>588.008</ele>
        <time>2022-08-31T09:05:30Z</time>
      </trkpt>
      <trkpt lat="42.875587" lon="-7.866383">
        <ele>572.027</ele>
        <time>2022-08-31T09:05:50Z</time>
      </trkpt>
      <trkpt lat="42.874030" lon="-7.869161">
        <ele>558.048</ele>
        <time>2022-08-31T09:06:10Z</time>
      </trkpt>
      <trkpt lat="42.873833" lon="-7.869258">
        <ele>557.753</ele>
        <time>2022-08-31T09:06:30Z</time>
      </trkpt>
      <trkpt lat="42.873071" lon="-7.869129">
        <ele>551.618</ele>
        <time>2022-08-31T09:06:50Z</time>
      </trkpt>
      <trkpt lat="42.872811" lon="-7.869354">
        <ele>548.854</ele>
        <time>2022-08-31T09:07:10Z</time>
      </trkpt>
      <trkpt lat="42.872827" lon="-7.869762">
        <ele>547.054</ele>
        <time>2022-08-31T09:07:30Z</time>
      </trkpt>
      <trkpt lat="42.873873" lon="-7.870964">
        <ele>541.556</ele>
        <time>2022-08-31T09:07:50Z</time>
      </trkpt>
      <trkpt lat="42.874046" lon="-7.872047">
        <ele>537.457</ele>
        <time>2022-08-31T09:08:10Z</time>
      </trkpt>
      <trkpt lat="42.873998" lon="-7.872627">
        <ele>536.379</ele>
        <time>2022-08-31T09:08:30Z</time>
      </trkpt>
      <trkpt lat="42.872599" lon="-7.879783">
        <ele>513.205</ele>
        <time>2022-08-31T09:08:50Z</time>
      </trkpt>
      <trkpt lat="42.872450" lon="-7.881682">
        <ele>505.825</ele>
        <time>2022-08-31T09:09:10Z</time>
      </trkpt>
      <trkpt lat="42.870610" lon="-7.884868">
        <ele>516.708</ele>
        <time>2022-08-31T09:09:30Z</time>
      </trkpt>
      <trkpt lat="42.870287" lon="-7.888473">
        <ele>529.093</ele>
        <time>2022-08-31T09:09:50Z</time>
      </trkpt>
      <trkpt lat="42.870350" lon="-7.891145">
        <ele>530.164</ele>
        <time>2022-08-31T09:10:10Z</time>
      </trkpt>
      <trkpt lat="42.870971" lon="-7.891949">
        <ele>527.029</ele>
        <time>2022-08-31T09:10:30Z</time>
      </trkpt>
      <trkpt lat="42.872402" lon="-7.892625">
        <ele>519.124</ele>
        <time>2022-08-31T09:10:50Z</time>
      </trkpt>
      <trkpt lat="42.874392" lon="-7.895168">
        <ele>515.290</ele>
        <time>2022-08-31T09:11:10Z</time>
      </trkpt>
      <trkpt lat="42.874800" lon="-7.895200">
        <ele>516.420</ele>
        <time>2022-08-31T09:11:30Z</time>
      </trkpt>
      <trkpt lat="42.874950" lon="-7.895780">
        <ele>516.632</ele>
        <time>2022-08-31T09:11:50Z</time>
      </trkpt>
      <trkpt lat="42.875768" lon="-7.897410">
        <ele>504.393</ele>
        <time>2022-08-31T09:12:10Z</time>
      </trkpt>
      <trkpt lat="42.876051" lon="-7.897689">
        <ele>505.961</ele>
        <time>2022-08-31T09:12:30Z</time>
      </trkpt>
      <trkpt lat="42.876051" lon="-7.898430">
        <ele>501.721</ele>
        <time>2022-08-31T09:12:50Z</time>
      </trkpt>
      <trkpt lat="42.876310" lon="-7.899084">
        <ele>499.313</ele>
        <time>2022-08-31T09:13:10Z</time>
      </trkpt>
      <trkpt lat="42.877662" lon="-7.900050">
        <ele>484.208</ele>
        <time>2022-08-31T09:13:30Z</time>
      </trkpt>
      <trkpt lat="42.877977" lon="-7.900565">
        <ele>485.382</ele>
        <time>2022-08-31T09:13:50Z</time>
      </trkpt>
      <trkpt lat="42.878488" lon="-7.902271">
        <ele>481.963</ele>
        <time>2022-08-31T09:14:10Z</time>
      </trkpt>
      <trkpt lat="42.880964" lon="-7.905693">
        <ele>465.268</ele>
        <time>2022-08-31T09:14:30Z</time>
      </trkpt>
      <trkpt lat="42.882301" lon="-7.907195">
        <ele>458.233</ele>
        <time>2022-08-31T09:14:50Z</time>
      </trkpt>
      <trkpt lat="42.883189" lon="-7.907667">
        <ele>454.179</ele>
        <time>2022-08-31T09:15:10Z</time>
      </trkpt>
      <trkpt lat="42.883795" lon="-7.908236">
        <ele>450.139</ele>
        <time>2022-08-31T09:15:30Z</time>
      </trkpt>
      <trkpt lat="42.884942" lon="-7.908697">
        <ele>443.351</ele>
        <time>2022-08-31T09:15:50Z</time>
      </trkpt>
      <trkpt lat="42.885312" lon="-7.909105">
        <ele>440.242</ele>
        <time>2022-08-31T09:16:10Z</time>
      </trkpt>
      <trkpt lat="42.886043" lon="-7.910693">
        <ele>436.547</ele>
        <time>2022-08-31T09:16:30Z</time>
      </trkpt>
      <trkpt lat="42.886357" lon="-7.911771">
        <ele>426.329</ele>
        <time>2022-08-31T09:16:50Z</time>
      </trkpt>
      <trkpt lat="42.886353" lon="-7.912903">
        <ele>425.021</ele>
        <time>2022-08-31T09:17:10Z</time>
      </trkpt>
      <trkpt lat="42.885964" lon="-7.915161">
        <ele>425.108</ele>
        <time>2022-08-31T09:17:30Z</time>
      </trkpt>
      <trkpt lat="42.886562" lon="-7.918804">
        <ele>440.770</ele>
        <time>2022-08-31T09:17:50Z</time>
      </trkpt>
      <trkpt lat="42.889097" lon="-7.923986">
        <ele>463.121</ele>
        <time>2022-08-31T09:18:10Z</time>
      </trkpt>
      <trkpt lat="42.889553" lon="-7.925456">
        <ele>474.336</ele>
        <time>2022-08-31T09:18:30Z</time>
      </trkpt>
      <trkpt lat="42.890457" lon="-7.927548">
        <ele>485.411</ele>
        <time>2022-08-31T09:18:50Z</time>
      </trkpt>
      <trkpt lat="42.890571" lon="-7.928508">
        <ele>484.867</ele>
        <time>2022-08-31T09:19:10Z</time>
      </trkpt>
      <trkpt lat="42.889800" lon="-7.933561">
        <ele>494.217</ele>
        <time>2022-08-31T09:19:30Z</time>
      </trkpt>
      <trkpt lat="42.889903" lon="-7.935932">
        <ele>490.489</ele>
        <time>2022-08-31T09:19:50Z</time>
      </trkpt>
      <trkpt lat="42.890453" lon="-7.939178">
        <ele>477.750</ele>
        <time>2022-08-31T09:20:10Z</time>
      </trkpt>
      <trkpt lat="42.890457" lon="-7.940122">
        <ele>472.627</ele>
        <time>2022-08-31T09:20:30Z</time>
      </trkpt>
      <trkpt lat="42.890264" lon="-7.940943">
        <ele>471.668</ele>
        <time>2022-08-31T09:20:50Z</time>
      </trkpt>
      <trkpt lat="42.888747" lon="-7.944172">
        <ele>468.514</ele>
        <time>2022-08-31T09:21:10Z</time>
      </trkpt>
      <trkpt lat="42.887568" lon="-7.948045">
        <ele>452.008</ele>
        <time>2022-08-31T09:21:30Z</time>
      </trkpt>
      <trkpt lat="42.885229" lon="-7.952970">
        <ele>468.528</ele>
        <time>2022-08-31T09:21:50Z</time>
      </trkpt>
      <trkpt lat="42.884813" lon="-7.956296">
        <ele>475.739</ele>
        <time>2022-08-31T09:22:10Z</time>
      </trkpt>
      <trkpt lat="42.885229" lon="-7.958876">
        <ele>480.354</ele>
        <time>2022-08-31T09:22:30Z</time>
      </trkpt>
      <trkpt lat="42.885512" lon="-7.959643">
        <ele>485.679</ele>
        <time>2022-08-31T09:22:50Z</time>
      </trkpt>
      <trkpt lat="42.885929" lon="-7.960319">
        <ele>481.975</ele>
        <time>2022-08-31T09:23:10Z</time>
      </trkpt>
      <trkpt lat="42.888894" lon="-7.963015">
        <ele>459.035</ele>
        <time>2022-08-31T09:23:30Z</time>
      </trkpt>
      <trkpt lat="42.889547" lon="-7.963774">
        <ele>454.077</ele>
        <time>2022-08-31T09:23:50Z</time>
      </trkpt>
      <trkpt lat="42.890893" lon="-7.967228">
        <ele>440.858</ele>
        <time>2022-08-31T09:24:10Z</time>
      </trkpt>
      <trkpt lat="42.903005" lon="-7.990537">
        <ele>443.847</ele>
        <time>2022-08-31T09:24:30Z</time>
      </trkpt>
      <trkpt lat="42.904702" lon="-7.991266">
        <ele>436.629</ele>
        <time>2022-08-31T09:24:50Z</time>
      </trkpt>
      <trkpt lat="42.906840" lon="-7.991738">
        <ele>425.421</ele>
        <time>2022-08-31T09:25:10Z</time>
      </trkpt>
      <trkpt lat="42.909826" lon="-7.992886">
        <ele>410.208</ele>
        <time>2022-08-31T09:25:30Z</time>
      </trkpt>
      <trkpt lat="42.910714" lon="-7.993487">
        <ele>407.650</ele>
        <time>2022-08-31T09:25:50Z</time>
      </trkpt>
      <trkpt lat="42.911068" lon="-7.993970">
        <ele>409.941</ele>
        <time>2022-08-31T09:26:10Z</time>
      </trkpt>
      <trkpt lat="42.911225" lon="-7.995375">
        <ele>411.646</ele>
        <time>2022-08-31T09:26:30Z</time>
      </trkpt>
      <trkpt lat="42.911013" lon="-7.997618">
        <ele>415.821</ele>
        <time>2022-08-31T09:26:50Z</time>
      </trkpt>
      <trkpt lat="42.913959" lon="-8.014773">
        <ele>456.457</ele>
        <time>2022-08-31T09:27:10Z</time>
      </trkpt>
      <trkpt lat="42.913063" lon="-8.018153">
        <ele>451.187</ele>
        <time>2022-08-31T09:27:30Z</time>
      </trkpt>
      <trkpt lat="42.912191" lon="-8.019993">
        <ele>438.659</ele>
        <time>2022-08-31T09:27:50Z</time>
      </trkpt>
      <trkpt lat="42.912117" lon="-8.020502">
        <ele>437.690</ele>
        <time>2022-08-31T09:28:10Z</time>
      </trkpt>
      <trkpt lat="42.912496" lon="-8.022281">
        <ele>431.899</ele>
        <time>2022-08-31T09:28:30Z</time>
      </trkpt>
      <trkpt lat="42.913633" lon="-8.030453">
        <ele>429.107</ele>
        <time>2022-08-31T09:28:50Z</time>
      </trkpt>
      <trkpt lat="42.914360" lon="-8.033903">
        <ele>435.427</ele>
        <time>2022-08-31T09:29:10Z</time>
      </trkpt>
      <trkpt lat="42.915095" lon="-8.036478">
        <ele>439.408</ele>
        <time>2022-08-31T09:29:30Z</time>
      </trkpt>
      <trkpt lat="42.915385" lon="-8.037153">
        <ele>439.095</ele>
        <time>2022-08-31T09:29:50Z</time>
      </trkpt>
      <trkpt lat="42.915947" lon="-8.037840">
        <ele>445.156</ele>
        <time>2022-08-31T09:30:10Z</time>
      </trkpt>
      <trkpt lat="42.918556" lon="-8.039975">
        <ele>429.511</ele>
        <time>2022-08-31T09:30:30Z</time>
      </trkpt>
      <trkpt lat="42.919184" lon="-8.041091">
        <ele>419.266</ele>
        <time>2022-08-31T09:30:50Z</time>
      </trkpt>
      <trkpt lat="42.919161" lon="-8.042368">
        <ele>422.112</ele>
        <time>2022-08-31T09:31:10Z</time>
      </trkpt>
      <trkpt lat="42.917770" lon="-8.044460">
        <ele>438.292</ele>
        <time>2022-08-31T09:31:30Z</time>
      </trkpt>
      <trkpt lat="42.917236" lon="-8.046767">
        <ele>449.154</ele>
        <time>2022-08-31T09:31:50Z</time>
      </trkpt>
      <trkpt lat="42.917165" lon="-8.047775">
        <ele>452.675</ele>
        <time>2022-08-31T09:32:10Z</time>
      </trkpt>
      <trkpt lat="42.917566" lon="-8.050296">
        <ele>456.927</ele>
        <time>2022-08-31T09:32:30Z</time>
      </trkpt>
      <trkpt lat="42.918461" lon="-8.059266">
        <ele>449.268</ele>
        <time>2022-08-31T09:32:50Z</time>
      </trkpt>
      <trkpt lat="42.918878" lon="-8.060092">
        <ele>446.714</ele>
        <time>2022-08-31T09:33:10Z</time>
      </trkpt>
      <trkpt lat="42.919836" lon="-8.060671">
        <ele>448.308</ele>
        <time>2022-08-31T09:33:30Z</time>
      </trkpt>
      <trkpt lat="42.920496" lon="-8.061551">
        <ele>443.468</ele>
        <time>2022-08-31T09:33:50Z</time>
      </trkpt>
      <trkpt lat="42.920520" lon="-8.062313">
        <ele>434.269</ele>
        <time>2022-08-31T09:34:10Z</time>
      </trkpt>
      <trkpt lat="42.920237" lon="-8.064405">
        <ele>428.624</ele>
        <time>2022-08-31T09:34:30Z</time>
      </trkpt>
      <trkpt lat="42.919813" lon="-8.066390">
        <ele>427.379</ele>
        <time>2022-08-31T09:34:50Z</time>
      </trkpt>
      <trkpt lat="42.918611" lon="-8.070391">
        <ele>424.075</ele>
        <time>2022-08-31T09:35:10Z</time>
      </trkpt>
      <trkpt lat="42.916709" lon="-8.074780">
        <ele>406.375</ele>
        <time>2022-08-31T09:35:30Z</time>
      </trkpt>
      <trkpt lat="42.916230" lon="-8.076282">
        <ele>402.197</ele>
        <time>2022-08-31T09:35:50Z</time>
      </trkpt>
      <trkpt lat="42.916049" lon="-8.081174">
        <ele>383.888</ele>
        <time>2022-08-31T09:36:10Z</time>
      </trkpt>
      <trkpt lat="42.915546" lon="-8.083599">
        <ele>378.981</ele>
        <time>2022-08-31T09:36:30Z</time>
      </trkpt>
      <trkpt lat="42.915892" lon="-8.084478">
        <ele>369.861</ele>
        <time>2022-08-31T09:36:50Z</time>
      </trkpt>
      <trkpt lat="42.916379" lon="-8.085015">
        <ele>366.717</ele>
        <time>2022-08-31T09:37:10Z</time>
      </trkpt>
      <trkpt lat="42.917794" lon="-8.084993">
        <ele>352.708</ele>
        <time>2022-08-31T09:37:30Z</time>
      </trkpt>
      <trkpt lat="42.918768" lon="-8.085423">
        <ele>336.874</ele>
        <time>2022-08-31T09:37:50Z</time>
      </trkpt>
      <trkpt lat="42.919514" lon="-8.086367">
        <ele>350.345</ele>
        <time>2022-08-31T09:38:10Z</time>
      </trkpt>
      <trkpt lat="42.919829" lon="-8.087482">
        <ele>358.720</ele>
        <time>2022-08-31T09:38:30Z</time>
      </trkpt>
      <trkpt lat="42.919624" lon="-8.090025">
        <ele>377.025</ele>
        <time>2022-08-31T09:38:50Z</time>
      </trkpt>
      <trkpt lat="42.919758" lon="-8.090894">
        <ele>383.211</ele>
        <time>2022-08-31T09:39:10Z</time>
      </trkpt>
      <trkpt lat="42.920434" lon="-8.091978">
        <ele>392.891</ele>
        <time>2022-08-31T09:39:30Z</time>
      </trkpt>
      <trkpt lat="42.921086" lon="-8.092353">
        <ele>397.343</ele>
        <time>2022-08-31T09:39:50Z</time>
      </trkpt>
      <trkpt lat="42.923042" lon="-8.092686">
        <ele>407.914</ele>
        <time>2022-08-31T09:40:10Z</time>
      </trkpt>
      <trkpt lat="42.923686" lon="-8.093040">
        <ele>408.052</ele>
        <time>2022-08-31T09:40:30Z</time>
      </trkpt>
      <trkpt lat="42.924055" lon="-8.093373">
        <ele>409.253</ele>
        <time>2022-08-31T09:40:50Z</time>
      </trkpt>
      <trkpt lat="42.924515" lon="-8.094204">
        <ele>410.108</ele>
        <time>2022-08-31T09:41:10Z</time>
      </trkpt>
      <trkpt lat="42.925725" lon="-8.096741">
        <ele>422.808</ele>
        <time>2022-08-31T09:41:30Z</time>
      </trkpt>
      <trkpt lat="42.926377" lon="-8.097294">
        <ele>425.411</ele>
        <time>2022-08-31T09:41:50Z</time>
      </trkpt>
      <trkpt lat="42.927877" lon="-8.097750">
        <ele>424.692</ele>
        <time>2022-08-31T09:42:10Z</time>
      </trkpt>
      <trkpt lat="42.928655" lon="-8.098560">
        <ele>415.657</ele>
        <time>2022-08-31T09:42:30Z</time>
      </trkpt>
      <trkpt lat="42.928871" lon="-8.099327">
        <ele>406.862</ele>
        <time>2022-08-31T09:42:50Z</time>
      </trkpt>
      <trkpt lat="42.929197" lon="-8.102605">
        <ele>400.848</ele>
        <time>2022-08-31T09:43:10Z</time>
      </trkpt>
      <trkpt lat="42.930171" lon="-8.105233">
        <ele>389.988</ele>
        <time>2022-08-31T09:43:30Z</time>
      </trkpt>
      <trkpt lat="42.930214" lon="-8.106188">
        <ele>390.030</ele>
        <time>2022-08-31T09:43:50Z</time>
      </trkpt>
      <trkpt lat="42.929873" lon="-8.108441">
        <ele>398.881</ele>
        <time>2022-08-31T09:44:10Z</time>
      </trkpt>
      <trkpt lat="42.929912" lon="-8.109165">
        <ele>400.033</ele>
        <time>2022-08-31T09:44:30Z</time>
      </trkpt>
      <trkpt lat="42.930313" lon="-8.110061">
        <ele>406.623</ele>
        <time>2022-08-31T09:44:50Z</time>
      </trkpt>
      <trkpt lat="42.931844" lon="-8.111258">
        <ele>416.815</ele>
        <time>2022-08-31T09:45:10Z</time>
      </trkpt>
      <trkpt lat="42.932084" lon="-8.112003">
        <ele>419.708</ele>
        <time>2022-08-31T09:45:30Z</time>
      </trkpt>
      <trkpt lat="42.932080" lon="-8.112652">
        <ele>422.539</ele>
        <time>2022-08-31T09:45:50Z</time>
      </trkpt>
      <trkpt lat="42.931546" lon="-8.114503">
        <ele>412.430</ele>
        <time>2022-08-31T09:46:10Z</time>
      </trkpt>
      <trkpt lat="42.931251" lon="-8.117024">
        <ele>405.445</ele>
        <time>2022-08-31T09:46:30Z</time>
      </trkpt>
      <trkpt lat="42.930780" lon="-8.118322">
        <ele>397.180</ele>
        <time>2022-08-31T09:46:50Z</time>
      </trkpt>
      <trkpt lat="42.929181" lon="-8.120946">
        <ele>384.846</ele>
        <time>2022-08-31T09:47:10Z</time>
      </trkpt>
      <trkpt lat="42.928266" lon="-8.121954">
        <ele>371.996</ele>
        <time>2022-08-31T09:47:30Z</time>
      </trkpt>
      <trkpt lat="42.927186" lon="-8.122861">
        <ele>365.868</ele>
        <time>2022-08-31T09:47:50Z</time>
      </trkpt>
      <trkpt lat="42.926722" lon="-8.123376">
        <ele>358.139</ele>
        <time>2022-08-31T09:48:10Z</time>
      </trkpt>
      <trkpt lat="42.926353" lon="-8.124073">
        <ele>351.644</ele>
        <time>2022-08-31T09:48:30Z</time>
      </trkpt>
      <trkpt lat="42.925202" lon="-8.130698">
        <ele>311.105</ele>
        <time>2022-08-31T09:48:50Z</time>
      </trkpt>
      <trkpt lat="42.925658" lon="-8.134067">
        <ele>313.815</ele>
        <time>2022-08-31T09:49:10Z</time>
      </trkpt>
      <trkpt lat="42.926000" lon="-8.134984">
        <ele>320.208</ele>
        <time>2022-08-31T09:49:30Z</time>
      </trkpt>
      <trkpt lat="42.927056" lon="-8.136411">
        <ele>331.220</ele>
        <time>2022-08-31T09:49:50Z</time>
      </trkpt>
      <trkpt lat="42.927799" lon="-8.136669">
        <ele>336.231</ele>
        <time>2022-08-31T09:50:10Z</time>
      </trkpt>
      <trkpt lat="42.928219" lon="-8.136556">
        <ele>338.786</ele>
        <time>2022-08-31T09:50:30Z</time>
      </trkpt>
      <trkpt lat="42.929450" lon="-8.135566">
        <ele>338.211</ele>
        <time>2022-08-31T09:50:50Z</time>
      </trkpt>
      <trkpt lat="42.930291" lon="-8.135414">
        <ele>342.937</ele>
        <time>2022-08-31T09:51:10Z</time>
      </trkpt>
      <trkpt lat="42.930794" lon="-8.135617">
        <ele>340.867</ele>
        <time>2022-08-31T09:51:30Z</time>
      </trkpt>
      <trkpt lat="42.931110" lon="-8.135947">
        <ele>342.619</ele>
        <time>2022-08-31T09:51:50Z</time>
      </trkpt>
      <trkpt lat="42.931428" lon="-8.136824">
        <ele>345.650</ele>
        <time>2022-08-31T09:52:10Z</time>
      </trkpt>
      <trkpt lat="42.931420" lon="-8.139351">
        <ele>357.118</ele>
        <time>2022-08-31T09:52:30Z</time>
      </trkpt>
      <trkpt lat="42.931167" lon="-8.140091">
        <ele>360.698</ele>
        <time>2022-08-31T09:52:50Z</time>
      </trkpt>
      <trkpt lat="42.930114" lon="-8.141652">
        <ele>374.717</ele>
        <time>2022-08-31T09:53:10Z</time>
      </trkpt>
      <trkpt lat="42.930038" lon="-8.141990">
        <ele>375.808</ele>
        <time>2022-08-31T09:53:30Z</time>
      </trkpt>
      <trkpt lat="42.930136" lon="-8.151598">
        <ele>386.577</ele>
        <time>2022-08-31T09:53:50Z</time>
      </trkpt>
      <trkpt lat="42.929853" lon="-8.153411">
        <ele>391.658</ele>
        <time>2022-08-31T09:54:10Z</time>
      </trkpt>
      <trkpt lat="42.927708" lon="-8.159355">
        <ele>394.593</ele>
        <time>2022-08-31T09:54:30Z</time>
      </trkpt>
      <trkpt lat="42.926640" lon="-8.162767">
        <ele>390.088</ele>
        <time>2022-08-31T09:54:50Z</time>
      </trkpt>
      <trkpt lat="42.927158" lon="-8.165680">
        <ele>376.754</ele>
        <time>2022-08-31T09:55:10Z</time>
      </trkpt>
      <trkpt lat="42.927893" lon="-8.166811">
        <ele>369.894</ele>
        <time>2022-08-31T09:55:30Z</time>
      </trkpt>
      <trkpt lat="42.928286" lon="-8.168721">
        <ele>359.996</ele>
        <time>2022-08-31T09:55:50Z</time>
      </trkpt>
      <trkpt lat="42.928521" lon="-8.168973">
        <ele>359.087</ele>
        <time>2022-08-31T09:56:10Z</time>
      </trkpt>
      <trkpt lat="42.929327" lon="-8.169054">
        <ele>353.655</ele>
        <time>2022-08-31T09:56:30Z</time>
      </trkpt>
      <trkpt lat="42.930120" lon="-8.169547">
        <ele>350.307</ele>
        <time>2022-08-31T09:56:50Z</time>
      </trkpt>
      <trkpt lat="42.930379" lon="-8.169982">
        <ele>347.717</ele>
        <time>2022-08-31T09:57:10Z</time>
      </trkpt>
      <trkpt lat="42.930281" lon="-8.170561">
        <ele>349.008</ele>
        <time>2022-08-31T09:57:30Z</time>
      </trkpt>
      <trkpt lat="42.928663" lon="-8.173646">
        <ele>354.431</ele>
        <time>2022-08-31T09:57:50Z</time>
      </trkpt>
      <trkpt lat="42.928085" lon="-8.176462">
        <ele>345.952</ele>
        <time>2022-08-31T09:58:10Z</time>
      </trkpt>
      <trkpt lat="42.928078" lon="-8.177138">
        <ele>343.347</ele>
        <time>2022-08-31T09:58:30Z</time>
      </trkpt>
      <trkpt lat="42.928427" lon="-8.178002">
        <ele>336.992</ele>
        <time>2022-08-31T09:58:50Z</time>
      </trkpt>
      <trkpt lat="42.928824" lon="-8.178356">
        <ele>334.738</ele>
        <time>2022-08-31T09:59:10Z</time>
      </trkpt>
      <trkpt lat="42.930034" lon="-8.178785">
        <ele>332.258</ele>
        <time>2022-08-31T09:59:30Z</time>
      </trkpt>
      <trkpt lat="42.930474" lon="-8.179343">
        <ele>326.410</ele>
        <time>2022-08-31T09:59:50Z</time>
      </trkpt>
      <trkpt lat="42.930584" lon="-8.180609">
        <ele>325.021</ele>
        <time>2022-08-31T10:00:10Z</time>
      </trkpt>
      <trkpt lat="42.930395" lon="-8.181199">
        <ele>330.818</ele>
        <time>2022-08-31T10:00:30Z</time>
      </trkpt>
      <trkpt lat="42.930073" lon="-8.181574">
        <ele>333.298</ele>
        <time>2022-08-31T10:00:50Z</time>
      </trkpt>
      <trkpt lat="42.928745" lon="-8.182561">
        <ele>329.517</ele>
        <time>2022-08-31T10:01:10Z</time>
      </trkpt>
      <trkpt lat="42.928180" lon="-8.183205">
        <ele>326.908</ele>
        <time>2022-08-31T10:01:30Z</time>
      </trkpt>
      <trkpt lat="42.927646" lon="-8.185608">
        <ele>322.517</ele>
        <time>2022-08-31T10:01:50Z</time>
      </trkpt>
      <trkpt lat="42.927151" lon="-8.186595">
        <ele>332.428</ele>
        <time>2022-08-31T10:02:10Z</time>
      </trkpt>
      <trkpt lat="42.926836" lon="-8.186939">
        <ele>334.233</ele>
        <time>2022-08-31T10:02:30Z</time>
      </trkpt>
      <trkpt lat="42.925988" lon="-8.187293">
        <ele>335.758</ele>
        <time>2022-08-31T10:02:50Z</time>
      </trkpt>
      <trkpt lat="42.924629" lon="-8.187808">
        <ele>347.854</ele>
        <time>2022-08-31T10:03:10Z</time>
      </trkpt>
      <trkpt lat="42.923466" lon="-8.187915">
        <ele>355.554</ele>
        <time>2022-08-31T10:03:30Z</time>
      </trkpt>
      <trkpt lat="42.923081" lon="-8.188237">
        <ele>355.836</ele>
        <time>2022-08-31T10:03:50Z</time>
      </trkpt>
      <trkpt lat="42.921109" lon="-8.191906">
        <ele>365.037</ele>
        <time>2022-08-31T10:04:10Z</time>
      </trkpt>
      <trkpt lat="42.921400" lon="-8.193505">
        <ele>360.418</ele>
        <time>2022-08-31T10:04:30Z</time>
      </trkpt>
      <trkpt lat="42.922680" lon="-8.196638">
        <ele>347.898</ele>
        <time>2022-08-31T10:04:50Z</time>
      </trkpt>
      <trkpt lat="42.923113" lon="-8.197517">
        <ele>345.617</ele>
        <time>2022-08-31T10:05:10Z</time>
      </trkpt>
      <trkpt lat="42.923780" lon="-8.198429">
        <ele>342.208</ele>
        <time>2022-08-31T10:05:30Z</time>
      </trkpt>
      <trkpt lat="42.923930" lon="-8.199127">
        <ele>337.047</ele>
        <time>2022-08-31T10:05:50Z</time>
      </trkpt>
      <trkpt lat="42.923945" lon="-8.199540">
        <ele>335.418</ele>
        <time>2022-08-31T10:06:10Z</time>
      </trkpt>
      <trkpt lat="42.923659" lon="-8.200398">
        <ele>337.833</ele>
        <time>2022-08-31T10:06:30Z</time>
      </trkpt>
      <trkpt lat="42.922735" lon="-8.201310">
        <ele>348.958</ele>
        <time>2022-08-31T10:06:50Z</time>
      </trkpt>
      <trkpt lat="42.922563" lon="-8.201825">
        <ele>354.274</ele>
        <time>2022-08-31T10:07:10Z</time>
      </trkpt>
      <trkpt lat="42.922142" lon="-8.202034">
        <ele>355.954</ele>
        <time>2022-08-31T10:07:30Z</time>
      </trkpt>
      <trkpt lat="42.921997" lon="-8.201895">
        <ele>353.336</ele>
        <time>2022-08-31T10:07:50Z</time>
      </trkpt>
      <trkpt lat="42.920803" lon="-8.203611">
        <ele>361.837</ele>
        <time>2022-08-31T10:08:10Z</time>
      </trkpt>
      <trkpt lat="42.920677" lon="-8.205001">
        <ele>365.716</ele>
        <time>2022-08-31T10:08:30Z</time>
      </trkpt>
      <trkpt lat="42.921836" lon="-8.208557">
        <ele>353.776</ele>
        <time>2022-08-31T10:08:50Z</time>
      </trkpt>
      <trkpt lat="42.921832" lon="-8.209797">
        <ele>356.813</ele>
        <time>2022-08-31T10:09:10Z</time>
      </trkpt>
      <trkpt lat="42.921624" lon="-8.210397">
        <ele>359.608</ele>
        <time>2022-08-31T10:09:30Z</time>
      </trkpt>
      <trkpt lat="42.919726" lon="-8.213530">
        <ele>371.757</ele>
        <time>2022-08-31T10:09:50Z</time>
      </trkpt>
      <trkpt lat="42.919616" lon="-8.214179">
        <ele>372.628</ele>
        <time>2022-08-31T10:10:10Z</time>
      </trkpt>
      <trkpt lat="42.919683" lon="-8.215193">
        <ele>375.783</ele>
        <time>2022-08-31T10:10:30Z</time>
      </trkpt>
      <trkpt lat="42.922578" lon="-8.220885">
        <ele>370.268</ele>
        <time>2022-08-31T10:10:50Z</time>
      </trkpt>
      <trkpt lat="42.922680" lon="-8.221346">
        <ele>372.874</ele>
        <time>2022-08-31T10:11:10Z</time>
      </trkpt>
      <trkpt lat="42.922531" lon="-8.225949">
        <ele>379.624</ele>
        <time>2022-08-31T10:11:30Z</time>
      </trkpt>
      <trkpt lat="42.921031" lon="-8.228867">
        <ele>386.176</ele>
        <time>2022-08-31T10:11:50Z</time>
      </trkpt>
      <trkpt lat="42.917856" lon="-8.238437">
        <ele>360.447</ele>
        <time>2022-08-31T10:12:10Z</time>
      </trkpt>
      <trkpt lat="42.917534" lon="-8.239017">
        <ele>358.836</ele>
        <time>2022-08-31T10:12:30Z</time>
      </trkpt>
      <trkpt lat="42.915908" lon="-8.239982">
        <ele>350.917</ele>
        <time>2022-08-31T10:12:50Z</time>
      </trkpt>
      <trkpt lat="42.915617" lon="-8.240368">
        <ele>348.618</ele>
        <time>2022-08-31T10:13:10Z</time>
      </trkpt>
      <trkpt lat="42.915444" lon="-8.240894">
        <ele>345.108</ele>
        <time>2022-08-31T10:13:30Z</time>
      </trkpt>
      <trkpt lat="42.915436" lon="-8.241924">
        <ele>343.199</ele>
        <time>2022-08-31T10:13:50Z</time>
      </trkpt>
      <trkpt lat="42.915845" lon="-8.243523">
        <ele>335.020</ele>
        <time>2022-08-31T10:14:10Z</time>
      </trkpt>
      <trkpt lat="42.915829" lon="-8.244649">
        <ele>336.255</ele>
        <time>2022-08-31T10:14:30Z</time>
      </trkpt>
      <trkpt lat="42.914266" lon="-8.247889">
        <ele>348.560</ele>
        <time>2022-08-31T10:14:50Z</time>
      </trkpt>
      <trkpt lat="42.913464" lon="-8.250840">
        <ele>347.966</ele>
        <time>2022-08-31T10:15:10Z</time>
      </trkpt>
      <trkpt lat="42.913480" lon="-8.251666">
        <ele>346.096</ele>
        <time>2022-08-31T10:15:30Z</time>
      </trkpt>
      <trkpt lat="42.913802" lon="-8.252395">
        <ele>343.198</ele>
        <time>2022-08-31T10:15:50Z</time>
      </trkpt>
      <trkpt lat="42.915821" lon="-8.255196">
        <ele>344.259</ele>
        <time>2022-08-31T10:16:10Z</time>
      </trkpt>
      <trkpt lat="42.917228" lon="-8.257449">
        <ele>345.077</ele>
        <time>2022-08-31T10:16:30Z</time>
      </trkpt>
      <trkpt lat="42.918689" lon="-8.260324">
        <ele>353.361</ele>
        <time>2022-08-31T10:16:50Z</time>
      </trkpt>
      <trkpt lat="42.921840" lon="-8.265163">
        <ele>357.527</ele>
        <time>2022-08-31T10:17:10Z</time>
      </trkpt>
      <trkpt lat="42.922445" lon="-8.266654">
        <ele>354.608</ele>
        <time>2022-08-31T10:17:30Z</time>
      </trkpt>
      <trkpt lat="42.922955" lon="-8.268660">
        <ele>361.813</ele>
        <time>2022-08-31T10:17:50Z</time>
      </trkpt>
      <trkpt lat="42.924841" lon="-8.273016">
        <ele>368.774</ele>
        <time>2022-08-31T10:18:10Z</time>
      </trkpt>
      <trkpt lat="42.925964" lon="-8.276353">
        <ele>364.079</ele>
        <time>2022-08-31T10:18:30Z</time>
      </trkpt>
      <trkpt lat="42.926381" lon="-8.280349">
        <ele>361.294</ele>
        <time>2022-08-31T10:18:50Z</time>
      </trkpt>
      <trkpt lat="42.925752" lon="-8.282307">
        <ele>366.360</ele>
        <time>2022-08-31T10:19:10Z</time>
      </trkpt>
      <trkpt lat="42.925399" lon="-8.282940">
        <ele>369.610</ele>
        <time>2022-08-31T10:19:30Z</time>
      </trkpt>
      <trkpt lat="42.924008" lon="-8.284421">
        <ele>373.352</ele>
        <time>2022-08-31T10:19:50Z</time>
      </trkpt>
      <trkpt lat="42.923647" lon="-8.285387">
        <ele>377.713</ele>
        <time>2022-08-31T10:20:10Z</time>
      </trkpt>
      <trkpt lat="42.923639" lon="-8.285902">
        <ele>378.221</ele>
        <time>2022-08-31T10:20:30Z</time>
      </trkpt>
      <trkpt lat="42.924409" lon="-8.288552">
        <ele>383.341</ele>
        <time>2022-08-31T10:20:50Z</time>
      </trkpt>
      <trkpt lat="42.924432" lon="-8.289034">
        <ele>385.805</ele>
        <time>2022-08-31T10:21:10Z</time>
      </trkpt>
      <trkpt lat="42.922492" lon="-8.296094">
        <ele>392.008</ele>
        <time>2022-08-31T10:21:30Z</time>
      </trkpt>
      <trkpt lat="42.922209" lon="-8.296866">
        <ele>389.668</ele>
        <time>2022-08-31T10:21:50Z</time>
      </trkpt>
      <trkpt lat="42.921227" lon="-8.298476">
        <ele>379.219</ele>
        <time>2022-08-31T10:22:10Z</time>
      </trkpt>
      <trkpt lat="42.918807" lon="-8.301426">
        <ele>376.484</ele>
        <time>2022-08-31T10:22:30Z</time>
      </trkpt>
      <trkpt lat="42.918289" lon="-8.302606">
        <ele>373.639</ele>
        <time>2022-08-31T10:22:50Z</time>
      </trkpt>
      <trkpt lat="42.916819" lon="-8.316565">
        <ele>381.745</ele>
        <time>2022-08-31T10:23:10Z</time>
      </trkpt>
      <trkpt lat="42.916646" lon="-8.317659">
        <ele>385.525</ele>
        <time>2022-08-31T10:23:30Z</time>
      </trkpt>
      <trkpt lat="42.915680" lon="-8.320470">
        <ele>406.027</ele>
        <time>2022-08-31T10:23:50Z</time>
      </trkpt>
      <trkpt lat="42.915413" lon="-8.321725">
        <ele>402.038</ele>
        <time>2022-08-31T10:24:10Z</time>
      </trkpt>
      <trkpt lat="42.915334" lon="-8.322895">
        <ele>404.811</ele>
        <time>2022-08-31T10:24:30Z</time>
      </trkpt>
      <trkpt lat="42.915531" lon="-8.324118">
        <ele>407.821</ele>
        <time>2022-08-31T10:24:50Z</time>
      </trkpt>
      <trkpt lat="42.917110" lon="-8.329171">
        <ele>381.603</ele>
        <time>2022-08-31T10:25:10Z</time>
      </trkpt>
      <trkpt lat="42.918202" lon="-8.335758">
        <ele>357.408</ele>
        <time>2022-08-31T10:25:30Z</time>
      </trkpt>
      <trkpt lat="42.918414" lon="-8.338001">
        <ele>346.537</ele>
        <time>2022-08-31T10:25:50Z</time>
      </trkpt>
      <trkpt lat="42.918210" lon="-8.339299">
        <ele>347.358</ele>
        <time>2022-08-31T10:26:10Z</time>
      </trkpt>
      <trkpt lat="42.916764" lon="-8.341413">
        <ele>342.533</ele>
        <time>2022-08-31T10:26:30Z</time>
      </trkpt>
      <trkpt lat="42.916576" lon="-8.342185">
        <ele>340.668</ele>
        <time>2022-08-31T10:26:50Z</time>
      </trkpt>
      <trkpt lat="42.916481" lon="-8.344299">
        <ele>320.484</ele>
        <time>2022-08-31T10:27:10Z</time>
      </trkpt>
      <trkpt lat="42.917086" lon="-8.348869">
        <ele>300.734</ele>
        <time>2022-08-31T10:27:30Z</time>
      </trkpt>
      <trkpt lat="42.917031" lon="-8.349448">
        <ele>291.326</ele>
        <time>2022-08-31T10:27:50Z</time>
      </trkpt>
      <trkpt lat="42.916780" lon="-8.350393">
        <ele>283.987</ele>
        <time>2022-08-31T10:28:10Z</time>
      </trkpt>
      <trkpt lat="42.915004" lon="-8.354834">
        <ele>264.898</ele>
        <time>2022-08-31T10:28:30Z</time>
      </trkpt>
      <trkpt lat="42.914175" lon="-8.356470">
        <ele>259.015</ele>
        <time>2022-08-31T10:28:50Z</time>
      </trkpt>
      <trkpt lat="42.913028" lon="-8.357275">
        <ele>259.226</ele>
        <time>2022-08-31T10:29:10Z</time>
      </trkpt>
      <trkpt lat="42.907249" lon="-8.359244">
        <ele>277.808</ele>
        <time>2022-08-31T10:29:30Z</time>
      </trkpt>
      <trkpt lat="42.906416" lon="-8.359845">
        <ele>278.715</ele>
        <time>2022-08-31T10:29:50Z</time>
      </trkpt>
      <trkpt lat="42.904985" lon="-8.361733">
        <ele>284.146</ele>
        <time>2022-08-31T10:30:10Z</time>
      </trkpt>
      <trkpt lat="42.904294" lon="-8.363407">
        <ele>282.541</ele>
        <time>2022-08-31T10:30:30Z</time>
      </trkpt>
      <trkpt lat="42.903634" lon="-8.369350">
        <ele>271.856</ele>
        <time>2022-08-31T10:30:50Z</time>
      </trkpt>
      <trkpt lat="42.903838" lon="-8.370295">
        <ele>268.572</ele>
        <time>2022-08-31T10:31:10Z</time>
      </trkpt>
      <trkpt lat="42.903681" lon="-8.371518">
        <ele>262.612</ele>
        <time>2022-08-31T10:31:30Z</time>
      </trkpt>
      <trkpt lat="42.899963" lon="-8.379897">
        <ele>271.644</ele>
        <time>2022-08-31T10:31:50Z</time>
      </trkpt>
      <trkpt lat="42.899814" lon="-8.380519">
        <ele>269.985</ele>
        <time>2022-08-31T10:32:10Z</time>
      </trkpt>
      <trkpt lat="42.899830" lon="-8.381367">
        <ele>270.048</ele>
        <time>2022-08-31T10:32:30Z</time>
      </trkpt>
      <trkpt lat="42.900097" lon="-8.382450">
        <ele>268.261</ele>
        <time>2022-08-31T10:32:50Z</time>
      </trkpt>
      <trkpt lat="42.901598" lon="-8.387783">
        <ele>264.717</ele>
        <time>2022-08-31T10:33:10Z</time>
      </trkpt>
      <trkpt lat="42.902140" lon="-8.389231">
        <ele>261.408</ele>
        <time>2022-08-31T10:33:30Z</time>
      </trkpt>
      <trkpt lat="42.905032" lon="-8.393480">
        <ele>245.630</ele>
        <time>2022-08-31T10:33:50Z</time>
      </trkpt>
      <trkpt lat="42.905347" lon="-8.393716">
        <ele>248.091</ele>
        <time>2022-08-31T10:34:10Z</time>
      </trkpt>
      <trkpt lat="42.906431" lon="-8.394080">
        <ele>253.246</ele>
        <time>2022-08-31T10:34:30Z</time>
      </trkpt>
      <trkpt lat="42.906793" lon="-8.394392">
        <ele>254.421</ele>
        <time>2022-08-31T10:34:50Z</time>
      </trkpt>
      <trkpt lat="42.907445" lon="-8.395743">
        <ele>259.177</ele>
        <time>2022-08-31T10:35:10Z</time>
      </trkpt>
      <trkpt lat="42.908467" lon="-8.398801">
        <ele>275.397</ele>
        <time>2022-08-31T10:35:30Z</time>
      </trkpt>
      <trkpt lat="42.908553" lon="-8.399434">
        <ele>278.739</ele>
        <time>2022-08-31T10:35:50Z</time>
      </trkpt>
      <trkpt lat="42.908184" lon="-8.403865">
        <ele>294.580</ele>
        <time>2022-08-31T10:36:10Z</time>
      </trkpt>
      <trkpt lat="42.908192" lon="-8.404520">
        <ele>301.572</ele>
        <time>2022-08-31T10:36:30Z</time>
      </trkpt>
      <trkpt lat="42.908498" lon="-8.405174">
        <ele>301.713</ele>
        <time>2022-08-31T10:36:50Z</time>
      </trkpt>
      <trkpt lat="42.908946" lon="-8.405678">
        <ele>304.114</ele>
        <time>2022-08-31T10:37:10Z</time>
      </trkpt>
      <trkpt lat="42.911767" lon="-8.406617">
        <ele>318.608</ele>
        <time>2022-08-31T10:37:30Z</time>
      </trkpt>
      <trkpt lat="42.912238" lon="-8.406569">
        <ele>316.913</ele>
        <time>2022-08-31T10:37:50Z</time>
      </trkpt>
      <trkpt lat="42.912366" lon="-8.406676">
        <ele>318.184</ele>
        <time>2022-08-31T10:38:10Z</time>
      </trkpt>
      <trkpt lat="42.912431" lon="-8.406917">
        <ele>320.779</ele>
        <time>2022-08-31T10:38:30Z</time>
      </trkpt>
      <trkpt lat="42.912244" lon="-8.407387">
        <ele>323.294</ele>
        <time>2022-08-31T10:38:50Z</time>
      </trkpt>
      <trkpt lat="42.912722" lon="-8.408685">
        <ele>330.140</ele>
        <time>2022-08-31T10:39:10Z</time>
      </trkpt>
      <trkpt lat="42.913456" lon="-8.409624">
        <ele>336.470</ele>
        <time>2022-08-31T10:39:30Z</time>
      </trkpt>
      <trkpt lat="42.914419" lon="-8.410466">
        <ele>349.222</ele>
        <time>2022-08-31T10:39:50Z</time>
      </trkpt>
      <trkpt lat="42.913790" lon="-8.414020">
        <ele>362.493</ele>
        <time>2022-08-31T10:40:10Z</time>
      </trkpt>
      <trkpt lat="42.913767" lon="-8.420186">
        <ele>341.657</ele>
        <time>2022-08-31T10:40:30Z</time>
      </trkpt>
      <trkpt lat="42.913549" lon="-8.420999">
        <ele>337.300</ele>
        <time>2022-08-31T10:40:50Z</time>
      </trkpt>
      <trkpt lat="42.913627" lon="-8.422109">
        <ele>333.020</ele>
        <time>2022-08-31T10:41:10Z</time>
      </trkpt>
      <trkpt lat="42.912987" lon="-8.423496">
        <ele>329.408</ele>
        <time>2022-08-31T10:41:30Z</time>
      </trkpt>
      <trkpt lat="42.912313" lon="-8.424086">
        <ele>330.851</ele>
        <time>2022-08-31T10:41:50Z</time>
      </trkpt>
      <trkpt lat="42.911616" lon="-8.424314">
        <ele>336.542</ele>
        <time>2022-08-31T10:42:10Z</time>
      </trkpt>
      <trkpt lat="42.910855" lon="-8.424236">
        <ele>340.157</ele>
        <time>2022-08-31T10:42:30Z</time>
      </trkpt>
      <trkpt lat="42.905402" lon="-8.422222">
        <ele>342.042</ele>
        <time>2022-08-31T10:42:50Z</time>
      </trkpt>
      <trkpt lat="42.904325" lon="-8.422179">
        <ele>346.938</ele>
        <time>2022-08-31T10:43:10Z</time>
      </trkpt>
      <trkpt lat="42.903076" lon="-8.422828">
        <ele>355.148</ele>
        <time>2022-08-31T10:43:30Z</time>
      </trkpt>
      <trkpt lat="42.901751" lon="-8.423829">
        <ele>355.320</ele>
        <time>2022-08-31T10:43:50Z</time>
      </trkpt>
      <trkpt lat="42.901582" lon="-8.424325">
        <ele>354.171</ele>
        <time>2022-08-31T10:44:10Z</time>
      </trkpt>
      <trkpt lat="42.901174" lon="-8.424789">
        <ele>352.843</ele>
        <time>2022-08-31T10:44:30Z</time>
      </trkpt>
      <trkpt lat="42.900887" lon="-8.427485">
        <ele>346.864</ele>
        <time>2022-08-31T10:44:50Z</time>
      </trkpt>
      <trkpt lat="42.900409" lon="-8.435266">
        <ele>322.610</ele>
        <time>2022-08-31T10:45:10Z</time>
      </trkpt>
      <trkpt lat="42.899191" lon="-8.443830">
        <ele>300.808</ele>
        <time>2022-08-31T10:45:30Z</time>
      </trkpt>
      <trkpt lat="42.899242" lon="-8.446595">
        <ele>296.280</ele>
        <time>2022-08-31T10:45:50Z</time>
      </trkpt>
      <trkpt lat="42.899686" lon="-8.448460">
        <ele>288.061</ele>
        <time>2022-08-31T10:46:10Z</time>
      </trkpt>
      <trkpt lat="42.899816" lon="-8.450871">
        <ele>299.176</ele>
        <time>2022-08-31T10:46:30Z</time>
      </trkpt>
      <trkpt lat="42.899621" lon="-8.458172">
        <ele>317.711</ele>
        <time>2022-08-31T10:46:50Z</time>
      </trkpt>
      <trkpt lat="42.898926" lon="-8.461211">
        <ele>317.087</ele>
        <time>2022-08-31T10:47:10Z</time>
      </trkpt>
      <trkpt lat="42.899327" lon="-8.463839">
        <ele>319.667</ele>
        <time>2022-08-31T10:47:30Z</time>
      </trkpt>
      <trkpt lat="42.899280" lon="-8.464451">
        <ele>321.629</ele>
        <time>2022-08-31T10:47:50Z</time>
      </trkpt>
      <trkpt lat="42.898914" lon="-8.465411">
        <ele>329.950</ele>
        <time>2022-08-31T10:48:10Z</time>
      </trkpt>
      <trkpt lat="42.898596" lon="-8.465770">
        <ele>336.221</ele>
        <time>2022-08-31T10:48:30Z</time>
      </trkpt>
      <trkpt lat="42.897209" lon="-8.466564">
        <ele>340.841</ele>
        <time>2022-08-31T10:48:50Z</time>
      </trkpt>
      <trkpt lat="42.896662" lon="-8.467358">
        <ele>340.105</ele>
        <time>2022-08-31T10:49:10Z</time>
      </trkpt>
      <trkpt lat="42.896513" lon="-8.470561">
        <ele>354.208</ele>
        <time>2022-08-31T10:49:30Z</time>
      </trkpt>
      <trkpt lat="42.895358" lon="-8.473173">
        <ele>356.718</ele>
        <time>2022-08-31T10:49:50Z</time>
      </trkpt>
      <trkpt lat="42.894108" lon="-8.476709">
        <ele>369.389</ele>
        <time>2022-08-31T10:50:10Z</time>
      </trkpt>
      <trkpt lat="42.893858" lon="-8.479332">
        <ele>371.664</ele>
        <time>2022-08-31T10:50:30Z</time>
      </trkpt>
      <trkpt lat="42.892546" lon="-8.486485">
        <ele>361.159</ele>
        <time>2022-08-31T10:50:50Z</time>
      </trkpt>
      <trkpt lat="42.892398" lon="-8.488942">
        <ele>359.295</ele>
        <time>2022-08-31T10:51:10Z</time>
      </trkpt>
      <trkpt lat="42.892245" lon="-8.488593">
        <ele>359.935</ele>
        <time>2022-08-31T10:51:30Z</time>
      </trkpt>
      <trkpt lat="42.891502" lon="-8.487786">
        <ele>361.277</ele>
        <time>2022-08-31T10:51:50Z</time>
      </trkpt>
      <trkpt lat="42.890820" lon="-8.491214">
        <ele>366.098</ele>
        <time>2022-08-31T10:52:10Z</time>
      </trkpt>
      <trkpt lat="42.888631" lon="-8.497187">
        <ele>353.385</ele>
        <time>2022-08-31T10:52:30Z</time>
      </trkpt>
      <trkpt lat="42.887826" lon="-8.500008">
        <ele>331.389</ele>
        <time>2022-08-31T10:52:50Z</time>
      </trkpt>
      <trkpt lat="42.888024" lon="-8.501803">
        <ele>310.317</ele>
        <time>2022-08-31T10:53:10Z</time>
      </trkpt>
      <trkpt lat="42.887297" lon="-8.504394">
        <ele>296.608</ele>
        <time>2022-08-31T10:53:30Z</time>
      </trkpt>
      <trkpt lat="42.887000" lon="-8.504797">
        <ele>292.154</ele>
        <time>2022-08-31T10:53:50Z</time>
      </trkpt>
      <trkpt lat="42.886819" lon="-8.505373">
        <ele>286.815</ele>
        <time>2022-08-31T10:54:10Z</time>
      </trkpt>
      <trkpt lat="42.886629" lon="-8.507401">
        <ele>272.710</ele>
        <time>2022-08-31T10:54:30Z</time>
      </trkpt>
      <trkpt lat="42.886554" lon="-8.509979">
        <ele>275.895</ele>
        <time>2022-08-31T10:54:50Z</time>
      </trkpt>
      <trkpt lat="42.886819" lon="-8.510743">
        <ele>272.351</ele>
        <time>2022-08-31T10:55:10Z</time>
      </trkpt>
      <trkpt lat="42.886530" lon="-8.511395">
        <ele>276.591</ele>
        <time>2022-08-31T10:55:30Z</time>
      </trkpt>
      <trkpt lat="42.886467" lon="-8.512580">
        <ele>277.713</ele>
        <time>2022-08-31T10:55:50Z</time>
      </trkpt>
      <trkpt lat="42.886632" lon="-8.513010">
        <ele>277.044</ele>
        <time>2022-08-31T10:56:10Z</time>
      </trkpt>
      <trkpt lat="42.886499" lon="-8.513181">
        <ele>277.568</ele>
        <time>2022-08-31T10:56:30Z</time>
      </trkpt>
      <trkpt lat="42.886389" lon="-8.514898">
        <ele>283.442</ele>
        <time>2022-08-31T10:56:50Z</time>
      </trkpt>
      <trkpt lat="42.886978" lon="-8.521217">
        <ele>290.826</ele>
        <time>2022-08-31T10:57:10Z</time>
      </trkpt>
      <trkpt lat="42.886515" lon="-8.521528">
        <ele>282.908</ele>
        <time>2022-08-31T10:57:30Z</time>
      </trkpt>
      <trkpt lat="42.882120" lon="-8.525927">
        <ele>250.272</ele>
        <time>2022-08-31T10:57:50Z</time>
      </trkpt>
      <trkpt lat="42.884026" lon="-8.532075">
        <ele>264.483</ele>
        <time>2022-08-31T10:58:10Z</time>
      </trkpt>
      <trkpt lat="42.884498" lon="-8.533249">
        <ele>269.558</ele>
        <time>2022-08-31T10:58:30Z</time>
      </trkpt>
      <trkpt lat="42.884695" lon="-8.533346">
        <ele>272.173</ele>
        <time>2022-08-31T10:58:50Z</time>
      </trkpt>
      <trkpt lat="42.884706" lon="-8.533882">
        <ele>282.719</ele>
        <time>2022-08-31T10:59:10Z</time>
      </trkpt>
      <trkpt lat="42.884219" lon="-8.534419">
        <ele>283.499</ele>
        <time>2022-08-31T10:59:30Z</time>
      </trkpt>
      <trkpt lat="42.882887" lon="-8.534955">
        <ele>286.641</ele>
        <time>2022-08-31T10:59:50Z</time>
      </trkpt>
      <trkpt lat="42.882517" lon="-8.535342">
        <ele>288.482</ele>
        <time>2022-08-31T11:00:10Z</time>
      </trkpt>
      <trkpt lat="42.882144" lon="-8.536398">
        <ele>285.228</ele>
        <time>2022-08-31T11:00:30Z</time>
      </trkpt>
      <trkpt lat="42.881931" lon="-8.537654">
        <ele>281.289</ele>
        <time>2022-08-31T11:00:50Z</time>
      </trkpt>
      <trkpt lat="42.881892" lon="-8.538533">
        <ele>274.117</ele>
        <time>2022-08-31T11:01:10Z</time>
      </trkpt>
      <trkpt lat="42.882183" lon="-8.539606">
        <ele>272.108</ele>
        <time>2022-08-31T11:01:30Z</time>
      </trkpt>
      <trkpt lat="42.882136" lon="-8.539917">
        <ele>268.838</ele>
        <time>2022-08-31T11:01:50Z</time>
      </trkpt>
      <trkpt lat="42.881865" lon="-8.540411">
        <ele>269.819</ele>
        <time>2022-08-31T11:02:10Z</time>
      </trkpt>
      <trkpt lat="42.881660" lon="-8.541586">
        <ele>279.194</ele>
        <time>2022-08-31T11:02:30Z</time>
      </trkpt>
      <trkpt lat="42.881377" lon="-8.542283">
        <ele>278.979</ele>
        <time>2022-08-31T11:02:50Z</time>
      </trkpt>
      <trkpt lat="42.881181" lon="-8.542358">
        <ele>277.555</ele>
        <time>2022-08-31T11:03:10Z</time>
      </trkpt>
      <trkpt lat="42.881240" lon="-8.543340">
        <ele>277.425</ele>
        <time>2022-08-31T11:03:30Z</time>
      </trkpt>
      <trkpt lat="42.880874" lon="-8.543469">
        <ele>272.987</ele>
        <time>2022-08-31T11:03:50Z</time>
      </trkpt>
      <trkpt lat="42.880532" lon="-8.544499">
        <ele>264.998</ele>
        <time>2022-08-31T11:04:10Z</time>
      </trkpt>
    </trkseg>
  </trk>
</gpx>
